<?xml version="1.0" encoding="UTF-8" standalone="no" ?>
<gpx xmlns="http://www.topografix.com/GPX/1/1" xmlns:xsi="http://www.w3.org/2001/XMLSchema-instance" xsi:schemaLocation="http://www.topografix.com/GPX/1/1 http://www.topografix.com/GPX/1/1/gpx.xsd" version="1.1" creator="VisuGPX - https://www.visugpx.com">
  <metadata>
    <name>Norvège</name>
  </metadata>
  <trk>
    <name><![CDATA[Tour d'Europe: étape 059]]></name>
    <trkseg>
      <trkpt lat="69.63635" lon="18.0044">
        <ele>40.670759</ele>
        <time>2020-08-26T10:01:00.839Z</time>
      </trkpt>
      <trkpt lat="69.63627" lon="18.00448">
        <ele>40.670759</ele>
        <time>2020-08-26T10:01:04.834Z</time>
      </trkpt>
      <trkpt lat="69.63616" lon="18.00447">
        <ele>40.670759</ele>
        <time>2020-08-26T10:01:08.837Z</time>
      </trkpt>
      <trkpt lat="69.63605" lon="18.00452">
        <ele>40.670759</ele>
        <time>2020-08-26T10:01:12.868Z</time>
      </trkpt>
      <trkpt lat="69.63598" lon="18.00471">
        <ele>40.670759</ele>
        <time>2020-08-26T10:01:16.833Z</time>
      </trkpt>
      <trkpt lat="69.63601" lon="18.00501">
        <ele>40.670759</ele>
        <time>2020-08-26T10:01:19.825Z</time>
      </trkpt>
      <trkpt lat="69.63607" lon="18.00533">
        <ele>40.670759</ele>
        <time>2020-08-26T10:01:22.851Z</time>
      </trkpt>
      <trkpt lat="69.63612" lon="18.00565">
        <ele>40.670759</ele>
        <time>2020-08-26T10:01:25.819Z</time>
      </trkpt>
      <trkpt lat="69.63618" lon="18.00592">
        <ele>40.670759</ele>
        <time>2020-08-26T10:01:28.834Z</time>
      </trkpt>
      <trkpt lat="69.63622" lon="18.00618">
        <ele>40.766236</ele>
        <time>2020-08-26T10:01:31.808Z</time>
      </trkpt>
      <trkpt lat="69.63627" lon="18.00649">
        <ele>40.911183</ele>
        <time>2020-08-26T10:01:34.851Z</time>
      </trkpt>
      <trkpt lat="69.6363" lon="18.0068">
        <ele>41.055056</ele>
        <time>2020-08-26T10:01:37.806Z</time>
      </trkpt>
      <trkpt lat="69.63632" lon="18.00712">
        <ele>41.200578</ele>
        <time>2020-08-26T10:01:40.853Z</time>
      </trkpt>
      <trkpt lat="69.63633" lon="18.00744">
        <ele>41.341459</ele>
        <time>2020-08-26T10:01:43.822Z</time>
      </trkpt>
      <trkpt lat="69.63632" lon="18.00776">
        <ele>41.484297</ele>
        <time>2020-08-26T10:01:46.802Z</time>
      </trkpt>
      <trkpt lat="69.63632" lon="18.0081">
        <ele>41.630103</ele>
        <time>2020-08-26T10:01:49.818Z</time>
      </trkpt>
      <trkpt lat="69.63631" lon="18.00842">
        <ele>41.77455</ele>
        <time>2020-08-26T10:01:52.836Z</time>
      </trkpt>
      <trkpt lat="69.6363" lon="18.00874">
        <ele>41.915224</ele>
        <time>2020-08-26T10:01:55.813Z</time>
      </trkpt>
      <trkpt lat="69.63627" lon="18.00904">
        <ele>42.053039</ele>
        <time>2020-08-26T10:01:58.830Z</time>
      </trkpt>
      <trkpt lat="69.63623" lon="18.00938">
        <ele>42.208971</ele>
        <time>2020-08-26T10:02:01.831Z</time>
      </trkpt>
      <trkpt lat="69.63618" lon="18.0097">
        <ele>42.365305</ele>
        <time>2020-08-26T10:02:04.830Z</time>
      </trkpt>
      <trkpt lat="69.63611" lon="18.00998">
        <ele>42.515651</ele>
        <time>2020-08-26T10:02:07.820Z</time>
      </trkpt>
      <trkpt lat="69.63605" lon="18.01023">
        <ele>42.648987</ele>
        <time>2020-08-26T10:02:10.814Z</time>
      </trkpt>
      <trkpt lat="69.63599" lon="18.01047">
        <ele>42.78016</ele>
        <time>2020-08-26T10:02:13.797Z</time>
      </trkpt>
      <trkpt lat="69.63592" lon="18.0107">
        <ele>42.910867</ele>
        <time>2020-08-26T10:02:16.821Z</time>
      </trkpt>
      <trkpt lat="69.63584" lon="18.01092">
        <ele>42.8474</ele>
        <time>2020-08-26T10:02:19.807Z</time>
      </trkpt>
      <trkpt lat="69.63576" lon="18.01114">
        <ele>42.716661</ele>
        <time>2020-08-26T10:02:22.820Z</time>
      </trkpt>
      <trkpt lat="69.63567" lon="18.01135">
        <ele>42.57809</ele>
        <time>2020-08-26T10:02:25.825Z</time>
      </trkpt>
      <trkpt lat="69.63556" lon="18.01154">
        <ele>42.426114</ele>
        <time>2020-08-26T10:02:28.798Z</time>
      </trkpt>
      <trkpt lat="69.63548" lon="18.01166">
        <ele>42.315103</ele>
        <time>2020-08-26T10:02:30.833Z</time>
      </trkpt>
      <trkpt lat="69.63539" lon="18.01179">
        <ele>42.19446</ele>
        <time>2020-08-26T10:02:32.830Z</time>
      </trkpt>
      <trkpt lat="69.63529" lon="18.01192">
        <ele>42.059485</ele>
        <time>2020-08-26T10:02:34.814Z</time>
      </trkpt>
      <trkpt lat="69.63518" lon="18.01207">
        <ele>41.917187</ele>
        <time>2020-08-26T10:02:36.842Z</time>
      </trkpt>
      <trkpt lat="69.63507" lon="18.01222">
        <ele>41.772188</ele>
        <time>2020-08-26T10:02:38.808Z</time>
      </trkpt>
      <trkpt lat="69.63495" lon="18.01239">
        <ele>41.618248</ele>
        <time>2020-08-26T10:02:40.810Z</time>
      </trkpt>
      <trkpt lat="69.63484" lon="18.01255">
        <ele>41.46879</ele>
        <time>2020-08-26T10:02:42.798Z</time>
      </trkpt>
      <trkpt lat="69.63473" lon="18.01271">
        <ele>41.324388</ele>
        <time>2020-08-26T10:02:44.810Z</time>
      </trkpt>
      <trkpt lat="69.63464" lon="18.01289">
        <ele>41.188955</ele>
        <time>2020-08-26T10:02:46.810Z</time>
      </trkpt>
      <trkpt lat="69.63456" lon="18.01309">
        <ele>41.059321</ele>
        <time>2020-08-26T10:02:48.809Z</time>
      </trkpt>
      <trkpt lat="69.63448" lon="18.01328">
        <ele>40.941481</ele>
        <time>2020-08-26T10:02:50.837Z</time>
      </trkpt>
      <trkpt lat="69.63441" lon="18.01347">
        <ele>40.829108</ele>
        <time>2020-08-26T10:02:52.811Z</time>
      </trkpt>
      <trkpt lat="69.63433" lon="18.01372">
        <ele>40.784391</ele>
        <time>2020-08-26T10:02:55.836Z</time>
      </trkpt>
      <trkpt lat="69.63425" lon="18.01395">
        <ele>40.762767</ele>
        <time>2020-08-26T10:02:58.807Z</time>
      </trkpt>
      <trkpt lat="69.63417" lon="18.01417">
        <ele>40.741216</ele>
        <time>2020-08-26T10:03:01.842Z</time>
      </trkpt>
      <trkpt lat="69.63411" lon="18.01441">
        <ele>40.72046</ele>
        <time>2020-08-26T10:03:04.820Z</time>
      </trkpt>
      <trkpt lat="69.63405" lon="18.01466">
        <ele>40.699389</ele>
        <time>2020-08-26T10:03:07.833Z</time>
      </trkpt>
      <trkpt lat="69.63399" lon="18.0149">
        <ele>40.678892</ele>
        <time>2020-08-26T10:03:10.812Z</time>
      </trkpt>
      <trkpt lat="69.63393" lon="18.01517">
        <ele>40.65721</ele>
        <time>2020-08-26T10:03:13.818Z</time>
      </trkpt>
      <trkpt lat="69.63388" lon="18.01549">
        <ele>40.633189</ele>
        <time>2020-08-26T10:03:16.847Z</time>
      </trkpt>
      <trkpt lat="69.63382" lon="18.01582">
        <ele>40.607985</ele>
        <time>2020-08-26T10:03:19.826Z</time>
      </trkpt>
      <trkpt lat="69.63378" lon="18.01606">
        <ele>40.589642</ele>
        <time>2020-08-26T10:03:21.815Z</time>
      </trkpt>
      <trkpt lat="69.63374" lon="18.01633">
        <ele>40.569762</ele>
        <time>2020-08-26T10:03:23.820Z</time>
      </trkpt>
      <trkpt lat="69.6337" lon="18.01662">
        <ele>40.548136</ele>
        <time>2020-08-26T10:03:25.816Z</time>
      </trkpt>
      <trkpt lat="69.63366" lon="18.01693">
        <ele>40.524858</ele>
        <time>2020-08-26T10:03:27.807Z</time>
      </trkpt>
      <trkpt lat="69.63361" lon="18.01727">
        <ele>40.500205</ele>
        <time>2020-08-26T10:03:29.817Z</time>
      </trkpt>
      <trkpt lat="69.63356" lon="18.01762">
        <ele>40.474523</ele>
        <time>2020-08-26T10:03:31.836Z</time>
      </trkpt>
      <trkpt lat="69.6335" lon="18.01797">
        <ele>40.419045</ele>
        <time>2020-08-26T10:03:33.810Z</time>
      </trkpt>
      <trkpt lat="69.63344" lon="18.01834">
        <ele>40.045321</ele>
        <time>2020-08-26T10:03:35.852Z</time>
      </trkpt>
      <trkpt lat="69.63338" lon="18.01871">
        <ele>39.675987</ele>
        <time>2020-08-26T10:03:37.847Z</time>
      </trkpt>
      <trkpt lat="69.63333" lon="18.01909">
        <ele>39.299087</ele>
        <time>2020-08-26T10:03:39.832Z</time>
      </trkpt>
      <trkpt lat="69.63327" lon="18.01948">
        <ele>38.919685</ele>
        <time>2020-08-26T10:03:41.802Z</time>
      </trkpt>
      <trkpt lat="69.63321" lon="18.01985">
        <ele>38.55131</ele>
        <time>2020-08-26T10:03:43.829Z</time>
      </trkpt>
      <trkpt lat="69.63316" lon="18.02021">
        <ele>38.197854</ele>
        <time>2020-08-26T10:03:45.818Z</time>
      </trkpt>
      <trkpt lat="69.63311" lon="18.02056">
        <ele>37.85935</ele>
        <time>2020-08-26T10:03:47.800Z</time>
      </trkpt>
      <trkpt lat="69.63307" lon="18.0209">
        <ele>37.534649</ele>
        <time>2020-08-26T10:03:49.820Z</time>
      </trkpt>
      <trkpt lat="69.63302" lon="18.02121">
        <ele>37.22302</ele>
        <time>2020-08-26T10:03:51.820Z</time>
      </trkpt>
      <trkpt lat="69.63298" lon="18.02152">
        <ele>36.917217</ele>
        <time>2020-08-26T10:03:53.800Z</time>
      </trkpt>
      <trkpt lat="69.63293" lon="18.02183">
        <ele>36.61367</ele>
        <time>2020-08-26T10:03:55.836Z</time>
      </trkpt>
      <trkpt lat="69.63288" lon="18.02212">
        <ele>36.317539</ele>
        <time>2020-08-26T10:03:57.812Z</time>
      </trkpt>
      <trkpt lat="69.63283" lon="18.02241">
        <ele>36.027968</ele>
        <time>2020-08-26T10:03:59.830Z</time>
      </trkpt>
      <trkpt lat="69.63279" lon="18.02269">
        <ele>35.769613</ele>
        <time>2020-08-26T10:04:01.817Z</time>
      </trkpt>
      <trkpt lat="69.63275" lon="18.02296">
        <ele>35.879783</ele>
        <time>2020-08-26T10:04:03.809Z</time>
      </trkpt>
      <trkpt lat="69.63271" lon="18.02322">
        <ele>35.985015</ele>
        <time>2020-08-26T10:04:05.807Z</time>
      </trkpt>
      <trkpt lat="69.63267" lon="18.02349">
        <ele>36.092628</ele>
        <time>2020-08-26T10:04:07.809Z</time>
      </trkpt>
      <trkpt lat="69.63262" lon="18.02375">
        <ele>36.201609</ele>
        <time>2020-08-26T10:04:09.810Z</time>
      </trkpt>
      <trkpt lat="69.63257" lon="18.02399">
        <ele>36.307482</ele>
        <time>2020-08-26T10:04:11.807Z</time>
      </trkpt>
      <trkpt lat="69.63251" lon="18.02421">
        <ele>36.409289</ele>
        <time>2020-08-26T10:04:13.811Z</time>
      </trkpt>
      <trkpt lat="69.63246" lon="18.02443">
        <ele>36.505305</ele>
        <time>2020-08-26T10:04:15.808Z</time>
      </trkpt>
      <trkpt lat="69.63238" lon="18.02472">
        <ele>36.642366</ele>
        <time>2020-08-26T10:04:18.812Z</time>
      </trkpt>
      <trkpt lat="69.6323" lon="18.02501">
        <ele>36.78067</ele>
        <time>2020-08-26T10:04:21.796Z</time>
      </trkpt>
      <trkpt lat="69.63222" lon="18.02531">
        <ele>36.920087</ele>
        <time>2020-08-26T10:04:24.801Z</time>
      </trkpt>
      <trkpt lat="69.63216" lon="18.0255">
        <ele>37.01636</ele>
        <time>2020-08-26T10:04:26.813Z</time>
      </trkpt>
      <trkpt lat="69.63209" lon="18.0257">
        <ele>37.11892</ele>
        <time>2020-08-26T10:04:28.816Z</time>
      </trkpt>
      <trkpt lat="69.63202" lon="18.02589">
        <ele>37.225371</ele>
        <time>2020-08-26T10:04:30.808Z</time>
      </trkpt>
      <trkpt lat="69.63194" lon="18.02607">
        <ele>37.332954</ele>
        <time>2020-08-26T10:04:32.821Z</time>
      </trkpt>
      <trkpt lat="69.63186" lon="18.02626">
        <ele>37.441118</ele>
        <time>2020-08-26T10:04:34.808Z</time>
      </trkpt>
      <trkpt lat="69.63178" lon="18.02643">
        <ele>37.550753</ele>
        <time>2020-08-26T10:04:36.878Z</time>
      </trkpt>
      <trkpt lat="69.63169" lon="18.02658">
        <ele>37.662517</ele>
        <time>2020-08-26T10:04:38.812Z</time>
      </trkpt>
      <trkpt lat="69.6316" lon="18.02676">
        <ele>37.77973</ele>
        <time>2020-08-26T10:04:40.800Z</time>
      </trkpt>
      <trkpt lat="69.63151" lon="18.02695">
        <ele>37.900015</ele>
        <time>2020-08-26T10:04:42.835Z</time>
      </trkpt>
      <trkpt lat="69.63143" lon="18.02713">
        <ele>38.013067</ele>
        <time>2020-08-26T10:04:44.812Z</time>
      </trkpt>
      <trkpt lat="69.63134" lon="18.0273">
        <ele>38.125024</ele>
        <time>2020-08-26T10:04:46.809Z</time>
      </trkpt>
      <trkpt lat="69.63126" lon="18.02748">
        <ele>38.238076</ele>
        <time>2020-08-26T10:04:48.800Z</time>
      </trkpt>
      <trkpt lat="69.63117" lon="18.02765">
        <ele>38.349825</ele>
        <time>2020-08-26T10:04:50.826Z</time>
      </trkpt>
      <trkpt lat="69.63109" lon="18.02782">
        <ele>38.457462</ele>
        <time>2020-08-26T10:04:52.812Z</time>
      </trkpt>
      <trkpt lat="69.63101" lon="18.02798">
        <ele>38.563868</ele>
        <time>2020-08-26T10:04:54.834Z</time>
      </trkpt>
      <trkpt lat="69.63093" lon="18.02812">
        <ele>38.669273</ele>
        <time>2020-08-26T10:04:56.871Z</time>
      </trkpt>
      <trkpt lat="69.63085" lon="18.02827">
        <ele>38.773255</ele>
        <time>2020-08-26T10:04:58.861Z</time>
      </trkpt>
      <trkpt lat="69.63076" lon="18.02843">
        <ele>38.882903</ele>
        <time>2020-08-26T10:05:00.827Z</time>
      </trkpt>
      <trkpt lat="69.63067" lon="18.02861">
        <ele>39.002858</ele>
        <time>2020-08-26T10:05:02.827Z</time>
      </trkpt>
      <trkpt lat="69.63057" lon="18.0288">
        <ele>39.133535</ele>
        <time>2020-08-26T10:05:04.814Z</time>
      </trkpt>
      <trkpt lat="69.63046" lon="18.029">
        <ele>39.272885</ele>
        <time>2020-08-26T10:05:06.808Z</time>
      </trkpt>
      <trkpt lat="69.63034" lon="18.0292">
        <ele>39.42017</ele>
        <time>2020-08-26T10:05:08.854Z</time>
      </trkpt>
      <trkpt lat="69.63022" lon="18.02939">
        <ele>39.566495</ele>
        <time>2020-08-26T10:05:10.815Z</time>
      </trkpt>
      <trkpt lat="69.6301" lon="18.02956">
        <ele>40.133186</ele>
        <time>2020-08-26T10:05:12.816Z</time>
      </trkpt>
      <trkpt lat="69.62999" lon="18.02971">
        <ele>40.947344</ele>
        <time>2020-08-26T10:05:14.861Z</time>
      </trkpt>
      <trkpt lat="69.62988" lon="18.02983">
        <ele>41.703907</ele>
        <time>2020-08-26T10:05:16.803Z</time>
      </trkpt>
      <trkpt lat="69.62977" lon="18.02994">
        <ele>42.407108</ele>
        <time>2020-08-26T10:05:18.827Z</time>
      </trkpt>
      <trkpt lat="69.62967" lon="18.03003">
        <ele>43.069527</ele>
        <time>2020-08-26T10:05:20.805Z</time>
      </trkpt>
      <trkpt lat="69.62957" lon="18.0301">
        <ele>43.727315</ele>
        <time>2020-08-26T10:05:22.879Z</time>
      </trkpt>
      <trkpt lat="69.62948" lon="18.03017">
        <ele>44.382263</ele>
        <time>2020-08-26T10:05:24.812Z</time>
      </trkpt>
      <trkpt lat="69.62938" lon="18.03024">
        <ele>45.019856</ele>
        <time>2020-08-26T10:05:26.806Z</time>
      </trkpt>
      <trkpt lat="69.62928" lon="18.03032">
        <ele>45.642246</ele>
        <time>2020-08-26T10:05:28.836Z</time>
      </trkpt>
      <trkpt lat="69.62919" lon="18.03041">
        <ele>46.26215</ele>
        <time>2020-08-26T10:05:30.836Z</time>
      </trkpt>
      <trkpt lat="69.6291" lon="18.03048">
        <ele>46.872232</ele>
        <time>2020-08-26T10:05:32.806Z</time>
      </trkpt>
      <trkpt lat="69.62901" lon="18.03053">
        <ele>47.476417</ele>
        <time>2020-08-26T10:05:34.811Z</time>
      </trkpt>
      <trkpt lat="69.62888" lon="18.03063">
        <ele>48.324657</ele>
        <time>2020-08-26T10:05:37.807Z</time>
      </trkpt>
      <trkpt lat="69.62876" lon="18.03074">
        <ele>49.135772</ele>
        <time>2020-08-26T10:05:40.850Z</time>
      </trkpt>
      <trkpt lat="69.62866" lon="18.03086">
        <ele>49.793539</ele>
        <time>2020-08-26T10:05:43.831Z</time>
      </trkpt>
      <trkpt lat="69.62858" lon="18.03101">
        <ele>50.420481</ele>
        <time>2020-08-26T10:05:47.807Z</time>
      </trkpt>
      <trkpt lat="69.62849" lon="18.03117">
        <ele>51.075385</ele>
        <time>2020-08-26T10:05:52.875Z</time>
      </trkpt>
      <trkpt lat="69.62841" lon="18.03135">
        <ele>51.826776</ele>
        <time>2020-08-26T10:05:57.801Z</time>
      </trkpt>
      <trkpt lat="69.62832" lon="18.03153">
        <ele>52.64872</ele>
        <time>2020-08-26T10:06:02.797Z</time>
      </trkpt>
      <trkpt lat="69.62825" lon="18.0317">
        <ele>53.342465</ele>
        <time>2020-08-26T10:06:07.820Z</time>
      </trkpt>
      <trkpt lat="69.62817" lon="18.03188">
        <ele>54.086459</ele>
        <time>2020-08-26T10:06:12.816Z</time>
      </trkpt>
      <trkpt lat="69.62809" lon="18.03204">
        <ele>54.83455</ele>
        <time>2020-08-26T10:06:17.810Z</time>
      </trkpt>
      <trkpt lat="69.62801" lon="18.03223">
        <ele>55.584987</ele>
        <time>2020-08-26T10:06:22.833Z</time>
      </trkpt>
      <trkpt lat="69.62794" lon="18.0324">
        <ele>56.282845</ele>
        <time>2020-08-26T10:06:27.816Z</time>
      </trkpt>
      <trkpt lat="69.62787" lon="18.03256">
        <ele>56.958498</ele>
        <time>2020-08-26T10:06:32.828Z</time>
      </trkpt>
      <trkpt lat="69.62779" lon="18.03272">
        <ele>57.643196</ele>
        <time>2020-08-26T10:06:37.815Z</time>
      </trkpt>
      <trkpt lat="69.62771" lon="18.03288">
        <ele>58.421668</ele>
        <time>2020-08-26T10:06:43.804Z</time>
      </trkpt>
      <trkpt lat="69.62762" lon="18.03304">
        <ele>59.151666</ele>
        <time>2020-08-26T10:06:48.834Z</time>
      </trkpt>
      <trkpt lat="69.62754" lon="18.03318">
        <ele>59.87672</ele>
        <time>2020-08-26T10:06:53.837Z</time>
      </trkpt>
      <trkpt lat="69.62744" lon="18.03333">
        <ele>60.683369</ele>
        <time>2020-08-26T10:06:58.807Z</time>
      </trkpt>
      <trkpt lat="69.62737" lon="18.03347">
        <ele>61.347117</ele>
        <time>2020-08-26T10:07:02.813Z</time>
      </trkpt>
      <trkpt lat="69.62728" lon="18.03358">
        <ele>62.069716</ele>
        <time>2020-08-26T10:07:06.828Z</time>
      </trkpt>
      <trkpt lat="69.62719" lon="18.03366">
        <ele>62.740216</ele>
        <time>2020-08-26T10:07:10.811Z</time>
      </trkpt>
      <trkpt lat="69.62709" lon="18.03376">
        <ele>63.570379</ele>
        <time>2020-08-26T10:07:15.831Z</time>
      </trkpt>
      <trkpt lat="69.627" lon="18.03384">
        <ele>64.255041</ele>
        <time>2020-08-26T10:07:19.819Z</time>
      </trkpt>
      <trkpt lat="69.62691" lon="18.03393">
        <ele>64.108596</ele>
        <time>2020-08-26T10:07:23.805Z</time>
      </trkpt>
      <trkpt lat="69.6268" lon="18.03406">
        <ele>63.483325</ele>
        <time>2020-08-26T10:07:27.841Z</time>
      </trkpt>
      <trkpt lat="69.62671" lon="18.0342">
        <ele>62.919298</ele>
        <time>2020-08-26T10:07:30.814Z</time>
      </trkpt>
      <trkpt lat="69.62661" lon="18.03436">
        <ele>62.289476</ele>
        <time>2020-08-26T10:07:33.805Z</time>
      </trkpt>
      <trkpt lat="69.62651" lon="18.03457">
        <ele>61.628566</ele>
        <time>2020-08-26T10:07:36.808Z</time>
      </trkpt>
      <trkpt lat="69.62644" lon="18.03472">
        <ele>61.139461</ele>
        <time>2020-08-26T10:07:38.823Z</time>
      </trkpt>
      <trkpt lat="69.62636" lon="18.03488">
        <ele>60.638307</ele>
        <time>2020-08-26T10:07:40.800Z</time>
      </trkpt>
      <trkpt lat="69.62626" lon="18.0351">
        <ele>59.947291</ele>
        <time>2020-08-26T10:07:43.810Z</time>
      </trkpt>
      <trkpt lat="69.62618" lon="18.03528">
        <ele>59.412832</ele>
        <time>2020-08-26T10:07:47.808Z</time>
      </trkpt>
      <trkpt lat="69.62611" lon="18.03549">
        <ele>58.882625</ele>
        <time>2020-08-26T10:07:52.804Z</time>
      </trkpt>
      <trkpt lat="69.62605" lon="18.03568">
        <ele>58.36498</ele>
        <time>2020-08-26T10:07:56.837Z</time>
      </trkpt>
      <trkpt lat="69.62598" lon="18.03589">
        <ele>57.844955</ele>
        <time>2020-08-26T10:07:59.795Z</time>
      </trkpt>
      <trkpt lat="69.62592" lon="18.03616">
        <ele>57.230351</ele>
        <time>2020-08-26T10:08:02.805Z</time>
      </trkpt>
      <trkpt lat="69.62587" lon="18.03651">
        <ele>56.525503</ele>
        <time>2020-08-26T10:08:05.811Z</time>
      </trkpt>
      <trkpt lat="69.62585" lon="18.0368">
        <ele>55.960226</ele>
        <time>2020-08-26T10:08:07.833Z</time>
      </trkpt>
      <trkpt lat="69.62582" lon="18.03715">
        <ele>55.299427</ele>
        <time>2020-08-26T10:08:09.809Z</time>
      </trkpt>
      <trkpt lat="69.62581" lon="18.03754">
        <ele>54.672451</ele>
        <time>2020-08-26T10:08:11.812Z</time>
      </trkpt>
      <trkpt lat="69.6258" lon="18.03794">
        <ele>54.323994</ele>
        <time>2020-08-26T10:08:13.861Z</time>
      </trkpt>
      <trkpt lat="69.62577" lon="18.03834">
        <ele>53.969042</ele>
        <time>2020-08-26T10:08:15.813Z</time>
      </trkpt>
      <trkpt lat="69.62575" lon="18.03874">
        <ele>53.617922</ele>
        <time>2020-08-26T10:08:17.818Z</time>
      </trkpt>
      <trkpt lat="69.62572" lon="18.03914">
        <ele>53.264692</ele>
        <time>2020-08-26T10:08:19.806Z</time>
      </trkpt>
      <trkpt lat="69.6257" lon="18.03955">
        <ele>52.900981</ele>
        <time>2020-08-26T10:08:21.829Z</time>
      </trkpt>
      <trkpt lat="69.62568" lon="18.03999">
        <ele>52.514654</ele>
        <time>2020-08-26T10:08:23.831Z</time>
      </trkpt>
      <trkpt lat="69.62563" lon="18.04044">
        <ele>52.108462</ele>
        <time>2020-08-26T10:08:25.812Z</time>
      </trkpt>
      <trkpt lat="69.62558" lon="18.04089">
        <ele>51.691591</ele>
        <time>2020-08-26T10:08:27.825Z</time>
      </trkpt>
      <trkpt lat="69.6255" lon="18.04128">
        <ele>51.294725</ele>
        <time>2020-08-26T10:08:29.847Z</time>
      </trkpt>
      <trkpt lat="69.6254" lon="18.04161">
        <ele>50.923713</ele>
        <time>2020-08-26T10:08:31.808Z</time>
      </trkpt>
      <trkpt lat="69.6253" lon="18.04188">
        <ele>50.567271</ele>
        <time>2020-08-26T10:08:33.830Z</time>
      </trkpt>
      <trkpt lat="69.62519" lon="18.04213">
        <ele>50.38213</ele>
        <time>2020-08-26T10:08:35.801Z</time>
      </trkpt>
      <trkpt lat="69.6251" lon="18.04235">
        <ele>51.19288</ele>
        <time>2020-08-26T10:08:37.804Z</time>
      </trkpt>
      <trkpt lat="69.62502" lon="18.04251">
        <ele>51.869559</ele>
        <time>2020-08-26T10:08:39.819Z</time>
      </trkpt>
      <trkpt lat="69.62492" lon="18.0427">
        <ele>52.681201</ele>
        <time>2020-08-26T10:08:42.817Z</time>
      </trkpt>
      <trkpt lat="69.62484" lon="18.04284">
        <ele>53.326778</ele>
        <time>2020-08-26T10:08:45.810Z</time>
      </trkpt>
      <trkpt lat="69.62475" lon="18.043">
        <ele>54.054313</ele>
        <time>2020-08-26T10:08:49.812Z</time>
      </trkpt>
      <trkpt lat="69.62466" lon="18.04315">
        <ele>54.767448</ele>
        <time>2020-08-26T10:08:53.821Z</time>
      </trkpt>
      <trkpt lat="69.62457" lon="18.04329">
        <ele>55.440232</ele>
        <time>2020-08-26T10:08:57.847Z</time>
      </trkpt>
      <trkpt lat="69.62448" lon="18.04344">
        <ele>56.153369</ele>
        <time>2020-08-26T10:09:02.844Z</time>
      </trkpt>
      <trkpt lat="69.62439" lon="18.0436">
        <ele>56.885882</ele>
        <time>2020-08-26T10:09:07.812Z</time>
      </trkpt>
      <trkpt lat="69.62431" lon="18.04374">
        <ele>57.512407</ele>
        <time>2020-08-26T10:09:11.811Z</time>
      </trkpt>
      <trkpt lat="69.62422" lon="18.0439">
        <ele>58.284953</ele>
        <time>2020-08-26T10:09:16.817Z</time>
      </trkpt>
      <trkpt lat="69.62413" lon="18.04403">
        <ele>58.943342</ele>
        <time>2020-08-26T10:09:20.856Z</time>
      </trkpt>
      <trkpt lat="69.62404" lon="18.04417">
        <ele>59.645912</ele>
        <time>2020-08-26T10:09:24.810Z</time>
      </trkpt>
      <trkpt lat="69.62396" lon="18.0443">
        <ele>60.309323</ele>
        <time>2020-08-26T10:09:28.813Z</time>
      </trkpt>
      <trkpt lat="69.62386" lon="18.04447">
        <ele>61.078471</ele>
        <time>2020-08-26T10:09:32.825Z</time>
      </trkpt>
      <trkpt lat="69.62376" lon="18.04464">
        <ele>61.86676</ele>
        <time>2020-08-26T10:09:36.806Z</time>
      </trkpt>
      <trkpt lat="69.62366" lon="18.0448">
        <ele>62.541947</ele>
        <time>2020-08-26T10:09:40.825Z</time>
      </trkpt>
      <trkpt lat="69.62358" lon="18.04493">
        <ele>62.321137</ele>
        <time>2020-08-26T10:09:43.829Z</time>
      </trkpt>
      <trkpt lat="69.62348" lon="18.04509">
        <ele>62.040305</ele>
        <time>2020-08-26T10:09:47.866Z</time>
      </trkpt>
      <trkpt lat="69.62339" lon="18.04526">
        <ele>61.792918</ele>
        <time>2020-08-26T10:09:50.819Z</time>
      </trkpt>
      <trkpt lat="69.62329" lon="18.04542">
        <ele>61.519922</ele>
        <time>2020-08-26T10:09:53.807Z</time>
      </trkpt>
      <trkpt lat="69.62318" lon="18.04559">
        <ele>61.23025</ele>
        <time>2020-08-26T10:09:56.820Z</time>
      </trkpt>
      <trkpt lat="69.62307" lon="18.04577">
        <ele>60.914617</ele>
        <time>2020-08-26T10:09:59.828Z</time>
      </trkpt>
      <trkpt lat="69.62298" lon="18.04591">
        <ele>60.675379</ele>
        <time>2020-08-26T10:10:01.816Z</time>
      </trkpt>
      <trkpt lat="69.62289" lon="18.04606">
        <ele>60.420208</ele>
        <time>2020-08-26T10:10:03.851Z</time>
      </trkpt>
      <trkpt lat="69.62278" lon="18.04624">
        <ele>60.132741</ele>
        <time>2020-08-26T10:10:05.823Z</time>
      </trkpt>
      <trkpt lat="69.62267" lon="18.04644">
        <ele>59.810609</ele>
        <time>2020-08-26T10:10:07.804Z</time>
      </trkpt>
      <trkpt lat="69.62255" lon="18.0467">
        <ele>59.446353</ele>
        <time>2020-08-26T10:10:09.867Z</time>
      </trkpt>
      <trkpt lat="69.62242" lon="18.047">
        <ele>59.051229</ele>
        <time>2020-08-26T10:10:11.820Z</time>
      </trkpt>
      <trkpt lat="69.62229" lon="18.04731">
        <ele>58.657482</ele>
        <time>2020-08-26T10:10:13.813Z</time>
      </trkpt>
      <trkpt lat="69.62217" lon="18.04766">
        <ele>58.178671</ele>
        <time>2020-08-26T10:10:15.837Z</time>
      </trkpt>
      <trkpt lat="69.62212" lon="18.04786">
        <ele>57.372649</ele>
        <time>2020-08-26T10:10:16.807Z</time>
      </trkpt>
      <trkpt lat="69.62206" lon="18.04808">
        <ele>56.531886</ele>
        <time>2020-08-26T10:10:17.817Z</time>
      </trkpt>
      <trkpt lat="69.622" lon="18.04832">
        <ele>55.648757</ele>
        <time>2020-08-26T10:10:18.812Z</time>
      </trkpt>
      <trkpt lat="69.62195" lon="18.04855">
        <ele>54.806992</ele>
        <time>2020-08-26T10:10:19.808Z</time>
      </trkpt>
      <trkpt lat="69.62191" lon="18.04879">
        <ele>53.977755</ele>
        <time>2020-08-26T10:10:20.808Z</time>
      </trkpt>
      <trkpt lat="69.62186" lon="18.04903">
        <ele>53.131066</ele>
        <time>2020-08-26T10:10:21.808Z</time>
      </trkpt>
      <trkpt lat="69.62182" lon="18.04928">
        <ele>52.319918</ele>
        <time>2020-08-26T10:10:22.883Z</time>
      </trkpt>
      <trkpt lat="69.62179" lon="18.04951">
        <ele>51.527786</ele>
        <time>2020-08-26T10:10:23.822Z</time>
      </trkpt>
      <trkpt lat="69.62173" lon="18.04998">
        <ele>50.024958</ele>
        <time>2020-08-26T10:10:25.824Z</time>
      </trkpt>
      <trkpt lat="69.6217" lon="18.0504">
        <ele>48.678788</ele>
        <time>2020-08-26T10:10:27.820Z</time>
      </trkpt>
      <trkpt lat="69.62166" lon="18.05082">
        <ele>47.360629</ele>
        <time>2020-08-26T10:10:29.820Z</time>
      </trkpt>
      <trkpt lat="69.62162" lon="18.05127">
        <ele>45.951491</ele>
        <time>2020-08-26T10:10:31.811Z</time>
      </trkpt>
      <trkpt lat="69.62159" lon="18.05174">
        <ele>44.464641</ele>
        <time>2020-08-26T10:10:33.815Z</time>
      </trkpt>
      <trkpt lat="69.62155" lon="18.05224">
        <ele>42.911657</ele>
        <time>2020-08-26T10:10:35.837Z</time>
      </trkpt>
      <trkpt lat="69.62152" lon="18.05274">
        <ele>42.197931</ele>
        <time>2020-08-26T10:10:37.829Z</time>
      </trkpt>
      <trkpt lat="69.62151" lon="18.053">
        <ele>42.024013</ele>
        <time>2020-08-26T10:10:38.816Z</time>
      </trkpt>
      <trkpt lat="69.62147" lon="18.05349">
        <ele>41.686781</ele>
        <time>2020-08-26T10:10:40.807Z</time>
      </trkpt>
      <trkpt lat="69.62145" lon="18.05395">
        <ele>41.374455</ele>
        <time>2020-08-26T10:10:42.823Z</time>
      </trkpt>
      <trkpt lat="69.62142" lon="18.05439">
        <ele>41.070104</ele>
        <time>2020-08-26T10:10:44.837Z</time>
      </trkpt>
      <trkpt lat="69.62139" lon="18.0548">
        <ele>40.790574</ele>
        <time>2020-08-26T10:10:46.848Z</time>
      </trkpt>
      <trkpt lat="69.62136" lon="18.05518">
        <ele>40.526334</ele>
        <time>2020-08-26T10:10:48.823Z</time>
      </trkpt>
      <trkpt lat="69.62134" lon="18.05555">
        <ele>40.274915</ele>
        <time>2020-08-26T10:10:50.822Z</time>
      </trkpt>
      <trkpt lat="69.62131" lon="18.05589">
        <ele>40.038798</ele>
        <time>2020-08-26T10:10:52.882Z</time>
      </trkpt>
      <trkpt lat="69.62129" lon="18.05621">
        <ele>39.816925</ele>
        <time>2020-08-26T10:10:54.807Z</time>
      </trkpt>
      <trkpt lat="69.62127" lon="18.05653">
        <ele>39.603375</ele>
        <time>2020-08-26T10:10:56.799Z</time>
      </trkpt>
      <trkpt lat="69.62126" lon="18.05682">
        <ele>39.404499</ele>
        <time>2020-08-26T10:10:58.852Z</time>
      </trkpt>
      <trkpt lat="69.62124" lon="18.05708">
        <ele>39.227476</ele>
        <time>2020-08-26T10:11:00.828Z</time>
      </trkpt>
      <trkpt lat="69.62121" lon="18.0574">
        <ele>39.00235</ele>
        <time>2020-08-26T10:11:03.826Z</time>
      </trkpt>
      <trkpt lat="69.62119" lon="18.05766">
        <ele>39.425548</ele>
        <time>2020-08-26T10:11:06.833Z</time>
      </trkpt>
      <trkpt lat="69.62119" lon="18.05793">
        <ele>40.018576</ele>
        <time>2020-08-26T10:11:10.808Z</time>
      </trkpt>
      <trkpt lat="69.62117" lon="18.05818">
        <ele>40.599713</ele>
        <time>2020-08-26T10:11:14.854Z</time>
      </trkpt>
      <trkpt lat="69.62118" lon="18.05847">
        <ele>41.254947</ele>
        <time>2020-08-26T10:11:19.818Z</time>
      </trkpt>
      <trkpt lat="69.62123" lon="18.05873">
        <ele>41.914005</ele>
        <time>2020-08-26T10:11:24.815Z</time>
      </trkpt>
      <trkpt lat="69.62116" lon="18.05914">
        <ele>42.933684</ele>
        <time>2020-08-26T10:14:04.813Z</time>
      </trkpt>
      <trkpt lat="69.62109" lon="18.05935">
        <ele>43.597284</ele>
        <time>2020-08-26T10:14:10.859Z</time>
      </trkpt>
      <trkpt lat="69.62107" lon="18.05965">
        <ele>44.266975</ele>
        <time>2020-08-26T10:14:15.828Z</time>
      </trkpt>
      <trkpt lat="69.62105" lon="18.05992">
        <ele>44.897708</ele>
        <time>2020-08-26T10:14:19.812Z</time>
      </trkpt>
      <trkpt lat="69.62103" lon="18.06025">
        <ele>45.65335</ele>
        <time>2020-08-26T10:14:23.814Z</time>
      </trkpt>
      <trkpt lat="69.621" lon="18.06052">
        <ele>46.291897</ele>
        <time>2020-08-26T10:14:26.810Z</time>
      </trkpt>
      <trkpt lat="69.62098" lon="18.0608">
        <ele>46.924316</ele>
        <time>2020-08-26T10:14:29.808Z</time>
      </trkpt>
      <trkpt lat="69.62096" lon="18.06109">
        <ele>47.593806</ele>
        <time>2020-08-26T10:14:32.804Z</time>
      </trkpt>
      <trkpt lat="69.62093" lon="18.06137">
        <ele>48.254648</ele>
        <time>2020-08-26T10:14:35.839Z</time>
      </trkpt>
      <trkpt lat="69.62091" lon="18.06167">
        <ele>48.930146</ele>
        <time>2020-08-26T10:14:38.811Z</time>
      </trkpt>
      <trkpt lat="69.62088" lon="18.06196">
        <ele>49.613236</ele>
        <time>2020-08-26T10:14:41.821Z</time>
      </trkpt>
      <trkpt lat="69.62084" lon="18.06223">
        <ele>50.262513</ele>
        <time>2020-08-26T10:14:44.808Z</time>
      </trkpt>
      <trkpt lat="69.62079" lon="18.06252">
        <ele>50.55162</ele>
        <time>2020-08-26T10:14:47.823Z</time>
      </trkpt>
      <trkpt lat="69.62073" lon="18.06282">
        <ele>50.530035</ele>
        <time>2020-08-26T10:14:50.846Z</time>
      </trkpt>
      <trkpt lat="69.62068" lon="18.06316">
        <ele>50.506604</ele>
        <time>2020-08-26T10:14:53.831Z</time>
      </trkpt>
      <trkpt lat="69.62064" lon="18.0634">
        <ele>50.490023</ele>
        <time>2020-08-26T10:14:55.836Z</time>
      </trkpt>
      <trkpt lat="69.6206" lon="18.06366">
        <ele>50.472015</ele>
        <time>2020-08-26T10:14:57.836Z</time>
      </trkpt>
      <trkpt lat="69.62056" lon="18.06393">
        <ele>50.45425</ele>
        <time>2020-08-26T10:14:59.819Z</time>
      </trkpt>
      <trkpt lat="69.62052" lon="18.06418">
        <ele>50.436898</ele>
        <time>2020-08-26T10:15:01.814Z</time>
      </trkpt>
      <trkpt lat="69.62049" lon="18.06447">
        <ele>50.418441</ele>
        <time>2020-08-26T10:15:03.814Z</time>
      </trkpt>
      <trkpt lat="69.62046" lon="18.06475">
        <ele>50.399805</ele>
        <time>2020-08-26T10:15:05.829Z</time>
      </trkpt>
      <trkpt lat="69.62044" lon="18.06507">
        <ele>50.379504</ele>
        <time>2020-08-26T10:15:07.834Z</time>
      </trkpt>
      <trkpt lat="69.62041" lon="18.06542">
        <ele>50.357403</ele>
        <time>2020-08-26T10:15:09.807Z</time>
      </trkpt>
      <trkpt lat="69.62039" lon="18.06578">
        <ele>50.334288</ele>
        <time>2020-08-26T10:15:11.835Z</time>
      </trkpt>
      <trkpt lat="69.62039" lon="18.06614">
        <ele>50.311656</ele>
        <time>2020-08-26T10:15:13.827Z</time>
      </trkpt>
      <trkpt lat="69.62039" lon="18.06649">
        <ele>50.289812</ele>
        <time>2020-08-26T10:15:15.817Z</time>
      </trkpt>
      <trkpt lat="69.6204" lon="18.06682">
        <ele>50.269532</ele>
        <time>2020-08-26T10:15:17.856Z</time>
      </trkpt>
      <trkpt lat="69.62041" lon="18.06716">
        <ele>50.248249</ele>
        <time>2020-08-26T10:15:19.861Z</time>
      </trkpt>
      <trkpt lat="69.62043" lon="18.06748">
        <ele>50.379714</ele>
        <time>2020-08-26T10:15:21.796Z</time>
      </trkpt>
      <trkpt lat="69.62047" lon="18.0678">
        <ele>50.589837</ele>
        <time>2020-08-26T10:15:23.819Z</time>
      </trkpt>
      <trkpt lat="69.62051" lon="18.06812">
        <ele>50.804382</ele>
        <time>2020-08-26T10:15:25.826Z</time>
      </trkpt>
      <trkpt lat="69.62056" lon="18.06845">
        <ele>51.029074</ele>
        <time>2020-08-26T10:15:27.809Z</time>
      </trkpt>
      <trkpt lat="69.62061" lon="18.06877">
        <ele>51.254265</ele>
        <time>2020-08-26T10:15:29.933Z</time>
      </trkpt>
      <trkpt lat="69.62067" lon="18.06907">
        <ele>51.470857</ele>
        <time>2020-08-26T10:15:31.820Z</time>
      </trkpt>
      <trkpt lat="69.62073" lon="18.06935">
        <ele>51.680522</ele>
        <time>2020-08-26T10:15:33.832Z</time>
      </trkpt>
      <trkpt lat="69.62079" lon="18.06962">
        <ele>51.888368</ele>
        <time>2020-08-26T10:15:35.847Z</time>
      </trkpt>
      <trkpt lat="69.62085" lon="18.06989">
        <ele>52.093029</ele>
        <time>2020-08-26T10:15:37.829Z</time>
      </trkpt>
      <trkpt lat="69.62091" lon="18.07016">
        <ele>52.295799</ele>
        <time>2020-08-26T10:15:39.809Z</time>
      </trkpt>
      <trkpt lat="69.62097" lon="18.07043">
        <ele>52.49847</ele>
        <time>2020-08-26T10:15:41.806Z</time>
      </trkpt>
      <trkpt lat="69.62103" lon="18.0707">
        <ele>52.70313</ele>
        <time>2020-08-26T10:15:43.829Z</time>
      </trkpt>
      <trkpt lat="69.62109" lon="18.07096">
        <ele>52.900632</ele>
        <time>2020-08-26T10:15:45.818Z</time>
      </trkpt>
      <trkpt lat="69.62114" lon="18.0712">
        <ele>53.074952</ele>
        <time>2020-08-26T10:15:47.799Z</time>
      </trkpt>
      <trkpt lat="69.62118" lon="18.07143">
        <ele>53.244879</ele>
        <time>2020-08-26T10:15:49.816Z</time>
      </trkpt>
      <trkpt lat="69.62124" lon="18.07172">
        <ele>53.460368</ele>
        <time>2020-08-26T10:15:52.871Z</time>
      </trkpt>
      <trkpt lat="69.6213" lon="18.07198">
        <ele>53.369256</ele>
        <time>2020-08-26T10:15:55.804Z</time>
      </trkpt>
      <trkpt lat="69.62134" lon="18.07229">
        <ele>53.124413</ele>
        <time>2020-08-26T10:15:59.816Z</time>
      </trkpt>
      <trkpt lat="69.62137" lon="18.07257">
        <ele>52.912851</ele>
        <time>2020-08-26T10:16:03.806Z</time>
      </trkpt>
      <trkpt lat="69.6214" lon="18.07287">
        <ele>52.684845</ele>
        <time>2020-08-26T10:16:08.852Z</time>
      </trkpt>
      <trkpt lat="69.62141" lon="18.07316">
        <ele>52.472253</ele>
        <time>2020-08-26T10:16:13.799Z</time>
      </trkpt>
      <trkpt lat="69.62142" lon="18.07347">
        <ele>52.240553</ele>
        <time>2020-08-26T10:16:18.830Z</time>
      </trkpt>
      <trkpt lat="69.62142" lon="18.07375">
        <ele>52.039347</ele>
        <time>2020-08-26T10:16:22.806Z</time>
      </trkpt>
      <trkpt lat="69.62141" lon="18.07405">
        <ele>51.818552</ele>
        <time>2020-08-26T10:16:26.821Z</time>
      </trkpt>
      <trkpt lat="69.62139" lon="18.07436">
        <ele>51.587514</ele>
        <time>2020-08-26T10:16:30.827Z</time>
      </trkpt>
      <trkpt lat="69.62135" lon="18.07469">
        <ele>51.336224</ele>
        <time>2020-08-26T10:16:34.832Z</time>
      </trkpt>
      <trkpt lat="69.62131" lon="18.07495">
        <ele>51.128177</ele>
        <time>2020-08-26T10:16:37.811Z</time>
      </trkpt>
      <trkpt lat="69.62127" lon="18.07523">
        <ele>50.909265</ele>
        <time>2020-08-26T10:16:40.814Z</time>
      </trkpt>
      <trkpt lat="69.62122" lon="18.07552">
        <ele>50.66888</ele>
        <time>2020-08-26T10:16:43.811Z</time>
      </trkpt>
      <trkpt lat="69.62115" lon="18.07582">
        <ele>50.405986</ele>
        <time>2020-08-26T10:16:46.816Z</time>
      </trkpt>
      <trkpt lat="69.62109" lon="18.07603">
        <ele>50.216169</ele>
        <time>2020-08-26T10:16:48.814Z</time>
      </trkpt>
      <trkpt lat="69.62103" lon="18.07624">
        <ele>50.014901</ele>
        <time>2020-08-26T10:16:50.847Z</time>
      </trkpt>
      <trkpt lat="69.62096" lon="18.07646">
        <ele>49.796918</ele>
        <time>2020-08-26T10:16:52.821Z</time>
      </trkpt>
      <trkpt lat="69.62088" lon="18.07668">
        <ele>49.693573</ele>
        <time>2020-08-26T10:16:54.830Z</time>
      </trkpt>
      <trkpt lat="69.6208" lon="18.0769">
        <ele>49.620313</ele>
        <time>2020-08-26T10:16:56.836Z</time>
      </trkpt>
      <trkpt lat="69.62071" lon="18.0771">
        <ele>49.551271</ele>
        <time>2020-08-26T10:16:58.798Z</time>
      </trkpt>
      <trkpt lat="69.62063" lon="18.07728">
        <ele>49.482919</ele>
        <time>2020-08-26T10:17:00.835Z</time>
      </trkpt>
      <trkpt lat="69.62054" lon="18.07747">
        <ele>49.414292</ele>
        <time>2020-08-26T10:17:02.815Z</time>
      </trkpt>
      <trkpt lat="69.62046" lon="18.07765">
        <ele>49.346214</ele>
        <time>2020-08-26T10:17:04.829Z</time>
      </trkpt>
      <trkpt lat="69.62038" lon="18.07785">
        <ele>49.279029</ele>
        <time>2020-08-26T10:17:06.815Z</time>
      </trkpt>
      <trkpt lat="69.6203" lon="18.07802">
        <ele>49.212791</ele>
        <time>2020-08-26T10:17:08.820Z</time>
      </trkpt>
      <trkpt lat="69.62022" lon="18.07819">
        <ele>49.149582</ele>
        <time>2020-08-26T10:17:10.815Z</time>
      </trkpt>
      <trkpt lat="69.62014" lon="18.07834">
        <ele>49.089371</ele>
        <time>2020-08-26T10:17:12.833Z</time>
      </trkpt>
      <trkpt lat="69.62006" lon="18.0785">
        <ele>49.027991</ele>
        <time>2020-08-26T10:17:14.820Z</time>
      </trkpt>
      <trkpt lat="69.61999" lon="18.07864">
        <ele>48.968692</ele>
        <time>2020-08-26T10:17:16.824Z</time>
      </trkpt>
      <trkpt lat="69.61988" lon="18.07887">
        <ele>48.884017</ele>
        <time>2020-08-26T10:17:19.847Z</time>
      </trkpt>
      <trkpt lat="69.61978" lon="18.07906">
        <ele>48.806211</ele>
        <time>2020-08-26T10:17:22.859Z</time>
      </trkpt>
      <trkpt lat="69.61968" lon="18.07924">
        <ele>48.729135</ele>
        <time>2020-08-26T10:17:25.815Z</time>
      </trkpt>
      <trkpt lat="69.61958" lon="18.07944">
        <ele>48.65152</ele>
        <time>2020-08-26T10:17:28.818Z</time>
      </trkpt>
      <trkpt lat="69.61948" lon="18.07962">
        <ele>48.731732</ele>
        <time>2020-08-26T10:17:31.816Z</time>
      </trkpt>
      <trkpt lat="69.61939" lon="18.07979">
        <ele>49.21449</ele>
        <time>2020-08-26T10:17:34.820Z</time>
      </trkpt>
      <trkpt lat="69.6193" lon="18.07994">
        <ele>49.687559</ele>
        <time>2020-08-26T10:17:37.811Z</time>
      </trkpt>
      <trkpt lat="69.61921" lon="18.08007">
        <ele>50.17095</ele>
        <time>2020-08-26T10:17:40.831Z</time>
      </trkpt>
      <trkpt lat="69.61911" lon="18.0802">
        <ele>50.674588</ele>
        <time>2020-08-26T10:17:43.858Z</time>
      </trkpt>
      <trkpt lat="69.61901" lon="18.08031">
        <ele>51.175094</ele>
        <time>2020-08-26T10:17:46.834Z</time>
      </trkpt>
      <trkpt lat="69.61891" lon="18.0804">
        <ele>51.667598</ele>
        <time>2020-08-26T10:17:49.809Z</time>
      </trkpt>
      <trkpt lat="69.61882" lon="18.08049">
        <ele>52.127751</ele>
        <time>2020-08-26T10:17:52.820Z</time>
      </trkpt>
      <trkpt lat="69.61873" lon="18.08057">
        <ele>52.55402</ele>
        <time>2020-08-26T10:17:55.820Z</time>
      </trkpt>
      <trkpt lat="69.61861" lon="18.08063">
        <ele>53.092844</ele>
        <time>2020-08-26T10:17:59.815Z</time>
      </trkpt>
      <trkpt lat="69.61851" lon="18.08068">
        <ele>53.577959</ele>
        <time>2020-08-26T10:18:03.818Z</time>
      </trkpt>
      <trkpt lat="69.61841" lon="18.08071">
        <ele>54.039412</ele>
        <time>2020-08-26T10:18:07.810Z</time>
      </trkpt>
      <trkpt lat="69.61832" lon="18.08071">
        <ele>54.480089</ele>
        <time>2020-08-26T10:18:11.820Z</time>
      </trkpt>
      <trkpt lat="69.61822" lon="18.08071">
        <ele>54.944029</ele>
        <time>2020-08-26T10:18:15.801Z</time>
      </trkpt>
      <trkpt lat="69.61811" lon="18.08067">
        <ele>55.452798</ele>
        <time>2020-08-26T10:18:19.802Z</time>
      </trkpt>
      <trkpt lat="69.618" lon="18.0806">
        <ele>55.956978</ele>
        <time>2020-08-26T10:18:23.851Z</time>
      </trkpt>
      <trkpt lat="69.6179" lon="18.08051">
        <ele>56.449984</ele>
        <time>2020-08-26T10:18:27.813Z</time>
      </trkpt>
      <trkpt lat="69.6178" lon="18.08042">
        <ele>56.950472</ele>
        <time>2020-08-26T10:18:31.833Z</time>
      </trkpt>
      <trkpt lat="69.61769" lon="18.08033">
        <ele>57.312587</ele>
        <time>2020-08-26T10:18:35.840Z</time>
      </trkpt>
      <trkpt lat="69.61759" lon="18.08023">
        <ele>57.6612</ele>
        <time>2020-08-26T10:18:39.818Z</time>
      </trkpt>
      <trkpt lat="69.61749" lon="18.08013">
        <ele>57.999727</ele>
        <time>2020-08-26T10:18:43.792Z</time>
      </trkpt>
      <trkpt lat="69.61739" lon="18.08004">
        <ele>58.326049</ele>
        <time>2020-08-26T10:18:47.808Z</time>
      </trkpt>
      <trkpt lat="69.61729" lon="18.07991">
        <ele>58.676287</ele>
        <time>2020-08-26T10:18:51.816Z</time>
      </trkpt>
      <trkpt lat="69.61718" lon="18.07977">
        <ele>59.063395</ele>
        <time>2020-08-26T10:18:55.844Z</time>
      </trkpt>
      <trkpt lat="69.61707" lon="18.07965">
        <ele>59.445382</ele>
        <time>2020-08-26T10:18:59.816Z</time>
      </trkpt>
      <trkpt lat="69.61698" lon="18.07955">
        <ele>59.749051</ele>
        <time>2020-08-26T10:19:02.822Z</time>
      </trkpt>
      <trkpt lat="69.6169" lon="18.07945">
        <ele>60.042505</ele>
        <time>2020-08-26T10:19:05.861Z</time>
      </trkpt>
      <trkpt lat="69.61681" lon="18.07936">
        <ele>60.353646</ele>
        <time>2020-08-26T10:19:08.809Z</time>
      </trkpt>
      <trkpt lat="69.61671" lon="18.07925">
        <ele>60.689593</ele>
        <time>2020-08-26T10:19:11.833Z</time>
      </trkpt>
      <trkpt lat="69.61661" lon="18.07914">
        <ele>61.026377</ele>
        <time>2020-08-26T10:19:14.828Z</time>
      </trkpt>
      <trkpt lat="69.61651" lon="18.07903">
        <ele>61.365315</ele>
        <time>2020-08-26T10:19:17.812Z</time>
      </trkpt>
      <trkpt lat="69.61641" lon="18.07891">
        <ele>61.73789</ele>
        <time>2020-08-26T10:19:20.812Z</time>
      </trkpt>
      <trkpt lat="69.61629" lon="18.07879">
        <ele>62.131987</ele>
        <time>2020-08-26T10:19:23.817Z</time>
      </trkpt>
      <trkpt lat="69.61616" lon="18.0787">
        <ele>62.55284</ele>
        <time>2020-08-26T10:19:26.816Z</time>
      </trkpt>
      <trkpt lat="69.61607" lon="18.07866">
        <ele>62.560999</ele>
        <time>2020-08-26T10:19:28.819Z</time>
      </trkpt>
      <trkpt lat="69.61596" lon="18.0786">
        <ele>62.175769</ele>
        <time>2020-08-26T10:19:30.828Z</time>
      </trkpt>
      <trkpt lat="69.61586" lon="18.07854">
        <ele>61.781562</ele>
        <time>2020-08-26T10:19:32.829Z</time>
      </trkpt>
      <trkpt lat="69.61574" lon="18.07848">
        <ele>61.352977</ele>
        <time>2020-08-26T10:19:34.848Z</time>
      </trkpt>
      <trkpt lat="69.61562" lon="18.07842">
        <ele>60.894998</ele>
        <time>2020-08-26T10:19:36.849Z</time>
      </trkpt>
      <trkpt lat="69.61549" lon="18.07835">
        <ele>60.40271</ele>
        <time>2020-08-26T10:19:38.813Z</time>
      </trkpt>
      <trkpt lat="69.61535" lon="18.07829">
        <ele>59.874628</ele>
        <time>2020-08-26T10:19:40.813Z</time>
      </trkpt>
      <trkpt lat="69.6152" lon="18.0782">
        <ele>59.334982</ele>
        <time>2020-08-26T10:19:42.816Z</time>
      </trkpt>
      <trkpt lat="69.61505" lon="18.0781">
        <ele>58.769449</ele>
        <time>2020-08-26T10:19:44.831Z</time>
      </trkpt>
      <trkpt lat="69.6149" lon="18.07798">
        <ele>58.181012</ele>
        <time>2020-08-26T10:19:46.821Z</time>
      </trkpt>
      <trkpt lat="69.61475" lon="18.0778">
        <ele>57.580524</ele>
        <time>2020-08-26T10:19:48.821Z</time>
      </trkpt>
      <trkpt lat="69.6146" lon="18.07761">
        <ele>56.978078</ele>
        <time>2020-08-26T10:19:50.817Z</time>
      </trkpt>
      <trkpt lat="69.61445" lon="18.07739">
        <ele>56.368343</ele>
        <time>2020-08-26T10:19:52.827Z</time>
      </trkpt>
      <trkpt lat="69.6143" lon="18.07715">
        <ele>56.053986</ele>
        <time>2020-08-26T10:19:54.837Z</time>
      </trkpt>
      <trkpt lat="69.61416" lon="18.07691">
        <ele>55.947311</ele>
        <time>2020-08-26T10:19:56.807Z</time>
      </trkpt>
      <trkpt lat="69.61402" lon="18.07668">
        <ele>55.843274</ele>
        <time>2020-08-26T10:19:58.841Z</time>
      </trkpt>
      <trkpt lat="69.61387" lon="18.07647">
        <ele>55.740395</ele>
        <time>2020-08-26T10:20:00.838Z</time>
      </trkpt>
      <trkpt lat="69.61373" lon="18.07628">
        <ele>55.640256</ele>
        <time>2020-08-26T10:20:02.824Z</time>
      </trkpt>
      <trkpt lat="69.61359" lon="18.07613">
        <ele>55.543611</ele>
        <time>2020-08-26T10:20:04.814Z</time>
      </trkpt>
      <trkpt lat="69.61344" lon="18.07601">
        <ele>55.448328</ele>
        <time>2020-08-26T10:20:06.827Z</time>
      </trkpt>
      <trkpt lat="69.6133" lon="18.07593">
        <ele>55.356904</ele>
        <time>2020-08-26T10:20:08.815Z</time>
      </trkpt>
      <trkpt lat="69.61317" lon="18.0759">
        <ele>55.271929</ele>
        <time>2020-08-26T10:20:10.849Z</time>
      </trkpt>
      <trkpt lat="69.61305" lon="18.07588">
        <ele>55.193526</ele>
        <time>2020-08-26T10:20:12.820Z</time>
      </trkpt>
      <trkpt lat="69.61293" lon="18.07587">
        <ele>55.120287</ele>
        <time>2020-08-26T10:20:14.858Z</time>
      </trkpt>
      <trkpt lat="69.61282" lon="18.07591">
        <ele>55.049282</ele>
        <time>2020-08-26T10:20:16.832Z</time>
      </trkpt>
      <trkpt lat="69.61272" lon="18.07594">
        <ele>54.982688</ele>
        <time>2020-08-26T10:20:18.810Z</time>
      </trkpt>
      <trkpt lat="69.61262" lon="18.07598">
        <ele>54.964853</ele>
        <time>2020-08-26T10:20:20.831Z</time>
      </trkpt>
      <trkpt lat="69.61252" lon="18.076">
        <ele>54.955513</ele>
        <time>2020-08-26T10:20:22.824Z</time>
      </trkpt>
      <trkpt lat="69.61242" lon="18.076">
        <ele>54.946117</ele>
        <time>2020-08-26T10:20:24.832Z</time>
      </trkpt>
      <trkpt lat="69.61232" lon="18.07602">
        <ele>54.936791</ele>
        <time>2020-08-26T10:20:26.813Z</time>
      </trkpt>
      <trkpt lat="69.61222" lon="18.07604">
        <ele>54.927101</ele>
        <time>2020-08-26T10:20:28.812Z</time>
      </trkpt>
      <trkpt lat="69.61211" lon="18.07605">
        <ele>54.917232</ele>
        <time>2020-08-26T10:20:30.820Z</time>
      </trkpt>
      <trkpt lat="69.61201" lon="18.07603">
        <ele>54.907359</ele>
        <time>2020-08-26T10:20:32.811Z</time>
      </trkpt>
      <trkpt lat="69.6119" lon="18.07602">
        <ele>54.897287</ele>
        <time>2020-08-26T10:20:34.810Z</time>
      </trkpt>
      <trkpt lat="69.61179" lon="18.07599">
        <ele>54.887289</ele>
        <time>2020-08-26T10:20:36.850Z</time>
      </trkpt>
      <trkpt lat="69.61169" lon="18.07595">
        <ele>54.877523</ele>
        <time>2020-08-26T10:20:38.853Z</time>
      </trkpt>
      <trkpt lat="69.61158" lon="18.0759">
        <ele>54.867534</ele>
        <time>2020-08-26T10:20:40.815Z</time>
      </trkpt>
      <trkpt lat="69.61147" lon="18.07584">
        <ele>54.856988</ele>
        <time>2020-08-26T10:20:42.863Z</time>
      </trkpt>
      <trkpt lat="69.61137" lon="18.07575">
        <ele>54.846368</ele>
        <time>2020-08-26T10:20:44.832Z</time>
      </trkpt>
      <trkpt lat="69.61125" lon="18.07567">
        <ele>54.8355</ele>
        <time>2020-08-26T10:20:46.813Z</time>
      </trkpt>
      <trkpt lat="69.61114" lon="18.07557">
        <ele>54.824559</ele>
        <time>2020-08-26T10:20:48.815Z</time>
      </trkpt>
      <trkpt lat="69.61103" lon="18.07546">
        <ele>54.813803</ele>
        <time>2020-08-26T10:20:50.839Z</time>
      </trkpt>
      <trkpt lat="69.61093" lon="18.07534">
        <ele>54.804518</ele>
        <time>2020-08-26T10:20:52.848Z</time>
      </trkpt>
      <trkpt lat="69.61083" lon="18.07521">
        <ele>54.819292</ele>
        <time>2020-08-26T10:20:54.800Z</time>
      </trkpt>
      <trkpt lat="69.61074" lon="18.07507">
        <ele>54.833578</ele>
        <time>2020-08-26T10:20:56.837Z</time>
      </trkpt>
      <trkpt lat="69.61064" lon="18.07494">
        <ele>54.847843</ele>
        <time>2020-08-26T10:20:58.804Z</time>
      </trkpt>
      <trkpt lat="69.61055" lon="18.07481">
        <ele>54.861267</ele>
        <time>2020-08-26T10:21:00.807Z</time>
      </trkpt>
      <trkpt lat="69.61047" lon="18.07468">
        <ele>54.874322</ele>
        <time>2020-08-26T10:21:02.832Z</time>
      </trkpt>
      <trkpt lat="69.61038" lon="18.07453">
        <ele>54.887973</ele>
        <time>2020-08-26T10:21:04.810Z</time>
      </trkpt>
      <trkpt lat="69.6103" lon="18.07439">
        <ele>54.901274</ele>
        <time>2020-08-26T10:21:06.831Z</time>
      </trkpt>
      <trkpt lat="69.61021" lon="18.07426">
        <ele>54.914039</ele>
        <time>2020-08-26T10:21:08.805Z</time>
      </trkpt>
      <trkpt lat="69.61014" lon="18.07412">
        <ele>54.926311</ele>
        <time>2020-08-26T10:21:10.811Z</time>
      </trkpt>
      <trkpt lat="69.61003" lon="18.07392">
        <ele>54.943834</ele>
        <time>2020-08-26T10:21:13.852Z</time>
      </trkpt>
      <trkpt lat="69.60992" lon="18.07373">
        <ele>54.960246</ele>
        <time>2020-08-26T10:21:16.819Z</time>
      </trkpt>
      <trkpt lat="69.60981" lon="18.07365">
        <ele>54.976706</ele>
        <time>2020-08-26T10:21:19.835Z</time>
      </trkpt>
      <trkpt lat="69.6097" lon="18.07387">
        <ele>54.9948</ele>
        <time>2020-08-26T10:21:22.856Z</time>
      </trkpt>
      <trkpt lat="69.60966" lon="18.07414">
        <ele>55.008758</ele>
        <time>2020-08-26T10:21:24.867Z</time>
      </trkpt>
      <trkpt lat="69.60961" lon="18.07442">
        <ele>55.022856</ele>
        <time>2020-08-26T10:21:26.818Z</time>
      </trkpt>
      <trkpt lat="69.60956" lon="18.07471">
        <ele>55.038259</ele>
        <time>2020-08-26T10:21:28.846Z</time>
      </trkpt>
      <trkpt lat="69.60951" lon="18.07506">
        <ele>54.807468</ele>
        <time>2020-08-26T10:21:30.821Z</time>
      </trkpt>
      <trkpt lat="69.60946" lon="18.07544">
        <ele>54.328559</ele>
        <time>2020-08-26T10:21:32.807Z</time>
      </trkpt>
      <trkpt lat="69.6094" lon="18.07583">
        <ele>53.840836</ele>
        <time>2020-08-26T10:21:34.810Z</time>
      </trkpt>
      <trkpt lat="69.60936" lon="18.07623">
        <ele>53.354242</ele>
        <time>2020-08-26T10:21:36.813Z</time>
      </trkpt>
      <trkpt lat="69.60933" lon="18.07664">
        <ele>52.859176</ele>
        <time>2020-08-26T10:21:38.819Z</time>
      </trkpt>
      <trkpt lat="69.6093" lon="18.07707">
        <ele>52.358819</ele>
        <time>2020-08-26T10:21:40.820Z</time>
      </trkpt>
      <trkpt lat="69.60928" lon="18.07749">
        <ele>51.856541</ele>
        <time>2020-08-26T10:21:42.819Z</time>
      </trkpt>
      <trkpt lat="69.60926" lon="18.07793">
        <ele>51.344742</ele>
        <time>2020-08-26T10:21:44.811Z</time>
      </trkpt>
      <trkpt lat="69.60925" lon="18.07836">
        <ele>50.840859</ele>
        <time>2020-08-26T10:21:46.832Z</time>
      </trkpt>
      <trkpt lat="69.60925" lon="18.07879">
        <ele>50.336521</ele>
        <time>2020-08-26T10:21:48.830Z</time>
      </trkpt>
      <trkpt lat="69.60926" lon="18.07921">
        <ele>49.850808</ele>
        <time>2020-08-26T10:21:50.828Z</time>
      </trkpt>
      <trkpt lat="69.60926" lon="18.07961">
        <ele>49.384716</ele>
        <time>2020-08-26T10:21:52.862Z</time>
      </trkpt>
      <trkpt lat="69.60927" lon="18.07999">
        <ele>49.182328</ele>
        <time>2020-08-26T10:21:54.816Z</time>
      </trkpt>
      <trkpt lat="69.60928" lon="18.08032">
        <ele>49.839908</ele>
        <time>2020-08-26T10:21:56.810Z</time>
      </trkpt>
      <trkpt lat="69.60929" lon="18.08062">
        <ele>50.424452</ele>
        <time>2020-08-26T10:21:58.839Z</time>
      </trkpt>
      <trkpt lat="69.6093" lon="18.08088">
        <ele>50.947945</ele>
        <time>2020-08-26T10:22:00.807Z</time>
      </trkpt>
      <trkpt lat="69.60931" lon="18.08123">
        <ele>51.635107</ele>
        <time>2020-08-26T10:22:03.810Z</time>
      </trkpt>
      <trkpt lat="69.60933" lon="18.08151">
        <ele>52.185313</ele>
        <time>2020-08-26T10:22:06.800Z</time>
      </trkpt>
      <trkpt lat="69.60935" lon="18.08182">
        <ele>52.813299</ele>
        <time>2020-08-26T10:22:10.817Z</time>
      </trkpt>
      <trkpt lat="69.60936" lon="18.08209">
        <ele>53.333625</ele>
        <time>2020-08-26T10:22:14.807Z</time>
      </trkpt>
      <trkpt lat="69.60937" lon="18.08235">
        <ele>53.845153</ele>
        <time>2020-08-26T10:22:18.804Z</time>
      </trkpt>
      <trkpt lat="69.60938" lon="18.08264">
        <ele>54.431102</ele>
        <time>2020-08-26T10:22:23.861Z</time>
      </trkpt>
      <trkpt lat="69.6094" lon="18.08295">
        <ele>55.035049</ele>
        <time>2020-08-26T10:22:28.813Z</time>
      </trkpt>
      <trkpt lat="69.60941" lon="18.08321">
        <ele>55.559991</ele>
        <time>2020-08-26T10:22:33.804Z</time>
      </trkpt>
      <trkpt lat="69.60943" lon="18.08349">
        <ele>56.123726</ele>
        <time>2020-08-26T10:22:38.809Z</time>
      </trkpt>
      <trkpt lat="69.60944" lon="18.08379">
        <ele>56.706317</ele>
        <time>2020-08-26T10:22:43.814Z</time>
      </trkpt>
      <trkpt lat="69.60946" lon="18.08409">
        <ele>57.301984</ele>
        <time>2020-08-26T10:22:48.807Z</time>
      </trkpt>
      <trkpt lat="69.60947" lon="18.08434">
        <ele>57.813128</ele>
        <time>2020-08-26T10:22:52.834Z</time>
      </trkpt>
      <trkpt lat="69.60948" lon="18.0846">
        <ele>58.326231</ele>
        <time>2020-08-26T10:22:56.829Z</time>
      </trkpt>
      <trkpt lat="69.6095" lon="18.08491">
        <ele>58.928494</ele>
        <time>2020-08-26T10:23:01.807Z</time>
      </trkpt>
      <trkpt lat="69.60951" lon="18.08516">
        <ele>59.339262</ele>
        <time>2020-08-26T10:23:05.822Z</time>
      </trkpt>
      <trkpt lat="69.60954" lon="18.08544">
        <ele>59.697908</ele>
        <time>2020-08-26T10:23:09.814Z</time>
      </trkpt>
      <trkpt lat="69.60956" lon="18.08572">
        <ele>60.068725</ele>
        <time>2020-08-26T10:23:13.812Z</time>
      </trkpt>
      <trkpt lat="69.60958" lon="18.08602">
        <ele>60.463407</ele>
        <time>2020-08-26T10:23:17.820Z</time>
      </trkpt>
      <trkpt lat="69.6096" lon="18.0863">
        <ele>60.829223</ele>
        <time>2020-08-26T10:23:21.824Z</time>
      </trkpt>
      <trkpt lat="69.60961" lon="18.0866">
        <ele>61.206374</ele>
        <time>2020-08-26T10:23:25.812Z</time>
      </trkpt>
      <trkpt lat="69.60964" lon="18.08688">
        <ele>61.579996</ele>
        <time>2020-08-26T10:23:29.852Z</time>
      </trkpt>
      <trkpt lat="69.60967" lon="18.08719">
        <ele>61.988911</ele>
        <time>2020-08-26T10:23:33.831Z</time>
      </trkpt>
      <trkpt lat="69.6097" lon="18.08744">
        <ele>62.328577</ele>
        <time>2020-08-26T10:23:36.831Z</time>
      </trkpt>
      <trkpt lat="69.60974" lon="18.08773">
        <ele>62.722569</ele>
        <time>2020-08-26T10:23:39.837Z</time>
      </trkpt>
      <trkpt lat="69.60977" lon="18.08804">
        <ele>63.135726</ele>
        <time>2020-08-26T10:23:42.812Z</time>
      </trkpt>
      <trkpt lat="69.60981" lon="18.08835">
        <ele>63.563429</ele>
        <time>2020-08-26T10:23:45.816Z</time>
      </trkpt>
      <trkpt lat="69.60986" lon="18.08868">
        <ele>64.014607</ele>
        <time>2020-08-26T10:23:48.815Z</time>
      </trkpt>
      <trkpt lat="69.60991" lon="18.08903">
        <ele>64.493998</ele>
        <time>2020-08-26T10:23:51.810Z</time>
      </trkpt>
      <trkpt lat="69.60994" lon="18.08928">
        <ele>64.831551</ele>
        <time>2020-08-26T10:23:53.807Z</time>
      </trkpt>
      <trkpt lat="69.60998" lon="18.08953">
        <ele>65.185585</ele>
        <time>2020-08-26T10:23:55.808Z</time>
      </trkpt>
      <trkpt lat="69.61002" lon="18.0898">
        <ele>65.549715</ele>
        <time>2020-08-26T10:23:57.831Z</time>
      </trkpt>
      <trkpt lat="69.61005" lon="18.09007">
        <ele>65.795921</ele>
        <time>2020-08-26T10:23:59.819Z</time>
      </trkpt>
      <trkpt lat="69.61009" lon="18.09036">
        <ele>65.902712</ele>
        <time>2020-08-26T10:24:01.802Z</time>
      </trkpt>
      <trkpt lat="69.61012" lon="18.09062">
        <ele>66.003062</ele>
        <time>2020-08-26T10:24:03.820Z</time>
      </trkpt>
      <trkpt lat="69.61015" lon="18.09088">
        <ele>66.102731</ele>
        <time>2020-08-26T10:24:05.818Z</time>
      </trkpt>
      <trkpt lat="69.61019" lon="18.09114">
        <ele>66.204267</ele>
        <time>2020-08-26T10:24:07.799Z</time>
      </trkpt>
      <trkpt lat="69.61023" lon="18.0914">
        <ele>66.30337</ele>
        <time>2020-08-26T10:24:09.839Z</time>
      </trkpt>
      <trkpt lat="69.61027" lon="18.09167">
        <ele>66.407856</ele>
        <time>2020-08-26T10:24:11.828Z</time>
      </trkpt>
      <trkpt lat="69.6103" lon="18.09192">
        <ele>66.504378</ele>
        <time>2020-08-26T10:24:13.810Z</time>
      </trkpt>
      <trkpt lat="69.61034" lon="18.09218">
        <ele>66.604437</ele>
        <time>2020-08-26T10:24:15.820Z</time>
      </trkpt>
      <trkpt lat="69.61037" lon="18.09242">
        <ele>66.698384</ele>
        <time>2020-08-26T10:24:17.823Z</time>
      </trkpt>
      <trkpt lat="69.61042" lon="18.09276">
        <ele>66.830495</ele>
        <time>2020-08-26T10:24:20.807Z</time>
      </trkpt>
      <trkpt lat="69.61048" lon="18.09307">
        <ele>66.954321</ele>
        <time>2020-08-26T10:24:23.816Z</time>
      </trkpt>
      <trkpt lat="69.61053" lon="18.09336">
        <ele>67.069633</ele>
        <time>2020-08-26T10:24:26.844Z</time>
      </trkpt>
      <trkpt lat="69.61058" lon="18.09364">
        <ele>67.181724</ele>
        <time>2020-08-26T10:24:29.820Z</time>
      </trkpt>
      <trkpt lat="69.61063" lon="18.09389">
        <ele>67.286818</ele>
        <time>2020-08-26T10:24:32.807Z</time>
      </trkpt>
      <trkpt lat="69.61069" lon="18.09413">
        <ele>67.390741</ele>
        <time>2020-08-26T10:24:35.828Z</time>
      </trkpt>
      <trkpt lat="69.61075" lon="18.09436">
        <ele>67.494373</ele>
        <time>2020-08-26T10:24:38.836Z</time>
      </trkpt>
      <trkpt lat="69.61081" lon="18.09458">
        <ele>67.577013</ele>
        <time>2020-08-26T10:24:41.831Z</time>
      </trkpt>
      <trkpt lat="69.61089" lon="18.09479">
        <ele>67.258887</ele>
        <time>2020-08-26T10:24:44.835Z</time>
      </trkpt>
      <trkpt lat="69.61096" lon="18.095">
        <ele>66.962783</ele>
        <time>2020-08-26T10:24:47.861Z</time>
      </trkpt>
      <trkpt lat="69.61103" lon="18.0952">
        <ele>66.664039</ele>
        <time>2020-08-26T10:24:50.820Z</time>
      </trkpt>
      <trkpt lat="69.6111" lon="18.0954">
        <ele>66.355721</ele>
        <time>2020-08-26T10:24:53.851Z</time>
      </trkpt>
      <trkpt lat="69.61119" lon="18.09559">
        <ele>66.030888</ele>
        <time>2020-08-26T10:24:56.812Z</time>
      </trkpt>
      <trkpt lat="69.61128" lon="18.09576">
        <ele>65.708617</ele>
        <time>2020-08-26T10:24:59.826Z</time>
      </trkpt>
      <trkpt lat="69.61137" lon="18.09594">
        <ele>65.37278</ele>
        <time>2020-08-26T10:25:02.820Z</time>
      </trkpt>
      <trkpt lat="69.61147" lon="18.09612">
        <ele>65.01906</ele>
        <time>2020-08-26T10:25:05.812Z</time>
      </trkpt>
      <trkpt lat="69.61158" lon="18.09627">
        <ele>64.667385</ele>
        <time>2020-08-26T10:25:08.835Z</time>
      </trkpt>
      <trkpt lat="69.61169" lon="18.09641">
        <ele>64.294629</ele>
        <time>2020-08-26T10:25:11.798Z</time>
      </trkpt>
      <trkpt lat="69.61178" lon="18.0965">
        <ele>64.020459</ele>
        <time>2020-08-26T10:25:13.876Z</time>
      </trkpt>
      <trkpt lat="69.61187" lon="18.09659">
        <ele>63.726603</ele>
        <time>2020-08-26T10:25:15.829Z</time>
      </trkpt>
      <trkpt lat="69.61198" lon="18.09667">
        <ele>63.40496</ele>
        <time>2020-08-26T10:25:17.818Z</time>
      </trkpt>
      <trkpt lat="69.61209" lon="18.09675">
        <ele>63.060675</ele>
        <time>2020-08-26T10:25:19.834Z</time>
      </trkpt>
      <trkpt lat="69.61221" lon="18.09684">
        <ele>62.69673</ele>
        <time>2020-08-26T10:25:21.817Z</time>
      </trkpt>
      <trkpt lat="69.61233" lon="18.09693">
        <ele>62.305191</ele>
        <time>2020-08-26T10:25:23.808Z</time>
      </trkpt>
      <trkpt lat="69.61246" lon="18.09704">
        <ele>61.732141</ele>
        <time>2020-08-26T10:25:25.835Z</time>
      </trkpt>
      <trkpt lat="69.6126" lon="18.09715">
        <ele>61.103985</ele>
        <time>2020-08-26T10:25:27.818Z</time>
      </trkpt>
      <trkpt lat="69.61274" lon="18.09727">
        <ele>60.450046</ele>
        <time>2020-08-26T10:25:29.840Z</time>
      </trkpt>
      <trkpt lat="69.61287" lon="18.09739">
        <ele>59.789917</ele>
        <time>2020-08-26T10:25:31.825Z</time>
      </trkpt>
      <trkpt lat="69.61302" lon="18.09752">
        <ele>59.118148</ele>
        <time>2020-08-26T10:25:33.831Z</time>
      </trkpt>
      <trkpt lat="69.61316" lon="18.09763">
        <ele>58.426746</ele>
        <time>2020-08-26T10:25:35.808Z</time>
      </trkpt>
      <trkpt lat="69.61331" lon="18.09774">
        <ele>57.719047</ele>
        <time>2020-08-26T10:25:37.817Z</time>
      </trkpt>
      <trkpt lat="69.61347" lon="18.09787">
        <ele>57.002835</ele>
        <time>2020-08-26T10:25:39.833Z</time>
      </trkpt>
      <trkpt lat="69.61362" lon="18.09801">
        <ele>56.278391</ele>
        <time>2020-08-26T10:25:41.859Z</time>
      </trkpt>
      <trkpt lat="69.61377" lon="18.09818">
        <ele>55.558469</ele>
        <time>2020-08-26T10:25:43.827Z</time>
      </trkpt>
      <trkpt lat="69.61392" lon="18.09837">
        <ele>54.814275</ele>
        <time>2020-08-26T10:25:45.820Z</time>
      </trkpt>
      <trkpt lat="69.61407" lon="18.09859">
        <ele>54.054524</ele>
        <time>2020-08-26T10:25:47.816Z</time>
      </trkpt>
      <trkpt lat="69.61421" lon="18.09884">
        <ele>53.71969</ele>
        <time>2020-08-26T10:25:49.824Z</time>
      </trkpt>
      <trkpt lat="69.61434" lon="18.09911">
        <ele>53.397458</ele>
        <time>2020-08-26T10:25:51.798Z</time>
      </trkpt>
      <trkpt lat="69.61446" lon="18.09938">
        <ele>53.090614</ele>
        <time>2020-08-26T10:25:53.820Z</time>
      </trkpt>
      <trkpt lat="69.61458" lon="18.09964">
        <ele>52.791099</ele>
        <time>2020-08-26T10:25:55.819Z</time>
      </trkpt>
      <trkpt lat="69.6147" lon="18.09989">
        <ele>52.50101</ele>
        <time>2020-08-26T10:25:57.846Z</time>
      </trkpt>
      <trkpt lat="69.61481" lon="18.10013">
        <ele>52.224322</ele>
        <time>2020-08-26T10:25:59.816Z</time>
      </trkpt>
      <trkpt lat="69.61491" lon="18.10035">
        <ele>51.954237</ele>
        <time>2020-08-26T10:26:01.825Z</time>
      </trkpt>
      <trkpt lat="69.61502" lon="18.10056">
        <ele>51.691828</ele>
        <time>2020-08-26T10:26:03.805Z</time>
      </trkpt>
      <trkpt lat="69.61513" lon="18.10076">
        <ele>51.441151</ele>
        <time>2020-08-26T10:26:05.823Z</time>
      </trkpt>
      <trkpt lat="69.61523" lon="18.10096">
        <ele>51.189769</ele>
        <time>2020-08-26T10:26:07.794Z</time>
      </trkpt>
      <trkpt lat="69.61533" lon="18.10111">
        <ele>50.95731</ele>
        <time>2020-08-26T10:26:09.819Z</time>
      </trkpt>
      <trkpt lat="69.61544" lon="18.10125">
        <ele>50.734442</ele>
        <time>2020-08-26T10:26:11.807Z</time>
      </trkpt>
      <trkpt lat="69.61553" lon="18.10138">
        <ele>50.520345</ele>
        <time>2020-08-26T10:26:13.818Z</time>
      </trkpt>
      <trkpt lat="69.61562" lon="18.10152">
        <ele>50.516326</ele>
        <time>2020-08-26T10:26:15.810Z</time>
      </trkpt>
      <trkpt lat="69.61571" lon="18.10164">
        <ele>50.605765</ele>
        <time>2020-08-26T10:26:17.822Z</time>
      </trkpt>
      <trkpt lat="69.61581" lon="18.10172">
        <ele>50.693628</ele>
        <time>2020-08-26T10:26:19.837Z</time>
      </trkpt>
      <trkpt lat="69.6159" lon="18.10181">
        <ele>50.778082</ele>
        <time>2020-08-26T10:26:21.811Z</time>
      </trkpt>
      <trkpt lat="69.61598" lon="18.10191">
        <ele>50.86048</ele>
        <time>2020-08-26T10:26:23.832Z</time>
      </trkpt>
      <trkpt lat="69.61607" lon="18.10199">
        <ele>50.943685</ele>
        <time>2020-08-26T10:26:25.830Z</time>
      </trkpt>
      <trkpt lat="69.61616" lon="18.10207">
        <ele>51.029594</ele>
        <time>2020-08-26T10:26:27.801Z</time>
      </trkpt>
      <trkpt lat="69.61625" lon="18.10214">
        <ele>51.114469</ele>
        <time>2020-08-26T10:26:29.835Z</time>
      </trkpt>
      <trkpt lat="69.61638" lon="18.10225">
        <ele>51.233996</ele>
        <time>2020-08-26T10:26:32.810Z</time>
      </trkpt>
      <trkpt lat="69.6165" lon="18.10236">
        <ele>51.350215</ele>
        <time>2020-08-26T10:26:35.811Z</time>
      </trkpt>
      <trkpt lat="69.61662" lon="18.10247">
        <ele>51.464132</ele>
        <time>2020-08-26T10:26:38.829Z</time>
      </trkpt>
      <trkpt lat="69.61674" lon="18.10258">
        <ele>51.578237</ele>
        <time>2020-08-26T10:26:41.843Z</time>
      </trkpt>
      <trkpt lat="69.61686" lon="18.1027">
        <ele>51.690792</ele>
        <time>2020-08-26T10:26:44.839Z</time>
      </trkpt>
      <trkpt lat="69.61698" lon="18.10285">
        <ele>51.805893</ele>
        <time>2020-08-26T10:26:47.850Z</time>
      </trkpt>
      <trkpt lat="69.61709" lon="18.103">
        <ele>51.916908</ele>
        <time>2020-08-26T10:26:50.810Z</time>
      </trkpt>
      <trkpt lat="69.6172" lon="18.10315">
        <ele>52.024005</ele>
        <time>2020-08-26T10:26:53.824Z</time>
      </trkpt>
      <trkpt lat="69.61731" lon="18.1033">
        <ele>52.091689</ele>
        <time>2020-08-26T10:26:56.801Z</time>
      </trkpt>
      <trkpt lat="69.61742" lon="18.10348">
        <ele>52.130814</ele>
        <time>2020-08-26T10:26:59.812Z</time>
      </trkpt>
      <trkpt lat="69.61753" lon="18.10367">
        <ele>52.171025</ele>
        <time>2020-08-26T10:27:02.813Z</time>
      </trkpt>
      <trkpt lat="69.61764" lon="18.10387">
        <ele>52.212008</ele>
        <time>2020-08-26T10:27:05.808Z</time>
      </trkpt>
      <trkpt lat="69.61772" lon="18.10402">
        <ele>52.240225</ele>
        <time>2020-08-26T10:27:07.803Z</time>
      </trkpt>
      <trkpt lat="69.61779" lon="18.10416">
        <ele>52.268564</ele>
        <time>2020-08-26T10:27:09.798Z</time>
      </trkpt>
      <trkpt lat="69.61787" lon="18.10433">
        <ele>52.297479</ele>
        <time>2020-08-26T10:27:11.818Z</time>
      </trkpt>
      <trkpt lat="69.61794" lon="18.10449">
        <ele>52.326481</ele>
        <time>2020-08-26T10:27:13.820Z</time>
      </trkpt>
      <trkpt lat="69.61801" lon="18.10466">
        <ele>52.3549</ele>
        <time>2020-08-26T10:27:15.813Z</time>
      </trkpt>
      <trkpt lat="69.61808" lon="18.10484">
        <ele>52.384402</ele>
        <time>2020-08-26T10:27:17.833Z</time>
      </trkpt>
      <trkpt lat="69.61815" lon="18.10503">
        <ele>52.413589</ele>
        <time>2020-08-26T10:27:19.808Z</time>
      </trkpt>
      <trkpt lat="69.61822" lon="18.10523">
        <ele>52.443836</ele>
        <time>2020-08-26T10:27:21.862Z</time>
      </trkpt>
      <trkpt lat="69.61828" lon="18.10542">
        <ele>52.47334</ele>
        <time>2020-08-26T10:27:23.815Z</time>
      </trkpt>
      <trkpt lat="69.61835" lon="18.10562">
        <ele>52.502179</ele>
        <time>2020-08-26T10:27:25.846Z</time>
      </trkpt>
      <trkpt lat="69.61841" lon="18.10581">
        <ele>52.532055</ele>
        <time>2020-08-26T10:27:27.812Z</time>
      </trkpt>
      <trkpt lat="69.61848" lon="18.10601">
        <ele>52.561871</ele>
        <time>2020-08-26T10:27:29.837Z</time>
      </trkpt>
      <trkpt lat="69.61854" lon="18.10623">
        <ele>52.592726</ele>
        <time>2020-08-26T10:27:31.816Z</time>
      </trkpt>
      <trkpt lat="69.61861" lon="18.10647">
        <ele>52.625437</ele>
        <time>2020-08-26T10:27:33.813Z</time>
      </trkpt>
      <trkpt lat="69.61867" lon="18.10672">
        <ele>52.612475</ele>
        <time>2020-08-26T10:27:35.827Z</time>
      </trkpt>
      <trkpt lat="69.61873" lon="18.10698">
        <ele>52.59533</ele>
        <time>2020-08-26T10:27:37.856Z</time>
      </trkpt>
      <trkpt lat="69.61879" lon="18.10723">
        <ele>52.578501</ele>
        <time>2020-08-26T10:27:39.824Z</time>
      </trkpt>
      <trkpt lat="69.61885" lon="18.1075">
        <ele>52.561525</ele>
        <time>2020-08-26T10:27:41.811Z</time>
      </trkpt>
      <trkpt lat="69.61891" lon="18.10778">
        <ele>52.543423</ele>
        <time>2020-08-26T10:27:43.829Z</time>
      </trkpt>
      <trkpt lat="69.61896" lon="18.10808">
        <ele>52.524797</ele>
        <time>2020-08-26T10:27:45.811Z</time>
      </trkpt>
      <trkpt lat="69.61902" lon="18.10838">
        <ele>52.505807</ele>
        <time>2020-08-26T10:27:47.822Z</time>
      </trkpt>
      <trkpt lat="69.61908" lon="18.10869">
        <ele>52.486436</ele>
        <time>2020-08-26T10:27:49.808Z</time>
      </trkpt>
      <trkpt lat="69.61914" lon="18.109">
        <ele>52.467233</ele>
        <time>2020-08-26T10:27:51.821Z</time>
      </trkpt>
      <trkpt lat="69.6192" lon="18.1093">
        <ele>52.447981</ele>
        <time>2020-08-26T10:27:53.820Z</time>
      </trkpt>
      <trkpt lat="69.61925" lon="18.10961">
        <ele>52.429049</ele>
        <time>2020-08-26T10:27:55.835Z</time>
      </trkpt>
      <trkpt lat="69.61931" lon="18.1099">
        <ele>52.410313</ele>
        <time>2020-08-26T10:27:57.820Z</time>
      </trkpt>
      <trkpt lat="69.61938" lon="18.11019">
        <ele>52.391228</ele>
        <time>2020-08-26T10:27:59.807Z</time>
      </trkpt>
      <trkpt lat="69.61944" lon="18.11047">
        <ele>52.37259</ele>
        <time>2020-08-26T10:28:01.809Z</time>
      </trkpt>
      <trkpt lat="69.61951" lon="18.11075">
        <ele>52.354133</ele>
        <time>2020-08-26T10:28:03.810Z</time>
      </trkpt>
      <trkpt lat="69.61959" lon="18.11101">
        <ele>52.490443</ele>
        <time>2020-08-26T10:28:05.808Z</time>
      </trkpt>
      <trkpt lat="69.61966" lon="18.11127">
        <ele>52.792117</ele>
        <time>2020-08-26T10:28:07.810Z</time>
      </trkpt>
      <trkpt lat="69.61973" lon="18.11152">
        <ele>53.096599</ele>
        <time>2020-08-26T10:28:09.821Z</time>
      </trkpt>
      <trkpt lat="69.6198" lon="18.11176">
        <ele>53.387935</ele>
        <time>2020-08-26T10:28:11.809Z</time>
      </trkpt>
      <trkpt lat="69.61987" lon="18.11198">
        <ele>53.6624</ele>
        <time>2020-08-26T10:28:13.833Z</time>
      </trkpt>
      <trkpt lat="69.61993" lon="18.1122">
        <ele>53.93862</ele>
        <time>2020-08-26T10:28:15.809Z</time>
      </trkpt>
      <trkpt lat="69.62" lon="18.11243">
        <ele>54.205995</ele>
        <time>2020-08-26T10:28:17.816Z</time>
      </trkpt>
      <trkpt lat="69.62006" lon="18.11266">
        <ele>54.479419</ele>
        <time>2020-08-26T10:28:19.822Z</time>
      </trkpt>
      <trkpt lat="69.62012" lon="18.11288">
        <ele>54.746615</ele>
        <time>2020-08-26T10:28:21.817Z</time>
      </trkpt>
      <trkpt lat="69.62017" lon="18.11311">
        <ele>55.006615</ele>
        <time>2020-08-26T10:28:23.809Z</time>
      </trkpt>
      <trkpt lat="69.62023" lon="18.11335">
        <ele>55.26529</ele>
        <time>2020-08-26T10:28:25.829Z</time>
      </trkpt>
      <trkpt lat="69.62027" lon="18.11359">
        <ele>55.521879</ele>
        <time>2020-08-26T10:28:27.829Z</time>
      </trkpt>
      <trkpt lat="69.62033" lon="18.11383">
        <ele>55.788774</ele>
        <time>2020-08-26T10:28:29.818Z</time>
      </trkpt>
      <trkpt lat="69.62038" lon="18.11407">
        <ele>56.056757</ele>
        <time>2020-08-26T10:28:31.827Z</time>
      </trkpt>
      <trkpt lat="69.62043" lon="18.11431">
        <ele>56.324128</ele>
        <time>2020-08-26T10:28:33.817Z</time>
      </trkpt>
      <trkpt lat="69.62049" lon="18.11456">
        <ele>56.594126</ele>
        <time>2020-08-26T10:28:35.832Z</time>
      </trkpt>
      <trkpt lat="69.62053" lon="18.11482">
        <ele>56.861742</ele>
        <time>2020-08-26T10:28:37.823Z</time>
      </trkpt>
      <trkpt lat="69.62058" lon="18.11508">
        <ele>57.127774</ele>
        <time>2020-08-26T10:28:39.830Z</time>
      </trkpt>
      <trkpt lat="69.62062" lon="18.11532">
        <ele>57.590309</ele>
        <time>2020-08-26T10:28:41.817Z</time>
      </trkpt>
      <trkpt lat="69.62066" lon="18.11558">
        <ele>58.066025</ele>
        <time>2020-08-26T10:28:43.834Z</time>
      </trkpt>
      <trkpt lat="69.62071" lon="18.11583">
        <ele>58.553678</ele>
        <time>2020-08-26T10:28:45.807Z</time>
      </trkpt>
      <trkpt lat="69.62074" lon="18.11609">
        <ele>59.031374</ele>
        <time>2020-08-26T10:28:47.830Z</time>
      </trkpt>
      <trkpt lat="69.62077" lon="18.11635">
        <ele>59.503437</ele>
        <time>2020-08-26T10:28:49.817Z</time>
      </trkpt>
      <trkpt lat="69.62081" lon="18.1166">
        <ele>59.964139</ele>
        <time>2020-08-26T10:28:51.813Z</time>
      </trkpt>
      <trkpt lat="69.62084" lon="18.11685">
        <ele>60.4216</ele>
        <time>2020-08-26T10:28:53.807Z</time>
      </trkpt>
      <trkpt lat="69.62086" lon="18.11711">
        <ele>60.8783</ele>
        <time>2020-08-26T10:28:55.840Z</time>
      </trkpt>
      <trkpt lat="69.62088" lon="18.11736">
        <ele>61.320803</ele>
        <time>2020-08-26T10:28:57.808Z</time>
      </trkpt>
      <trkpt lat="69.62092" lon="18.11771">
        <ele>61.94274</ele>
        <time>2020-08-26T10:29:00.831Z</time>
      </trkpt>
      <trkpt lat="69.62095" lon="18.11801">
        <ele>62.488794</ele>
        <time>2020-08-26T10:29:03.815Z</time>
      </trkpt>
      <trkpt lat="69.62098" lon="18.11829">
        <ele>62.9868</ele>
        <time>2020-08-26T10:29:06.830Z</time>
      </trkpt>
      <trkpt lat="69.62101" lon="18.11859">
        <ele>63.532846</ele>
        <time>2020-08-26T10:29:10.867Z</time>
      </trkpt>
      <trkpt lat="69.62102" lon="18.11886">
        <ele>63.988996</ele>
        <time>2020-08-26T10:29:14.808Z</time>
      </trkpt>
      <trkpt lat="69.62104" lon="18.11916">
        <ele>64.513847</ele>
        <time>2020-08-26T10:29:19.851Z</time>
      </trkpt>
      <trkpt lat="69.62107" lon="18.11947">
        <ele>65.067123</ele>
        <time>2020-08-26T10:29:24.849Z</time>
      </trkpt>
      <trkpt lat="69.62109" lon="18.11973">
        <ele>65.520047</ele>
        <time>2020-08-26T10:29:28.816Z</time>
      </trkpt>
      <trkpt lat="69.62112" lon="18.12002">
        <ele>66.058077</ele>
        <time>2020-08-26T10:29:33.820Z</time>
      </trkpt>
      <trkpt lat="69.62115" lon="18.12031">
        <ele>66.624466</ele>
        <time>2020-08-26T10:29:38.810Z</time>
      </trkpt>
      <trkpt lat="69.62118" lon="18.12057">
        <ele>67.135136</ele>
        <time>2020-08-26T10:29:43.806Z</time>
      </trkpt>
      <trkpt lat="69.62121" lon="18.12084">
        <ele>67.678584</ele>
        <time>2020-08-26T10:29:48.847Z</time>
      </trkpt>
      <trkpt lat="69.62123" lon="18.1211">
        <ele>68.16807</ele>
        <time>2020-08-26T10:29:52.828Z</time>
      </trkpt>
      <trkpt lat="69.62125" lon="18.12135">
        <ele>68.652613</ele>
        <time>2020-08-26T10:29:56.827Z</time>
      </trkpt>
      <trkpt lat="69.62129" lon="18.12165">
        <ele>69.261388</ele>
        <time>2020-08-26T10:30:01.818Z</time>
      </trkpt>
      <trkpt lat="69.62133" lon="18.12192">
        <ele>69.81119</ele>
        <time>2020-08-26T10:30:05.837Z</time>
      </trkpt>
      <trkpt lat="69.62137" lon="18.12216">
        <ele>70.313608</ele>
        <time>2020-08-26T10:30:09.837Z</time>
      </trkpt>
      <trkpt lat="69.62141" lon="18.1224">
        <ele>70.820665</ele>
        <time>2020-08-26T10:30:13.847Z</time>
      </trkpt>
      <trkpt lat="69.62144" lon="18.12267">
        <ele>71.34965</ele>
        <time>2020-08-26T10:30:17.814Z</time>
      </trkpt>
      <trkpt lat="69.62148" lon="18.12295">
        <ele>71.913708</ele>
        <time>2020-08-26T10:30:21.808Z</time>
      </trkpt>
      <trkpt lat="69.62151" lon="18.12326">
        <ele>72.527573</ele>
        <time>2020-08-26T10:30:25.830Z</time>
      </trkpt>
      <trkpt lat="69.62156" lon="18.12352">
        <ele>73.0767</ele>
        <time>2020-08-26T10:30:28.813Z</time>
      </trkpt>
      <trkpt lat="69.6216" lon="18.12383">
        <ele>73.698712</ele>
        <time>2020-08-26T10:30:31.815Z</time>
      </trkpt>
      <trkpt lat="69.62164" lon="18.12411">
        <ele>74.27274</ele>
        <time>2020-08-26T10:30:34.814Z</time>
      </trkpt>
      <trkpt lat="69.62168" lon="18.12437">
        <ele>74.80612</ele>
        <time>2020-08-26T10:30:37.812Z</time>
      </trkpt>
      <trkpt lat="69.62172" lon="18.12465">
        <ele>75.378077</ele>
        <time>2020-08-26T10:30:40.840Z</time>
      </trkpt>
      <trkpt lat="69.62176" lon="18.12495">
        <ele>75.744008</ele>
        <time>2020-08-26T10:30:43.814Z</time>
      </trkpt>
      <trkpt lat="69.62179" lon="18.12527">
        <ele>75.694861</ele>
        <time>2020-08-26T10:30:46.814Z</time>
      </trkpt>
      <trkpt lat="69.62183" lon="18.12551">
        <ele>75.656871</ele>
        <time>2020-08-26T10:30:48.810Z</time>
      </trkpt>
      <trkpt lat="69.62186" lon="18.12576">
        <ele>75.618177</ele>
        <time>2020-08-26T10:30:50.823Z</time>
      </trkpt>
      <trkpt lat="69.62189" lon="18.126">
        <ele>75.580533</ele>
        <time>2020-08-26T10:30:52.810Z</time>
      </trkpt>
      <trkpt lat="69.62192" lon="18.12625">
        <ele>75.54107</ele>
        <time>2020-08-26T10:30:54.845Z</time>
      </trkpt>
      <trkpt lat="69.62196" lon="18.12652">
        <ele>75.498708</ele>
        <time>2020-08-26T10:30:56.810Z</time>
      </trkpt>
      <trkpt lat="69.622" lon="18.12678">
        <ele>75.457796</ele>
        <time>2020-08-26T10:30:58.821Z</time>
      </trkpt>
      <trkpt lat="69.62203" lon="18.12706">
        <ele>75.414756</ele>
        <time>2020-08-26T10:31:00.817Z</time>
      </trkpt>
      <trkpt lat="69.62207" lon="18.12734">
        <ele>75.3706</ele>
        <time>2020-08-26T10:31:02.857Z</time>
      </trkpt>
      <trkpt lat="69.62211" lon="18.12763">
        <ele>75.325049</ele>
        <time>2020-08-26T10:31:04.806Z</time>
      </trkpt>
      <trkpt lat="69.62214" lon="18.12792">
        <ele>75.280344</ele>
        <time>2020-08-26T10:31:06.819Z</time>
      </trkpt>
      <trkpt lat="69.62219" lon="18.12821">
        <ele>75.232944</ele>
        <time>2020-08-26T10:31:08.827Z</time>
      </trkpt>
      <trkpt lat="69.62223" lon="18.12851">
        <ele>75.184877</ele>
        <time>2020-08-26T10:31:10.804Z</time>
      </trkpt>
      <trkpt lat="69.62228" lon="18.1288">
        <ele>75.138274</ele>
        <time>2020-08-26T10:31:12.832Z</time>
      </trkpt>
      <trkpt lat="69.62233" lon="18.1291">
        <ele>75.090298</ele>
        <time>2020-08-26T10:31:14.827Z</time>
      </trkpt>
      <trkpt lat="69.62238" lon="18.12939">
        <ele>75.043163</ele>
        <time>2020-08-26T10:31:16.812Z</time>
      </trkpt>
      <trkpt lat="69.62243" lon="18.12968">
        <ele>74.959947</ele>
        <time>2020-08-26T10:31:18.810Z</time>
      </trkpt>
      <trkpt lat="69.62248" lon="18.12996">
        <ele>74.720444</ele>
        <time>2020-08-26T10:31:20.815Z</time>
      </trkpt>
      <trkpt lat="69.62254" lon="18.13023">
        <ele>74.489703</ele>
        <time>2020-08-26T10:31:22.811Z</time>
      </trkpt>
      <trkpt lat="69.6226" lon="18.13049">
        <ele>74.255129</ele>
        <time>2020-08-26T10:31:24.832Z</time>
      </trkpt>
      <trkpt lat="69.62266" lon="18.13074">
        <ele>74.029704</ele>
        <time>2020-08-26T10:31:26.832Z</time>
      </trkpt>
      <trkpt lat="69.62273" lon="18.13098">
        <ele>73.800383</ele>
        <time>2020-08-26T10:31:28.854Z</time>
      </trkpt>
      <trkpt lat="69.6228" lon="18.1312">
        <ele>73.573327</ele>
        <time>2020-08-26T10:31:30.832Z</time>
      </trkpt>
      <trkpt lat="69.62287" lon="18.13142">
        <ele>73.355374</ele>
        <time>2020-08-26T10:31:32.820Z</time>
      </trkpt>
      <trkpt lat="69.62294" lon="18.13163">
        <ele>73.140111</ele>
        <time>2020-08-26T10:31:34.842Z</time>
      </trkpt>
      <trkpt lat="69.62301" lon="18.13183">
        <ele>72.930135</ele>
        <time>2020-08-26T10:31:36.813Z</time>
      </trkpt>
      <trkpt lat="69.62308" lon="18.132">
        <ele>72.731798</ele>
        <time>2020-08-26T10:31:38.821Z</time>
      </trkpt>
      <trkpt lat="69.62315" lon="18.13216">
        <ele>72.536928</ele>
        <time>2020-08-26T10:31:40.837Z</time>
      </trkpt>
      <trkpt lat="69.62322" lon="18.13232">
        <ele>72.3459</ele>
        <time>2020-08-26T10:31:42.822Z</time>
      </trkpt>
      <trkpt lat="69.62333" lon="18.13254">
        <ele>72.069691</ele>
        <time>2020-08-26T10:31:45.818Z</time>
      </trkpt>
      <trkpt lat="69.62343" lon="18.13274">
        <ele>71.809469</ele>
        <time>2020-08-26T10:31:48.835Z</time>
      </trkpt>
      <trkpt lat="69.62353" lon="18.13296">
        <ele>71.539323</ele>
        <time>2020-08-26T10:31:51.894Z</time>
      </trkpt>
      <trkpt lat="69.62363" lon="18.1332">
        <ele>71.253703</ele>
        <time>2020-08-26T10:31:54.851Z</time>
      </trkpt>
      <trkpt lat="69.6237" lon="18.13338">
        <ele>71.254564</ele>
        <time>2020-08-26T10:31:56.828Z</time>
      </trkpt>
      <trkpt lat="69.62377" lon="18.13357">
        <ele>71.400383</ele>
        <time>2020-08-26T10:31:58.842Z</time>
      </trkpt>
      <trkpt lat="69.62384" lon="18.13377">
        <ele>71.550589</ele>
        <time>2020-08-26T10:32:00.826Z</time>
      </trkpt>
      <trkpt lat="69.62392" lon="18.13399">
        <ele>71.714394</ele>
        <time>2020-08-26T10:32:02.842Z</time>
      </trkpt>
      <trkpt lat="69.62399" lon="18.13421">
        <ele>71.875119</ele>
        <time>2020-08-26T10:32:04.842Z</time>
      </trkpt>
      <trkpt lat="69.62405" lon="18.13444">
        <ele>72.02796</ele>
        <time>2020-08-26T10:32:06.815Z</time>
      </trkpt>
      <trkpt lat="69.62412" lon="18.13467">
        <ele>72.186432</ele>
        <time>2020-08-26T10:32:08.855Z</time>
      </trkpt>
      <trkpt lat="69.62418" lon="18.1349">
        <ele>72.33474</ele>
        <time>2020-08-26T10:32:10.805Z</time>
      </trkpt>
      <trkpt lat="69.62423" lon="18.13511">
        <ele>72.473857</ele>
        <time>2020-08-26T10:32:12.868Z</time>
      </trkpt>
      <trkpt lat="69.6243" lon="18.13544">
        <ele>72.679192</ele>
        <time>2020-08-26T10:32:15.826Z</time>
      </trkpt>
      <trkpt lat="69.62435" lon="18.13566">
        <ele>72.819207</ele>
        <time>2020-08-26T10:32:17.833Z</time>
      </trkpt>
      <trkpt lat="69.62442" lon="18.13594">
        <ele>73.007068</ele>
        <time>2020-08-26T10:32:20.856Z</time>
      </trkpt>
      <trkpt lat="69.62449" lon="18.13618">
        <ele>73.164821</ele>
        <time>2020-08-26T10:32:23.815Z</time>
      </trkpt>
      <trkpt lat="69.62456" lon="18.13638">
        <ele>73.314816</ele>
        <time>2020-08-26T10:32:26.830Z</time>
      </trkpt>
      <trkpt lat="69.62464" lon="18.13661">
        <ele>73.492499</ele>
        <time>2020-08-26T10:32:30.820Z</time>
      </trkpt>
      <trkpt lat="69.62472" lon="18.13683">
        <ele>73.652729</ele>
        <time>2020-08-26T10:32:34.807Z</time>
      </trkpt>
      <trkpt lat="69.62478" lon="18.13702">
        <ele>73.797073</ele>
        <time>2020-08-26T10:32:38.803Z</time>
      </trkpt>
      <trkpt lat="69.62484" lon="18.13724">
        <ele>73.945195</ele>
        <time>2020-08-26T10:32:42.825Z</time>
      </trkpt>
      <trkpt lat="69.6249" lon="18.13753">
        <ele>74.131522</ele>
        <time>2020-08-26T10:32:46.813Z</time>
      </trkpt>
      <trkpt lat="69.62496" lon="18.13779">
        <ele>74.300689</ele>
        <time>2020-08-26T10:32:49.870Z</time>
      </trkpt>
      <trkpt lat="69.62501" lon="18.13806">
        <ele>74.474596</ele>
        <time>2020-08-26T10:32:52.827Z</time>
      </trkpt>
      <trkpt lat="69.62508" lon="18.13835">
        <ele>74.662243</ele>
        <time>2020-08-26T10:32:55.861Z</time>
      </trkpt>
      <trkpt lat="69.62515" lon="18.13863">
        <ele>74.861265</ele>
        <time>2020-08-26T10:32:58.839Z</time>
      </trkpt>
      <trkpt lat="69.62522" lon="18.13895">
        <ele>75.065073</ele>
        <time>2020-08-26T10:33:01.806Z</time>
      </trkpt>
      <trkpt lat="69.62527" lon="18.13918">
        <ele>75.211328</ele>
        <time>2020-08-26T10:33:03.848Z</time>
      </trkpt>
      <trkpt lat="69.62531" lon="18.13944">
        <ele>75.370042</ele>
        <time>2020-08-26T10:33:05.806Z</time>
      </trkpt>
      <trkpt lat="69.62535" lon="18.13971">
        <ele>75.533561</ele>
        <time>2020-08-26T10:33:07.805Z</time>
      </trkpt>
      <trkpt lat="69.62539" lon="18.14003">
        <ele>75.719987</ele>
        <time>2020-08-26T10:33:09.826Z</time>
      </trkpt>
      <trkpt lat="69.62543" lon="18.14037">
        <ele>75.91839</ele>
        <time>2020-08-26T10:33:11.822Z</time>
      </trkpt>
      <trkpt lat="69.62547" lon="18.1407">
        <ele>76.113366</ele>
        <time>2020-08-26T10:33:13.856Z</time>
      </trkpt>
      <trkpt lat="69.62552" lon="18.14102">
        <ele>76.302126</ele>
        <time>2020-08-26T10:33:15.818Z</time>
      </trkpt>
      <trkpt lat="69.62556" lon="18.14132">
        <ele>76.483883</ele>
        <time>2020-08-26T10:33:17.827Z</time>
      </trkpt>
      <trkpt lat="69.62562" lon="18.1416">
        <ele>76.660582</ele>
        <time>2020-08-26T10:33:19.824Z</time>
      </trkpt>
      <trkpt lat="69.62567" lon="18.14187">
        <ele>76.602001</ele>
        <time>2020-08-26T10:33:21.837Z</time>
      </trkpt>
      <trkpt lat="69.62571" lon="18.14211">
        <ele>76.302479</ele>
        <time>2020-08-26T10:33:23.822Z</time>
      </trkpt>
      <trkpt lat="69.62578" lon="18.14238">
        <ele>75.915165</ele>
        <time>2020-08-26T10:33:26.821Z</time>
      </trkpt>
      <trkpt lat="69.62584" lon="18.1426">
        <ele>75.600175</ele>
        <time>2020-08-26T10:33:29.836Z</time>
      </trkpt>
      <trkpt lat="69.62591" lon="18.14282">
        <ele>75.270135</ele>
        <time>2020-08-26T10:33:33.815Z</time>
      </trkpt>
      <trkpt lat="69.62596" lon="18.14305">
        <ele>74.973148</ele>
        <time>2020-08-26T10:33:37.808Z</time>
      </trkpt>
      <trkpt lat="69.62605" lon="18.14324">
        <ele>74.618708</ele>
        <time>2020-08-26T10:33:42.820Z</time>
      </trkpt>
      <trkpt lat="69.62613" lon="18.14341">
        <ele>74.296822</ele>
        <time>2020-08-26T10:33:46.829Z</time>
      </trkpt>
      <trkpt lat="69.62621" lon="18.14363">
        <ele>73.934611</ele>
        <time>2020-08-26T10:33:51.836Z</time>
      </trkpt>
      <trkpt lat="69.62627" lon="18.14387">
        <ele>73.587848</ele>
        <time>2020-08-26T10:33:56.817Z</time>
      </trkpt>
      <trkpt lat="69.62634" lon="18.14405">
        <ele>73.287946</ele>
        <time>2020-08-26T10:34:00.823Z</time>
      </trkpt>
      <trkpt lat="69.62641" lon="18.14424">
        <ele>72.976329</ele>
        <time>2020-08-26T10:34:04.816Z</time>
      </trkpt>
      <trkpt lat="69.62648" lon="18.1444">
        <ele>72.684823</ele>
        <time>2020-08-26T10:34:07.808Z</time>
      </trkpt>
      <trkpt lat="69.62656" lon="18.14459">
        <ele>72.372128</ele>
        <time>2020-08-26T10:34:10.821Z</time>
      </trkpt>
      <trkpt lat="69.62662" lon="18.1448">
        <ele>72.058656</ele>
        <time>2020-08-26T10:34:13.808Z</time>
      </trkpt>
      <trkpt lat="69.62668" lon="18.14499">
        <ele>71.759877</ele>
        <time>2020-08-26T10:34:16.803Z</time>
      </trkpt>
      <trkpt lat="69.62675" lon="18.14518">
        <ele>71.4475</ele>
        <time>2020-08-26T10:34:19.808Z</time>
      </trkpt>
      <trkpt lat="69.62683" lon="18.1454">
        <ele>71.094581</ele>
        <time>2020-08-26T10:34:22.811Z</time>
      </trkpt>
      <trkpt lat="69.62692" lon="18.14561">
        <ele>70.69277</ele>
        <time>2020-08-26T10:34:25.864Z</time>
      </trkpt>
      <trkpt lat="69.62702" lon="18.14585">
        <ele>70.199723</ele>
        <time>2020-08-26T10:34:28.840Z</time>
      </trkpt>
      <trkpt lat="69.62708" lon="18.14604">
        <ele>69.843049</ele>
        <time>2020-08-26T10:34:30.813Z</time>
      </trkpt>
      <trkpt lat="69.62715" lon="18.14625">
        <ele>69.464341</ele>
        <time>2020-08-26T10:34:32.839Z</time>
      </trkpt>
      <trkpt lat="69.62722" lon="18.14647">
        <ele>69.070863</ele>
        <time>2020-08-26T10:34:34.837Z</time>
      </trkpt>
      <trkpt lat="69.6273" lon="18.14667">
        <ele>68.662136</ele>
        <time>2020-08-26T10:34:36.830Z</time>
      </trkpt>
      <trkpt lat="69.6274" lon="18.14685">
        <ele>68.233881</ele>
        <time>2020-08-26T10:34:38.827Z</time>
      </trkpt>
      <trkpt lat="69.6275" lon="18.14708">
        <ele>67.753164</ele>
        <time>2020-08-26T10:34:40.802Z</time>
      </trkpt>
      <trkpt lat="69.62761" lon="18.14732">
        <ele>67.229867</ele>
        <time>2020-08-26T10:34:42.815Z</time>
      </trkpt>
      <trkpt lat="69.62771" lon="18.14758">
        <ele>66.719019</ele>
        <time>2020-08-26T10:34:44.839Z</time>
      </trkpt>
      <trkpt lat="69.6278" lon="18.14785">
        <ele>66.211847</ele>
        <time>2020-08-26T10:34:46.813Z</time>
      </trkpt>
      <trkpt lat="69.6279" lon="18.14809">
        <ele>65.734791</ele>
        <time>2020-08-26T10:34:48.832Z</time>
      </trkpt>
      <trkpt lat="69.62798" lon="18.14831">
        <ele>65.308825</ele>
        <time>2020-08-26T10:34:50.834Z</time>
      </trkpt>
      <trkpt lat="69.62805" lon="18.14852">
        <ele>64.919344</ele>
        <time>2020-08-26T10:34:52.814Z</time>
      </trkpt>
      <trkpt lat="69.62814" lon="18.14874">
        <ele>64.475661</ele>
        <time>2020-08-26T10:34:55.837Z</time>
      </trkpt>
      <trkpt lat="69.62821" lon="18.14893">
        <ele>64.127323</ele>
        <time>2020-08-26T10:34:58.831Z</time>
      </trkpt>
      <trkpt lat="69.62828" lon="18.14916">
        <ele>64.197399</ele>
        <time>2020-08-26T10:35:01.812Z</time>
      </trkpt>
      <trkpt lat="69.62836" lon="18.1494">
        <ele>64.274352</ele>
        <time>2020-08-26T10:35:04.836Z</time>
      </trkpt>
      <trkpt lat="69.62844" lon="18.14963">
        <ele>64.350716</ele>
        <time>2020-08-26T10:35:07.831Z</time>
      </trkpt>
      <trkpt lat="69.62852" lon="18.14988">
        <ele>64.427703</ele>
        <time>2020-08-26T10:35:10.850Z</time>
      </trkpt>
      <trkpt lat="69.6286" lon="18.15016">
        <ele>64.512127</ele>
        <time>2020-08-26T10:35:13.848Z</time>
      </trkpt>
      <trkpt lat="69.62869" lon="18.15045">
        <ele>64.601361</ele>
        <time>2020-08-26T10:35:16.832Z</time>
      </trkpt>
      <trkpt lat="69.62875" lon="18.15064">
        <ele>64.661902</ele>
        <time>2020-08-26T10:35:18.820Z</time>
      </trkpt>
      <trkpt lat="69.62881" lon="18.15087">
        <ele>64.725672</ele>
        <time>2020-08-26T10:35:20.823Z</time>
      </trkpt>
      <trkpt lat="69.62886" lon="18.15111">
        <ele>64.793074</ele>
        <time>2020-08-26T10:35:22.849Z</time>
      </trkpt>
      <trkpt lat="69.62893" lon="18.15139">
        <ele>64.873259</ele>
        <time>2020-08-26T10:35:24.841Z</time>
      </trkpt>
      <trkpt lat="69.62901" lon="18.15169">
        <ele>64.961872</ele>
        <time>2020-08-26T10:35:26.849Z</time>
      </trkpt>
      <trkpt lat="69.62909" lon="18.15202">
        <ele>65.054004</ele>
        <time>2020-08-26T10:35:28.815Z</time>
      </trkpt>
      <trkpt lat="69.62917" lon="18.15238">
        <ele>65.153039</ele>
        <time>2020-08-26T10:35:30.857Z</time>
      </trkpt>
      <trkpt lat="69.62924" lon="18.15276">
        <ele>65.253374</ele>
        <time>2020-08-26T10:35:32.819Z</time>
      </trkpt>
      <trkpt lat="69.62931" lon="18.15314">
        <ele>65.197578</ele>
        <time>2020-08-26T10:35:34.871Z</time>
      </trkpt>
      <trkpt lat="69.62939" lon="18.15352">
        <ele>64.810175</ele>
        <time>2020-08-26T10:35:36.817Z</time>
      </trkpt>
      <trkpt lat="69.62945" lon="18.15388">
        <ele>64.434393</ele>
        <time>2020-08-26T10:35:38.819Z</time>
      </trkpt>
      <trkpt lat="69.62952" lon="18.15424">
        <ele>64.06497</ele>
        <time>2020-08-26T10:35:40.832Z</time>
      </trkpt>
      <trkpt lat="69.62958" lon="18.1546">
        <ele>63.706599</ele>
        <time>2020-08-26T10:35:42.833Z</time>
      </trkpt>
      <trkpt lat="69.62963" lon="18.15498">
        <ele>63.341686</ele>
        <time>2020-08-26T10:35:44.826Z</time>
      </trkpt>
      <trkpt lat="69.62967" lon="18.15535">
        <ele>62.989662</ele>
        <time>2020-08-26T10:35:46.821Z</time>
      </trkpt>
      <trkpt lat="69.62972" lon="18.15568">
        <ele>62.671907</ele>
        <time>2020-08-26T10:35:48.799Z</time>
      </trkpt>
      <trkpt lat="69.62974" lon="18.15603">
        <ele>62.349799</ele>
        <time>2020-08-26T10:35:51.852Z</time>
      </trkpt>
      <trkpt lat="69.62974" lon="18.15631">
        <ele>62.099009</ele>
        <time>2020-08-26T10:35:58.818Z</time>
      </trkpt>
      <trkpt lat="69.62975" lon="18.15658">
        <ele>61.858305</ele>
        <time>2020-08-26T10:36:01.831Z</time>
      </trkpt>
      <trkpt lat="69.62878" lon="18.17282">
        <ele>56.816856</ele>
        <time>2020-08-26T10:37:25.883Z</time>
      </trkpt>
      <trkpt lat="69.62894" lon="18.17331">
        <ele>55.685049</ele>
        <time>2020-08-26T10:37:26.824Z</time>
      </trkpt>
      <trkpt lat="69.62897" lon="18.17289">
        <ele>54.477686</ele>
        <time>2020-08-26T10:37:27.821Z</time>
      </trkpt>
      <trkpt lat="69.62877" lon="18.17347">
        <ele>52.180527</ele>
        <time>2020-08-26T10:37:29.833Z</time>
      </trkpt>
      <trkpt lat="69.62872" lon="18.17387">
        <ele>50.975934</ele>
        <time>2020-08-26T10:37:31.811Z</time>
      </trkpt>
      <trkpt lat="69.62864" lon="18.17426">
        <ele>49.693804</ele>
        <time>2020-08-26T10:37:33.816Z</time>
      </trkpt>
      <trkpt lat="69.62854" lon="18.17461">
        <ele>48.426934</ele>
        <time>2020-08-26T10:37:35.830Z</time>
      </trkpt>
      <trkpt lat="69.62845" lon="18.17494">
        <ele>47.206687</ele>
        <time>2020-08-26T10:37:37.814Z</time>
      </trkpt>
      <trkpt lat="69.62836" lon="18.17525">
        <ele>46.090037</ele>
        <time>2020-08-26T10:37:39.814Z</time>
      </trkpt>
      <trkpt lat="69.62829" lon="18.17551">
        <ele>45.141615</ele>
        <time>2020-08-26T10:37:41.854Z</time>
      </trkpt>
      <trkpt lat="69.62822" lon="18.17572">
        <ele>44.347973</ele>
        <time>2020-08-26T10:37:43.815Z</time>
      </trkpt>
      <trkpt lat="69.62815" lon="18.17598">
        <ele>43.370055</ele>
        <time>2020-08-26T10:37:46.860Z</time>
      </trkpt>
      <trkpt lat="69.62806" lon="18.17623">
        <ele>42.35255</ele>
        <time>2020-08-26T10:37:49.848Z</time>
      </trkpt>
      <trkpt lat="69.62799" lon="18.17644">
        <ele>41.949362</ele>
        <time>2020-08-26T10:37:51.824Z</time>
      </trkpt>
      <trkpt lat="69.62791" lon="18.17666">
        <ele>42.008489</ele>
        <time>2020-08-26T10:37:53.808Z</time>
      </trkpt>
      <trkpt lat="69.62782" lon="18.17692">
        <ele>42.07732</ele>
        <time>2020-08-26T10:37:55.808Z</time>
      </trkpt>
      <trkpt lat="69.62772" lon="18.1772">
        <ele>42.151288</ele>
        <time>2020-08-26T10:37:57.860Z</time>
      </trkpt>
      <trkpt lat="69.62761" lon="18.17751">
        <ele>42.231372</ele>
        <time>2020-08-26T10:37:59.839Z</time>
      </trkpt>
      <trkpt lat="69.6275" lon="18.17786">
        <ele>42.317947</ele>
        <time>2020-08-26T10:38:01.827Z</time>
      </trkpt>
      <trkpt lat="69.6274" lon="18.17823">
        <ele>42.405965</ele>
        <time>2020-08-26T10:38:03.820Z</time>
      </trkpt>
      <trkpt lat="69.6273" lon="18.17861">
        <ele>42.4922</ele>
        <time>2020-08-26T10:38:05.831Z</time>
      </trkpt>
      <trkpt lat="69.62721" lon="18.17897">
        <ele>42.57374</ele>
        <time>2020-08-26T10:38:07.816Z</time>
      </trkpt>
      <trkpt lat="69.62713" lon="18.17928">
        <ele>42.646277</ele>
        <time>2020-08-26T10:38:09.816Z</time>
      </trkpt>
      <trkpt lat="69.62705" lon="18.17956">
        <ele>42.71192</ele>
        <time>2020-08-26T10:38:11.808Z</time>
      </trkpt>
      <trkpt lat="69.62698" lon="18.1798">
        <ele>42.771327</ele>
        <time>2020-08-26T10:38:13.840Z</time>
      </trkpt>
      <trkpt lat="69.6269" lon="18.18002">
        <ele>42.82905</ele>
        <time>2020-08-26T10:38:15.824Z</time>
      </trkpt>
      <trkpt lat="69.62682" lon="18.18023">
        <ele>42.918785</ele>
        <time>2020-08-26T10:38:17.853Z</time>
      </trkpt>
      <trkpt lat="69.62673" lon="18.18047">
        <ele>43.154826</ele>
        <time>2020-08-26T10:38:19.821Z</time>
      </trkpt>
      <trkpt lat="69.62662" lon="18.18073">
        <ele>43.418517</ele>
        <time>2020-08-26T10:38:21.839Z</time>
      </trkpt>
      <trkpt lat="69.62651" lon="18.18101">
        <ele>43.704891</ele>
        <time>2020-08-26T10:38:23.849Z</time>
      </trkpt>
      <trkpt lat="69.62639" lon="18.18132">
        <ele>44.011184</ele>
        <time>2020-08-26T10:38:25.829Z</time>
      </trkpt>
      <trkpt lat="69.62627" lon="18.18163">
        <ele>44.32434</ele>
        <time>2020-08-26T10:38:27.813Z</time>
      </trkpt>
      <trkpt lat="69.62616" lon="18.18195">
        <ele>44.631882</ele>
        <time>2020-08-26T10:38:29.826Z</time>
      </trkpt>
      <trkpt lat="69.62606" lon="18.18226">
        <ele>44.922046</ele>
        <time>2020-08-26T10:38:31.845Z</time>
      </trkpt>
      <trkpt lat="69.62597" lon="18.18255">
        <ele>45.180521</ele>
        <time>2020-08-26T10:38:33.852Z</time>
      </trkpt>
      <trkpt lat="69.62589" lon="18.1828">
        <ele>45.400225</ele>
        <time>2020-08-26T10:38:35.808Z</time>
      </trkpt>
      <trkpt lat="69.62583" lon="18.183">
        <ele>45.575549</ele>
        <time>2020-08-26T10:38:37.832Z</time>
      </trkpt>
      <trkpt lat="69.62577" lon="18.18322">
        <ele>45.767117</ele>
        <time>2020-08-26T10:38:40.906Z</time>
      </trkpt>
      <trkpt lat="69.62571" lon="18.18344">
        <ele>45.955694</ele>
        <time>2020-08-26T10:38:44.824Z</time>
      </trkpt>
      <trkpt lat="69.62565" lon="18.18365">
        <ele>46.138187</ele>
        <time>2020-08-26T10:38:48.812Z</time>
      </trkpt>
      <trkpt lat="69.6256" lon="18.18385">
        <ele>46.311948</ele>
        <time>2020-08-26T10:38:52.849Z</time>
      </trkpt>
      <trkpt lat="69.62554" lon="18.18408">
        <ele>46.486286</ele>
        <time>2020-08-26T10:38:56.841Z</time>
      </trkpt>
      <trkpt lat="69.62547" lon="18.18431">
        <ele>46.6649</ele>
        <time>2020-08-26T10:39:00.821Z</time>
      </trkpt>
      <trkpt lat="69.62541" lon="18.18454">
        <ele>46.845454</ele>
        <time>2020-08-26T10:39:04.809Z</time>
      </trkpt>
      <trkpt lat="69.62534" lon="18.18478">
        <ele>47.030392</ele>
        <time>2020-08-26T10:39:08.808Z</time>
      </trkpt>
      <trkpt lat="69.62528" lon="18.185">
        <ele>47.198528</ele>
        <time>2020-08-26T10:39:12.832Z</time>
      </trkpt>
      <trkpt lat="69.6252" lon="18.18525">
        <ele>47.4035</ele>
        <time>2020-08-26T10:39:16.873Z</time>
      </trkpt>
      <trkpt lat="69.62513" lon="18.18545">
        <ele>47.576957</ele>
        <time>2020-08-26T10:39:19.831Z</time>
      </trkpt>
      <trkpt lat="69.62504" lon="18.18571">
        <ele>47.806956</ele>
        <time>2020-08-26T10:39:22.814Z</time>
      </trkpt>
      <trkpt lat="69.62495" lon="18.18593">
        <ele>48.003532</ele>
        <time>2020-08-26T10:39:24.826Z</time>
      </trkpt>
      <trkpt lat="69.62485" lon="18.18617">
        <ele>48.232387</ele>
        <time>2020-08-26T10:39:26.824Z</time>
      </trkpt>
      <trkpt lat="69.62474" lon="18.18644">
        <ele>48.489096</ele>
        <time>2020-08-26T10:39:28.805Z</time>
      </trkpt>
      <trkpt lat="69.62461" lon="18.18673">
        <ele>48.767777</ele>
        <time>2020-08-26T10:39:30.833Z</time>
      </trkpt>
      <trkpt lat="69.62448" lon="18.18704">
        <ele>49.067722</ele>
        <time>2020-08-26T10:39:32.808Z</time>
      </trkpt>
      <trkpt lat="69.62436" lon="18.18738">
        <ele>49.35272</ele>
        <time>2020-08-26T10:39:34.812Z</time>
      </trkpt>
      <trkpt lat="69.62427" lon="18.18768">
        <ele>49.222844</ele>
        <time>2020-08-26T10:39:36.815Z</time>
      </trkpt>
      <trkpt lat="69.62419" lon="18.18794">
        <ele>48.787534</ele>
        <time>2020-08-26T10:39:38.813Z</time>
      </trkpt>
      <trkpt lat="69.62413" lon="18.18815">
        <ele>48.441227</ele>
        <time>2020-08-26T10:39:40.837Z</time>
      </trkpt>
      <trkpt lat="69.62407" lon="18.18839">
        <ele>48.070994</ele>
        <time>2020-08-26T10:39:43.813Z</time>
      </trkpt>
      <trkpt lat="69.62401" lon="18.18863">
        <ele>47.692525</ele>
        <time>2020-08-26T10:39:47.831Z</time>
      </trkpt>
      <trkpt lat="69.62396" lon="18.18889">
        <ele>47.298209</ele>
        <time>2020-08-26T10:39:51.853Z</time>
      </trkpt>
      <trkpt lat="69.62391" lon="18.18913">
        <ele>46.951102</ele>
        <time>2020-08-26T10:39:54.822Z</time>
      </trkpt>
      <trkpt lat="69.62386" lon="18.18938">
        <ele>46.585767</ele>
        <time>2020-08-26T10:39:57.828Z</time>
      </trkpt>
      <trkpt lat="69.62381" lon="18.18964">
        <ele>46.215927</ele>
        <time>2020-08-26T10:40:00.817Z</time>
      </trkpt>
      <trkpt lat="69.62376" lon="18.18994">
        <ele>45.787839</ele>
        <time>2020-08-26T10:40:03.838Z</time>
      </trkpt>
      <trkpt lat="69.62371" lon="18.19016">
        <ele>45.455735</ele>
        <time>2020-08-26T10:40:05.840Z</time>
      </trkpt>
      <trkpt lat="69.62366" lon="18.19039">
        <ele>45.105103</ele>
        <time>2020-08-26T10:40:07.814Z</time>
      </trkpt>
      <trkpt lat="69.6236" lon="18.19066">
        <ele>44.699171</ele>
        <time>2020-08-26T10:40:09.814Z</time>
      </trkpt>
      <trkpt lat="69.62353" lon="18.19099">
        <ele>44.199234</ele>
        <time>2020-08-26T10:40:11.826Z</time>
      </trkpt>
      <trkpt lat="69.62345" lon="18.19136">
        <ele>43.646774</ele>
        <time>2020-08-26T10:40:13.831Z</time>
      </trkpt>
      <trkpt lat="69.62338" lon="18.19176">
        <ele>43.079281</ele>
        <time>2020-08-26T10:40:15.830Z</time>
      </trkpt>
      <trkpt lat="69.62331" lon="18.19215">
        <ele>42.65557</ele>
        <time>2020-08-26T10:40:17.837Z</time>
      </trkpt>
      <trkpt lat="69.62325" lon="18.19254">
        <ele>42.314541</ele>
        <time>2020-08-26T10:40:19.825Z</time>
      </trkpt>
      <trkpt lat="69.62321" lon="18.1929">
        <ele>42.002504</ele>
        <time>2020-08-26T10:40:21.844Z</time>
      </trkpt>
      <trkpt lat="69.62317" lon="18.19325">
        <ele>41.71034</ele>
        <time>2020-08-26T10:40:23.845Z</time>
      </trkpt>
      <trkpt lat="69.62313" lon="18.19357">
        <ele>41.430357</ele>
        <time>2020-08-26T10:40:25.818Z</time>
      </trkpt>
      <trkpt lat="69.6231" lon="18.19389">
        <ele>41.166961</ele>
        <time>2020-08-26T10:40:27.820Z</time>
      </trkpt>
      <trkpt lat="69.62307" lon="18.19417">
        <ele>40.926509</ele>
        <time>2020-08-26T10:40:29.867Z</time>
      </trkpt>
      <trkpt lat="69.62305" lon="18.19444">
        <ele>40.70199</ele>
        <time>2020-08-26T10:40:31.823Z</time>
      </trkpt>
      <trkpt lat="69.62302" lon="18.19469">
        <ele>40.492152</ele>
        <time>2020-08-26T10:40:33.824Z</time>
      </trkpt>
      <trkpt lat="69.62299" lon="18.19502">
        <ele>40.212013</ele>
        <time>2020-08-26T10:40:36.808Z</time>
      </trkpt>
      <trkpt lat="69.62296" lon="18.19532">
        <ele>39.957041</ele>
        <time>2020-08-26T10:40:39.821Z</time>
      </trkpt>
      <trkpt lat="69.62294" lon="18.19561">
        <ele>39.723008</ele>
        <time>2020-08-26T10:40:42.809Z</time>
      </trkpt>
      <trkpt lat="69.62291" lon="18.1959">
        <ele>39.472432</ele>
        <time>2020-08-26T10:40:45.848Z</time>
      </trkpt>
      <trkpt lat="69.62287" lon="18.19627">
        <ele>39.159368</ele>
        <time>2020-08-26T10:40:48.816Z</time>
      </trkpt>
      <trkpt lat="69.62284" lon="18.19657">
        <ele>38.907672</ele>
        <time>2020-08-26T10:40:50.833Z</time>
      </trkpt>
      <trkpt lat="69.6228" lon="18.19691">
        <ele>38.72359</ele>
        <time>2020-08-26T10:40:52.876Z</time>
      </trkpt>
      <trkpt lat="69.62277" lon="18.19728">
        <ele>38.758769</ele>
        <time>2020-08-26T10:40:54.825Z</time>
      </trkpt>
      <trkpt lat="69.62273" lon="18.19768">
        <ele>38.795387</ele>
        <time>2020-08-26T10:40:56.840Z</time>
      </trkpt>
      <trkpt lat="69.62269" lon="18.19808">
        <ele>38.833601</ele>
        <time>2020-08-26T10:40:58.825Z</time>
      </trkpt>
      <trkpt lat="69.62265" lon="18.19849">
        <ele>38.871816</ele>
        <time>2020-08-26T10:41:00.862Z</time>
      </trkpt>
      <trkpt lat="69.6226" lon="18.19887">
        <ele>38.908275</ele>
        <time>2020-08-26T10:41:02.818Z</time>
      </trkpt>
      <trkpt lat="69.62256" lon="18.19924">
        <ele>38.942869</ele>
        <time>2020-08-26T10:41:04.828Z</time>
      </trkpt>
      <trkpt lat="69.6225" lon="18.19957">
        <ele>38.975819</ele>
        <time>2020-08-26T10:41:06.817Z</time>
      </trkpt>
      <trkpt lat="69.62245" lon="18.19989">
        <ele>39.008014</ele>
        <time>2020-08-26T10:41:08.838Z</time>
      </trkpt>
      <trkpt lat="69.62239" lon="18.20019">
        <ele>39.038287</ele>
        <time>2020-08-26T10:41:10.829Z</time>
      </trkpt>
      <trkpt lat="69.62234" lon="18.20047">
        <ele>39.067787</ele>
        <time>2020-08-26T10:41:12.811Z</time>
      </trkpt>
      <trkpt lat="69.62227" lon="18.20074">
        <ele>39.097031</ele>
        <time>2020-08-26T10:41:14.833Z</time>
      </trkpt>
      <trkpt lat="69.62221" lon="18.20098">
        <ele>39.123708</ele>
        <time>2020-08-26T10:41:16.849Z</time>
      </trkpt>
      <trkpt lat="69.62215" lon="18.20118">
        <ele>39.148486</ele>
        <time>2020-08-26T10:41:18.853Z</time>
      </trkpt>
      <trkpt lat="69.62206" lon="18.20145">
        <ele>39.222547</ele>
        <time>2020-08-26T10:41:21.800Z</time>
      </trkpt>
      <trkpt lat="69.62199" lon="18.20163">
        <ele>39.5015</ele>
        <time>2020-08-26T10:41:23.850Z</time>
      </trkpt>
      <trkpt lat="69.62192" lon="18.20178">
        <ele>39.782259</ele>
        <time>2020-08-26T10:41:25.814Z</time>
      </trkpt>
      <trkpt lat="69.62184" lon="18.20194">
        <ele>40.066264</ele>
        <time>2020-08-26T10:41:27.834Z</time>
      </trkpt>
      <trkpt lat="69.62174" lon="18.20217">
        <ele>40.462713</ele>
        <time>2020-08-26T10:41:30.820Z</time>
      </trkpt>
      <trkpt lat="69.62164" lon="18.20238">
        <ele>40.848561</ele>
        <time>2020-08-26T10:41:33.838Z</time>
      </trkpt>
      <trkpt lat="69.62154" lon="18.20257">
        <ele>41.208214</ele>
        <time>2020-08-26T10:41:36.827Z</time>
      </trkpt>
      <trkpt lat="69.62144" lon="18.2028">
        <ele>41.600224</ele>
        <time>2020-08-26T10:41:39.824Z</time>
      </trkpt>
      <trkpt lat="69.62137" lon="18.20297">
        <ele>41.87901</ele>
        <time>2020-08-26T10:41:41.820Z</time>
      </trkpt>
      <trkpt lat="69.6213" lon="18.20311">
        <ele>42.15794</ele>
        <time>2020-08-26T10:41:43.819Z</time>
      </trkpt>
      <trkpt lat="69.62121" lon="18.20325">
        <ele>42.481187</ele>
        <time>2020-08-26T10:41:45.823Z</time>
      </trkpt>
      <trkpt lat="69.62111" lon="18.20342">
        <ele>42.814221</ele>
        <time>2020-08-26T10:41:47.832Z</time>
      </trkpt>
      <trkpt lat="69.62102" lon="18.20363">
        <ele>43.186254</ele>
        <time>2020-08-26T10:41:49.831Z</time>
      </trkpt>
      <trkpt lat="69.62092" lon="18.20386">
        <ele>43.58166</ele>
        <time>2020-08-26T10:41:51.829Z</time>
      </trkpt>
      <trkpt lat="69.62082" lon="18.2041">
        <ele>43.964626</ele>
        <time>2020-08-26T10:41:53.840Z</time>
      </trkpt>
      <trkpt lat="69.62074" lon="18.20435">
        <ele>44.34645</ele>
        <time>2020-08-26T10:41:55.807Z</time>
      </trkpt>
      <trkpt lat="69.62066" lon="18.20461">
        <ele>44.714341</ele>
        <time>2020-08-26T10:41:57.828Z</time>
      </trkpt>
      <trkpt lat="69.62059" lon="18.20486">
        <ele>44.506807</ele>
        <time>2020-08-26T10:41:59.821Z</time>
      </trkpt>
      <trkpt lat="69.62053" lon="18.20511">
        <ele>44.305892</ele>
        <time>2020-08-26T10:42:01.821Z</time>
      </trkpt>
      <trkpt lat="69.62046" lon="18.20538">
        <ele>44.086536</ele>
        <time>2020-08-26T10:42:03.820Z</time>
      </trkpt>
      <trkpt lat="69.62039" lon="18.20565">
        <ele>43.867385</ele>
        <time>2020-08-26T10:42:05.855Z</time>
      </trkpt>
      <trkpt lat="69.62034" lon="18.20591">
        <ele>43.667157</ele>
        <time>2020-08-26T10:42:07.867Z</time>
      </trkpt>
      <trkpt lat="69.62029" lon="18.20618">
        <ele>43.47193</ele>
        <time>2020-08-26T10:42:09.828Z</time>
      </trkpt>
      <trkpt lat="69.62025" lon="18.20643">
        <ele>43.293394</ele>
        <time>2020-08-26T10:42:11.862Z</time>
      </trkpt>
      <trkpt lat="69.6202" lon="18.20677">
        <ele>43.054656</ele>
        <time>2020-08-26T10:42:14.849Z</time>
      </trkpt>
      <trkpt lat="69.62017" lon="18.20709">
        <ele>42.832727</ele>
        <time>2020-08-26T10:42:17.828Z</time>
      </trkpt>
      <trkpt lat="69.62014" lon="18.20739">
        <ele>42.631046</ele>
        <time>2020-08-26T10:42:20.834Z</time>
      </trkpt>
      <trkpt lat="69.62011" lon="18.20766">
        <ele>42.443407</ele>
        <time>2020-08-26T10:42:23.841Z</time>
      </trkpt>
      <trkpt lat="69.62009" lon="18.20795">
        <ele>42.248673</ele>
        <time>2020-08-26T10:42:26.844Z</time>
      </trkpt>
      <trkpt lat="69.62008" lon="18.20826">
        <ele>42.047713</ele>
        <time>2020-08-26T10:42:29.835Z</time>
      </trkpt>
      <trkpt lat="69.62007" lon="18.20857">
        <ele>41.841121</ele>
        <time>2020-08-26T10:42:32.817Z</time>
      </trkpt>
      <trkpt lat="69.62007" lon="18.2089">
        <ele>41.630359</ele>
        <time>2020-08-26T10:42:35.857Z</time>
      </trkpt>
      <trkpt lat="69.62008" lon="18.20923">
        <ele>41.40964</ele>
        <time>2020-08-26T10:42:38.815Z</time>
      </trkpt>
      <trkpt lat="69.6201" lon="18.20956">
        <ele>41.173115</ele>
        <time>2020-08-26T10:42:41.846Z</time>
      </trkpt>
      <trkpt lat="69.62012" lon="18.20989">
        <ele>40.927318</ele>
        <time>2020-08-26T10:42:44.814Z</time>
      </trkpt>
      <trkpt lat="69.62016" lon="18.21028">
        <ele>40.638424</ele>
        <time>2020-08-26T10:42:47.850Z</time>
      </trkpt>
      <trkpt lat="69.62018" lon="18.21058">
        <ele>40.412007</ele>
        <time>2020-08-26T10:42:49.813Z</time>
      </trkpt>
      <trkpt lat="69.62021" lon="18.21091">
        <ele>40.168598</ele>
        <time>2020-08-26T10:42:51.863Z</time>
      </trkpt>
      <trkpt lat="69.62023" lon="18.21125">
        <ele>39.915025</ele>
        <time>2020-08-26T10:42:53.825Z</time>
      </trkpt>
      <trkpt lat="69.62026" lon="18.21159">
        <ele>39.65954</ele>
        <time>2020-08-26T10:42:55.833Z</time>
      </trkpt>
      <trkpt lat="69.62029" lon="18.21193">
        <ele>39.408321</ele>
        <time>2020-08-26T10:42:57.823Z</time>
      </trkpt>
      <trkpt lat="69.62032" lon="18.21226">
        <ele>39.155341</ele>
        <time>2020-08-26T10:42:59.866Z</time>
      </trkpt>
      <trkpt lat="69.62035" lon="18.21257">
        <ele>38.917406</ele>
        <time>2020-08-26T10:43:01.815Z</time>
      </trkpt>
      <trkpt lat="69.62039" lon="18.21287">
        <ele>38.692631</ele>
        <time>2020-08-26T10:43:03.818Z</time>
      </trkpt>
      <trkpt lat="69.62042" lon="18.21314">
        <ele>38.480562</ele>
        <time>2020-08-26T10:43:05.869Z</time>
      </trkpt>
      <trkpt lat="69.62046" lon="18.21341">
        <ele>38.267354</ele>
        <time>2020-08-26T10:43:07.835Z</time>
      </trkpt>
      <trkpt lat="69.6205" lon="18.21368">
        <ele>38.0573</ele>
        <time>2020-08-26T10:43:09.813Z</time>
      </trkpt>
      <trkpt lat="69.62054" lon="18.21393">
        <ele>37.856461</ele>
        <time>2020-08-26T10:43:11.814Z</time>
      </trkpt>
      <trkpt lat="69.62057" lon="18.21419">
        <ele>37.65176</ele>
        <time>2020-08-26T10:43:13.823Z</time>
      </trkpt>
      <trkpt lat="69.62062" lon="18.21443">
        <ele>37.553359</ele>
        <time>2020-08-26T10:43:15.816Z</time>
      </trkpt>
      <trkpt lat="69.62067" lon="18.21466">
        <ele>37.518042</ele>
        <time>2020-08-26T10:43:17.813Z</time>
      </trkpt>
      <trkpt lat="69.62072" lon="18.21488">
        <ele>37.482777</ele>
        <time>2020-08-26T10:43:19.824Z</time>
      </trkpt>
      <trkpt lat="69.62078" lon="18.21511">
        <ele>37.445781</ele>
        <time>2020-08-26T10:43:21.832Z</time>
      </trkpt>
      <trkpt lat="69.62084" lon="18.21533">
        <ele>37.409269</ele>
        <time>2020-08-26T10:43:23.831Z</time>
      </trkpt>
      <trkpt lat="69.6209" lon="18.21554">
        <ele>37.373971</ele>
        <time>2020-08-26T10:43:25.825Z</time>
      </trkpt>
      <trkpt lat="69.62096" lon="18.21575">
        <ele>37.336836</ele>
        <time>2020-08-26T10:43:27.851Z</time>
      </trkpt>
      <trkpt lat="69.62104" lon="18.21595">
        <ele>37.297582</ele>
        <time>2020-08-26T10:43:29.848Z</time>
      </trkpt>
      <trkpt lat="69.62112" lon="18.21616">
        <ele>37.257602</ele>
        <time>2020-08-26T10:43:31.819Z</time>
      </trkpt>
      <trkpt lat="69.62119" lon="18.21638">
        <ele>37.216616</ele>
        <time>2020-08-26T10:43:33.852Z</time>
      </trkpt>
      <trkpt lat="69.62127" lon="18.21661">
        <ele>37.174087</ele>
        <time>2020-08-26T10:43:35.812Z</time>
      </trkpt>
      <trkpt lat="69.62135" lon="18.21684">
        <ele>37.132183</ele>
        <time>2020-08-26T10:43:37.842Z</time>
      </trkpt>
      <trkpt lat="69.62143" lon="18.21706">
        <ele>37.090114</ele>
        <time>2020-08-26T10:43:39.819Z</time>
      </trkpt>
      <trkpt lat="69.62151" lon="18.21729">
        <ele>37.04774</ele>
        <time>2020-08-26T10:43:41.857Z</time>
      </trkpt>
      <trkpt lat="69.62159" lon="18.21752">
        <ele>37.006624</ele>
        <time>2020-08-26T10:43:43.805Z</time>
      </trkpt>
      <trkpt lat="69.62166" lon="18.21774">
        <ele>36.966408</ele>
        <time>2020-08-26T10:43:45.817Z</time>
      </trkpt>
      <trkpt lat="69.62174" lon="18.21795">
        <ele>36.925974</ele>
        <time>2020-08-26T10:43:47.820Z</time>
      </trkpt>
      <trkpt lat="69.62181" lon="18.21817">
        <ele>37.004549</ele>
        <time>2020-08-26T10:43:49.823Z</time>
      </trkpt>
      <trkpt lat="69.62189" lon="18.21839">
        <ele>37.371608</ele>
        <time>2020-08-26T10:43:51.811Z</time>
      </trkpt>
      <trkpt lat="69.62196" lon="18.2186">
        <ele>37.710951</ele>
        <time>2020-08-26T10:43:53.827Z</time>
      </trkpt>
      <trkpt lat="69.62203" lon="18.21879">
        <ele>38.032366</ele>
        <time>2020-08-26T10:43:55.828Z</time>
      </trkpt>
      <trkpt lat="69.62209" lon="18.21897">
        <ele>38.341641</ele>
        <time>2020-08-26T10:43:57.819Z</time>
      </trkpt>
      <trkpt lat="69.62218" lon="18.21923">
        <ele>38.765303</ele>
        <time>2020-08-26T10:44:00.850Z</time>
      </trkpt>
      <trkpt lat="69.62228" lon="18.21946">
        <ele>39.183432</ele>
        <time>2020-08-26T10:44:03.865Z</time>
      </trkpt>
      <trkpt lat="69.62237" lon="18.21968">
        <ele>39.601239</ele>
        <time>2020-08-26T10:44:06.825Z</time>
      </trkpt>
      <trkpt lat="69.62248" lon="18.2199">
        <ele>40.04478</ele>
        <time>2020-08-26T10:44:09.854Z</time>
      </trkpt>
      <trkpt lat="69.62256" lon="18.22005">
        <ele>40.353844</ele>
        <time>2020-08-26T10:44:11.816Z</time>
      </trkpt>
      <trkpt lat="69.62264" lon="18.22019">
        <ele>40.685281</ele>
        <time>2020-08-26T10:44:13.832Z</time>
      </trkpt>
      <trkpt lat="69.62273" lon="18.22033">
        <ele>41.025499</ele>
        <time>2020-08-26T10:44:15.834Z</time>
      </trkpt>
      <trkpt lat="69.62282" lon="18.22046">
        <ele>41.376639</ele>
        <time>2020-08-26T10:44:17.825Z</time>
      </trkpt>
      <trkpt lat="69.62292" lon="18.22058">
        <ele>41.735258</ele>
        <time>2020-08-26T10:44:19.823Z</time>
      </trkpt>
      <trkpt lat="69.62302" lon="18.22071">
        <ele>42.100089</ele>
        <time>2020-08-26T10:44:21.839Z</time>
      </trkpt>
      <trkpt lat="69.62311" lon="18.22085">
        <ele>42.440168</ele>
        <time>2020-08-26T10:44:23.880Z</time>
      </trkpt>
      <trkpt lat="69.62319" lon="18.22095">
        <ele>42.749887</ele>
        <time>2020-08-26T10:44:25.839Z</time>
      </trkpt>
      <trkpt lat="69.62331" lon="18.22109">
        <ele>43.178704</ele>
        <time>2020-08-26T10:44:28.828Z</time>
      </trkpt>
      <trkpt lat="69.6234" lon="18.22121">
        <ele>43.558132</ele>
        <time>2020-08-26T10:44:31.822Z</time>
      </trkpt>
      <trkpt lat="69.62351" lon="18.22133">
        <ele>43.974892</ele>
        <time>2020-08-26T10:44:35.830Z</time>
      </trkpt>
      <trkpt lat="69.6236" lon="18.22144">
        <ele>44.355799</ele>
        <time>2020-08-26T10:44:39.837Z</time>
      </trkpt>
      <trkpt lat="69.62369" lon="18.22154">
        <ele>44.71532</ele>
        <time>2020-08-26T10:44:43.849Z</time>
      </trkpt>
      <trkpt lat="69.62378" lon="18.22166">
        <ele>45.085883</ele>
        <time>2020-08-26T10:44:47.827Z</time>
      </trkpt>
      <trkpt lat="69.62388" lon="18.22178">
        <ele>45.476619</ele>
        <time>2020-08-26T10:44:51.827Z</time>
      </trkpt>
      <trkpt lat="69.62397" lon="18.22188">
        <ele>45.839135</ele>
        <time>2020-08-26T10:44:55.877Z</time>
      </trkpt>
      <trkpt lat="69.62406" lon="18.22198">
        <ele>46.192717</ele>
        <time>2020-08-26T10:44:59.805Z</time>
      </trkpt>
      <trkpt lat="69.62415" lon="18.22209">
        <ele>46.539057</ele>
        <time>2020-08-26T10:45:03.840Z</time>
      </trkpt>
      <trkpt lat="69.62423" lon="18.22221">
        <ele>46.873885</ele>
        <time>2020-08-26T10:45:07.837Z</time>
      </trkpt>
      <trkpt lat="69.62431" lon="18.22231">
        <ele>47.2104</ele>
        <time>2020-08-26T10:45:11.828Z</time>
      </trkpt>
      <trkpt lat="69.6244" lon="18.22243">
        <ele>47.577247</ele>
        <time>2020-08-26T10:45:15.811Z</time>
      </trkpt>
      <trkpt lat="69.62449" lon="18.22254">
        <ele>47.93346</ele>
        <time>2020-08-26T10:45:19.829Z</time>
      </trkpt>
      <trkpt lat="69.62457" lon="18.22267">
        <ele>48.274594</ele>
        <time>2020-08-26T10:45:23.815Z</time>
      </trkpt>
      <trkpt lat="69.62467" lon="18.22283">
        <ele>48.689911</ele>
        <time>2020-08-26T10:45:28.849Z</time>
      </trkpt>
      <trkpt lat="69.62476" lon="18.22301">
        <ele>49.092301</ele>
        <time>2020-08-26T10:45:33.815Z</time>
      </trkpt>
      <trkpt lat="69.62483" lon="18.22318">
        <ele>49.448536</ele>
        <time>2020-08-26T10:45:38.818Z</time>
      </trkpt>
      <trkpt lat="69.6249" lon="18.22336">
        <ele>49.808242</ele>
        <time>2020-08-26T10:45:43.809Z</time>
      </trkpt>
      <trkpt lat="69.62496" lon="18.22359">
        <ele>50.234937</ele>
        <time>2020-08-26T10:45:48.833Z</time>
      </trkpt>
      <trkpt lat="69.62502" lon="18.22385">
        <ele>50.691887</ele>
        <time>2020-08-26T10:45:53.811Z</time>
      </trkpt>
      <trkpt lat="69.62505" lon="18.22411">
        <ele>51.101678</ele>
        <time>2020-08-26T10:45:58.834Z</time>
      </trkpt>
      <trkpt lat="69.62508" lon="18.2244">
        <ele>51.546956</ele>
        <time>2020-08-26T10:46:03.830Z</time>
      </trkpt>
      <trkpt lat="69.62512" lon="18.22469">
        <ele>51.998521</ele>
        <time>2020-08-26T10:46:08.889Z</time>
      </trkpt>
      <trkpt lat="69.62514" lon="18.22495">
        <ele>52.398706</ele>
        <time>2020-08-26T10:46:12.848Z</time>
      </trkpt>
      <trkpt lat="69.62515" lon="18.22522">
        <ele>52.796006</ele>
        <time>2020-08-26T10:46:16.830Z</time>
      </trkpt>
      <trkpt lat="69.62515" lon="18.22552">
        <ele>53.231688</ele>
        <time>2020-08-26T10:46:21.813Z</time>
      </trkpt>
      <trkpt lat="69.62514" lon="18.22579">
        <ele>53.632394</ele>
        <time>2020-08-26T10:46:26.824Z</time>
      </trkpt>
      <trkpt lat="69.62513" lon="18.2261">
        <ele>54.104437</ele>
        <time>2020-08-26T10:46:31.818Z</time>
      </trkpt>
      <trkpt lat="69.62512" lon="18.22636">
        <ele>54.491494</ele>
        <time>2020-08-26T10:46:35.843Z</time>
      </trkpt>
      <trkpt lat="69.62509" lon="18.22667">
        <ele>54.957561</ele>
        <time>2020-08-26T10:46:40.834Z</time>
      </trkpt>
      <trkpt lat="69.62505" lon="18.22692">
        <ele>55.370315</ele>
        <time>2020-08-26T10:46:44.817Z</time>
      </trkpt>
      <trkpt lat="69.625" lon="18.22717">
        <ele>55.785195</ele>
        <time>2020-08-26T10:46:48.843Z</time>
      </trkpt>
      <trkpt lat="69.62494" lon="18.22742">
        <ele>56.241784</ele>
        <time>2020-08-26T10:46:53.824Z</time>
      </trkpt>
      <trkpt lat="69.62488" lon="18.22767">
        <ele>56.692463</ele>
        <time>2020-08-26T10:46:58.818Z</time>
      </trkpt>
      <trkpt lat="69.62481" lon="18.22787">
        <ele>57.098815</ele>
        <time>2020-08-26T10:47:02.853Z</time>
      </trkpt>
      <trkpt lat="69.62474" lon="18.22811">
        <ele>56.996838</ele>
        <time>2020-08-26T10:47:06.813Z</time>
      </trkpt>
      <trkpt lat="69.62466" lon="18.2283">
        <ele>56.735776</ele>
        <time>2020-08-26T10:47:09.832Z</time>
      </trkpt>
      <trkpt lat="69.62457" lon="18.22854">
        <ele>56.419456</ele>
        <time>2020-08-26T10:47:12.824Z</time>
      </trkpt>
      <trkpt lat="69.6245" lon="18.22871">
        <ele>56.183574</ele>
        <time>2020-08-26T10:47:14.836Z</time>
      </trkpt>
      <trkpt lat="69.62443" lon="18.22891">
        <ele>55.910597</ele>
        <time>2020-08-26T10:47:16.817Z</time>
      </trkpt>
      <trkpt lat="69.62434" lon="18.22912">
        <ele>55.614243</ele>
        <time>2020-08-26T10:47:18.842Z</time>
      </trkpt>
      <trkpt lat="69.62424" lon="18.22937">
        <ele>55.267156</ele>
        <time>2020-08-26T10:47:20.846Z</time>
      </trkpt>
      <trkpt lat="69.62413" lon="18.22966">
        <ele>54.872601</ele>
        <time>2020-08-26T10:47:22.862Z</time>
      </trkpt>
      <trkpt lat="69.62401" lon="18.22999">
        <ele>54.44964</ele>
        <time>2020-08-26T10:47:24.839Z</time>
      </trkpt>
      <trkpt lat="69.6239" lon="18.23038">
        <ele>53.979269</ele>
        <time>2020-08-26T10:47:26.859Z</time>
      </trkpt>
      <trkpt lat="69.62384" lon="18.23061">
        <ele>53.724115</ele>
        <time>2020-08-26T10:47:27.816Z</time>
      </trkpt>
      <trkpt lat="69.62377" lon="18.23084">
        <ele>53.455175</ele>
        <time>2020-08-26T10:47:28.835Z</time>
      </trkpt>
      <trkpt lat="69.62371" lon="18.23108">
        <ele>53.173285</ele>
        <time>2020-08-26T10:47:29.830Z</time>
      </trkpt>
      <trkpt lat="69.62364" lon="18.23133">
        <ele>52.882355</ele>
        <time>2020-08-26T10:47:30.813Z</time>
      </trkpt>
      <trkpt lat="69.62357" lon="18.23161">
        <ele>52.57658</ele>
        <time>2020-08-26T10:47:31.867Z</time>
      </trkpt>
      <trkpt lat="69.62351" lon="18.23189">
        <ele>52.025361</ele>
        <time>2020-08-26T10:47:32.826Z</time>
      </trkpt>
      <trkpt lat="69.62344" lon="18.23217">
        <ele>51.421287</ele>
        <time>2020-08-26T10:47:33.827Z</time>
      </trkpt>
      <trkpt lat="69.62338" lon="18.23245">
        <ele>50.822613</ele>
        <time>2020-08-26T10:47:34.818Z</time>
      </trkpt>
      <trkpt lat="69.62332" lon="18.23272">
        <ele>50.225943</ele>
        <time>2020-08-26T10:47:35.838Z</time>
      </trkpt>
      <trkpt lat="69.62326" lon="18.23299">
        <ele>49.63983</ele>
        <time>2020-08-26T10:47:36.817Z</time>
      </trkpt>
      <trkpt lat="69.62319" lon="18.23325">
        <ele>49.064139</ele>
        <time>2020-08-26T10:47:37.824Z</time>
      </trkpt>
      <trkpt lat="69.62313" lon="18.23351">
        <ele>48.498869</ele>
        <time>2020-08-26T10:47:38.833Z</time>
      </trkpt>
      <trkpt lat="69.62307" lon="18.23376">
        <ele>47.933502</ele>
        <time>2020-08-26T10:47:39.816Z</time>
      </trkpt>
      <trkpt lat="69.623" lon="18.234">
        <ele>47.374058</ele>
        <time>2020-08-26T10:47:40.833Z</time>
      </trkpt>
      <trkpt lat="69.62293" lon="18.23422">
        <ele>46.826791</ele>
        <time>2020-08-26T10:47:41.818Z</time>
      </trkpt>
      <trkpt lat="69.62285" lon="18.23443">
        <ele>46.275259</ele>
        <time>2020-08-26T10:47:42.829Z</time>
      </trkpt>
      <trkpt lat="69.62277" lon="18.23463">
        <ele>45.725836</ele>
        <time>2020-08-26T10:47:43.836Z</time>
      </trkpt>
      <trkpt lat="69.6227" lon="18.23483">
        <ele>45.192612</ele>
        <time>2020-08-26T10:47:44.816Z</time>
      </trkpt>
      <trkpt lat="69.62262" lon="18.23502">
        <ele>44.648718</ele>
        <time>2020-08-26T10:47:45.832Z</time>
      </trkpt>
      <trkpt lat="69.62253" lon="18.23521">
        <ele>44.093913</ele>
        <time>2020-08-26T10:47:46.815Z</time>
      </trkpt>
      <trkpt lat="69.62246" lon="18.23539">
        <ele>43.584369</ele>
        <time>2020-08-26T10:47:47.836Z</time>
      </trkpt>
      <trkpt lat="69.62239" lon="18.23557">
        <ele>43.123374</ele>
        <time>2020-08-26T10:47:48.832Z</time>
      </trkpt>
      <trkpt lat="69.62232" lon="18.23575">
        <ele>42.897503</ele>
        <time>2020-08-26T10:47:49.816Z</time>
      </trkpt>
      <trkpt lat="69.62225" lon="18.23593">
        <ele>42.675669</ele>
        <time>2020-08-26T10:47:50.810Z</time>
      </trkpt>
      <trkpt lat="69.62218" lon="18.2361">
        <ele>42.456588</ele>
        <time>2020-08-26T10:47:51.848Z</time>
      </trkpt>
      <trkpt lat="69.62211" lon="18.23626">
        <ele>42.238051</ele>
        <time>2020-08-26T10:47:52.815Z</time>
      </trkpt>
      <trkpt lat="69.62204" lon="18.23643">
        <ele>42.013105</ele>
        <time>2020-08-26T10:47:53.806Z</time>
      </trkpt>
      <trkpt lat="69.62197" lon="18.2366">
        <ele>41.790861</ele>
        <time>2020-08-26T10:47:54.821Z</time>
      </trkpt>
      <trkpt lat="69.62183" lon="18.23692">
        <ele>41.366052</ele>
        <time>2020-08-26T10:47:56.823Z</time>
      </trkpt>
      <trkpt lat="69.62171" lon="18.23724">
        <ele>40.961749</ele>
        <time>2020-08-26T10:47:58.817Z</time>
      </trkpt>
      <trkpt lat="69.62158" lon="18.23755">
        <ele>40.560923</ele>
        <time>2020-08-26T10:48:00.832Z</time>
      </trkpt>
      <trkpt lat="69.62146" lon="18.23786">
        <ele>40.175134</ele>
        <time>2020-08-26T10:48:02.851Z</time>
      </trkpt>
      <trkpt lat="69.62136" lon="18.23815">
        <ele>39.820289</ele>
        <time>2020-08-26T10:48:04.830Z</time>
      </trkpt>
      <trkpt lat="69.62126" lon="18.23844">
        <ele>39.481542</ele>
        <time>2020-08-26T10:48:06.826Z</time>
      </trkpt>
      <trkpt lat="69.62118" lon="18.23873">
        <ele>39.168323</ele>
        <time>2020-08-26T10:48:08.853Z</time>
      </trkpt>
      <trkpt lat="69.62111" lon="18.23901">
        <ele>38.887326</ele>
        <time>2020-08-26T10:48:10.831Z</time>
      </trkpt>
      <trkpt lat="69.62106" lon="18.23927">
        <ele>38.883514</ele>
        <time>2020-08-26T10:48:12.834Z</time>
      </trkpt>
      <trkpt lat="69.62102" lon="18.23952">
        <ele>38.989216</ele>
        <time>2020-08-26T10:48:14.853Z</time>
      </trkpt>
      <trkpt lat="69.62097" lon="18.23977">
        <ele>39.095416</ele>
        <time>2020-08-26T10:48:16.824Z</time>
      </trkpt>
      <trkpt lat="69.62093" lon="18.24002">
        <ele>39.201316</ele>
        <time>2020-08-26T10:48:18.815Z</time>
      </trkpt>
      <trkpt lat="69.62089" lon="18.24026">
        <ele>39.303893</ele>
        <time>2020-08-26T10:48:20.843Z</time>
      </trkpt>
      <trkpt lat="69.62084" lon="18.24051">
        <ele>39.40593</ele>
        <time>2020-08-26T10:48:22.863Z</time>
      </trkpt>
      <trkpt lat="69.6208" lon="18.24073">
        <ele>39.503969</ele>
        <time>2020-08-26T10:48:24.841Z</time>
      </trkpt>
      <trkpt lat="69.62073" lon="18.24106">
        <ele>39.648751</ele>
        <time>2020-08-26T10:48:27.813Z</time>
      </trkpt>
      <trkpt lat="69.62067" lon="18.24128">
        <ele>39.750952</ele>
        <time>2020-08-26T10:48:29.832Z</time>
      </trkpt>
      <trkpt lat="69.62062" lon="18.24149">
        <ele>39.853955</ele>
        <time>2020-08-26T10:48:31.831Z</time>
      </trkpt>
      <trkpt lat="69.62055" lon="18.24169">
        <ele>39.961497</ele>
        <time>2020-08-26T10:48:33.814Z</time>
      </trkpt>
      <trkpt lat="69.62046" lon="18.24188">
        <ele>40.073808</ele>
        <time>2020-08-26T10:48:35.854Z</time>
      </trkpt>
      <trkpt lat="69.62038" lon="18.24203">
        <ele>40.181201</ele>
        <time>2020-08-26T10:48:37.826Z</time>
      </trkpt>
      <trkpt lat="69.62029" lon="18.24215">
        <ele>40.286624</ele>
        <time>2020-08-26T10:48:39.823Z</time>
      </trkpt>
      <trkpt lat="69.62021" lon="18.24227">
        <ele>40.391053</ele>
        <time>2020-08-26T10:48:41.808Z</time>
      </trkpt>
      <trkpt lat="69.62011" lon="18.2424">
        <ele>40.501672</ele>
        <time>2020-08-26T10:48:43.852Z</time>
      </trkpt>
      <trkpt lat="69.62002" lon="18.24252">
        <ele>40.615286</ele>
        <time>2020-08-26T10:48:45.831Z</time>
      </trkpt>
      <trkpt lat="69.61992" lon="18.24264">
        <ele>40.735026</ele>
        <time>2020-08-26T10:48:47.858Z</time>
      </trkpt>
      <trkpt lat="69.61981" lon="18.24278">
        <ele>41.146609</ele>
        <time>2020-08-26T10:48:49.813Z</time>
      </trkpt>
      <trkpt lat="69.6197" lon="18.24294">
        <ele>41.622862</ele>
        <time>2020-08-26T10:48:51.861Z</time>
      </trkpt>
      <trkpt lat="69.61959" lon="18.24308">
        <ele>42.084814</ele>
        <time>2020-08-26T10:48:53.836Z</time>
      </trkpt>
      <trkpt lat="69.61949" lon="18.24323">
        <ele>42.53379</ele>
        <time>2020-08-26T10:48:55.806Z</time>
      </trkpt>
      <trkpt lat="69.6194" lon="18.24338">
        <ele>42.949217</ele>
        <time>2020-08-26T10:48:57.862Z</time>
      </trkpt>
      <trkpt lat="69.61932" lon="18.24352">
        <ele>43.337456</ele>
        <time>2020-08-26T10:48:59.834Z</time>
      </trkpt>
      <trkpt lat="69.61923" lon="18.24367">
        <ele>43.72694</ele>
        <time>2020-08-26T10:49:01.822Z</time>
      </trkpt>
      <trkpt lat="69.61913" lon="18.24388">
        <ele>44.230976</ele>
        <time>2020-08-26T10:49:04.832Z</time>
      </trkpt>
      <trkpt lat="69.61903" lon="18.24411">
        <ele>44.720015</ele>
        <time>2020-08-26T10:49:07.816Z</time>
      </trkpt>
      <trkpt lat="69.61895" lon="18.24431">
        <ele>45.137881</ele>
        <time>2020-08-26T10:49:10.851Z</time>
      </trkpt>
      <trkpt lat="69.61889" lon="18.24449">
        <ele>45.49466</ele>
        <time>2020-08-26T10:49:13.827Z</time>
      </trkpt>
      <trkpt lat="69.61883" lon="18.24469">
        <ele>45.858371</ele>
        <time>2020-08-26T10:49:16.829Z</time>
      </trkpt>
      <trkpt lat="69.61877" lon="18.2449">
        <ele>46.22748</ele>
        <time>2020-08-26T10:49:19.813Z</time>
      </trkpt>
      <trkpt lat="69.61871" lon="18.24512">
        <ele>46.587749</ele>
        <time>2020-08-26T10:49:22.873Z</time>
      </trkpt>
      <trkpt lat="69.61866" lon="18.24535">
        <ele>46.984035</ele>
        <time>2020-08-26T10:49:25.828Z</time>
      </trkpt>
      <trkpt lat="69.6186" lon="18.2456">
        <ele>47.37857</ele>
        <time>2020-08-26T10:49:28.860Z</time>
      </trkpt>
      <trkpt lat="69.61857" lon="18.24585">
        <ele>47.759105</ele>
        <time>2020-08-26T10:49:31.844Z</time>
      </trkpt>
      <trkpt lat="69.61852" lon="18.24613">
        <ele>47.395028</ele>
        <time>2020-08-26T10:49:34.852Z</time>
      </trkpt>
      <trkpt lat="69.61847" lon="18.24639">
        <ele>46.883996</ele>
        <time>2020-08-26T10:49:37.836Z</time>
      </trkpt>
      <trkpt lat="69.61844" lon="18.24666">
        <ele>46.382003</ele>
        <time>2020-08-26T10:49:40.848Z</time>
      </trkpt>
      <trkpt lat="69.61842" lon="18.24695">
        <ele>45.859574</ele>
        <time>2020-08-26T10:49:43.830Z</time>
      </trkpt>
      <trkpt lat="69.61839" lon="18.24731">
        <ele>45.204815</ele>
        <time>2020-08-26T10:49:46.829Z</time>
      </trkpt>
      <trkpt lat="69.61838" lon="18.24759">
        <ele>44.723395</ele>
        <time>2020-08-26T10:49:48.821Z</time>
      </trkpt>
      <trkpt lat="69.61838" lon="18.24789">
        <ele>44.194747</ele>
        <time>2020-08-26T10:49:50.855Z</time>
      </trkpt>
      <trkpt lat="69.61838" lon="18.24822">
        <ele>43.613876</ele>
        <time>2020-08-26T10:49:52.833Z</time>
      </trkpt>
      <trkpt lat="69.61838" lon="18.24859">
        <ele>42.960549</ele>
        <time>2020-08-26T10:49:54.850Z</time>
      </trkpt>
      <trkpt lat="69.61839" lon="18.24898">
        <ele>42.26615</ele>
        <time>2020-08-26T10:49:56.840Z</time>
      </trkpt>
      <trkpt lat="69.61839" lon="18.2494">
        <ele>41.526267</ele>
        <time>2020-08-26T10:49:58.843Z</time>
      </trkpt>
      <trkpt lat="69.6184" lon="18.24985">
        <ele>40.728521</ele>
        <time>2020-08-26T10:50:00.819Z</time>
      </trkpt>
      <trkpt lat="69.6184" lon="18.25031">
        <ele>39.932792</ele>
        <time>2020-08-26T10:50:02.846Z</time>
      </trkpt>
      <trkpt lat="69.6184" lon="18.25073">
        <ele>39.193531</ele>
        <time>2020-08-26T10:50:04.823Z</time>
      </trkpt>
      <trkpt lat="69.6184" lon="18.25113">
        <ele>38.640703</ele>
        <time>2020-08-26T10:50:06.819Z</time>
      </trkpt>
      <trkpt lat="69.6184" lon="18.2515">
        <ele>38.365856</ele>
        <time>2020-08-26T10:50:08.834Z</time>
      </trkpt>
      <trkpt lat="69.61841" lon="18.25186">
        <ele>38.105706</ele>
        <time>2020-08-26T10:50:10.840Z</time>
      </trkpt>
      <trkpt lat="69.61841" lon="18.25218">
        <ele>37.869071</ele>
        <time>2020-08-26T10:50:12.812Z</time>
      </trkpt>
      <trkpt lat="69.61841" lon="18.2525">
        <ele>37.631701</ele>
        <time>2020-08-26T10:50:14.813Z</time>
      </trkpt>
      <trkpt lat="69.61841" lon="18.25282">
        <ele>37.395772</ele>
        <time>2020-08-26T10:50:16.831Z</time>
      </trkpt>
      <trkpt lat="69.6184" lon="18.25313">
        <ele>37.168611</ele>
        <time>2020-08-26T10:50:18.834Z</time>
      </trkpt>
      <trkpt lat="69.6184" lon="18.25343">
        <ele>36.947327</ele>
        <time>2020-08-26T10:50:20.817Z</time>
      </trkpt>
      <trkpt lat="69.6184" lon="18.25372">
        <ele>36.736379</ele>
        <time>2020-08-26T10:50:22.821Z</time>
      </trkpt>
      <trkpt lat="69.6184" lon="18.25399">
        <ele>36.534927</ele>
        <time>2020-08-26T10:50:24.817Z</time>
      </trkpt>
      <trkpt lat="69.6184" lon="18.25428">
        <ele>36.322457</ele>
        <time>2020-08-26T10:50:26.823Z</time>
      </trkpt>
      <trkpt lat="69.6184" lon="18.25454">
        <ele>36.128774</ele>
        <time>2020-08-26T10:50:28.842Z</time>
      </trkpt>
      <trkpt lat="69.61839" lon="18.25492">
        <ele>35.851602</ele>
        <time>2020-08-26T10:50:31.833Z</time>
      </trkpt>
      <trkpt lat="69.61839" lon="18.2553">
        <ele>35.571332</ele>
        <time>2020-08-26T10:50:34.829Z</time>
      </trkpt>
      <trkpt lat="69.61838" lon="18.25567">
        <ele>35.302339</ele>
        <time>2020-08-26T10:50:37.824Z</time>
      </trkpt>
      <trkpt lat="69.61838" lon="18.25603">
        <ele>35.034106</ele>
        <time>2020-08-26T10:50:40.822Z</time>
      </trkpt>
      <trkpt lat="69.61836" lon="18.25642">
        <ele>35.413016</ele>
        <time>2020-08-26T10:50:43.839Z</time>
      </trkpt>
      <trkpt lat="69.61833" lon="18.2567">
        <ele>35.865642</ele>
        <time>2020-08-26T10:50:45.849Z</time>
      </trkpt>
      <trkpt lat="69.6183" lon="18.25697">
        <ele>36.329167</ele>
        <time>2020-08-26T10:50:47.875Z</time>
      </trkpt>
      <trkpt lat="69.61826" lon="18.25724">
        <ele>36.777868</ele>
        <time>2020-08-26T10:50:49.815Z</time>
      </trkpt>
      <trkpt lat="69.61823" lon="18.25753">
        <ele>37.263987</ele>
        <time>2020-08-26T10:50:51.823Z</time>
      </trkpt>
      <trkpt lat="69.6182" lon="18.25784">
        <ele>37.779098</ele>
        <time>2020-08-26T10:50:53.822Z</time>
      </trkpt>
      <trkpt lat="69.61817" lon="18.25816">
        <ele>38.317102</ele>
        <time>2020-08-26T10:50:55.831Z</time>
      </trkpt>
      <trkpt lat="69.61814" lon="18.2585">
        <ele>38.86484</ele>
        <time>2020-08-26T10:50:57.854Z</time>
      </trkpt>
      <trkpt lat="69.61812" lon="18.25887">
        <ele>39.451752</ele>
        <time>2020-08-26T10:50:59.812Z</time>
      </trkpt>
      <trkpt lat="69.6181" lon="18.25925">
        <ele>40.068205</ele>
        <time>2020-08-26T10:51:01.837Z</time>
      </trkpt>
      <trkpt lat="69.61809" lon="18.25966">
        <ele>40.713139</ele>
        <time>2020-08-26T10:51:03.827Z</time>
      </trkpt>
      <trkpt lat="69.61809" lon="18.26005">
        <ele>41.336226</ele>
        <time>2020-08-26T10:51:05.843Z</time>
      </trkpt>
      <trkpt lat="69.61808" lon="18.26044">
        <ele>41.95362</ele>
        <time>2020-08-26T10:51:07.808Z</time>
      </trkpt>
      <trkpt lat="69.61807" lon="18.2608">
        <ele>42.526492</ele>
        <time>2020-08-26T10:51:09.822Z</time>
      </trkpt>
      <trkpt lat="69.61805" lon="18.26114">
        <ele>43.082191</ele>
        <time>2020-08-26T10:51:11.816Z</time>
      </trkpt>
      <trkpt lat="69.61803" lon="18.26146">
        <ele>43.358993</ele>
        <time>2020-08-26T10:51:13.819Z</time>
      </trkpt>
      <trkpt lat="69.618" lon="18.26175">
        <ele>43.576359</ele>
        <time>2020-08-26T10:51:15.828Z</time>
      </trkpt>
      <trkpt lat="69.61796" lon="18.26209">
        <ele>43.837767</ele>
        <time>2020-08-26T10:51:18.819Z</time>
      </trkpt>
      <trkpt lat="69.61791" lon="18.26237">
        <ele>44.058272</ele>
        <time>2020-08-26T10:51:21.829Z</time>
      </trkpt>
      <trkpt lat="69.61788" lon="18.26262">
        <ele>44.254752</ele>
        <time>2020-08-26T10:51:24.820Z</time>
      </trkpt>
      <trkpt lat="69.61784" lon="18.26286">
        <ele>44.442679</ele>
        <time>2020-08-26T10:51:27.815Z</time>
      </trkpt>
      <trkpt lat="69.61781" lon="18.26311">
        <ele>44.635906</ele>
        <time>2020-08-26T10:51:30.815Z</time>
      </trkpt>
      <trkpt lat="69.61775" lon="18.26334">
        <ele>44.842307</ele>
        <time>2020-08-26T10:51:33.830Z</time>
      </trkpt>
      <trkpt lat="69.61767" lon="18.26354">
        <ele>45.069263</ele>
        <time>2020-08-26T10:51:36.837Z</time>
      </trkpt>
      <trkpt lat="69.61756" lon="18.26376">
        <ele>45.344475</ele>
        <time>2020-08-26T10:51:39.811Z</time>
      </trkpt>
      <trkpt lat="69.61748" lon="18.26393">
        <ele>45.548913</ele>
        <time>2020-08-26T10:51:41.874Z</time>
      </trkpt>
      <trkpt lat="69.61738" lon="18.26406">
        <ele>45.779154</ele>
        <time>2020-08-26T10:51:43.821Z</time>
      </trkpt>
      <trkpt lat="69.61726" lon="18.26417">
        <ele>46.028042</ele>
        <time>2020-08-26T10:51:45.824Z</time>
      </trkpt>
      <trkpt lat="69.61713" lon="18.26427">
        <ele>46.312452</ele>
        <time>2020-08-26T10:51:47.823Z</time>
      </trkpt>
      <trkpt lat="69.61698" lon="18.26436">
        <ele>46.628873</ele>
        <time>2020-08-26T10:51:49.838Z</time>
      </trkpt>
      <trkpt lat="69.61684" lon="18.26446">
        <ele>46.902959</ele>
        <time>2020-08-26T10:51:51.827Z</time>
      </trkpt>
      <trkpt lat="69.61668" lon="18.26457">
        <ele>46.979422</ele>
        <time>2020-08-26T10:51:53.830Z</time>
      </trkpt>
      <trkpt lat="69.61652" lon="18.26468">
        <ele>47.058373</ele>
        <time>2020-08-26T10:51:55.875Z</time>
      </trkpt>
      <trkpt lat="69.61637" lon="18.26478">
        <ele>47.131616</ele>
        <time>2020-08-26T10:51:57.821Z</time>
      </trkpt>
      <trkpt lat="69.61623" lon="18.26488">
        <ele>47.201324</ele>
        <time>2020-08-26T10:51:59.823Z</time>
      </trkpt>
      <trkpt lat="69.61608" lon="18.26497">
        <ele>47.273017</ele>
        <time>2020-08-26T10:52:01.814Z</time>
      </trkpt>
      <trkpt lat="69.61594" lon="18.26506">
        <ele>47.342336</ele>
        <time>2020-08-26T10:52:03.870Z</time>
      </trkpt>
      <trkpt lat="69.61581" lon="18.26516">
        <ele>47.407234</ele>
        <time>2020-08-26T10:52:05.812Z</time>
      </trkpt>
      <trkpt lat="69.6157" lon="18.26526">
        <ele>47.465852</ele>
        <time>2020-08-26T10:52:07.840Z</time>
      </trkpt>
      <trkpt lat="69.61558" lon="18.26535">
        <ele>47.521475</ele>
        <time>2020-08-26T10:52:09.814Z</time>
      </trkpt>
      <trkpt lat="69.61548" lon="18.26543">
        <ele>47.570603</ele>
        <time>2020-08-26T10:52:11.839Z</time>
      </trkpt>
      <trkpt lat="69.6154" lon="18.26549">
        <ele>47.614587</ele>
        <time>2020-08-26T10:52:13.822Z</time>
      </trkpt>
      <trkpt lat="69.61528" lon="18.26557">
        <ele>47.673335</ele>
        <time>2020-08-26T10:52:16.845Z</time>
      </trkpt>
      <trkpt lat="69.61517" lon="18.26562">
        <ele>47.724205</ele>
        <time>2020-08-26T10:52:19.855Z</time>
      </trkpt>
      <trkpt lat="69.61508" lon="18.26565">
        <ele>47.838632</ele>
        <time>2020-08-26T10:52:22.850Z</time>
      </trkpt>
      <trkpt lat="69.61498" lon="18.26569">
        <ele>48.064925</ele>
        <time>2020-08-26T10:52:25.819Z</time>
      </trkpt>
      <trkpt lat="69.61488" lon="18.26569">
        <ele>48.294446</ele>
        <time>2020-08-26T10:52:28.837Z</time>
      </trkpt>
      <trkpt lat="69.61479" lon="18.26569">
        <ele>48.523942</ele>
        <time>2020-08-26T10:52:31.812Z</time>
      </trkpt>
      <trkpt lat="69.61468" lon="18.26568">
        <ele>48.772462</ele>
        <time>2020-08-26T10:52:34.829Z</time>
      </trkpt>
      <trkpt lat="69.61457" lon="18.26569">
        <ele>49.042245</ele>
        <time>2020-08-26T10:52:37.839Z</time>
      </trkpt>
      <trkpt lat="69.61445" lon="18.26568">
        <ele>49.309662</ele>
        <time>2020-08-26T10:52:40.834Z</time>
      </trkpt>
      <trkpt lat="69.61435" lon="18.26567">
        <ele>49.567642</ele>
        <time>2020-08-26T10:52:43.825Z</time>
      </trkpt>
      <trkpt lat="69.61422" lon="18.26567">
        <ele>49.856281</ele>
        <time>2020-08-26T10:52:46.819Z</time>
      </trkpt>
      <trkpt lat="69.6141" lon="18.26566">
        <ele>50.145249</ele>
        <time>2020-08-26T10:52:49.836Z</time>
      </trkpt>
      <trkpt lat="69.61398" lon="18.26564">
        <ele>50.43644</ele>
        <time>2020-08-26T10:52:52.854Z</time>
      </trkpt>
      <trkpt lat="69.61389" lon="18.26563">
        <ele>50.649879</ele>
        <time>2020-08-26T10:52:54.830Z</time>
      </trkpt>
      <trkpt lat="69.6138" lon="18.26561">
        <ele>50.865736</ele>
        <time>2020-08-26T10:52:56.834Z</time>
      </trkpt>
      <trkpt lat="69.6137" lon="18.26559">
        <ele>51.086255</ele>
        <time>2020-08-26T10:52:58.837Z</time>
      </trkpt>
      <trkpt lat="69.61361" lon="18.26558">
        <ele>51.30643</ele>
        <time>2020-08-26T10:53:00.823Z</time>
      </trkpt>
      <trkpt lat="69.61352" lon="18.26557">
        <ele>51.529035</ele>
        <time>2020-08-26T10:53:02.815Z</time>
      </trkpt>
      <trkpt lat="69.61342" lon="18.26558">
        <ele>51.749277</ele>
        <time>2020-08-26T10:53:04.833Z</time>
      </trkpt>
      <trkpt lat="69.61333" lon="18.26552">
        <ele>51.97657</ele>
        <time>2020-08-26T10:53:06.823Z</time>
      </trkpt>
      <trkpt lat="69.61324" lon="18.26553">
        <ele>52.121405</ele>
        <time>2020-08-26T10:53:08.844Z</time>
      </trkpt>
      <trkpt lat="69.61314" lon="18.26555">
        <ele>52.259474</ele>
        <time>2020-08-26T10:53:10.821Z</time>
      </trkpt>
      <trkpt lat="69.61301" lon="18.26557">
        <ele>52.450813</ele>
        <time>2020-08-26T10:53:13.813Z</time>
      </trkpt>
      <trkpt lat="69.61288" lon="18.26559">
        <ele>52.631948</ele>
        <time>2020-08-26T10:53:16.844Z</time>
      </trkpt>
      <trkpt lat="69.61276" lon="18.2656">
        <ele>52.804255</ele>
        <time>2020-08-26T10:53:19.836Z</time>
      </trkpt>
      <trkpt lat="69.61264" lon="18.26563">
        <ele>52.982885</ele>
        <time>2020-08-26T10:53:22.813Z</time>
      </trkpt>
      <trkpt lat="69.61252" lon="18.26567">
        <ele>53.160618</ele>
        <time>2020-08-26T10:53:25.814Z</time>
      </trkpt>
      <trkpt lat="69.6124" lon="18.26569">
        <ele>53.330468</ele>
        <time>2020-08-26T10:53:28.844Z</time>
      </trkpt>
      <trkpt lat="69.61228" lon="18.26572">
        <ele>53.496311</ele>
        <time>2020-08-26T10:53:31.815Z</time>
      </trkpt>
      <trkpt lat="69.61216" lon="18.26575">
        <ele>53.669396</ele>
        <time>2020-08-26T10:53:34.851Z</time>
      </trkpt>
      <trkpt lat="69.61204" lon="18.2658">
        <ele>53.844455</ele>
        <time>2020-08-26T10:53:37.865Z</time>
      </trkpt>
      <trkpt lat="69.61192" lon="18.26585">
        <ele>54.02005</ele>
        <time>2020-08-26T10:53:40.825Z</time>
      </trkpt>
      <trkpt lat="69.6118" lon="18.26591">
        <ele>54.19548</ele>
        <time>2020-08-26T10:53:43.811Z</time>
      </trkpt>
      <trkpt lat="69.61168" lon="18.26598">
        <ele>54.371006</ele>
        <time>2020-08-26T10:53:46.827Z</time>
      </trkpt>
      <trkpt lat="69.61155" lon="18.26602">
        <ele>54.554393</ele>
        <time>2020-08-26T10:53:49.822Z</time>
      </trkpt>
      <trkpt lat="69.61142" lon="18.26604">
        <ele>54.321093</ele>
        <time>2020-08-26T10:53:52.829Z</time>
      </trkpt>
      <trkpt lat="69.61132" lon="18.26607">
        <ele>54.059239</ele>
        <time>2020-08-26T10:53:54.810Z</time>
      </trkpt>
      <trkpt lat="69.61121" lon="18.26611">
        <ele>53.775975</ele>
        <time>2020-08-26T10:53:56.819Z</time>
      </trkpt>
      <trkpt lat="69.61109" lon="18.26616">
        <ele>53.48514</ele>
        <time>2020-08-26T10:53:58.822Z</time>
      </trkpt>
      <trkpt lat="69.61097" lon="18.26621">
        <ele>53.175954</ele>
        <time>2020-08-26T10:54:00.831Z</time>
      </trkpt>
      <trkpt lat="69.61084" lon="18.26626">
        <ele>52.859573</ele>
        <time>2020-08-26T10:54:02.809Z</time>
      </trkpt>
      <trkpt lat="69.61072" lon="18.26632">
        <ele>52.536185</ele>
        <time>2020-08-26T10:54:04.831Z</time>
      </trkpt>
      <trkpt lat="69.6106" lon="18.26636">
        <ele>52.240813</ele>
        <time>2020-08-26T10:54:06.815Z</time>
      </trkpt>
      <trkpt lat="69.61048" lon="18.26642">
        <ele>51.936183</ele>
        <time>2020-08-26T10:54:08.851Z</time>
      </trkpt>
      <trkpt lat="69.61037" lon="18.26648">
        <ele>51.654824</ele>
        <time>2020-08-26T10:54:10.835Z</time>
      </trkpt>
      <trkpt lat="69.61026" lon="18.26653">
        <ele>51.377974</ele>
        <time>2020-08-26T10:54:12.810Z</time>
      </trkpt>
      <trkpt lat="69.61016" lon="18.26659">
        <ele>51.110718</ele>
        <time>2020-08-26T10:54:14.809Z</time>
      </trkpt>
      <trkpt lat="69.61005" lon="18.26664">
        <ele>50.848848</ele>
        <time>2020-08-26T10:54:16.852Z</time>
      </trkpt>
      <trkpt lat="69.60995" lon="18.26669">
        <ele>50.59686</ele>
        <time>2020-08-26T10:54:18.819Z</time>
      </trkpt>
      <trkpt lat="69.60985" lon="18.26674">
        <ele>50.33899</ele>
        <time>2020-08-26T10:54:20.831Z</time>
      </trkpt>
      <trkpt lat="69.60975" lon="18.26681">
        <ele>50.084597</ele>
        <time>2020-08-26T10:54:22.812Z</time>
      </trkpt>
      <trkpt lat="69.60966" lon="18.26689">
        <ele>49.661297</ele>
        <time>2020-08-26T10:54:24.864Z</time>
      </trkpt>
      <trkpt lat="69.60956" lon="18.26697">
        <ele>49.223373</ele>
        <time>2020-08-26T10:54:26.830Z</time>
      </trkpt>
      <trkpt lat="69.60946" lon="18.26702">
        <ele>48.797995</ele>
        <time>2020-08-26T10:54:28.833Z</time>
      </trkpt>
      <trkpt lat="69.60936" lon="18.26708">
        <ele>48.367032</ele>
        <time>2020-08-26T10:54:30.824Z</time>
      </trkpt>
      <trkpt lat="69.60926" lon="18.26716">
        <ele>47.942871</ele>
        <time>2020-08-26T10:54:32.832Z</time>
      </trkpt>
      <trkpt lat="69.60917" lon="18.26723">
        <ele>47.532459</ele>
        <time>2020-08-26T10:54:34.837Z</time>
      </trkpt>
      <trkpt lat="69.60907" lon="18.2673">
        <ele>47.114984</ele>
        <time>2020-08-26T10:54:36.866Z</time>
      </trkpt>
      <trkpt lat="69.60897" lon="18.26736">
        <ele>46.698212</ele>
        <time>2020-08-26T10:54:38.865Z</time>
      </trkpt>
      <trkpt lat="69.60888" lon="18.26745">
        <ele>46.285125</ele>
        <time>2020-08-26T10:54:40.832Z</time>
      </trkpt>
      <trkpt lat="69.60879" lon="18.26755">
        <ele>45.864726</ele>
        <time>2020-08-26T10:54:42.827Z</time>
      </trkpt>
      <trkpt lat="69.60869" lon="18.26765">
        <ele>45.439749</ele>
        <time>2020-08-26T10:54:44.824Z</time>
      </trkpt>
      <trkpt lat="69.6086" lon="18.26777">
        <ele>45.009608</ele>
        <time>2020-08-26T10:54:46.824Z</time>
      </trkpt>
      <trkpt lat="69.60852" lon="18.26793">
        <ele>44.57918</ele>
        <time>2020-08-26T10:54:48.815Z</time>
      </trkpt>
      <trkpt lat="69.60841" lon="18.26811">
        <ele>44.052338</ele>
        <time>2020-08-26T10:54:50.850Z</time>
      </trkpt>
      <trkpt lat="69.6083" lon="18.26833">
        <ele>43.501371</ele>
        <time>2020-08-26T10:54:52.839Z</time>
      </trkpt>
      <trkpt lat="69.6082" lon="18.26859">
        <ele>42.929767</ele>
        <time>2020-08-26T10:54:54.819Z</time>
      </trkpt>
      <trkpt lat="69.6081" lon="18.26886">
        <ele>42.270999</ele>
        <time>2020-08-26T10:54:56.835Z</time>
      </trkpt>
      <trkpt lat="69.608" lon="18.26918">
        <ele>41.40051</ele>
        <time>2020-08-26T10:54:58.845Z</time>
      </trkpt>
      <trkpt lat="69.60792" lon="18.26953">
        <ele>40.528367</ele>
        <time>2020-08-26T10:55:00.823Z</time>
      </trkpt>
      <trkpt lat="69.60785" lon="18.26991">
        <ele>39.640525</ele>
        <time>2020-08-26T10:55:02.845Z</time>
      </trkpt>
      <trkpt lat="69.60779" lon="18.27031">
        <ele>38.742594</ele>
        <time>2020-08-26T10:55:04.823Z</time>
      </trkpt>
      <trkpt lat="69.60775" lon="18.27072">
        <ele>37.843079</ele>
        <time>2020-08-26T10:55:06.835Z</time>
      </trkpt>
      <trkpt lat="69.60771" lon="18.27112">
        <ele>36.98345</ele>
        <time>2020-08-26T10:55:08.809Z</time>
      </trkpt>
      <trkpt lat="69.60767" lon="18.27148">
        <ele>36.198993</ele>
        <time>2020-08-26T10:55:10.848Z</time>
      </trkpt>
      <trkpt lat="69.60764" lon="18.2718">
        <ele>35.507839</ele>
        <time>2020-08-26T10:55:12.819Z</time>
      </trkpt>
      <trkpt lat="69.60761" lon="18.2721">
        <ele>34.863499</ele>
        <time>2020-08-26T10:55:14.841Z</time>
      </trkpt>
      <trkpt lat="69.60758" lon="18.2724">
        <ele>34.215157</ele>
        <time>2020-08-26T10:55:16.825Z</time>
      </trkpt>
      <trkpt lat="69.60755" lon="18.27271">
        <ele>33.561843</ele>
        <time>2020-08-26T10:55:18.832Z</time>
      </trkpt>
      <trkpt lat="69.60752" lon="18.27304">
        <ele>32.84778</ele>
        <time>2020-08-26T10:55:20.865Z</time>
      </trkpt>
      <trkpt lat="69.60749" lon="18.27337">
        <ele>32.127685</ele>
        <time>2020-08-26T10:55:22.839Z</time>
      </trkpt>
      <trkpt lat="69.60745" lon="18.27371">
        <ele>31.724971</ele>
        <time>2020-08-26T10:55:24.831Z</time>
      </trkpt>
      <trkpt lat="69.60741" lon="18.27405">
        <ele>31.620564</ele>
        <time>2020-08-26T10:55:26.867Z</time>
      </trkpt>
      <trkpt lat="69.60739" lon="18.2744">
        <ele>31.515976</ele>
        <time>2020-08-26T10:55:28.819Z</time>
      </trkpt>
      <trkpt lat="69.60736" lon="18.27476">
        <ele>31.409631</ele>
        <time>2020-08-26T10:55:30.852Z</time>
      </trkpt>
      <trkpt lat="69.60734" lon="18.27511">
        <ele>31.307857</ele>
        <time>2020-08-26T10:55:32.867Z</time>
      </trkpt>
      <trkpt lat="69.60732" lon="18.27547">
        <ele>31.203013</ele>
        <time>2020-08-26T10:55:34.829Z</time>
      </trkpt>
      <trkpt lat="69.6073" lon="18.27583">
        <ele>31.094373</ele>
        <time>2020-08-26T10:55:36.838Z</time>
      </trkpt>
      <trkpt lat="69.60727" lon="18.27619">
        <ele>30.988152</ele>
        <time>2020-08-26T10:55:38.851Z</time>
      </trkpt>
      <trkpt lat="69.60722" lon="18.27649">
        <ele>30.88998</ele>
        <time>2020-08-26T10:55:40.834Z</time>
      </trkpt>
      <trkpt lat="69.60715" lon="18.27673">
        <ele>30.798301</ele>
        <time>2020-08-26T10:55:42.848Z</time>
      </trkpt>
      <trkpt lat="69.60707" lon="18.27691">
        <ele>30.715131</ele>
        <time>2020-08-26T10:55:44.847Z</time>
      </trkpt>
      <trkpt lat="69.60698" lon="18.27707">
        <ele>30.627271</ele>
        <time>2020-08-26T10:55:46.811Z</time>
      </trkpt>
      <trkpt lat="69.60688" lon="18.27721">
        <ele>30.533608</ele>
        <time>2020-08-26T10:55:48.836Z</time>
      </trkpt>
      <trkpt lat="69.60677" lon="18.27732">
        <ele>30.436115</ele>
        <time>2020-08-26T10:55:50.825Z</time>
      </trkpt>
      <trkpt lat="69.60664" lon="18.27745">
        <ele>30.325784</ele>
        <time>2020-08-26T10:55:52.890Z</time>
      </trkpt>
      <trkpt lat="69.60652" lon="18.2776">
        <ele>30.655073</ele>
        <time>2020-08-26T10:55:54.841Z</time>
      </trkpt>
      <trkpt lat="69.6064" lon="18.2778">
        <ele>31.297423</ele>
        <time>2020-08-26T10:55:56.828Z</time>
      </trkpt>
      <trkpt lat="69.60629" lon="18.27801">
        <ele>31.89099</ele>
        <time>2020-08-26T10:55:58.814Z</time>
      </trkpt>
      <trkpt lat="69.60621" lon="18.27823">
        <ele>32.422545</ele>
        <time>2020-08-26T10:56:00.821Z</time>
      </trkpt>
      <trkpt lat="69.60614" lon="18.27846">
        <ele>32.921026</ele>
        <time>2020-08-26T10:56:02.827Z</time>
      </trkpt>
      <trkpt lat="69.60607" lon="18.27869">
        <ele>33.419772</ele>
        <time>2020-08-26T10:56:04.832Z</time>
      </trkpt>
      <trkpt lat="69.60599" lon="18.27894">
        <ele>33.970129</ele>
        <time>2020-08-26T10:56:06.853Z</time>
      </trkpt>
      <trkpt lat="69.6059" lon="18.2792">
        <ele>34.561817</ele>
        <time>2020-08-26T10:56:08.825Z</time>
      </trkpt>
      <trkpt lat="69.60582" lon="18.27946">
        <ele>35.14652</ele>
        <time>2020-08-26T10:56:10.839Z</time>
      </trkpt>
      <trkpt lat="69.60573" lon="18.2797">
        <ele>35.698569</ele>
        <time>2020-08-26T10:56:12.853Z</time>
      </trkpt>
      <trkpt lat="69.60565" lon="18.27994">
        <ele>36.239414</ele>
        <time>2020-08-26T10:56:14.844Z</time>
      </trkpt>
      <trkpt lat="69.60558" lon="18.28016">
        <ele>36.739091</ele>
        <time>2020-08-26T10:56:16.814Z</time>
      </trkpt>
      <trkpt lat="69.60551" lon="18.28036">
        <ele>37.199705</ele>
        <time>2020-08-26T10:56:18.840Z</time>
      </trkpt>
      <trkpt lat="69.60544" lon="18.28053">
        <ele>37.633076</ele>
        <time>2020-08-26T10:56:20.832Z</time>
      </trkpt>
      <trkpt lat="69.60534" lon="18.28075">
        <ele>38.208977</ele>
        <time>2020-08-26T10:56:23.831Z</time>
      </trkpt>
      <trkpt lat="69.60526" lon="18.28094">
        <ele>38.699436</ele>
        <time>2020-08-26T10:56:26.854Z</time>
      </trkpt>
      <trkpt lat="69.60518" lon="18.28109">
        <ele>38.927109</ele>
        <time>2020-08-26T10:56:29.827Z</time>
      </trkpt>
      <trkpt lat="69.6051" lon="18.28121">
        <ele>39.145439</ele>
        <time>2020-08-26T10:56:32.868Z</time>
      </trkpt>
      <trkpt lat="69.60501" lon="18.28134">
        <ele>39.370322</ele>
        <time>2020-08-26T10:56:35.847Z</time>
      </trkpt>
      <trkpt lat="69.60493" lon="18.28149">
        <ele>39.601354</ele>
        <time>2020-08-26T10:56:38.839Z</time>
      </trkpt>
      <trkpt lat="69.60484" lon="18.28164">
        <ele>39.849733</ele>
        <time>2020-08-26T10:56:41.813Z</time>
      </trkpt>
      <trkpt lat="69.60474" lon="18.28181">
        <ele>40.122908</ele>
        <time>2020-08-26T10:56:44.831Z</time>
      </trkpt>
      <trkpt lat="69.60463" lon="18.28198">
        <ele>40.430535</ele>
        <time>2020-08-26T10:56:47.837Z</time>
      </trkpt>
      <trkpt lat="69.60455" lon="18.28211">
        <ele>40.647951</ele>
        <time>2020-08-26T10:56:49.814Z</time>
      </trkpt>
      <trkpt lat="69.60446" lon="18.28224">
        <ele>40.884758</ele>
        <time>2020-08-26T10:56:51.819Z</time>
      </trkpt>
      <trkpt lat="69.60436" lon="18.28238">
        <ele>41.141899</ele>
        <time>2020-08-26T10:56:53.851Z</time>
      </trkpt>
      <trkpt lat="69.60427" lon="18.28253">
        <ele>41.392339</ele>
        <time>2020-08-26T10:56:55.813Z</time>
      </trkpt>
      <trkpt lat="69.60418" lon="18.28271">
        <ele>41.663563</ele>
        <time>2020-08-26T10:56:57.813Z</time>
      </trkpt>
      <trkpt lat="69.60407" lon="18.28287">
        <ele>41.945009</ele>
        <time>2020-08-26T10:56:59.838Z</time>
      </trkpt>
      <trkpt lat="69.60396" lon="18.28304">
        <ele>42.242276</ele>
        <time>2020-08-26T10:57:01.834Z</time>
      </trkpt>
      <trkpt lat="69.60385" lon="18.28323">
        <ele>42.554306</ele>
        <time>2020-08-26T10:57:03.819Z</time>
      </trkpt>
      <trkpt lat="69.60373" lon="18.28342">
        <ele>42.87667</ele>
        <time>2020-08-26T10:57:05.841Z</time>
      </trkpt>
      <trkpt lat="69.60362" lon="18.28361">
        <ele>42.759003</ele>
        <time>2020-08-26T10:57:07.824Z</time>
      </trkpt>
      <trkpt lat="69.6035" lon="18.28381">
        <ele>42.451918</ele>
        <time>2020-08-26T10:57:09.822Z</time>
      </trkpt>
      <trkpt lat="69.60339" lon="18.28399">
        <ele>42.153936</ele>
        <time>2020-08-26T10:57:11.828Z</time>
      </trkpt>
      <trkpt lat="69.60327" lon="18.28416">
        <ele>41.862654</ele>
        <time>2020-08-26T10:57:13.848Z</time>
      </trkpt>
      <trkpt lat="69.60316" lon="18.28432">
        <ele>41.576559</ele>
        <time>2020-08-26T10:57:15.853Z</time>
      </trkpt>
      <trkpt lat="69.60306" lon="18.28449">
        <ele>41.303746</ele>
        <time>2020-08-26T10:57:17.842Z</time>
      </trkpt>
      <trkpt lat="69.60297" lon="18.28463">
        <ele>41.072046</ele>
        <time>2020-08-26T10:57:19.828Z</time>
      </trkpt>
      <trkpt lat="69.60289" lon="18.28478">
        <ele>40.836327</ele>
        <time>2020-08-26T10:57:21.839Z</time>
      </trkpt>
      <trkpt lat="69.60279" lon="18.28494">
        <ele>40.589078</ele>
        <time>2020-08-26T10:57:23.828Z</time>
      </trkpt>
      <trkpt lat="69.6027" lon="18.28509">
        <ele>40.342969</ele>
        <time>2020-08-26T10:57:25.862Z</time>
      </trkpt>
      <trkpt lat="69.6026" lon="18.28525">
        <ele>40.083324</ele>
        <time>2020-08-26T10:57:27.832Z</time>
      </trkpt>
      <trkpt lat="69.6025" lon="18.28543">
        <ele>39.810113</ele>
        <time>2020-08-26T10:57:29.858Z</time>
      </trkpt>
      <trkpt lat="69.60239" lon="18.28559">
        <ele>39.534766</ele>
        <time>2020-08-26T10:57:31.821Z</time>
      </trkpt>
      <trkpt lat="69.60229" lon="18.28575">
        <ele>39.254974</ele>
        <time>2020-08-26T10:57:33.833Z</time>
      </trkpt>
      <trkpt lat="69.60218" lon="18.28592">
        <ele>38.979377</ele>
        <time>2020-08-26T10:57:35.815Z</time>
      </trkpt>
      <trkpt lat="69.60207" lon="18.28609">
        <ele>38.941804</ele>
        <time>2020-08-26T10:57:37.832Z</time>
      </trkpt>
      <trkpt lat="69.60196" lon="18.28622">
        <ele>39.13734</ele>
        <time>2020-08-26T10:57:39.814Z</time>
      </trkpt>
      <trkpt lat="69.60185" lon="18.28632">
        <ele>39.328223</ele>
        <time>2020-08-26T10:57:41.831Z</time>
      </trkpt>
      <trkpt lat="69.60174" lon="18.2864">
        <ele>39.509243</ele>
        <time>2020-08-26T10:57:43.871Z</time>
      </trkpt>
      <trkpt lat="69.60163" lon="18.28645">
        <ele>39.678804</ele>
        <time>2020-08-26T10:57:45.813Z</time>
      </trkpt>
      <trkpt lat="69.60153" lon="18.28647">
        <ele>39.849978</ele>
        <time>2020-08-26T10:57:47.825Z</time>
      </trkpt>
      <trkpt lat="69.60143" lon="18.28645">
        <ele>40.012974</ele>
        <time>2020-08-26T10:57:49.828Z</time>
      </trkpt>
      <trkpt lat="69.60133" lon="18.28643">
        <ele>40.17619</ele>
        <time>2020-08-26T10:57:51.827Z</time>
      </trkpt>
      <trkpt lat="69.60123" lon="18.2864">
        <ele>40.336383</ele>
        <time>2020-08-26T10:57:53.826Z</time>
      </trkpt>
      <trkpt lat="69.60113" lon="18.28637">
        <ele>40.490449</ele>
        <time>2020-08-26T10:57:55.815Z</time>
      </trkpt>
      <trkpt lat="69.601" lon="18.28635">
        <ele>40.7019</ele>
        <time>2020-08-26T10:57:58.853Z</time>
      </trkpt>
      <trkpt lat="69.60088" lon="18.28633">
        <ele>40.897302</ele>
        <time>2020-08-26T10:58:01.836Z</time>
      </trkpt>
      <trkpt lat="69.60075" lon="18.28631">
        <ele>41.110192</ele>
        <time>2020-08-26T10:58:04.835Z</time>
      </trkpt>
      <trkpt lat="69.60065" lon="18.2863">
        <ele>41.261745</ele>
        <time>2020-08-26T10:58:06.819Z</time>
      </trkpt>
      <trkpt lat="69.60056" lon="18.28629">
        <ele>41.415122</ele>
        <time>2020-08-26T10:58:08.829Z</time>
      </trkpt>
      <trkpt lat="69.60046" lon="18.28627">
        <ele>41.57487</ele>
        <time>2020-08-26T10:58:10.830Z</time>
      </trkpt>
      <trkpt lat="69.60036" lon="18.28625">
        <ele>41.729822</ele>
        <time>2020-08-26T10:58:12.859Z</time>
      </trkpt>
      <trkpt lat="69.60027" lon="18.28623">
        <ele>41.697003</ele>
        <time>2020-08-26T10:58:14.817Z</time>
      </trkpt>
      <trkpt lat="69.60017" lon="18.28621">
        <ele>41.653024</ele>
        <time>2020-08-26T10:58:16.828Z</time>
      </trkpt>
      <trkpt lat="69.60007" lon="18.2862">
        <ele>41.610396</ele>
        <time>2020-08-26T10:58:18.846Z</time>
      </trkpt>
      <trkpt lat="69.59994" lon="18.28619">
        <ele>41.550766</ele>
        <time>2020-08-26T10:58:21.825Z</time>
      </trkpt>
      <trkpt lat="69.59981" lon="18.28619">
        <ele>41.493865</ele>
        <time>2020-08-26T10:58:24.824Z</time>
      </trkpt>
      <trkpt lat="69.5997" lon="18.28617">
        <ele>41.442719</ele>
        <time>2020-08-26T10:58:27.873Z</time>
      </trkpt>
      <trkpt lat="69.59959" lon="18.28615">
        <ele>41.39109</ele>
        <time>2020-08-26T10:58:30.835Z</time>
      </trkpt>
      <trkpt lat="69.59946" lon="18.28614">
        <ele>41.336397</ele>
        <time>2020-08-26T10:58:33.814Z</time>
      </trkpt>
      <trkpt lat="69.59934" lon="18.2861">
        <ele>41.282415</ele>
        <time>2020-08-26T10:58:36.822Z</time>
      </trkpt>
      <trkpt lat="69.59922" lon="18.28608">
        <ele>41.226323</ele>
        <time>2020-08-26T10:58:39.824Z</time>
      </trkpt>
      <trkpt lat="69.59913" lon="18.28606">
        <ele>41.184855</ele>
        <time>2020-08-26T10:58:41.848Z</time>
      </trkpt>
      <trkpt lat="69.59903" lon="18.28604">
        <ele>41.1404</ele>
        <time>2020-08-26T10:58:43.841Z</time>
      </trkpt>
      <trkpt lat="69.59893" lon="18.28602">
        <ele>41.095109</ele>
        <time>2020-08-26T10:58:45.853Z</time>
      </trkpt>
      <trkpt lat="69.59882" lon="18.28601">
        <ele>41.045346</ele>
        <time>2020-08-26T10:58:47.825Z</time>
      </trkpt>
      <trkpt lat="69.59869" lon="18.28602">
        <ele>40.990667</ele>
        <time>2020-08-26T10:58:49.813Z</time>
      </trkpt>
      <trkpt lat="69.59855" lon="18.28605">
        <ele>40.894241</ele>
        <time>2020-08-26T10:58:51.847Z</time>
      </trkpt>
      <trkpt lat="69.5984" lon="18.2861">
        <ele>40.521888</ele>
        <time>2020-08-26T10:58:53.833Z</time>
      </trkpt>
      <trkpt lat="69.59825" lon="18.28619">
        <ele>40.13176</ele>
        <time>2020-08-26T10:58:55.843Z</time>
      </trkpt>
      <trkpt lat="69.5981" lon="18.28628">
        <ele>39.753735</ele>
        <time>2020-08-26T10:58:57.849Z</time>
      </trkpt>
      <trkpt lat="69.59796" lon="18.28636">
        <ele>39.386176</ele>
        <time>2020-08-26T10:58:59.838Z</time>
      </trkpt>
      <trkpt lat="69.59783" lon="18.28638">
        <ele>39.054016</ele>
        <time>2020-08-26T10:59:01.822Z</time>
      </trkpt>
      <trkpt lat="69.5977" lon="18.28632">
        <ele>38.733797</ele>
        <time>2020-08-26T10:59:03.827Z</time>
      </trkpt>
      <trkpt lat="69.59758" lon="18.28619">
        <ele>38.419181</ele>
        <time>2020-08-26T10:59:05.838Z</time>
      </trkpt>
      <trkpt lat="69.59747" lon="18.28605">
        <ele>38.100203</ele>
        <time>2020-08-26T10:59:07.822Z</time>
      </trkpt>
      <trkpt lat="69.59736" lon="18.28588">
        <ele>37.793586</ele>
        <time>2020-08-26T10:59:09.847Z</time>
      </trkpt>
      <trkpt lat="69.59726" lon="18.28573">
        <ele>37.514912</ele>
        <time>2020-08-26T10:59:11.863Z</time>
      </trkpt>
      <trkpt lat="69.59717" lon="18.28562">
        <ele>37.274597</ele>
        <time>2020-08-26T10:59:13.866Z</time>
      </trkpt>
      <trkpt lat="69.59705" lon="18.28549">
        <ele>36.93932</ele>
        <time>2020-08-26T10:59:16.823Z</time>
      </trkpt>
      <trkpt lat="69.59697" lon="18.28539">
        <ele>36.715117</ele>
        <time>2020-08-26T10:59:18.812Z</time>
      </trkpt>
      <trkpt lat="69.59685" lon="18.28526">
        <ele>36.413962</ele>
        <time>2020-08-26T10:59:21.841Z</time>
      </trkpt>
      <trkpt lat="69.59674" lon="18.28516">
        <ele>36.591572</ele>
        <time>2020-08-26T10:59:24.822Z</time>
      </trkpt>
      <trkpt lat="69.59662" lon="18.28511">
        <ele>36.759488</ele>
        <time>2020-08-26T10:59:27.827Z</time>
      </trkpt>
      <trkpt lat="69.59649" lon="18.28508">
        <ele>36.943459</ele>
        <time>2020-08-26T10:59:30.869Z</time>
      </trkpt>
      <trkpt lat="69.59638" lon="18.28507">
        <ele>37.110776</ele>
        <time>2020-08-26T10:59:33.832Z</time>
      </trkpt>
      <trkpt lat="69.59626" lon="18.28505">
        <ele>37.285786</ele>
        <time>2020-08-26T10:59:36.824Z</time>
      </trkpt>
      <trkpt lat="69.59613" lon="18.28502">
        <ele>37.472584</ele>
        <time>2020-08-26T10:59:39.815Z</time>
      </trkpt>
      <trkpt lat="69.596" lon="18.285">
        <ele>37.663101</ele>
        <time>2020-08-26T10:59:42.827Z</time>
      </trkpt>
      <trkpt lat="69.5959" lon="18.285">
        <ele>37.795803</ele>
        <time>2020-08-26T10:59:44.824Z</time>
      </trkpt>
      <trkpt lat="69.5958" lon="18.28499">
        <ele>37.940058</ele>
        <time>2020-08-26T10:59:46.840Z</time>
      </trkpt>
      <trkpt lat="69.5957" lon="18.28498">
        <ele>38.090249</ele>
        <time>2020-08-26T10:59:48.832Z</time>
      </trkpt>
      <trkpt lat="69.5956" lon="18.28493">
        <ele>38.242101</ele>
        <time>2020-08-26T10:59:50.893Z</time>
      </trkpt>
      <trkpt lat="69.59549" lon="18.28491">
        <ele>38.395463</ele>
        <time>2020-08-26T10:59:52.808Z</time>
      </trkpt>
      <trkpt lat="69.59539" lon="18.28488">
        <ele>38.54747</ele>
        <time>2020-08-26T10:59:54.813Z</time>
      </trkpt>
      <trkpt lat="69.59527" lon="18.28483">
        <ele>38.721321</ele>
        <time>2020-08-26T10:59:56.839Z</time>
      </trkpt>
      <trkpt lat="69.59515" lon="18.28476">
        <ele>38.890987</ele>
        <time>2020-08-26T10:59:58.851Z</time>
      </trkpt>
      <trkpt lat="69.59503" lon="18.28472">
        <ele>38.938194</ele>
        <time>2020-08-26T11:00:00.827Z</time>
      </trkpt>
      <trkpt lat="69.59492" lon="18.28465">
        <ele>38.730653</ele>
        <time>2020-08-26T11:00:02.839Z</time>
      </trkpt>
      <trkpt lat="69.59479" lon="18.28456">
        <ele>38.510484</ele>
        <time>2020-08-26T11:00:04.819Z</time>
      </trkpt>
      <trkpt lat="69.59467" lon="18.28446">
        <ele>38.286315</ele>
        <time>2020-08-26T11:00:06.843Z</time>
      </trkpt>
      <trkpt lat="69.59455" lon="18.28441">
        <ele>38.06801</ele>
        <time>2020-08-26T11:00:08.859Z</time>
      </trkpt>
      <trkpt lat="69.59442" lon="18.28434">
        <ele>37.851094</ele>
        <time>2020-08-26T11:00:10.840Z</time>
      </trkpt>
      <trkpt lat="69.59431" lon="18.28426">
        <ele>37.640734</ele>
        <time>2020-08-26T11:00:12.868Z</time>
      </trkpt>
      <trkpt lat="69.5942" lon="18.28419">
        <ele>37.445374</ele>
        <time>2020-08-26T11:00:14.831Z</time>
      </trkpt>
      <trkpt lat="69.59409" lon="18.28413">
        <ele>37.248229</ele>
        <time>2020-08-26T11:00:16.827Z</time>
      </trkpt>
      <trkpt lat="69.59397" lon="18.28408">
        <ele>37.044939</ele>
        <time>2020-08-26T11:00:18.829Z</time>
      </trkpt>
      <trkpt lat="69.59386" lon="18.28401">
        <ele>36.840364</ele>
        <time>2020-08-26T11:00:20.855Z</time>
      </trkpt>
      <trkpt lat="69.59375" lon="18.28395">
        <ele>36.643105</ele>
        <time>2020-08-26T11:00:22.818Z</time>
      </trkpt>
      <trkpt lat="69.59363" lon="18.28387">
        <ele>36.434586</ele>
        <time>2020-08-26T11:00:24.834Z</time>
      </trkpt>
      <trkpt lat="69.59352" lon="18.28377">
        <ele>36.230388</ele>
        <time>2020-08-26T11:00:26.826Z</time>
      </trkpt>
      <trkpt lat="69.5934" lon="18.28366">
        <ele>36.014719</ele>
        <time>2020-08-26T11:00:28.850Z</time>
      </trkpt>
      <trkpt lat="69.59329" lon="18.28355">
        <ele>35.832921</ele>
        <time>2020-08-26T11:00:30.832Z</time>
      </trkpt>
      <trkpt lat="69.59319" lon="18.28344">
        <ele>35.697781</ele>
        <time>2020-08-26T11:00:33.853Z</time>
      </trkpt>
      <trkpt lat="69.5931" lon="18.28333">
        <ele>35.57825</ele>
        <time>2020-08-26T11:00:36.838Z</time>
      </trkpt>
      <trkpt lat="69.59299" lon="18.28321">
        <ele>35.43161</ele>
        <time>2020-08-26T11:00:39.843Z</time>
      </trkpt>
      <trkpt lat="69.59288" lon="18.28309">
        <ele>35.285974</ele>
        <time>2020-08-26T11:00:42.824Z</time>
      </trkpt>
      <trkpt lat="69.59275" lon="18.28297">
        <ele>35.119609</ele>
        <time>2020-08-26T11:00:45.833Z</time>
      </trkpt>
      <trkpt lat="69.59266" lon="18.2829">
        <ele>35.008736</ele>
        <time>2020-08-26T11:00:47.840Z</time>
      </trkpt>
      <trkpt lat="69.59257" lon="18.28283">
        <ele>34.896526</ele>
        <time>2020-08-26T11:00:49.859Z</time>
      </trkpt>
      <trkpt lat="69.59248" lon="18.28277">
        <ele>34.786894</ele>
        <time>2020-08-26T11:00:51.850Z</time>
      </trkpt>
      <trkpt lat="69.5924" lon="18.28271">
        <ele>34.676573</ele>
        <time>2020-08-26T11:00:53.827Z</time>
      </trkpt>
      <trkpt lat="69.59227" lon="18.28262">
        <ele>34.514855</ele>
        <time>2020-08-26T11:00:56.825Z</time>
      </trkpt>
      <trkpt lat="69.59213" lon="18.28256">
        <ele>34.350921</ele>
        <time>2020-08-26T11:00:59.820Z</time>
      </trkpt>
      <trkpt lat="69.59205" lon="18.2825">
        <ele>34.240695</ele>
        <time>2020-08-26T11:01:01.844Z</time>
      </trkpt>
      <trkpt lat="69.59195" lon="18.28244">
        <ele>34.123565</ele>
        <time>2020-08-26T11:01:03.848Z</time>
      </trkpt>
      <trkpt lat="69.59186" lon="18.2824">
        <ele>34.008188</ele>
        <time>2020-08-26T11:01:05.828Z</time>
      </trkpt>
      <trkpt lat="69.59176" lon="18.28234">
        <ele>33.884899</ele>
        <time>2020-08-26T11:01:07.823Z</time>
      </trkpt>
      <trkpt lat="69.59166" lon="18.28229">
        <ele>33.760412</ele>
        <time>2020-08-26T11:01:09.820Z</time>
      </trkpt>
      <trkpt lat="69.59155" lon="18.28221">
        <ele>33.624659</ele>
        <time>2020-08-26T11:01:11.842Z</time>
      </trkpt>
      <trkpt lat="69.59145" lon="18.28215">
        <ele>33.489379</ele>
        <time>2020-08-26T11:01:13.829Z</time>
      </trkpt>
      <trkpt lat="69.59135" lon="18.28207">
        <ele>33.355989</ele>
        <time>2020-08-26T11:01:15.833Z</time>
      </trkpt>
      <trkpt lat="69.59126" lon="18.28199">
        <ele>33.2282</ele>
        <time>2020-08-26T11:01:17.816Z</time>
      </trkpt>
      <trkpt lat="69.59116" lon="18.28189">
        <ele>33.091769</ele>
        <time>2020-08-26T11:01:19.820Z</time>
      </trkpt>
      <trkpt lat="69.59106" lon="18.2818">
        <ele>32.954937</ele>
        <time>2020-08-26T11:01:21.836Z</time>
      </trkpt>
      <trkpt lat="69.59096" lon="18.28171">
        <ele>32.822616</ele>
        <time>2020-08-26T11:01:23.830Z</time>
      </trkpt>
      <trkpt lat="69.59086" lon="18.28161">
        <ele>32.688781</ele>
        <time>2020-08-26T11:01:25.846Z</time>
      </trkpt>
      <trkpt lat="69.59077" lon="18.28152">
        <ele>32.560426</ele>
        <time>2020-08-26T11:01:27.840Z</time>
      </trkpt>
      <trkpt lat="69.59067" lon="18.28144">
        <ele>32.431942</ele>
        <time>2020-08-26T11:01:29.826Z</time>
      </trkpt>
      <trkpt lat="69.59057" lon="18.28134">
        <ele>32.295366</ele>
        <time>2020-08-26T11:01:31.812Z</time>
      </trkpt>
      <trkpt lat="69.59048" lon="18.28125">
        <ele>32.163682</ele>
        <time>2020-08-26T11:01:33.827Z</time>
      </trkpt>
      <trkpt lat="69.59038" lon="18.28114">
        <ele>32.030267</ele>
        <time>2020-08-26T11:01:35.812Z</time>
      </trkpt>
      <trkpt lat="69.59029" lon="18.28103">
        <ele>31.899088</ele>
        <time>2020-08-26T11:01:37.828Z</time>
      </trkpt>
      <trkpt lat="69.59019" lon="18.28092">
        <ele>31.768575</ele>
        <time>2020-08-26T11:01:39.823Z</time>
      </trkpt>
      <trkpt lat="69.5901" lon="18.28082">
        <ele>31.636855</ele>
        <time>2020-08-26T11:01:41.810Z</time>
      </trkpt>
      <trkpt lat="69.59001" lon="18.28072">
        <ele>31.509281</ele>
        <time>2020-08-26T11:01:43.834Z</time>
      </trkpt>
      <trkpt lat="69.58991" lon="18.28064">
        <ele>31.383666</ele>
        <time>2020-08-26T11:01:45.848Z</time>
      </trkpt>
      <trkpt lat="69.58982" lon="18.28056">
        <ele>31.583693</ele>
        <time>2020-08-26T11:01:47.837Z</time>
      </trkpt>
      <trkpt lat="69.58973" lon="18.28049">
        <ele>31.941764</ele>
        <time>2020-08-26T11:01:49.869Z</time>
      </trkpt>
      <trkpt lat="69.5896" lon="18.28037">
        <ele>32.461071</ele>
        <time>2020-08-26T11:01:52.826Z</time>
      </trkpt>
      <trkpt lat="69.58948" lon="18.28027">
        <ele>32.962803</ele>
        <time>2020-08-26T11:01:55.871Z</time>
      </trkpt>
      <trkpt lat="69.58936" lon="18.28016">
        <ele>33.437076</ele>
        <time>2020-08-26T11:01:58.826Z</time>
      </trkpt>
      <trkpt lat="69.58925" lon="18.28007">
        <ele>33.883918</ele>
        <time>2020-08-26T11:02:01.819Z</time>
      </trkpt>
      <trkpt lat="69.58913" lon="18.28">
        <ele>34.345426</ele>
        <time>2020-08-26T11:02:04.867Z</time>
      </trkpt>
      <trkpt lat="69.58901" lon="18.27993">
        <ele>34.813928</ele>
        <time>2020-08-26T11:02:07.867Z</time>
      </trkpt>
      <trkpt lat="69.5889" lon="18.27987">
        <ele>35.263113</ele>
        <time>2020-08-26T11:02:10.821Z</time>
      </trkpt>
      <trkpt lat="69.58878" lon="18.2798">
        <ele>35.727346</ele>
        <time>2020-08-26T11:02:13.826Z</time>
      </trkpt>
      <trkpt lat="69.58866" lon="18.27973">
        <ele>36.198009</ele>
        <time>2020-08-26T11:02:16.858Z</time>
      </trkpt>
      <trkpt lat="69.58854" lon="18.27966">
        <ele>36.656588</ele>
        <time>2020-08-26T11:02:19.835Z</time>
      </trkpt>
      <trkpt lat="69.58842" lon="18.27957">
        <ele>37.144256</ele>
        <time>2020-08-26T11:02:22.816Z</time>
      </trkpt>
      <trkpt lat="69.58829" lon="18.27951">
        <ele>37.635843</ele>
        <time>2020-08-26T11:02:25.850Z</time>
      </trkpt>
      <trkpt lat="69.58816" lon="18.27943">
        <ele>38.12927</ele>
        <time>2020-08-26T11:02:28.827Z</time>
      </trkpt>
      <trkpt lat="69.58804" lon="18.27935">
        <ele>38.379195</ele>
        <time>2020-08-26T11:02:31.838Z</time>
      </trkpt>
      <trkpt lat="69.58792" lon="18.27926">
        <ele>38.556893</ele>
        <time>2020-08-26T11:02:34.831Z</time>
      </trkpt>
      <trkpt lat="69.58779" lon="18.27919">
        <ele>38.746323</ele>
        <time>2020-08-26T11:02:37.827Z</time>
      </trkpt>
      <trkpt lat="69.58768" lon="18.27913">
        <ele>38.911197</ele>
        <time>2020-08-26T11:02:40.827Z</time>
      </trkpt>
      <trkpt lat="69.58756" lon="18.27904">
        <ele>39.085099</ele>
        <time>2020-08-26T11:02:43.823Z</time>
      </trkpt>
      <trkpt lat="69.58745" lon="18.27898">
        <ele>39.252705</ele>
        <time>2020-08-26T11:02:46.830Z</time>
      </trkpt>
      <trkpt lat="69.58733" lon="18.27891">
        <ele>39.42135</ele>
        <time>2020-08-26T11:02:49.894Z</time>
      </trkpt>
      <trkpt lat="69.58721" lon="18.27885">
        <ele>39.597959</ele>
        <time>2020-08-26T11:02:52.826Z</time>
      </trkpt>
      <trkpt lat="69.58709" lon="18.27877">
        <ele>39.780392</ele>
        <time>2020-08-26T11:02:55.811Z</time>
      </trkpt>
      <trkpt lat="69.58697" lon="18.2787">
        <ele>39.964154</ele>
        <time>2020-08-26T11:02:58.834Z</time>
      </trkpt>
      <trkpt lat="69.58684" lon="18.27862">
        <ele>40.144394</ele>
        <time>2020-08-26T11:03:01.817Z</time>
      </trkpt>
      <trkpt lat="69.58672" lon="18.27855">
        <ele>40.33128</ele>
        <time>2020-08-26T11:03:04.821Z</time>
      </trkpt>
      <trkpt lat="69.58663" lon="18.27849">
        <ele>40.465893</ele>
        <time>2020-08-26T11:03:06.861Z</time>
      </trkpt>
      <trkpt lat="69.58653" lon="18.27843">
        <ele>40.604731</ele>
        <time>2020-08-26T11:03:08.826Z</time>
      </trkpt>
      <trkpt lat="69.58644" lon="18.27836">
        <ele>40.738022</ele>
        <time>2020-08-26T11:03:10.818Z</time>
      </trkpt>
      <trkpt lat="69.58635" lon="18.27828">
        <ele>40.77844</ele>
        <time>2020-08-26T11:03:12.813Z</time>
      </trkpt>
      <trkpt lat="69.58626" lon="18.27821">
        <ele>40.605698</ele>
        <time>2020-08-26T11:03:14.843Z</time>
      </trkpt>
      <trkpt lat="69.58616" lon="18.27815">
        <ele>40.432173</ele>
        <time>2020-08-26T11:03:16.817Z</time>
      </trkpt>
      <trkpt lat="69.58603" lon="18.27807">
        <ele>40.192309</ele>
        <time>2020-08-26T11:03:19.852Z</time>
      </trkpt>
      <trkpt lat="69.58594" lon="18.27802">
        <ele>40.033266</ele>
        <time>2020-08-26T11:03:21.841Z</time>
      </trkpt>
      <trkpt lat="69.58585" lon="18.27796">
        <ele>39.868648</ele>
        <time>2020-08-26T11:03:23.821Z</time>
      </trkpt>
      <trkpt lat="69.58576" lon="18.2779">
        <ele>39.698584</ele>
        <time>2020-08-26T11:03:25.828Z</time>
      </trkpt>
      <trkpt lat="69.58566" lon="18.27786">
        <ele>39.527968</ele>
        <time>2020-08-26T11:03:27.814Z</time>
      </trkpt>
      <trkpt lat="69.58557" lon="18.2778">
        <ele>39.356789</ele>
        <time>2020-08-26T11:03:29.834Z</time>
      </trkpt>
      <trkpt lat="69.58547" lon="18.27775">
        <ele>39.191908</ele>
        <time>2020-08-26T11:03:31.821Z</time>
      </trkpt>
      <trkpt lat="69.58538" lon="18.27768">
        <ele>39.024752</ele>
        <time>2020-08-26T11:03:33.864Z</time>
      </trkpt>
      <trkpt lat="69.58529" lon="18.27762">
        <ele>38.860745</ele>
        <time>2020-08-26T11:03:35.816Z</time>
      </trkpt>
      <trkpt lat="69.5852" lon="18.27757">
        <ele>38.696382</ele>
        <time>2020-08-26T11:03:37.830Z</time>
      </trkpt>
      <trkpt lat="69.58511" lon="18.27749">
        <ele>38.536392</ele>
        <time>2020-08-26T11:03:39.856Z</time>
      </trkpt>
      <trkpt lat="69.58499" lon="18.2774">
        <ele>38.311085</ele>
        <time>2020-08-26T11:03:42.842Z</time>
      </trkpt>
      <trkpt lat="69.58486" lon="18.27729">
        <ele>38.076609</ele>
        <time>2020-08-26T11:03:45.832Z</time>
      </trkpt>
      <trkpt lat="69.58478" lon="18.2772">
        <ele>37.913842</ele>
        <time>2020-08-26T11:03:47.832Z</time>
      </trkpt>
      <trkpt lat="69.58469" lon="18.27711">
        <ele>37.746921</ele>
        <time>2020-08-26T11:03:49.832Z</time>
      </trkpt>
      <trkpt lat="69.5846" lon="18.27702">
        <ele>37.614907</ele>
        <time>2020-08-26T11:03:51.831Z</time>
      </trkpt>
      <trkpt lat="69.58448" lon="18.27685">
        <ele>37.494861</ele>
        <time>2020-08-26T11:03:54.827Z</time>
      </trkpt>
      <trkpt lat="69.5844" lon="18.27674">
        <ele>37.408375</ele>
        <time>2020-08-26T11:03:56.835Z</time>
      </trkpt>
      <trkpt lat="69.5843" lon="18.27662">
        <ele>37.314891</ele>
        <time>2020-08-26T11:03:58.837Z</time>
      </trkpt>
      <trkpt lat="69.58421" lon="18.27652">
        <ele>37.226603</ele>
        <time>2020-08-26T11:04:00.823Z</time>
      </trkpt>
      <trkpt lat="69.58412" lon="18.2764">
        <ele>37.135172</ele>
        <time>2020-08-26T11:04:02.852Z</time>
      </trkpt>
      <trkpt lat="69.58402" lon="18.27627">
        <ele>37.037493</ele>
        <time>2020-08-26T11:04:04.856Z</time>
      </trkpt>
      <trkpt lat="69.58392" lon="18.27614">
        <ele>36.933216</ele>
        <time>2020-08-26T11:04:06.857Z</time>
      </trkpt>
      <trkpt lat="69.58382" lon="18.27601">
        <ele>36.830827</ele>
        <time>2020-08-26T11:04:08.839Z</time>
      </trkpt>
      <trkpt lat="69.58372" lon="18.27589">
        <ele>36.733107</ele>
        <time>2020-08-26T11:04:10.825Z</time>
      </trkpt>
      <trkpt lat="69.58363" lon="18.27578">
        <ele>36.641802</ele>
        <time>2020-08-26T11:04:12.857Z</time>
      </trkpt>
      <trkpt lat="69.58353" lon="18.27567">
        <ele>36.549781</ele>
        <time>2020-08-26T11:04:14.831Z</time>
      </trkpt>
      <trkpt lat="69.58345" lon="18.27557">
        <ele>36.464001</ele>
        <time>2020-08-26T11:04:16.820Z</time>
      </trkpt>
      <trkpt lat="69.58333" lon="18.27544">
        <ele>36.352079</ele>
        <time>2020-08-26T11:04:19.825Z</time>
      </trkpt>
      <trkpt lat="69.58322" lon="18.27532">
        <ele>36.240329</ele>
        <time>2020-08-26T11:04:22.863Z</time>
      </trkpt>
      <trkpt lat="69.5831" lon="18.27523">
        <ele>36.128606</ele>
        <time>2020-08-26T11:04:25.812Z</time>
      </trkpt>
      <trkpt lat="69.58298" lon="18.27516">
        <ele>36.020123</ele>
        <time>2020-08-26T11:04:28.840Z</time>
      </trkpt>
      <trkpt lat="69.58286" lon="18.27514">
        <ele>36.406069</ele>
        <time>2020-08-26T11:04:31.822Z</time>
      </trkpt>
      <trkpt lat="69.58273" lon="18.27514">
        <ele>36.857375</ele>
        <time>2020-08-26T11:04:34.815Z</time>
      </trkpt>
      <trkpt lat="69.58261" lon="18.27518">
        <ele>37.307608</ele>
        <time>2020-08-26T11:04:37.819Z</time>
      </trkpt>
      <trkpt lat="69.58249" lon="18.27525">
        <ele>37.75559</ele>
        <time>2020-08-26T11:04:40.826Z</time>
      </trkpt>
      <trkpt lat="69.58236" lon="18.27538">
        <ele>38.242825</ele>
        <time>2020-08-26T11:04:43.829Z</time>
      </trkpt>
      <trkpt lat="69.58227" lon="18.27551">
        <ele>38.597992</ele>
        <time>2020-08-26T11:04:45.820Z</time>
      </trkpt>
      <trkpt lat="69.58217" lon="18.27565">
        <ele>38.984353</ele>
        <time>2020-08-26T11:04:47.832Z</time>
      </trkpt>
      <trkpt lat="69.58207" lon="18.27579">
        <ele>39.381426</ele>
        <time>2020-08-26T11:04:49.850Z</time>
      </trkpt>
      <trkpt lat="69.58197" lon="18.27594">
        <ele>39.798882</ele>
        <time>2020-08-26T11:04:51.821Z</time>
      </trkpt>
      <trkpt lat="69.58187" lon="18.27609">
        <ele>40.203719</ele>
        <time>2020-08-26T11:04:53.826Z</time>
      </trkpt>
      <trkpt lat="69.58177" lon="18.27626">
        <ele>40.627592</ele>
        <time>2020-08-26T11:04:55.817Z</time>
      </trkpt>
      <trkpt lat="69.58167" lon="18.27646">
        <ele>41.066573</ele>
        <time>2020-08-26T11:04:57.826Z</time>
      </trkpt>
      <trkpt lat="69.58156" lon="18.2767">
        <ele>41.547595</ele>
        <time>2020-08-26T11:04:59.840Z</time>
      </trkpt>
      <trkpt lat="69.58147" lon="18.27699">
        <ele>42.03432</ele>
        <time>2020-08-26T11:05:01.818Z</time>
      </trkpt>
      <trkpt lat="69.5814" lon="18.27733">
        <ele>42.328928</ele>
        <time>2020-08-26T11:05:03.835Z</time>
      </trkpt>
      <trkpt lat="69.58137" lon="18.27771">
        <ele>41.491789</ele>
        <time>2020-08-26T11:05:05.887Z</time>
      </trkpt>
      <trkpt lat="69.58138" lon="18.27812">
        <ele>40.632149</ele>
        <time>2020-08-26T11:05:07.860Z</time>
      </trkpt>
      <trkpt lat="69.58144" lon="18.27849">
        <ele>39.777907</ele>
        <time>2020-08-26T11:05:09.849Z</time>
      </trkpt>
      <trkpt lat="69.58151" lon="18.27881">
        <ele>38.976261</ele>
        <time>2020-08-26T11:05:11.846Z</time>
      </trkpt>
      <trkpt lat="69.58157" lon="18.2791">
        <ele>38.269564</ele>
        <time>2020-08-26T11:05:13.835Z</time>
      </trkpt>
      <trkpt lat="69.58163" lon="18.27935">
        <ele>37.601844</ele>
        <time>2020-08-26T11:05:15.813Z</time>
      </trkpt>
      <trkpt lat="69.58171" lon="18.27959">
        <ele>36.919872</ele>
        <time>2020-08-26T11:05:17.875Z</time>
      </trkpt>
      <trkpt lat="69.58179" lon="18.27981">
        <ele>36.237321</ele>
        <time>2020-08-26T11:05:19.831Z</time>
      </trkpt>
      <trkpt lat="69.58188" lon="18.28">
        <ele>35.568771</ele>
        <time>2020-08-26T11:05:21.864Z</time>
      </trkpt>
      <trkpt lat="69.58197" lon="18.28018">
        <ele>34.89697</ele>
        <time>2020-08-26T11:05:23.827Z</time>
      </trkpt>
      <trkpt lat="69.58205" lon="18.28036">
        <ele>34.259745</ele>
        <time>2020-08-26T11:05:25.823Z</time>
      </trkpt>
      <trkpt lat="69.58214" lon="18.28051">
        <ele>33.623854</ele>
        <time>2020-08-26T11:05:27.838Z</time>
      </trkpt>
      <trkpt lat="69.58224" lon="18.28064">
        <ele>32.978629</ele>
        <time>2020-08-26T11:05:29.827Z</time>
      </trkpt>
      <trkpt lat="69.58234" lon="18.28076">
        <ele>32.326242</ele>
        <time>2020-08-26T11:05:31.812Z</time>
      </trkpt>
      <trkpt lat="69.58244" lon="18.28087">
        <ele>31.656779</ele>
        <time>2020-08-26T11:05:33.814Z</time>
      </trkpt>
      <trkpt lat="69.58255" lon="18.28098">
        <ele>31.424172</ele>
        <time>2020-08-26T11:05:35.868Z</time>
      </trkpt>
      <trkpt lat="69.58266" lon="18.28107">
        <ele>31.305371</ele>
        <time>2020-08-26T11:05:37.829Z</time>
      </trkpt>
      <trkpt lat="69.58275" lon="18.28114">
        <ele>31.200842</ele>
        <time>2020-08-26T11:05:39.844Z</time>
      </trkpt>
      <trkpt lat="69.58285" lon="18.28121">
        <ele>31.098254</ele>
        <time>2020-08-26T11:05:41.852Z</time>
      </trkpt>
      <trkpt lat="69.58294" lon="18.28127">
        <ele>30.995703</ele>
        <time>2020-08-26T11:05:43.892Z</time>
      </trkpt>
      <trkpt lat="69.58304" lon="18.28134">
        <ele>30.894417</ele>
        <time>2020-08-26T11:05:45.836Z</time>
      </trkpt>
      <trkpt lat="69.58316" lon="18.28142">
        <ele>30.756258</ele>
        <time>2020-08-26T11:05:48.874Z</time>
      </trkpt>
      <trkpt lat="69.58329" lon="18.28154">
        <ele>30.615283</ele>
        <time>2020-08-26T11:05:51.819Z</time>
      </trkpt>
      <trkpt lat="69.58338" lon="18.2816">
        <ele>30.516582</ele>
        <time>2020-08-26T11:05:53.839Z</time>
      </trkpt>
      <trkpt lat="69.58348" lon="18.28168">
        <ele>30.41036</ele>
        <time>2020-08-26T11:05:55.822Z</time>
      </trkpt>
      <trkpt lat="69.58358" lon="18.28175">
        <ele>30.306563</ele>
        <time>2020-08-26T11:05:57.819Z</time>
      </trkpt>
      <trkpt lat="69.58367" lon="18.28183">
        <ele>30.198697</ele>
        <time>2020-08-26T11:05:59.874Z</time>
      </trkpt>
      <trkpt lat="69.58378" lon="18.28191">
        <ele>30.08619</ele>
        <time>2020-08-26T11:06:01.832Z</time>
      </trkpt>
      <trkpt lat="69.58389" lon="18.28199">
        <ele>29.967199</ele>
        <time>2020-08-26T11:06:03.848Z</time>
      </trkpt>
      <trkpt lat="69.584" lon="18.28208">
        <ele>29.842739</ele>
        <time>2020-08-26T11:06:05.833Z</time>
      </trkpt>
      <trkpt lat="69.58411" lon="18.28216">
        <ele>29.720304</ele>
        <time>2020-08-26T11:06:07.813Z</time>
      </trkpt>
      <trkpt lat="69.58422" lon="18.28224">
        <ele>29.553575</ele>
        <time>2020-08-26T11:06:09.830Z</time>
      </trkpt>
      <trkpt lat="69.58433" lon="18.28231">
        <ele>29.226573</ele>
        <time>2020-08-26T11:06:11.824Z</time>
      </trkpt>
      <trkpt lat="69.58444" lon="18.28238">
        <ele>28.910148</ele>
        <time>2020-08-26T11:06:13.817Z</time>
      </trkpt>
      <trkpt lat="69.58454" lon="18.28248">
        <ele>28.600249</ele>
        <time>2020-08-26T11:06:15.832Z</time>
      </trkpt>
      <trkpt lat="69.58464" lon="18.28256">
        <ele>28.292116</ele>
        <time>2020-08-26T11:06:17.841Z</time>
      </trkpt>
      <trkpt lat="69.58475" lon="18.28264">
        <ele>27.963466</ele>
        <time>2020-08-26T11:06:19.853Z</time>
      </trkpt>
      <trkpt lat="69.58486" lon="18.28272">
        <ele>27.63687</ele>
        <time>2020-08-26T11:06:21.852Z</time>
      </trkpt>
      <trkpt lat="69.58496" lon="18.28281">
        <ele>27.337648</ele>
        <time>2020-08-26T11:06:23.813Z</time>
      </trkpt>
      <trkpt lat="69.58506" lon="18.28288">
        <ele>27.032467</ele>
        <time>2020-08-26T11:06:25.835Z</time>
      </trkpt>
      <trkpt lat="69.58516" lon="18.28298">
        <ele>26.725856</ele>
        <time>2020-08-26T11:06:27.829Z</time>
      </trkpt>
      <trkpt lat="69.58527" lon="18.28308">
        <ele>26.415034</ele>
        <time>2020-08-26T11:06:29.836Z</time>
      </trkpt>
      <trkpt lat="69.58537" lon="18.28319">
        <ele>26.089635</ele>
        <time>2020-08-26T11:06:31.835Z</time>
      </trkpt>
      <trkpt lat="69.58547" lon="18.28331">
        <ele>25.768146</ele>
        <time>2020-08-26T11:06:33.828Z</time>
      </trkpt>
      <trkpt lat="69.58557" lon="18.28344">
        <ele>25.456242</ele>
        <time>2020-08-26T11:06:35.841Z</time>
      </trkpt>
      <trkpt lat="69.58568" lon="18.28357">
        <ele>25.126204</ele>
        <time>2020-08-26T11:06:37.833Z</time>
      </trkpt>
      <trkpt lat="69.58578" lon="18.2837">
        <ele>24.796986</ele>
        <time>2020-08-26T11:06:39.836Z</time>
      </trkpt>
      <trkpt lat="69.58588" lon="18.28385">
        <ele>24.459128</ele>
        <time>2020-08-26T11:06:41.830Z</time>
      </trkpt>
      <trkpt lat="69.58598" lon="18.28399">
        <ele>24.184704</ele>
        <time>2020-08-26T11:06:43.827Z</time>
      </trkpt>
      <trkpt lat="69.58608" lon="18.28412">
        <ele>23.915672</ele>
        <time>2020-08-26T11:06:45.841Z</time>
      </trkpt>
      <trkpt lat="69.58618" lon="18.28425">
        <ele>23.649564</ele>
        <time>2020-08-26T11:06:47.817Z</time>
      </trkpt>
      <trkpt lat="69.58628" lon="18.28438">
        <ele>23.382313</ele>
        <time>2020-08-26T11:06:49.859Z</time>
      </trkpt>
      <trkpt lat="69.58638" lon="18.28451">
        <ele>23.116104</ele>
        <time>2020-08-26T11:06:51.839Z</time>
      </trkpt>
      <trkpt lat="69.58648" lon="18.28464">
        <ele>22.845098</ele>
        <time>2020-08-26T11:06:53.826Z</time>
      </trkpt>
      <trkpt lat="69.58658" lon="18.28476">
        <ele>22.588628</ele>
        <time>2020-08-26T11:06:55.819Z</time>
      </trkpt>
      <trkpt lat="69.58668" lon="18.28489">
        <ele>22.330575</ele>
        <time>2020-08-26T11:06:57.836Z</time>
      </trkpt>
      <trkpt lat="69.58677" lon="18.285">
        <ele>22.081488</ele>
        <time>2020-08-26T11:06:59.869Z</time>
      </trkpt>
      <trkpt lat="69.58687" lon="18.28513">
        <ele>21.812019</ele>
        <time>2020-08-26T11:07:01.849Z</time>
      </trkpt>
      <trkpt lat="69.58697" lon="18.28526">
        <ele>21.546495</ele>
        <time>2020-08-26T11:07:03.820Z</time>
      </trkpt>
      <trkpt lat="69.58707" lon="18.28538">
        <ele>21.284549</ele>
        <time>2020-08-26T11:07:05.843Z</time>
      </trkpt>
      <trkpt lat="69.58717" lon="18.28549">
        <ele>21.033885</ele>
        <time>2020-08-26T11:07:07.853Z</time>
      </trkpt>
      <trkpt lat="69.58726" lon="18.2856">
        <ele>20.792848</ele>
        <time>2020-08-26T11:07:09.839Z</time>
      </trkpt>
      <trkpt lat="69.58735" lon="18.28571">
        <ele>20.558277</ele>
        <time>2020-08-26T11:07:11.859Z</time>
      </trkpt>
      <trkpt lat="69.58743" lon="18.28584">
        <ele>20.31988</ele>
        <time>2020-08-26T11:07:13.835Z</time>
      </trkpt>
      <trkpt lat="69.58752" lon="18.28597">
        <ele>20.07317</ele>
        <time>2020-08-26T11:07:15.809Z</time>
      </trkpt>
      <trkpt lat="69.58761" lon="18.28608">
        <ele>20.212104</ele>
        <time>2020-08-26T11:07:17.834Z</time>
      </trkpt>
      <trkpt lat="69.58774" lon="18.28623">
        <ele>20.502079</ele>
        <time>2020-08-26T11:07:20.825Z</time>
      </trkpt>
      <trkpt lat="69.58782" lon="18.28633">
        <ele>20.703585</ele>
        <time>2020-08-26T11:07:22.828Z</time>
      </trkpt>
      <trkpt lat="69.58791" lon="18.28644">
        <ele>20.902641</ele>
        <time>2020-08-26T11:07:24.839Z</time>
      </trkpt>
      <trkpt lat="69.58799" lon="18.28655">
        <ele>21.104286</ele>
        <time>2020-08-26T11:07:26.880Z</time>
      </trkpt>
      <trkpt lat="69.58811" lon="18.28671">
        <ele>21.391018</ele>
        <time>2020-08-26T11:07:29.821Z</time>
      </trkpt>
      <trkpt lat="69.58819" lon="18.28684">
        <ele>21.591868</ele>
        <time>2020-08-26T11:07:31.830Z</time>
      </trkpt>
      <trkpt lat="69.58829" lon="18.28695">
        <ele>21.804784</ele>
        <time>2020-08-26T11:07:33.846Z</time>
      </trkpt>
      <trkpt lat="69.58838" lon="18.28705">
        <ele>22.01518</ele>
        <time>2020-08-26T11:07:35.868Z</time>
      </trkpt>
      <trkpt lat="69.58847" lon="18.28715">
        <ele>22.230146</ele>
        <time>2020-08-26T11:07:37.846Z</time>
      </trkpt>
      <trkpt lat="69.58856" lon="18.28723">
        <ele>22.444997</ele>
        <time>2020-08-26T11:07:39.831Z</time>
      </trkpt>
      <trkpt lat="69.58866" lon="18.2873">
        <ele>22.65011</ele>
        <time>2020-08-26T11:07:41.818Z</time>
      </trkpt>
      <trkpt lat="69.58875" lon="18.28736">
        <ele>22.846826</ele>
        <time>2020-08-26T11:07:43.841Z</time>
      </trkpt>
      <trkpt lat="69.58887" lon="18.28744">
        <ele>23.124351</ele>
        <time>2020-08-26T11:07:46.825Z</time>
      </trkpt>
      <trkpt lat="69.58899" lon="18.28749">
        <ele>23.394796</ele>
        <time>2020-08-26T11:07:49.821Z</time>
      </trkpt>
      <trkpt lat="69.58912" lon="18.28758">
        <ele>23.6704</ele>
        <time>2020-08-26T11:07:52.833Z</time>
      </trkpt>
      <trkpt lat="69.58925" lon="18.28767">
        <ele>23.959027</ele>
        <time>2020-08-26T11:07:55.831Z</time>
      </trkpt>
      <trkpt lat="69.58937" lon="18.28777">
        <ele>24.234612</ele>
        <time>2020-08-26T11:07:58.830Z</time>
      </trkpt>
      <trkpt lat="69.58947" lon="18.28786">
        <ele>24.484942</ele>
        <time>2020-08-26T11:08:01.819Z</time>
      </trkpt>
      <trkpt lat="69.58957" lon="18.28797">
        <ele>24.725304</ele>
        <time>2020-08-26T11:08:04.876Z</time>
      </trkpt>
      <trkpt lat="69.58966" lon="18.28807">
        <ele>24.932806</ele>
        <time>2020-08-26T11:08:07.804Z</time>
      </trkpt>
      <trkpt lat="69.58976" lon="18.28822">
        <ele>25.190857</ele>
        <time>2020-08-26T11:08:11.842Z</time>
      </trkpt>
      <trkpt lat="69.58984" lon="18.28834">
        <ele>25.402714</ele>
        <time>2020-08-26T11:08:14.823Z</time>
      </trkpt>
      <trkpt lat="69.58993" lon="18.28848">
        <ele>25.628149</ele>
        <time>2020-08-26T11:08:17.823Z</time>
      </trkpt>
      <trkpt lat="69.59002" lon="18.28861">
        <ele>25.849958</ele>
        <time>2020-08-26T11:08:20.869Z</time>
      </trkpt>
      <trkpt lat="69.59012" lon="18.28876">
        <ele>26.103592</ele>
        <time>2020-08-26T11:08:24.823Z</time>
      </trkpt>
      <trkpt lat="69.59021" lon="18.28889">
        <ele>26.33396</ele>
        <time>2020-08-26T11:08:28.836Z</time>
      </trkpt>
      <trkpt lat="69.59031" lon="18.28904">
        <ele>26.586308</ele>
        <time>2020-08-26T11:08:33.826Z</time>
      </trkpt>
      <trkpt lat="69.59039" lon="18.28917">
        <ele>26.796114</ele>
        <time>2020-08-26T11:08:37.837Z</time>
      </trkpt>
      <trkpt lat="69.59047" lon="18.28928">
        <ele>27.001045</ele>
        <time>2020-08-26T11:08:41.840Z</time>
      </trkpt>
      <trkpt lat="69.59055" lon="18.28943">
        <ele>27.218468</ele>
        <time>2020-08-26T11:08:45.830Z</time>
      </trkpt>
      <trkpt lat="69.59064" lon="18.28954">
        <ele>27.429579</ele>
        <time>2020-08-26T11:08:49.829Z</time>
      </trkpt>
      <trkpt lat="69.59073" lon="18.28969">
        <ele>27.674289</ele>
        <time>2020-08-26T11:08:54.849Z</time>
      </trkpt>
      <trkpt lat="69.59082" lon="18.28979">
        <ele>27.885361</ele>
        <time>2020-08-26T11:08:59.827Z</time>
      </trkpt>
      <trkpt lat="69.59091" lon="18.28995">
        <ele>27.866241</ele>
        <time>2020-08-26T11:09:04.835Z</time>
      </trkpt>
      <trkpt lat="69.59101" lon="18.29009">
        <ele>27.71251</ele>
        <time>2020-08-26T11:09:08.827Z</time>
      </trkpt>
      <trkpt lat="69.59111" lon="18.2902">
        <ele>27.563152</ele>
        <time>2020-08-26T11:09:12.831Z</time>
      </trkpt>
      <trkpt lat="69.5912" lon="18.29033">
        <ele>27.409259</ele>
        <time>2020-08-26T11:09:16.816Z</time>
      </trkpt>
      <trkpt lat="69.59131" lon="18.29046">
        <ele>27.246763</ele>
        <time>2020-08-26T11:09:20.844Z</time>
      </trkpt>
      <trkpt lat="69.59139" lon="18.29055">
        <ele>27.114476</ele>
        <time>2020-08-26T11:09:23.834Z</time>
      </trkpt>
      <trkpt lat="69.59148" lon="18.29066">
        <ele>26.974057</ele>
        <time>2020-08-26T11:09:26.841Z</time>
      </trkpt>
      <trkpt lat="69.59158" lon="18.29077">
        <ele>26.828488</ele>
        <time>2020-08-26T11:09:29.823Z</time>
      </trkpt>
      <trkpt lat="69.59168" lon="18.2909">
        <ele>26.664858</ele>
        <time>2020-08-26T11:09:32.818Z</time>
      </trkpt>
      <trkpt lat="69.5918" lon="18.29104">
        <ele>26.478764</ele>
        <time>2020-08-26T11:09:35.827Z</time>
      </trkpt>
      <trkpt lat="69.59189" lon="18.29114">
        <ele>26.343253</ele>
        <time>2020-08-26T11:09:37.835Z</time>
      </trkpt>
      <trkpt lat="69.59198" lon="18.29125">
        <ele>26.196939</ele>
        <time>2020-08-26T11:09:39.832Z</time>
      </trkpt>
      <trkpt lat="69.59208" lon="18.29137">
        <ele>26.040133</ele>
        <time>2020-08-26T11:09:41.823Z</time>
      </trkpt>
      <trkpt lat="69.59219" lon="18.29151">
        <ele>25.872376</ele>
        <time>2020-08-26T11:09:43.827Z</time>
      </trkpt>
      <trkpt lat="69.5923" lon="18.29165">
        <ele>25.691815</ele>
        <time>2020-08-26T11:09:45.865Z</time>
      </trkpt>
      <trkpt lat="69.59242" lon="18.29179">
        <ele>25.508211</ele>
        <time>2020-08-26T11:09:47.835Z</time>
      </trkpt>
      <trkpt lat="69.59255" lon="18.29193">
        <ele>25.265003</ele>
        <time>2020-08-26T11:09:49.822Z</time>
      </trkpt>
      <trkpt lat="69.59268" lon="18.29209">
        <ele>24.895291</ele>
        <time>2020-08-26T11:09:51.832Z</time>
      </trkpt>
      <trkpt lat="69.59281" lon="18.29225">
        <ele>24.525148</ele>
        <time>2020-08-26T11:09:53.812Z</time>
      </trkpt>
      <trkpt lat="69.59295" lon="18.29242">
        <ele>24.143789</ele>
        <time>2020-08-26T11:09:55.827Z</time>
      </trkpt>
      <trkpt lat="69.59308" lon="18.29259">
        <ele>23.772565</ele>
        <time>2020-08-26T11:09:57.947Z</time>
      </trkpt>
      <trkpt lat="69.5932" lon="18.29276">
        <ele>23.415005</ele>
        <time>2020-08-26T11:09:59.818Z</time>
      </trkpt>
      <trkpt lat="69.59333" lon="18.2929">
        <ele>23.073836</ele>
        <time>2020-08-26T11:10:01.821Z</time>
      </trkpt>
      <trkpt lat="69.59344" lon="18.29303">
        <ele>22.771068</ele>
        <time>2020-08-26T11:10:03.836Z</time>
      </trkpt>
      <trkpt lat="69.59354" lon="18.29313">
        <ele>22.49942</ele>
        <time>2020-08-26T11:10:05.817Z</time>
      </trkpt>
      <trkpt lat="69.59363" lon="18.29323">
        <ele>22.235648</ele>
        <time>2020-08-26T11:10:07.820Z</time>
      </trkpt>
      <trkpt lat="69.59373" lon="18.29331">
        <ele>21.984191</ele>
        <time>2020-08-26T11:10:09.816Z</time>
      </trkpt>
      <trkpt lat="69.59382" lon="18.29341">
        <ele>21.728881</ele>
        <time>2020-08-26T11:10:11.816Z</time>
      </trkpt>
      <trkpt lat="69.59391" lon="18.2935">
        <ele>21.483276</ele>
        <time>2020-08-26T11:10:13.838Z</time>
      </trkpt>
      <trkpt lat="69.59403" lon="18.29362">
        <ele>21.152028</ele>
        <time>2020-08-26T11:10:16.844Z</time>
      </trkpt>
      <trkpt lat="69.59415" lon="18.29373">
        <ele>20.822649</ele>
        <time>2020-08-26T11:10:19.821Z</time>
      </trkpt>
      <trkpt lat="69.59427" lon="18.29384">
        <ele>21.080492</ele>
        <time>2020-08-26T11:10:22.809Z</time>
      </trkpt>
      <trkpt lat="69.59437" lon="18.29394">
        <ele>21.438872</ele>
        <time>2020-08-26T11:10:25.818Z</time>
      </trkpt>
      <trkpt lat="69.59448" lon="18.29403">
        <ele>21.807018</ele>
        <time>2020-08-26T11:10:28.812Z</time>
      </trkpt>
      <trkpt lat="69.59459" lon="18.29413">
        <ele>22.180862</ele>
        <time>2020-08-26T11:10:31.831Z</time>
      </trkpt>
      <trkpt lat="69.59471" lon="18.29422">
        <ele>22.598124</ele>
        <time>2020-08-26T11:10:34.816Z</time>
      </trkpt>
      <trkpt lat="69.59483" lon="18.29434">
        <ele>23.015174</ele>
        <time>2020-08-26T11:10:37.818Z</time>
      </trkpt>
      <trkpt lat="69.59495" lon="18.29445">
        <ele>23.451508</ele>
        <time>2020-08-26T11:10:40.817Z</time>
      </trkpt>
      <trkpt lat="69.59508" lon="18.29457">
        <ele>23.89347</ele>
        <time>2020-08-26T11:10:43.820Z</time>
      </trkpt>
      <trkpt lat="69.59517" lon="18.29465">
        <ele>24.199469</ele>
        <time>2020-08-26T11:10:45.832Z</time>
      </trkpt>
      <trkpt lat="69.59527" lon="18.29477">
        <ele>24.556008</ele>
        <time>2020-08-26T11:10:47.843Z</time>
      </trkpt>
      <trkpt lat="69.59536" lon="18.29486">
        <ele>24.897759</ele>
        <time>2020-08-26T11:10:49.829Z</time>
      </trkpt>
      <trkpt lat="69.59547" lon="18.29494">
        <ele>25.266811</ele>
        <time>2020-08-26T11:10:51.845Z</time>
      </trkpt>
      <trkpt lat="69.59558" lon="18.29503">
        <ele>25.640329</ele>
        <time>2020-08-26T11:10:53.817Z</time>
      </trkpt>
      <trkpt lat="69.59569" lon="18.29513">
        <ele>26.0324</ele>
        <time>2020-08-26T11:10:55.827Z</time>
      </trkpt>
      <trkpt lat="69.5958" lon="18.29523">
        <ele>26.422322</ele>
        <time>2020-08-26T11:10:57.860Z</time>
      </trkpt>
      <trkpt lat="69.59592" lon="18.29534">
        <ele>26.619771</ele>
        <time>2020-08-26T11:10:59.825Z</time>
      </trkpt>
      <trkpt lat="69.59603" lon="18.29544">
        <ele>26.101883</ele>
        <time>2020-08-26T11:11:01.816Z</time>
      </trkpt>
      <trkpt lat="69.59613" lon="18.29556">
        <ele>25.595653</ele>
        <time>2020-08-26T11:11:03.838Z</time>
      </trkpt>
      <trkpt lat="69.59624" lon="18.29565">
        <ele>25.103124</ele>
        <time>2020-08-26T11:11:05.839Z</time>
      </trkpt>
      <trkpt lat="69.59635" lon="18.29575">
        <ele>24.602122</ele>
        <time>2020-08-26T11:11:07.831Z</time>
      </trkpt>
      <trkpt lat="69.59645" lon="18.29585">
        <ele>24.103229</ele>
        <time>2020-08-26T11:11:09.824Z</time>
      </trkpt>
      <trkpt lat="69.59655" lon="18.29596">
        <ele>23.624634</ele>
        <time>2020-08-26T11:11:11.831Z</time>
      </trkpt>
      <trkpt lat="69.59665" lon="18.29608">
        <ele>23.153258</ele>
        <time>2020-08-26T11:11:13.823Z</time>
      </trkpt>
      <trkpt lat="69.59675" lon="18.29621">
        <ele>22.678417</ele>
        <time>2020-08-26T11:11:15.878Z</time>
      </trkpt>
      <trkpt lat="69.59684" lon="18.29634">
        <ele>22.226934</ele>
        <time>2020-08-26T11:11:17.838Z</time>
      </trkpt>
      <trkpt lat="69.59693" lon="18.29648">
        <ele>21.774508</ele>
        <time>2020-08-26T11:11:19.828Z</time>
      </trkpt>
      <trkpt lat="69.59702" lon="18.29662">
        <ele>21.330567</ele>
        <time>2020-08-26T11:11:21.831Z</time>
      </trkpt>
      <trkpt lat="69.5971" lon="18.29676">
        <ele>20.893534</ele>
        <time>2020-08-26T11:11:23.822Z</time>
      </trkpt>
      <trkpt lat="69.59718" lon="18.29691">
        <ele>20.480878</ele>
        <time>2020-08-26T11:11:25.830Z</time>
      </trkpt>
      <trkpt lat="69.59726" lon="18.29703">
        <ele>20.071906</ele>
        <time>2020-08-26T11:11:27.821Z</time>
      </trkpt>
      <trkpt lat="69.59735" lon="18.29716">
        <ele>19.634681</ele>
        <time>2020-08-26T11:11:29.832Z</time>
      </trkpt>
      <trkpt lat="69.59743" lon="18.29728">
        <ele>19.217106</ele>
        <time>2020-08-26T11:11:31.835Z</time>
      </trkpt>
      <trkpt lat="69.59752" lon="18.29742">
        <ele>18.784694</ele>
        <time>2020-08-26T11:11:33.833Z</time>
      </trkpt>
      <trkpt lat="69.59764" lon="18.29762">
        <ele>18.269917</ele>
        <time>2020-08-26T11:11:36.852Z</time>
      </trkpt>
      <trkpt lat="69.59771" lon="18.29777">
        <ele>17.925434</ele>
        <time>2020-08-26T11:11:38.825Z</time>
      </trkpt>
      <trkpt lat="69.5978" lon="18.29793">
        <ele>17.548234</ele>
        <time>2020-08-26T11:11:40.823Z</time>
      </trkpt>
      <trkpt lat="69.59789" lon="18.29808">
        <ele>17.170965</ele>
        <time>2020-08-26T11:11:42.874Z</time>
      </trkpt>
      <trkpt lat="69.59797" lon="18.29823">
        <ele>16.796866</ele>
        <time>2020-08-26T11:11:44.832Z</time>
      </trkpt>
      <trkpt lat="69.59806" lon="18.29837">
        <ele>16.429266</ele>
        <time>2020-08-26T11:11:46.880Z</time>
      </trkpt>
      <trkpt lat="69.59814" lon="18.29849">
        <ele>16.07309</ele>
        <time>2020-08-26T11:11:48.818Z</time>
      </trkpt>
      <trkpt lat="69.59826" lon="18.29869">
        <ele>15.592854</ele>
        <time>2020-08-26T11:11:51.849Z</time>
      </trkpt>
      <trkpt lat="69.59837" lon="18.29887">
        <ele>15.115912</ele>
        <time>2020-08-26T11:11:54.819Z</time>
      </trkpt>
      <trkpt lat="69.59845" lon="18.299">
        <ele>14.778009</ele>
        <time>2020-08-26T11:11:56.827Z</time>
      </trkpt>
      <trkpt lat="69.59853" lon="18.29913">
        <ele>14.422728</ele>
        <time>2020-08-26T11:11:58.844Z</time>
      </trkpt>
      <trkpt lat="69.59861" lon="18.29927">
        <ele>14.077099</ele>
        <time>2020-08-26T11:12:00.850Z</time>
      </trkpt>
      <trkpt lat="69.59873" lon="18.29945">
        <ele>13.581436</ele>
        <time>2020-08-26T11:12:03.852Z</time>
      </trkpt>
      <trkpt lat="69.59885" lon="18.29962">
        <ele>13.087716</ele>
        <time>2020-08-26T11:12:06.834Z</time>
      </trkpt>
      <trkpt lat="69.59897" lon="18.29977">
        <ele>12.597842</ele>
        <time>2020-08-26T11:12:09.837Z</time>
      </trkpt>
      <trkpt lat="69.59906" lon="18.29991">
        <ele>12.218337</ele>
        <time>2020-08-26T11:12:11.829Z</time>
      </trkpt>
      <trkpt lat="69.59915" lon="18.30001">
        <ele>12.552444</ele>
        <time>2020-08-26T11:12:13.825Z</time>
      </trkpt>
      <trkpt lat="69.59924" lon="18.3001">
        <ele>13.231881</ele>
        <time>2020-08-26T11:12:15.831Z</time>
      </trkpt>
      <trkpt lat="69.59933" lon="18.30016">
        <ele>13.898023</ele>
        <time>2020-08-26T11:12:17.839Z</time>
      </trkpt>
      <trkpt lat="69.59943" lon="18.30024">
        <ele>14.619717</ele>
        <time>2020-08-26T11:12:19.833Z</time>
      </trkpt>
      <trkpt lat="69.59953" lon="18.30033">
        <ele>15.370732</ele>
        <time>2020-08-26T11:12:21.824Z</time>
      </trkpt>
      <trkpt lat="69.59962" lon="18.3004">
        <ele>16.073327</ele>
        <time>2020-08-26T11:12:23.858Z</time>
      </trkpt>
      <trkpt lat="69.59972" lon="18.30045">
        <ele>16.811626</ele>
        <time>2020-08-26T11:12:25.850Z</time>
      </trkpt>
      <trkpt lat="69.59982" lon="18.30049">
        <ele>17.523461</ele>
        <time>2020-08-26T11:12:27.812Z</time>
      </trkpt>
      <trkpt lat="69.59991" lon="18.30051">
        <ele>18.200741</ele>
        <time>2020-08-26T11:12:29.837Z</time>
      </trkpt>
      <trkpt lat="69.60003" lon="18.30054">
        <ele>19.111427</ele>
        <time>2020-08-26T11:12:32.821Z</time>
      </trkpt>
      <trkpt lat="69.60016" lon="18.30055">
        <ele>20.004599</ele>
        <time>2020-08-26T11:12:35.840Z</time>
      </trkpt>
      <trkpt lat="69.60028" lon="18.30057">
        <ele>20.906276</ele>
        <time>2020-08-26T11:12:38.813Z</time>
      </trkpt>
      <trkpt lat="69.60041" lon="18.30063">
        <ele>21.835724</ele>
        <time>2020-08-26T11:12:41.853Z</time>
      </trkpt>
      <trkpt lat="69.60054" lon="18.30072">
        <ele>22.811951</ele>
        <time>2020-08-26T11:12:44.829Z</time>
      </trkpt>
      <trkpt lat="69.60063" lon="18.30079">
        <ele>23.495959</ele>
        <time>2020-08-26T11:12:46.832Z</time>
      </trkpt>
      <trkpt lat="69.60072" lon="18.30083">
        <ele>24.193431</ele>
        <time>2020-08-26T11:12:48.832Z</time>
      </trkpt>
      <trkpt lat="69.60082" lon="18.30088">
        <ele>24.914384</ele>
        <time>2020-08-26T11:12:50.836Z</time>
      </trkpt>
      <trkpt lat="69.60095" lon="18.30094">
        <ele>25.195222</ele>
        <time>2020-08-26T11:12:53.841Z</time>
      </trkpt>
      <trkpt lat="69.60105" lon="18.301">
        <ele>25.249893</ele>
        <time>2020-08-26T11:12:55.819Z</time>
      </trkpt>
      <trkpt lat="69.60114" lon="18.30105">
        <ele>25.304149</ele>
        <time>2020-08-26T11:12:57.827Z</time>
      </trkpt>
      <trkpt lat="69.60124" lon="18.3011">
        <ele>25.360223</ele>
        <time>2020-08-26T11:12:59.857Z</time>
      </trkpt>
      <trkpt lat="69.60134" lon="18.30115">
        <ele>25.414837</ele>
        <time>2020-08-26T11:13:01.831Z</time>
      </trkpt>
      <trkpt lat="69.60143" lon="18.30118">
        <ele>25.467556</ele>
        <time>2020-08-26T11:13:03.874Z</time>
      </trkpt>
      <trkpt lat="69.60153" lon="18.30123">
        <ele>25.519658</ele>
        <time>2020-08-26T11:13:05.855Z</time>
      </trkpt>
      <trkpt lat="69.60162" lon="18.30127">
        <ele>25.569878</ele>
        <time>2020-08-26T11:13:07.855Z</time>
      </trkpt>
      <trkpt lat="69.60175" lon="18.30133">
        <ele>25.644043</ele>
        <time>2020-08-26T11:13:10.836Z</time>
      </trkpt>
      <trkpt lat="69.60187" lon="18.3014">
        <ele>25.715493</ele>
        <time>2020-08-26T11:13:13.824Z</time>
      </trkpt>
      <trkpt lat="69.60196" lon="18.30146">
        <ele>25.765079</ele>
        <time>2020-08-26T11:13:15.822Z</time>
      </trkpt>
      <trkpt lat="69.60208" lon="18.30159">
        <ele>25.835932</ele>
        <time>2020-08-26T11:13:18.833Z</time>
      </trkpt>
      <trkpt lat="69.6022" lon="18.30172">
        <ele>25.905469</ele>
        <time>2020-08-26T11:13:21.847Z</time>
      </trkpt>
      <trkpt lat="69.60231" lon="18.30186">
        <ele>25.975133</ele>
        <time>2020-08-26T11:13:24.859Z</time>
      </trkpt>
      <trkpt lat="69.60243" lon="18.30204">
        <ele>26.050619</ele>
        <time>2020-08-26T11:13:27.828Z</time>
      </trkpt>
      <trkpt lat="69.60252" lon="18.30216">
        <ele>26.107202</ele>
        <time>2020-08-26T11:13:29.860Z</time>
      </trkpt>
      <trkpt lat="69.60261" lon="18.30227">
        <ele>26.317145</ele>
        <time>2020-08-26T11:13:31.828Z</time>
      </trkpt>
      <trkpt lat="69.6027" lon="18.30239">
        <ele>26.791239</ele>
        <time>2020-08-26T11:13:33.869Z</time>
      </trkpt>
      <trkpt lat="69.60282" lon="18.30253">
        <ele>27.379478</ele>
        <time>2020-08-26T11:13:36.825Z</time>
      </trkpt>
      <trkpt lat="69.60291" lon="18.30259">
        <ele>27.830393</ele>
        <time>2020-08-26T11:13:39.821Z</time>
      </trkpt>
      <trkpt lat="69.60301" lon="18.30264">
        <ele>28.296963</ele>
        <time>2020-08-26T11:13:42.826Z</time>
      </trkpt>
      <trkpt lat="69.6031" lon="18.30268">
        <ele>28.734127</ele>
        <time>2020-08-26T11:13:45.835Z</time>
      </trkpt>
      <trkpt lat="69.60319" lon="18.30274">
        <ele>29.174393</ele>
        <time>2020-08-26T11:13:48.845Z</time>
      </trkpt>
      <trkpt lat="69.6033" lon="18.30276">
        <ele>29.691815</ele>
        <time>2020-08-26T11:13:52.846Z</time>
      </trkpt>
      <trkpt lat="69.6034" lon="18.3028">
        <ele>30.160438</ele>
        <time>2020-08-26T11:13:56.853Z</time>
      </trkpt>
      <trkpt lat="69.6035" lon="18.30285">
        <ele>30.637517</ele>
        <time>2020-08-26T11:14:00.831Z</time>
      </trkpt>
      <trkpt lat="69.6036" lon="18.30286">
        <ele>31.134784</ele>
        <time>2020-08-26T11:14:04.820Z</time>
      </trkpt>
      <trkpt lat="69.6037" lon="18.30288">
        <ele>31.613579</ele>
        <time>2020-08-26T11:14:08.838Z</time>
      </trkpt>
      <trkpt lat="69.60382" lon="18.30288">
        <ele>32.158052</ele>
        <time>2020-08-26T11:14:12.835Z</time>
      </trkpt>
      <trkpt lat="69.60392" lon="18.30291">
        <ele>32.65242</ele>
        <time>2020-08-26T11:14:15.844Z</time>
      </trkpt>
      <trkpt lat="69.60404" lon="18.30293">
        <ele>33.236305</ele>
        <time>2020-08-26T11:14:18.830Z</time>
      </trkpt>
      <trkpt lat="69.60417" lon="18.30297">
        <ele>33.845029</ele>
        <time>2020-08-26T11:14:21.835Z</time>
      </trkpt>
      <trkpt lat="69.6043" lon="18.303">
        <ele>34.477172</ele>
        <time>2020-08-26T11:14:24.816Z</time>
      </trkpt>
      <trkpt lat="69.60439" lon="18.30304">
        <ele>34.447069</ele>
        <time>2020-08-26T11:14:26.832Z</time>
      </trkpt>
      <trkpt lat="69.60449" lon="18.30308">
        <ele>34.076759</ele>
        <time>2020-08-26T11:14:28.821Z</time>
      </trkpt>
      <trkpt lat="69.60458" lon="18.30312">
        <ele>33.687555</ele>
        <time>2020-08-26T11:14:30.858Z</time>
      </trkpt>
      <trkpt lat="69.60468" lon="18.30317">
        <ele>33.297634</ele>
        <time>2020-08-26T11:14:32.843Z</time>
      </trkpt>
      <trkpt lat="69.60477" lon="18.30326">
        <ele>32.905631</ele>
        <time>2020-08-26T11:14:34.851Z</time>
      </trkpt>
      <trkpt lat="69.60487" lon="18.30332">
        <ele>32.518432</ele>
        <time>2020-08-26T11:14:36.823Z</time>
      </trkpt>
      <trkpt lat="69.60496" lon="18.30338">
        <ele>32.146742</ele>
        <time>2020-08-26T11:14:38.842Z</time>
      </trkpt>
      <trkpt lat="69.60505" lon="18.30346">
        <ele>31.752952</ele>
        <time>2020-08-26T11:14:40.834Z</time>
      </trkpt>
      <trkpt lat="69.60515" lon="18.30355">
        <ele>31.35968</ele>
        <time>2020-08-26T11:14:42.858Z</time>
      </trkpt>
      <trkpt lat="69.60524" lon="18.30365">
        <ele>30.963682</ele>
        <time>2020-08-26T11:14:44.824Z</time>
      </trkpt>
      <trkpt lat="69.60534" lon="18.30375">
        <ele>30.559756</ele>
        <time>2020-08-26T11:14:46.857Z</time>
      </trkpt>
      <trkpt lat="69.60543" lon="18.30384">
        <ele>30.174907</ele>
        <time>2020-08-26T11:14:48.832Z</time>
      </trkpt>
      <trkpt lat="69.60552" lon="18.30393">
        <ele>29.80425</ele>
        <time>2020-08-26T11:14:50.836Z</time>
      </trkpt>
      <trkpt lat="69.60564" lon="18.30405">
        <ele>29.290839</ele>
        <time>2020-08-26T11:14:53.817Z</time>
      </trkpt>
      <trkpt lat="69.60576" lon="18.30419">
        <ele>28.777162</ele>
        <time>2020-08-26T11:14:56.818Z</time>
      </trkpt>
      <trkpt lat="69.60584" lon="18.30431">
        <ele>28.396001</ele>
        <time>2020-08-26T11:14:58.833Z</time>
      </trkpt>
      <trkpt lat="69.60592" lon="18.30444">
        <ele>28.034475</ele>
        <time>2020-08-26T11:15:00.842Z</time>
      </trkpt>
      <trkpt lat="69.60601" lon="18.30457">
        <ele>27.650064</ele>
        <time>2020-08-26T11:15:02.829Z</time>
      </trkpt>
      <trkpt lat="69.60609" lon="18.3047">
        <ele>27.148707</ele>
        <time>2020-08-26T11:15:04.831Z</time>
      </trkpt>
      <trkpt lat="69.60618" lon="18.30483">
        <ele>26.574657</ele>
        <time>2020-08-26T11:15:06.831Z</time>
      </trkpt>
      <trkpt lat="69.60627" lon="18.30496">
        <ele>25.988519</ele>
        <time>2020-08-26T11:15:08.843Z</time>
      </trkpt>
      <trkpt lat="69.60636" lon="18.30508">
        <ele>25.442248</ele>
        <time>2020-08-26T11:15:10.827Z</time>
      </trkpt>
      <trkpt lat="69.60645" lon="18.30522">
        <ele>24.863608</ele>
        <time>2020-08-26T11:15:12.827Z</time>
      </trkpt>
      <trkpt lat="69.60654" lon="18.30534">
        <ele>24.255007</ele>
        <time>2020-08-26T11:15:14.820Z</time>
      </trkpt>
      <trkpt lat="69.60664" lon="18.30548">
        <ele>23.653155</ele>
        <time>2020-08-26T11:15:16.856Z</time>
      </trkpt>
      <trkpt lat="69.60673" lon="18.30561">
        <ele>23.039419</ele>
        <time>2020-08-26T11:15:18.819Z</time>
      </trkpt>
      <trkpt lat="69.60683" lon="18.30575">
        <ele>22.437795</ele>
        <time>2020-08-26T11:15:20.820Z</time>
      </trkpt>
      <trkpt lat="69.60693" lon="18.3059">
        <ele>21.796448</ele>
        <time>2020-08-26T11:15:22.852Z</time>
      </trkpt>
      <trkpt lat="69.60703" lon="18.30606">
        <ele>21.137285</ele>
        <time>2020-08-26T11:15:24.827Z</time>
      </trkpt>
      <trkpt lat="69.60712" lon="18.3062">
        <ele>20.534913</ele>
        <time>2020-08-26T11:15:26.837Z</time>
      </trkpt>
      <trkpt lat="69.60721" lon="18.30634">
        <ele>19.918229</ele>
        <time>2020-08-26T11:15:28.833Z</time>
      </trkpt>
      <trkpt lat="69.6073" lon="18.30648">
        <ele>19.345623</ele>
        <time>2020-08-26T11:15:30.872Z</time>
      </trkpt>
      <trkpt lat="69.60739" lon="18.30661">
        <ele>18.776209</ele>
        <time>2020-08-26T11:15:32.839Z</time>
      </trkpt>
      <trkpt lat="69.60747" lon="18.30676">
        <ele>18.214682</ele>
        <time>2020-08-26T11:15:34.836Z</time>
      </trkpt>
      <trkpt lat="69.60755" lon="18.3069">
        <ele>17.665358</ele>
        <time>2020-08-26T11:15:36.830Z</time>
      </trkpt>
      <trkpt lat="69.60766" lon="18.30711">
        <ele>17.241188</ele>
        <time>2020-08-26T11:15:39.875Z</time>
      </trkpt>
      <trkpt lat="69.60774" lon="18.30726">
        <ele>17.448753</ele>
        <time>2020-08-26T11:15:41.869Z</time>
      </trkpt>
      <trkpt lat="69.60785" lon="18.30747">
        <ele>17.746615</ele>
        <time>2020-08-26T11:15:44.873Z</time>
      </trkpt>
      <trkpt lat="69.60792" lon="18.30764">
        <ele>17.966283</ele>
        <time>2020-08-26T11:15:46.820Z</time>
      </trkpt>
      <trkpt lat="69.608" lon="18.30782">
        <ele>18.190015</ele>
        <time>2020-08-26T11:15:48.863Z</time>
      </trkpt>
      <trkpt lat="69.60807" lon="18.308">
        <ele>18.412417</ele>
        <time>2020-08-26T11:15:50.856Z</time>
      </trkpt>
      <trkpt lat="69.60814" lon="18.30818">
        <ele>18.618017</ele>
        <time>2020-08-26T11:15:52.897Z</time>
      </trkpt>
      <trkpt lat="69.60824" lon="18.30846">
        <ele>18.930194</ele>
        <time>2020-08-26T11:15:55.831Z</time>
      </trkpt>
      <trkpt lat="69.6083" lon="18.30866">
        <ele>19.143993</ele>
        <time>2020-08-26T11:15:57.822Z</time>
      </trkpt>
      <trkpt lat="69.60836" lon="18.30888">
        <ele>19.360161</ele>
        <time>2020-08-26T11:15:59.853Z</time>
      </trkpt>
      <trkpt lat="69.60841" lon="18.3091">
        <ele>19.577511</ele>
        <time>2020-08-26T11:16:01.846Z</time>
      </trkpt>
      <trkpt lat="69.60846" lon="18.30934">
        <ele>19.79343</ele>
        <time>2020-08-26T11:16:03.880Z</time>
      </trkpt>
      <trkpt lat="69.6085" lon="18.3096">
        <ele>20.020059</ele>
        <time>2020-08-26T11:16:05.845Z</time>
      </trkpt>
      <trkpt lat="69.60853" lon="18.30985">
        <ele>20.230675</ele>
        <time>2020-08-26T11:16:07.845Z</time>
      </trkpt>
      <trkpt lat="69.60857" lon="18.31011">
        <ele>20.446588</ele>
        <time>2020-08-26T11:16:09.854Z</time>
      </trkpt>
      <trkpt lat="69.6086" lon="18.31038">
        <ele>20.673816</ele>
        <time>2020-08-26T11:16:11.883Z</time>
      </trkpt>
      <trkpt lat="69.60863" lon="18.31066">
        <ele>20.913617</ele>
        <time>2020-08-26T11:16:13.828Z</time>
      </trkpt>
      <trkpt lat="69.60867" lon="18.31094">
        <ele>21.149769</ele>
        <time>2020-08-26T11:16:15.830Z</time>
      </trkpt>
      <trkpt lat="69.60872" lon="18.31122">
        <ele>21.46344</ele>
        <time>2020-08-26T11:16:17.832Z</time>
      </trkpt>
      <trkpt lat="69.60877" lon="18.31153">
        <ele>21.840279</ele>
        <time>2020-08-26T11:16:19.833Z</time>
      </trkpt>
      <trkpt lat="69.6088" lon="18.31181">
        <ele>22.181662</ele>
        <time>2020-08-26T11:16:21.848Z</time>
      </trkpt>
      <trkpt lat="69.60884" lon="18.3121">
        <ele>22.536069</ele>
        <time>2020-08-26T11:16:23.830Z</time>
      </trkpt>
      <trkpt lat="69.60888" lon="18.31238">
        <ele>22.867709</ele>
        <time>2020-08-26T11:16:25.855Z</time>
      </trkpt>
      <trkpt lat="69.60891" lon="18.31268">
        <ele>23.22358</ele>
        <time>2020-08-26T11:16:27.864Z</time>
      </trkpt>
      <trkpt lat="69.60895" lon="18.31303">
        <ele>23.644801</ele>
        <time>2020-08-26T11:16:29.849Z</time>
      </trkpt>
      <trkpt lat="69.60899" lon="18.31337">
        <ele>24.049021</ele>
        <time>2020-08-26T11:16:31.840Z</time>
      </trkpt>
      <trkpt lat="69.60904" lon="18.31368">
        <ele>24.430999</ele>
        <time>2020-08-26T11:16:33.869Z</time>
      </trkpt>
      <trkpt lat="69.60908" lon="18.314">
        <ele>24.813777</ele>
        <time>2020-08-26T11:16:35.872Z</time>
      </trkpt>
      <trkpt lat="69.60912" lon="18.31431">
        <ele>25.192602</ele>
        <time>2020-08-26T11:16:37.830Z</time>
      </trkpt>
      <trkpt lat="69.60916" lon="18.31461">
        <ele>25.55106</ele>
        <time>2020-08-26T11:16:39.827Z</time>
      </trkpt>
      <trkpt lat="69.6092" lon="18.3149">
        <ele>25.894453</ele>
        <time>2020-08-26T11:16:41.844Z</time>
      </trkpt>
      <trkpt lat="69.60923" lon="18.31515">
        <ele>26.203698</ele>
        <time>2020-08-26T11:16:43.834Z</time>
      </trkpt>
      <trkpt lat="69.60927" lon="18.3155">
        <ele>26.617381</ele>
        <time>2020-08-26T11:16:46.890Z</time>
      </trkpt>
      <trkpt lat="69.60931" lon="18.3158">
        <ele>26.978997</ele>
        <time>2020-08-26T11:16:49.836Z</time>
      </trkpt>
      <trkpt lat="69.60935" lon="18.31608">
        <ele>27.200569</ele>
        <time>2020-08-26T11:16:52.835Z</time>
      </trkpt>
      <trkpt lat="69.60938" lon="18.31636">
        <ele>27.379871</ele>
        <time>2020-08-26T11:16:55.833Z</time>
      </trkpt>
      <trkpt lat="69.60941" lon="18.31661">
        <ele>27.545996</ele>
        <time>2020-08-26T11:16:58.900Z</time>
      </trkpt>
      <trkpt lat="69.60946" lon="18.31692">
        <ele>27.755989</ele>
        <time>2020-08-26T11:17:02.842Z</time>
      </trkpt>
      <trkpt lat="69.60949" lon="18.31719">
        <ele>27.926146</ele>
        <time>2020-08-26T11:17:05.830Z</time>
      </trkpt>
      <trkpt lat="69.60951" lon="18.31744">
        <ele>28.088328</ele>
        <time>2020-08-26T11:17:08.819Z</time>
      </trkpt>
      <trkpt lat="69.60954" lon="18.31773">
        <ele>28.270994</ele>
        <time>2020-08-26T11:17:11.832Z</time>
      </trkpt>
      <trkpt lat="69.60957" lon="18.31804">
        <ele>28.469559</ele>
        <time>2020-08-26T11:17:14.852Z</time>
      </trkpt>
      <trkpt lat="69.6096" lon="18.31837">
        <ele>28.679338</ele>
        <time>2020-08-26T11:17:17.817Z</time>
      </trkpt>
      <trkpt lat="69.60963" lon="18.3187">
        <ele>28.890409</ele>
        <time>2020-08-26T11:17:20.836Z</time>
      </trkpt>
      <trkpt lat="69.60966" lon="18.31903">
        <ele>29.099356</ele>
        <time>2020-08-26T11:17:23.826Z</time>
      </trkpt>
      <trkpt lat="69.60968" lon="18.31936">
        <ele>29.303865</ele>
        <time>2020-08-26T11:17:26.824Z</time>
      </trkpt>
      <trkpt lat="69.60972" lon="18.3197">
        <ele>29.522148</ele>
        <time>2020-08-26T11:17:29.836Z</time>
      </trkpt>
      <trkpt lat="69.60976" lon="18.32006">
        <ele>29.753743</ele>
        <time>2020-08-26T11:17:32.869Z</time>
      </trkpt>
      <trkpt lat="69.60979" lon="18.32033">
        <ele>29.929558</ele>
        <time>2020-08-26T11:17:34.833Z</time>
      </trkpt>
      <trkpt lat="69.60983" lon="18.32061">
        <ele>30.115241</ele>
        <time>2020-08-26T11:17:36.841Z</time>
      </trkpt>
      <trkpt lat="69.60987" lon="18.32093">
        <ele>29.996532</ele>
        <time>2020-08-26T11:17:38.834Z</time>
      </trkpt>
      <trkpt lat="69.60991" lon="18.32125">
        <ele>29.480015</ele>
        <time>2020-08-26T11:17:40.840Z</time>
      </trkpt>
      <trkpt lat="69.60995" lon="18.32158">
        <ele>28.938925</ele>
        <time>2020-08-26T11:17:42.839Z</time>
      </trkpt>
      <trkpt lat="69.60999" lon="18.32194">
        <ele>28.359898</ele>
        <time>2020-08-26T11:17:44.839Z</time>
      </trkpt>
      <trkpt lat="69.61002" lon="18.32231">
        <ele>27.788488</ele>
        <time>2020-08-26T11:17:46.835Z</time>
      </trkpt>
      <trkpt lat="69.61005" lon="18.3227">
        <ele>27.16734</ele>
        <time>2020-08-26T11:17:48.872Z</time>
      </trkpt>
      <trkpt lat="69.61009" lon="18.3231">
        <ele>26.536922</ele>
        <time>2020-08-26T11:17:50.821Z</time>
      </trkpt>
      <trkpt lat="69.61013" lon="18.32348">
        <ele>25.931513</ele>
        <time>2020-08-26T11:17:52.880Z</time>
      </trkpt>
      <trkpt lat="69.61017" lon="18.32384">
        <ele>25.34857</ele>
        <time>2020-08-26T11:17:54.827Z</time>
      </trkpt>
      <trkpt lat="69.61021" lon="18.32421">
        <ele>24.768533</ele>
        <time>2020-08-26T11:17:56.827Z</time>
      </trkpt>
      <trkpt lat="69.61025" lon="18.32455">
        <ele>24.205925</ele>
        <time>2020-08-26T11:17:58.832Z</time>
      </trkpt>
      <trkpt lat="69.6103" lon="18.3249">
        <ele>23.624967</ele>
        <time>2020-08-26T11:18:00.842Z</time>
      </trkpt>
      <trkpt lat="69.61036" lon="18.32526">
        <ele>23.025486</ele>
        <time>2020-08-26T11:18:02.828Z</time>
      </trkpt>
      <trkpt lat="69.61042" lon="18.32559">
        <ele>22.45615</ele>
        <time>2020-08-26T11:18:04.874Z</time>
      </trkpt>
      <trkpt lat="69.61048" lon="18.32589">
        <ele>22.47977</ele>
        <time>2020-08-26T11:18:06.835Z</time>
      </trkpt>
      <trkpt lat="69.61054" lon="18.32617">
        <ele>22.646815</ele>
        <time>2020-08-26T11:18:08.826Z</time>
      </trkpt>
      <trkpt lat="69.6106" lon="18.32641">
        <ele>22.79168</ele>
        <time>2020-08-26T11:18:10.848Z</time>
      </trkpt>
      <trkpt lat="69.61067" lon="18.32668">
        <ele>22.96157</ele>
        <time>2020-08-26T11:18:13.835Z</time>
      </trkpt>
      <trkpt lat="69.61072" lon="18.32691">
        <ele>23.105189</ele>
        <time>2020-08-26T11:18:16.827Z</time>
      </trkpt>
      <trkpt lat="69.61077" lon="18.32715">
        <ele>23.249121</ele>
        <time>2020-08-26T11:18:19.851Z</time>
      </trkpt>
      <trkpt lat="69.61082" lon="18.32738">
        <ele>23.388301</ele>
        <time>2020-08-26T11:18:22.840Z</time>
      </trkpt>
      <trkpt lat="69.61088" lon="18.32763">
        <ele>23.539006</ele>
        <time>2020-08-26T11:18:25.827Z</time>
      </trkpt>
      <trkpt lat="69.61094" lon="18.32786">
        <ele>23.685969</ele>
        <time>2020-08-26T11:18:28.824Z</time>
      </trkpt>
      <trkpt lat="69.61099" lon="18.32809">
        <ele>23.82301</ele>
        <time>2020-08-26T11:18:31.829Z</time>
      </trkpt>
      <trkpt lat="69.61105" lon="18.32832">
        <ele>23.964545</ele>
        <time>2020-08-26T11:18:34.832Z</time>
      </trkpt>
      <trkpt lat="69.6111" lon="18.32855">
        <ele>24.102317</ele>
        <time>2020-08-26T11:18:37.857Z</time>
      </trkpt>
      <trkpt lat="69.61115" lon="18.32879">
        <ele>24.246842</ele>
        <time>2020-08-26T11:18:40.825Z</time>
      </trkpt>
      <trkpt lat="69.6112" lon="18.32906">
        <ele>24.401869</ele>
        <time>2020-08-26T11:18:43.835Z</time>
      </trkpt>
      <trkpt lat="69.61126" lon="18.32932">
        <ele>24.559789</ele>
        <time>2020-08-26T11:18:46.857Z</time>
      </trkpt>
      <trkpt lat="69.61131" lon="18.32959">
        <ele>24.712688</ele>
        <time>2020-08-26T11:18:49.822Z</time>
      </trkpt>
      <trkpt lat="69.61136" lon="18.32988">
        <ele>24.880331</ele>
        <time>2020-08-26T11:18:52.837Z</time>
      </trkpt>
      <trkpt lat="69.61141" lon="18.33019">
        <ele>25.026993</ele>
        <time>2020-08-26T11:18:55.829Z</time>
      </trkpt>
      <trkpt lat="69.61146" lon="18.33048">
        <ele>25.146511</ele>
        <time>2020-08-26T11:18:58.844Z</time>
      </trkpt>
      <trkpt lat="69.61151" lon="18.33078">
        <ele>25.274747</ele>
        <time>2020-08-26T11:19:01.832Z</time>
      </trkpt>
      <trkpt lat="69.61157" lon="18.33107">
        <ele>25.400143</ele>
        <time>2020-08-26T11:19:04.836Z</time>
      </trkpt>
      <trkpt lat="69.61164" lon="18.33136">
        <ele>25.531973</ele>
        <time>2020-08-26T11:19:07.825Z</time>
      </trkpt>
      <trkpt lat="69.61171" lon="18.33165">
        <ele>25.66591</ele>
        <time>2020-08-26T11:19:10.825Z</time>
      </trkpt>
      <trkpt lat="69.61176" lon="18.33198">
        <ele>25.798773</ele>
        <time>2020-08-26T11:19:13.830Z</time>
      </trkpt>
      <trkpt lat="69.61181" lon="18.33229">
        <ele>25.925427</ele>
        <time>2020-08-26T11:19:16.853Z</time>
      </trkpt>
      <trkpt lat="69.61186" lon="18.33261">
        <ele>26.05795</ele>
        <time>2020-08-26T11:19:19.869Z</time>
      </trkpt>
      <trkpt lat="69.61193" lon="18.33293">
        <ele>26.20213</ele>
        <time>2020-08-26T11:19:22.822Z</time>
      </trkpt>
      <trkpt lat="69.61201" lon="18.33323">
        <ele>26.339118</ele>
        <time>2020-08-26T11:19:25.813Z</time>
      </trkpt>
      <trkpt lat="69.61207" lon="18.33349">
        <ele>26.457073</ele>
        <time>2020-08-26T11:19:28.830Z</time>
      </trkpt>
      <trkpt lat="69.61214" lon="18.33375">
        <ele>26.579079</ele>
        <time>2020-08-26T11:19:31.843Z</time>
      </trkpt>
      <trkpt lat="69.61221" lon="18.33402">
        <ele>26.702246</ele>
        <time>2020-08-26T11:19:34.830Z</time>
      </trkpt>
      <trkpt lat="69.61228" lon="18.33432">
        <ele>26.840778</ele>
        <time>2020-08-26T11:19:37.828Z</time>
      </trkpt>
      <trkpt lat="69.61235" lon="18.33459">
        <ele>27.031849</ele>
        <time>2020-08-26T11:19:40.831Z</time>
      </trkpt>
      <trkpt lat="69.61242" lon="18.3348">
        <ele>27.234779</ele>
        <time>2020-08-26T11:19:43.819Z</time>
      </trkpt>
      <trkpt lat="69.6125" lon="18.33507">
        <ele>27.494845</ele>
        <time>2020-08-26T11:19:46.813Z</time>
      </trkpt>
      <trkpt lat="69.61256" lon="18.33528">
        <ele>27.687021</ele>
        <time>2020-08-26T11:19:48.850Z</time>
      </trkpt>
      <trkpt lat="69.61263" lon="18.33551">
        <ele>27.904024</ele>
        <time>2020-08-26T11:19:50.853Z</time>
      </trkpt>
      <trkpt lat="69.61271" lon="18.33576">
        <ele>28.14409</ele>
        <time>2020-08-26T11:19:52.827Z</time>
      </trkpt>
      <trkpt lat="69.61279" lon="18.33599">
        <ele>28.371985</ele>
        <time>2020-08-26T11:19:54.838Z</time>
      </trkpt>
      <trkpt lat="69.61287" lon="18.33623">
        <ele>28.601428</ele>
        <time>2020-08-26T11:19:56.849Z</time>
      </trkpt>
      <trkpt lat="69.61294" lon="18.33646">
        <ele>28.825912</ele>
        <time>2020-08-26T11:19:58.817Z</time>
      </trkpt>
      <trkpt lat="69.61302" lon="18.3367">
        <ele>29.054404</ele>
        <time>2020-08-26T11:20:00.833Z</time>
      </trkpt>
      <trkpt lat="69.6131" lon="18.33694">
        <ele>29.294373</ele>
        <time>2020-08-26T11:20:02.837Z</time>
      </trkpt>
      <trkpt lat="69.61319" lon="18.3372">
        <ele>29.548659</ele>
        <time>2020-08-26T11:20:04.858Z</time>
      </trkpt>
      <trkpt lat="69.61327" lon="18.33748">
        <ele>29.814361</ele>
        <time>2020-08-26T11:20:06.824Z</time>
      </trkpt>
      <trkpt lat="69.61335" lon="18.33773">
        <ele>30.050088</ele>
        <time>2020-08-26T11:20:08.842Z</time>
      </trkpt>
      <trkpt lat="69.61342" lon="18.33797">
        <ele>30.275101</ele>
        <time>2020-08-26T11:20:10.828Z</time>
      </trkpt>
      <trkpt lat="69.61351" lon="18.33821">
        <ele>30.517443</ele>
        <time>2020-08-26T11:20:12.833Z</time>
      </trkpt>
      <trkpt lat="69.61359" lon="18.33844">
        <ele>30.469869</ele>
        <time>2020-08-26T11:20:14.836Z</time>
      </trkpt>
      <trkpt lat="69.61367" lon="18.33868">
        <ele>30.364471</ele>
        <time>2020-08-26T11:20:16.837Z</time>
      </trkpt>
      <trkpt lat="69.61375" lon="18.33898">
        <ele>30.247367</ele>
        <time>2020-08-26T11:20:18.819Z</time>
      </trkpt>
      <trkpt lat="69.61384" lon="18.33924">
        <ele>30.133087</ele>
        <time>2020-08-26T11:20:20.834Z</time>
      </trkpt>
      <trkpt lat="69.61391" lon="18.33945">
        <ele>30.039056</ele>
        <time>2020-08-26T11:20:22.837Z</time>
      </trkpt>
      <trkpt lat="69.61399" lon="18.33966">
        <ele>29.944809</ele>
        <time>2020-08-26T11:20:24.839Z</time>
      </trkpt>
      <trkpt lat="69.61406" lon="18.33989">
        <ele>29.848863</ele>
        <time>2020-08-26T11:20:26.860Z</time>
      </trkpt>
      <trkpt lat="69.61413" lon="18.34014">
        <ele>29.746636</ele>
        <time>2020-08-26T11:20:28.848Z</time>
      </trkpt>
      <trkpt lat="69.61421" lon="18.34037">
        <ele>29.645022</ele>
        <time>2020-08-26T11:20:30.815Z</time>
      </trkpt>
      <trkpt lat="69.6143" lon="18.34063">
        <ele>29.535714</ele>
        <time>2020-08-26T11:20:32.831Z</time>
      </trkpt>
      <trkpt lat="69.61437" lon="18.34091">
        <ele>29.423783</ele>
        <time>2020-08-26T11:20:34.850Z</time>
      </trkpt>
      <trkpt lat="69.61443" lon="18.34121">
        <ele>29.314658</ele>
        <time>2020-08-26T11:20:36.817Z</time>
      </trkpt>
      <trkpt lat="69.6145" lon="18.3415">
        <ele>29.204353</ele>
        <time>2020-08-26T11:20:38.842Z</time>
      </trkpt>
      <trkpt lat="69.61458" lon="18.34178">
        <ele>29.094596</ele>
        <time>2020-08-26T11:20:40.838Z</time>
      </trkpt>
      <trkpt lat="69.61464" lon="18.34205">
        <ele>28.989946</ele>
        <time>2020-08-26T11:20:42.832Z</time>
      </trkpt>
      <trkpt lat="69.61471" lon="18.34231">
        <ele>29.031939</ele>
        <time>2020-08-26T11:20:44.819Z</time>
      </trkpt>
      <trkpt lat="69.61477" lon="18.34257">
        <ele>29.213523</ele>
        <time>2020-08-26T11:20:46.851Z</time>
      </trkpt>
      <trkpt lat="69.61482" lon="18.34281">
        <ele>29.383161</ele>
        <time>2020-08-26T11:20:48.891Z</time>
      </trkpt>
      <trkpt lat="69.61488" lon="18.34308">
        <ele>29.564636</ele>
        <time>2020-08-26T11:20:50.829Z</time>
      </trkpt>
      <trkpt lat="69.61494" lon="18.34332">
        <ele>29.743855</ele>
        <time>2020-08-26T11:20:52.844Z</time>
      </trkpt>
      <trkpt lat="69.615" lon="18.34356">
        <ele>29.910133</ele>
        <time>2020-08-26T11:20:54.825Z</time>
      </trkpt>
      <trkpt lat="69.61506" lon="18.34388">
        <ele>30.123228</ele>
        <time>2020-08-26T11:20:57.846Z</time>
      </trkpt>
      <trkpt lat="69.61511" lon="18.34415">
        <ele>30.302801</ele>
        <time>2020-08-26T11:21:00.818Z</time>
      </trkpt>
      <trkpt lat="69.61515" lon="18.34441">
        <ele>30.464461</ele>
        <time>2020-08-26T11:21:03.825Z</time>
      </trkpt>
      <trkpt lat="69.61519" lon="18.34469">
        <ele>30.646273</ele>
        <time>2020-08-26T11:21:07.855Z</time>
      </trkpt>
      <trkpt lat="69.61523" lon="18.34492">
        <ele>30.796372</ele>
        <time>2020-08-26T11:21:10.866Z</time>
      </trkpt>
      <trkpt lat="69.61527" lon="18.34519">
        <ele>30.968653</ele>
        <time>2020-08-26T11:21:13.862Z</time>
      </trkpt>
      <trkpt lat="69.61532" lon="18.34545">
        <ele>31.137879</ele>
        <time>2020-08-26T11:21:16.830Z</time>
      </trkpt>
      <trkpt lat="69.61537" lon="18.34573">
        <ele>31.324549</ele>
        <time>2020-08-26T11:21:19.836Z</time>
      </trkpt>
      <trkpt lat="69.61544" lon="18.34601">
        <ele>31.524371</ele>
        <time>2020-08-26T11:21:22.855Z</time>
      </trkpt>
      <trkpt lat="69.61551" lon="18.34632">
        <ele>31.741877</ele>
        <time>2020-08-26T11:21:25.836Z</time>
      </trkpt>
      <trkpt lat="69.6156" lon="18.34662">
        <ele>31.932403</ele>
        <time>2020-08-26T11:21:28.836Z</time>
      </trkpt>
      <trkpt lat="69.61568" lon="18.34691">
        <ele>31.497581</ele>
        <time>2020-08-26T11:21:31.844Z</time>
      </trkpt>
      <trkpt lat="69.61577" lon="18.34718">
        <ele>31.086708</ele>
        <time>2020-08-26T11:21:34.822Z</time>
      </trkpt>
      <trkpt lat="69.61587" lon="18.34742">
        <ele>30.65472</ele>
        <time>2020-08-26T11:21:37.849Z</time>
      </trkpt>
      <trkpt lat="69.61594" lon="18.3476">
        <ele>30.348957</ele>
        <time>2020-08-26T11:21:39.832Z</time>
      </trkpt>
      <trkpt lat="69.61602" lon="18.34778">
        <ele>30.0413</ele>
        <time>2020-08-26T11:21:41.850Z</time>
      </trkpt>
      <trkpt lat="69.61609" lon="18.34796">
        <ele>29.716859</ele>
        <time>2020-08-26T11:21:43.827Z</time>
      </trkpt>
      <trkpt lat="69.61617" lon="18.34813">
        <ele>29.391866</ele>
        <time>2020-08-26T11:21:45.840Z</time>
      </trkpt>
      <trkpt lat="69.61625" lon="18.3483">
        <ele>29.078465</ele>
        <time>2020-08-26T11:21:47.840Z</time>
      </trkpt>
      <trkpt lat="69.61633" lon="18.34849">
        <ele>28.745421</ele>
        <time>2020-08-26T11:21:49.834Z</time>
      </trkpt>
      <trkpt lat="69.6164" lon="18.34868">
        <ele>28.416846</ele>
        <time>2020-08-26T11:21:51.844Z</time>
      </trkpt>
      <trkpt lat="69.61649" lon="18.34889">
        <ele>28.064879</ele>
        <time>2020-08-26T11:21:53.829Z</time>
      </trkpt>
      <trkpt lat="69.61657" lon="18.34909">
        <ele>27.692405</ele>
        <time>2020-08-26T11:21:55.829Z</time>
      </trkpt>
      <trkpt lat="69.61666" lon="18.34928">
        <ele>27.33503</ele>
        <time>2020-08-26T11:21:57.832Z</time>
      </trkpt>
      <trkpt lat="69.61675" lon="18.34948">
        <ele>26.96975</ele>
        <time>2020-08-26T11:21:59.869Z</time>
      </trkpt>
      <trkpt lat="69.61686" lon="18.3497">
        <ele>26.541215</ele>
        <time>2020-08-26T11:22:01.840Z</time>
      </trkpt>
      <trkpt lat="69.61698" lon="18.34993">
        <ele>26.083382</ele>
        <time>2020-08-26T11:22:03.817Z</time>
      </trkpt>
      <trkpt lat="69.6171" lon="18.35018">
        <ele>25.755605</ele>
        <time>2020-08-26T11:22:05.827Z</time>
      </trkpt>
      <trkpt lat="69.61723" lon="18.35044">
        <ele>25.425143</ele>
        <time>2020-08-26T11:22:07.867Z</time>
      </trkpt>
      <trkpt lat="69.61735" lon="18.35072">
        <ele>25.084202</ele>
        <time>2020-08-26T11:22:09.823Z</time>
      </trkpt>
      <trkpt lat="69.61747" lon="18.35102">
        <ele>24.739613</ele>
        <time>2020-08-26T11:22:11.836Z</time>
      </trkpt>
      <trkpt lat="69.61759" lon="18.35128">
        <ele>24.414709</ele>
        <time>2020-08-26T11:22:13.824Z</time>
      </trkpt>
      <trkpt lat="69.6177" lon="18.35156">
        <ele>24.084877</ele>
        <time>2020-08-26T11:22:15.830Z</time>
      </trkpt>
      <trkpt lat="69.61781" lon="18.35182">
        <ele>23.784098</ele>
        <time>2020-08-26T11:22:17.865Z</time>
      </trkpt>
      <trkpt lat="69.61791" lon="18.35204">
        <ele>23.499498</ele>
        <time>2020-08-26T11:22:19.879Z</time>
      </trkpt>
      <trkpt lat="69.618" lon="18.35228">
        <ele>23.238046</ele>
        <time>2020-08-26T11:22:21.823Z</time>
      </trkpt>
      <trkpt lat="69.61809" lon="18.35252">
        <ele>22.978694</ele>
        <time>2020-08-26T11:22:23.849Z</time>
      </trkpt>
      <trkpt lat="69.61816" lon="18.35274">
        <ele>22.746864</ele>
        <time>2020-08-26T11:22:25.839Z</time>
      </trkpt>
      <trkpt lat="69.61823" lon="18.35294">
        <ele>22.540344</ele>
        <time>2020-08-26T11:22:27.857Z</time>
      </trkpt>
      <trkpt lat="69.61829" lon="18.35314">
        <ele>22.338086</ele>
        <time>2020-08-26T11:22:29.841Z</time>
      </trkpt>
      <trkpt lat="69.61835" lon="18.35335">
        <ele>22.163472</ele>
        <time>2020-08-26T11:22:31.847Z</time>
      </trkpt>
      <trkpt lat="69.61841" lon="18.35355">
        <ele>22.053855</ele>
        <time>2020-08-26T11:22:33.857Z</time>
      </trkpt>
      <trkpt lat="69.61848" lon="18.35375">
        <ele>21.939094</ele>
        <time>2020-08-26T11:22:35.871Z</time>
      </trkpt>
      <trkpt lat="69.61856" lon="18.35399">
        <ele>21.810366</ele>
        <time>2020-08-26T11:22:37.819Z</time>
      </trkpt>
      <trkpt lat="69.61863" lon="18.35424">
        <ele>21.676558</ele>
        <time>2020-08-26T11:22:39.872Z</time>
      </trkpt>
      <trkpt lat="69.61871" lon="18.3545">
        <ele>21.532957</ele>
        <time>2020-08-26T11:22:41.826Z</time>
      </trkpt>
      <trkpt lat="69.6188" lon="18.35477">
        <ele>21.385235</ele>
        <time>2020-08-26T11:22:43.829Z</time>
      </trkpt>
      <trkpt lat="69.61888" lon="18.35503">
        <ele>21.243833</ele>
        <time>2020-08-26T11:22:45.859Z</time>
      </trkpt>
      <trkpt lat="69.61896" lon="18.35529">
        <ele>21.100742</ele>
        <time>2020-08-26T11:22:47.828Z</time>
      </trkpt>
      <trkpt lat="69.61904" lon="18.35555">
        <ele>20.961238</ele>
        <time>2020-08-26T11:22:49.838Z</time>
      </trkpt>
      <trkpt lat="69.61912" lon="18.35579">
        <ele>20.82421</ele>
        <time>2020-08-26T11:22:51.835Z</time>
      </trkpt>
      <trkpt lat="69.61919" lon="18.35604">
        <ele>20.693864</ele>
        <time>2020-08-26T11:22:53.846Z</time>
      </trkpt>
      <trkpt lat="69.61927" lon="18.3563">
        <ele>20.559531</ele>
        <time>2020-08-26T11:22:55.822Z</time>
      </trkpt>
      <trkpt lat="69.61934" lon="18.35657">
        <ele>20.418439</ele>
        <time>2020-08-26T11:22:57.836Z</time>
      </trkpt>
      <trkpt lat="69.61942" lon="18.35682">
        <ele>20.279791</ele>
        <time>2020-08-26T11:22:59.852Z</time>
      </trkpt>
      <trkpt lat="69.61951" lon="18.35707">
        <ele>20.1385</ele>
        <time>2020-08-26T11:23:01.866Z</time>
      </trkpt>
      <trkpt lat="69.61959" lon="18.3573">
        <ele>20.632414</ele>
        <time>2020-08-26T11:23:03.819Z</time>
      </trkpt>
      <trkpt lat="69.61967" lon="18.35754">
        <ele>21.24747</ele>
        <time>2020-08-26T11:23:05.843Z</time>
      </trkpt>
      <trkpt lat="69.61974" lon="18.35774">
        <ele>21.800239</ele>
        <time>2020-08-26T11:23:07.821Z</time>
      </trkpt>
      <trkpt lat="69.6198" lon="18.35793">
        <ele>22.30408</ele>
        <time>2020-08-26T11:23:09.831Z</time>
      </trkpt>
      <trkpt lat="69.61988" lon="18.35822">
        <ele>23.028938</ele>
        <time>2020-08-26T11:23:12.885Z</time>
      </trkpt>
      <trkpt lat="69.61997" lon="18.3585">
        <ele>23.764905</ele>
        <time>2020-08-26T11:23:15.847Z</time>
      </trkpt>
      <trkpt lat="69.62004" lon="18.35876">
        <ele>24.409551</ele>
        <time>2020-08-26T11:23:18.818Z</time>
      </trkpt>
      <trkpt lat="69.62011" lon="18.35901">
        <ele>25.036846</ele>
        <time>2020-08-26T11:23:21.840Z</time>
      </trkpt>
      <trkpt lat="69.62019" lon="18.35923">
        <ele>25.659274</ele>
        <time>2020-08-26T11:23:24.829Z</time>
      </trkpt>
      <trkpt lat="69.62027" lon="18.35949">
        <ele>26.324783</ele>
        <time>2020-08-26T11:23:27.827Z</time>
      </trkpt>
      <trkpt lat="69.62034" lon="18.35977">
        <ele>27.022293</ele>
        <time>2020-08-26T11:23:30.852Z</time>
      </trkpt>
      <trkpt lat="69.62042" lon="18.36008">
        <ele>27.751005</ele>
        <time>2020-08-26T11:23:33.865Z</time>
      </trkpt>
      <trkpt lat="69.62047" lon="18.36031">
        <ele>28.287307</ele>
        <time>2020-08-26T11:23:35.839Z</time>
      </trkpt>
      <trkpt lat="69.62052" lon="18.36056">
        <ele>28.850644</ele>
        <time>2020-08-26T11:23:37.901Z</time>
      </trkpt>
      <trkpt lat="69.62058" lon="18.36081">
        <ele>29.453107</ele>
        <time>2020-08-26T11:23:39.836Z</time>
      </trkpt>
      <trkpt lat="69.62064" lon="18.36108">
        <ele>30.063987</ele>
        <time>2020-08-26T11:23:41.841Z</time>
      </trkpt>
      <trkpt lat="69.62071" lon="18.36137">
        <ele>29.925344</ele>
        <time>2020-08-26T11:23:43.834Z</time>
      </trkpt>
      <trkpt lat="69.62078" lon="18.36167">
        <ele>29.627698</ele>
        <time>2020-08-26T11:23:45.829Z</time>
      </trkpt>
      <trkpt lat="69.62084" lon="18.36199">
        <ele>29.314843</ele>
        <time>2020-08-26T11:23:47.847Z</time>
      </trkpt>
      <trkpt lat="69.62092" lon="18.36232">
        <ele>28.99396</ele>
        <time>2020-08-26T11:23:49.827Z</time>
      </trkpt>
      <trkpt lat="69.62098" lon="18.36265">
        <ele>28.672843</ele>
        <time>2020-08-26T11:23:51.834Z</time>
      </trkpt>
      <trkpt lat="69.62105" lon="18.36297">
        <ele>28.362238</ele>
        <time>2020-08-26T11:23:53.820Z</time>
      </trkpt>
      <trkpt lat="69.62112" lon="18.36329">
        <ele>28.044038</ele>
        <time>2020-08-26T11:23:55.842Z</time>
      </trkpt>
      <trkpt lat="69.62119" lon="18.36361">
        <ele>27.739207</ele>
        <time>2020-08-26T11:23:57.832Z</time>
      </trkpt>
      <trkpt lat="69.62125" lon="18.36392">
        <ele>27.44685</ele>
        <time>2020-08-26T11:23:59.824Z</time>
      </trkpt>
      <trkpt lat="69.62131" lon="18.36424">
        <ele>27.142158</ele>
        <time>2020-08-26T11:24:01.845Z</time>
      </trkpt>
      <trkpt lat="69.62137" lon="18.36456">
        <ele>26.840384</ele>
        <time>2020-08-26T11:24:03.831Z</time>
      </trkpt>
      <trkpt lat="69.62143" lon="18.36486">
        <ele>26.551379</ele>
        <time>2020-08-26T11:24:05.838Z</time>
      </trkpt>
      <trkpt lat="69.62149" lon="18.36514">
        <ele>26.274731</ele>
        <time>2020-08-26T11:24:07.844Z</time>
      </trkpt>
      <trkpt lat="69.62155" lon="18.36542">
        <ele>26.000426</ele>
        <time>2020-08-26T11:24:09.841Z</time>
      </trkpt>
      <trkpt lat="69.62162" lon="18.36569">
        <ele>25.887075</ele>
        <time>2020-08-26T11:24:11.888Z</time>
      </trkpt>
      <trkpt lat="69.62168" lon="18.36598">
        <ele>25.90729</ele>
        <time>2020-08-26T11:24:13.814Z</time>
      </trkpt>
      <trkpt lat="69.62174" lon="18.36627">
        <ele>25.927051</ele>
        <time>2020-08-26T11:24:15.823Z</time>
      </trkpt>
      <trkpt lat="69.6218" lon="18.36654">
        <ele>25.946084</ele>
        <time>2020-08-26T11:24:17.836Z</time>
      </trkpt>
      <trkpt lat="69.62185" lon="18.3668">
        <ele>25.964422</ele>
        <time>2020-08-26T11:24:19.850Z</time>
      </trkpt>
      <trkpt lat="69.62191" lon="18.36705">
        <ele>25.982848</ele>
        <time>2020-08-26T11:24:21.841Z</time>
      </trkpt>
      <trkpt lat="69.62197" lon="18.36731">
        <ele>26.001077</ele>
        <time>2020-08-26T11:24:23.836Z</time>
      </trkpt>
      <trkpt lat="69.62203" lon="18.36757">
        <ele>26.019435</ele>
        <time>2020-08-26T11:24:25.846Z</time>
      </trkpt>
      <trkpt lat="69.62209" lon="18.36784">
        <ele>26.038226</ele>
        <time>2020-08-26T11:24:27.831Z</time>
      </trkpt>
      <trkpt lat="69.62214" lon="18.3681">
        <ele>26.05633</ele>
        <time>2020-08-26T11:24:29.840Z</time>
      </trkpt>
      <trkpt lat="69.6222" lon="18.36834">
        <ele>26.073648</ele>
        <time>2020-08-26T11:24:31.851Z</time>
      </trkpt>
      <trkpt lat="69.62225" lon="18.36859">
        <ele>26.090814</ele>
        <time>2020-08-26T11:24:33.826Z</time>
      </trkpt>
      <trkpt lat="69.6223" lon="18.36882">
        <ele>26.107546</ele>
        <time>2020-08-26T11:24:35.828Z</time>
      </trkpt>
      <trkpt lat="69.62236" lon="18.36906">
        <ele>26.124328</ele>
        <time>2020-08-26T11:24:37.861Z</time>
      </trkpt>
      <trkpt lat="69.62241" lon="18.3693">
        <ele>26.14106</ele>
        <time>2020-08-26T11:24:39.829Z</time>
      </trkpt>
      <trkpt lat="69.62247" lon="18.36954">
        <ele>26.158313</ele>
        <time>2020-08-26T11:24:41.824Z</time>
      </trkpt>
      <trkpt lat="69.62253" lon="18.36977">
        <ele>26.175369</ele>
        <time>2020-08-26T11:24:43.835Z</time>
      </trkpt>
      <trkpt lat="69.62258" lon="18.36999">
        <ele>26.23631</ele>
        <time>2020-08-26T11:24:45.830Z</time>
      </trkpt>
      <trkpt lat="69.62264" lon="18.37022">
        <ele>26.349861</ele>
        <time>2020-08-26T11:24:47.831Z</time>
      </trkpt>
      <trkpt lat="69.6227" lon="18.37045">
        <ele>26.463938</ele>
        <time>2020-08-26T11:24:49.848Z</time>
      </trkpt>
      <trkpt lat="69.62276" lon="18.37066">
        <ele>26.575188</ele>
        <time>2020-08-26T11:24:51.848Z</time>
      </trkpt>
      <trkpt lat="69.62283" lon="18.37088">
        <ele>26.693087</ele>
        <time>2020-08-26T11:24:53.835Z</time>
      </trkpt>
      <trkpt lat="69.6229" lon="18.3711">
        <ele>26.815609</ele>
        <time>2020-08-26T11:24:55.839Z</time>
      </trkpt>
      <trkpt lat="69.62297" lon="18.37132">
        <ele>26.940457</ele>
        <time>2020-08-26T11:24:57.838Z</time>
      </trkpt>
      <trkpt lat="69.62305" lon="18.37155">
        <ele>27.069745</ele>
        <time>2020-08-26T11:24:59.825Z</time>
      </trkpt>
      <trkpt lat="69.62312" lon="18.37178">
        <ele>27.193131</ele>
        <time>2020-08-26T11:25:01.836Z</time>
      </trkpt>
      <trkpt lat="69.6232" lon="18.372">
        <ele>27.321457</ele>
        <time>2020-08-26T11:25:03.825Z</time>
      </trkpt>
      <trkpt lat="69.62327" lon="18.37221">
        <ele>27.440628</ele>
        <time>2020-08-26T11:25:05.817Z</time>
      </trkpt>
      <trkpt lat="69.62335" lon="18.3724">
        <ele>27.554159</ele>
        <time>2020-08-26T11:25:07.828Z</time>
      </trkpt>
      <trkpt lat="69.62341" lon="18.37259">
        <ele>27.663523</ele>
        <time>2020-08-26T11:25:09.844Z</time>
      </trkpt>
      <trkpt lat="69.6235" lon="18.37281">
        <ele>27.793824</ele>
        <time>2020-08-26T11:25:12.839Z</time>
      </trkpt>
      <trkpt lat="69.62358" lon="18.37303">
        <ele>27.924982</ele>
        <time>2020-08-26T11:25:16.831Z</time>
      </trkpt>
      <trkpt lat="69.62365" lon="18.37324">
        <ele>28.044729</ele>
        <time>2020-08-26T11:25:21.831Z</time>
      </trkpt>
      <trkpt lat="69.62372" lon="18.37344">
        <ele>28.15691</ele>
        <time>2020-08-26T11:25:26.871Z</time>
      </trkpt>
      <trkpt lat="69.62378" lon="18.37365">
        <ele>28.267506</ele>
        <time>2020-08-26T11:25:32.878Z</time>
      </trkpt>
      <trkpt lat="69.62386" lon="18.37385">
        <ele>28.838062</ele>
        <time>2020-08-26T11:25:38.883Z</time>
      </trkpt>
      <trkpt lat="69.62393" lon="18.37406">
        <ele>29.367087</ele>
        <time>2020-08-26T11:25:43.837Z</time>
      </trkpt>
      <trkpt lat="69.62401" lon="18.37424">
        <ele>29.907163</ele>
        <time>2020-08-26T11:25:48.856Z</time>
      </trkpt>
      <trkpt lat="69.62408" lon="18.37447">
        <ele>30.486186</ele>
        <time>2020-08-26T11:25:53.857Z</time>
      </trkpt>
      <trkpt lat="69.62416" lon="18.37465">
        <ele>31.003915</ele>
        <time>2020-08-26T11:25:57.837Z</time>
      </trkpt>
      <trkpt lat="69.62425" lon="18.37483">
        <ele>31.587321</ele>
        <time>2020-08-26T11:26:01.859Z</time>
      </trkpt>
      <trkpt lat="69.62434" lon="18.37504">
        <ele>32.204135</ele>
        <time>2020-08-26T11:26:05.864Z</time>
      </trkpt>
      <trkpt lat="69.62441" lon="18.37522">
        <ele>32.732429</ele>
        <time>2020-08-26T11:26:08.835Z</time>
      </trkpt>
      <trkpt lat="69.6245" lon="18.37544">
        <ele>33.346398</ele>
        <time>2020-08-26T11:26:11.838Z</time>
      </trkpt>
      <trkpt lat="69.62459" lon="18.37567">
        <ele>34.021037</ele>
        <time>2020-08-26T11:26:14.869Z</time>
      </trkpt>
      <trkpt lat="69.62466" lon="18.37586">
        <ele>34.51982</ele>
        <time>2020-08-26T11:26:16.840Z</time>
      </trkpt>
      <trkpt lat="69.62474" lon="18.37606">
        <ele>35.064949</ele>
        <time>2020-08-26T11:26:18.851Z</time>
      </trkpt>
      <trkpt lat="69.62482" lon="18.37628">
        <ele>35.661434</ele>
        <time>2020-08-26T11:26:20.830Z</time>
      </trkpt>
      <trkpt lat="69.6249" lon="18.37652">
        <ele>36.305516</ele>
        <time>2020-08-26T11:26:22.835Z</time>
      </trkpt>
      <trkpt lat="69.62499" lon="18.37678">
        <ele>36.977858</ele>
        <time>2020-08-26T11:26:24.845Z</time>
      </trkpt>
      <trkpt lat="69.62508" lon="18.37704">
        <ele>37.63717</ele>
        <time>2020-08-26T11:26:26.849Z</time>
      </trkpt>
      <trkpt lat="69.62517" lon="18.37731">
        <ele>37.546258</ele>
        <time>2020-08-26T11:26:28.837Z</time>
      </trkpt>
      <trkpt lat="69.62528" lon="18.37758">
        <ele>37.029211</ele>
        <time>2020-08-26T11:26:30.839Z</time>
      </trkpt>
      <trkpt lat="69.62539" lon="18.37787">
        <ele>36.479361</ele>
        <time>2020-08-26T11:26:32.851Z</time>
      </trkpt>
      <trkpt lat="69.62551" lon="18.37816">
        <ele>35.92428</ele>
        <time>2020-08-26T11:26:34.838Z</time>
      </trkpt>
      <trkpt lat="69.62561" lon="18.37843">
        <ele>35.40939</ele>
        <time>2020-08-26T11:26:36.838Z</time>
      </trkpt>
      <trkpt lat="69.62571" lon="18.37868">
        <ele>34.93883</ele>
        <time>2020-08-26T11:26:38.835Z</time>
      </trkpt>
      <trkpt lat="69.62581" lon="18.37892">
        <ele>34.460203</ele>
        <time>2020-08-26T11:26:40.828Z</time>
      </trkpt>
      <trkpt lat="69.62592" lon="18.37915">
        <ele>33.976093</ele>
        <time>2020-08-26T11:26:42.830Z</time>
      </trkpt>
      <trkpt lat="69.62602" lon="18.37937">
        <ele>33.509673</ele>
        <time>2020-08-26T11:26:44.813Z</time>
      </trkpt>
      <trkpt lat="69.62611" lon="18.37958">
        <ele>33.082003</ele>
        <time>2020-08-26T11:26:46.844Z</time>
      </trkpt>
      <trkpt lat="69.62619" lon="18.3798">
        <ele>32.684884</ele>
        <time>2020-08-26T11:26:48.847Z</time>
      </trkpt>
      <trkpt lat="69.62627" lon="18.38">
        <ele>32.295434</ele>
        <time>2020-08-26T11:26:50.838Z</time>
      </trkpt>
      <trkpt lat="69.62635" lon="18.38021">
        <ele>31.904421</ele>
        <time>2020-08-26T11:26:52.849Z</time>
      </trkpt>
      <trkpt lat="69.62643" lon="18.38044">
        <ele>31.497721</ele>
        <time>2020-08-26T11:26:54.876Z</time>
      </trkpt>
      <trkpt lat="69.62651" lon="18.38065">
        <ele>31.228468</ele>
        <time>2020-08-26T11:26:56.852Z</time>
      </trkpt>
      <trkpt lat="69.62659" lon="18.38088">
        <ele>31.042664</ele>
        <time>2020-08-26T11:26:58.828Z</time>
      </trkpt>
      <trkpt lat="69.62666" lon="18.38112">
        <ele>30.854964</ele>
        <time>2020-08-26T11:27:00.827Z</time>
      </trkpt>
      <trkpt lat="69.62674" lon="18.38137">
        <ele>30.655846</ele>
        <time>2020-08-26T11:27:02.836Z</time>
      </trkpt>
      <trkpt lat="69.62682" lon="18.38163">
        <ele>30.450316</ele>
        <time>2020-08-26T11:27:04.834Z</time>
      </trkpt>
      <trkpt lat="69.62691" lon="18.38188">
        <ele>30.245117</ele>
        <time>2020-08-26T11:27:06.848Z</time>
      </trkpt>
      <trkpt lat="69.627" lon="18.38213">
        <ele>30.041511</ele>
        <time>2020-08-26T11:27:08.844Z</time>
      </trkpt>
      <trkpt lat="69.62707" lon="18.38237">
        <ele>29.850594</ele>
        <time>2020-08-26T11:27:10.841Z</time>
      </trkpt>
      <trkpt lat="69.62714" lon="18.3826">
        <ele>29.671122</ele>
        <time>2020-08-26T11:27:12.816Z</time>
      </trkpt>
      <trkpt lat="69.62721" lon="18.38284">
        <ele>29.489456</ele>
        <time>2020-08-26T11:27:14.855Z</time>
      </trkpt>
      <trkpt lat="69.62729" lon="18.38307">
        <ele>29.304315</ele>
        <time>2020-08-26T11:27:16.845Z</time>
      </trkpt>
      <trkpt lat="69.62737" lon="18.3833">
        <ele>29.118015</ele>
        <time>2020-08-26T11:27:18.832Z</time>
      </trkpt>
      <trkpt lat="69.62744" lon="18.38353">
        <ele>28.933172</ele>
        <time>2020-08-26T11:27:20.840Z</time>
      </trkpt>
      <trkpt lat="69.62752" lon="18.38376">
        <ele>28.746541</ele>
        <time>2020-08-26T11:27:22.837Z</time>
      </trkpt>
      <trkpt lat="69.6276" lon="18.38398">
        <ele>28.555547</ele>
        <time>2020-08-26T11:27:24.867Z</time>
      </trkpt>
      <trkpt lat="69.62768" lon="18.3842">
        <ele>28.375012</ele>
        <time>2020-08-26T11:27:26.832Z</time>
      </trkpt>
      <trkpt lat="69.62775" lon="18.38441">
        <ele>28.390472</ele>
        <time>2020-08-26T11:27:28.855Z</time>
      </trkpt>
      <trkpt lat="69.62781" lon="18.38461">
        <ele>28.486799</ele>
        <time>2020-08-26T11:27:30.839Z</time>
      </trkpt>
      <trkpt lat="69.62788" lon="18.3848">
        <ele>28.582824</ele>
        <time>2020-08-26T11:27:32.855Z</time>
      </trkpt>
      <trkpt lat="69.62795" lon="18.38502">
        <ele>28.682494</ele>
        <time>2020-08-26T11:27:34.832Z</time>
      </trkpt>
      <trkpt lat="69.62801" lon="18.38523">
        <ele>28.777144</ele>
        <time>2020-08-26T11:27:36.831Z</time>
      </trkpt>
      <trkpt lat="69.62806" lon="18.38544">
        <ele>28.873067</ele>
        <time>2020-08-26T11:27:38.833Z</time>
      </trkpt>
      <trkpt lat="69.62813" lon="18.38568">
        <ele>28.978741</ele>
        <time>2020-08-26T11:27:40.840Z</time>
      </trkpt>
      <trkpt lat="69.62819" lon="18.38594">
        <ele>29.091496</ele>
        <time>2020-08-26T11:27:42.824Z</time>
      </trkpt>
      <trkpt lat="69.62827" lon="18.38622">
        <ele>29.214698</ele>
        <time>2020-08-26T11:27:44.846Z</time>
      </trkpt>
      <trkpt lat="69.62834" lon="18.38653">
        <ele>29.348216</ele>
        <time>2020-08-26T11:27:46.855Z</time>
      </trkpt>
      <trkpt lat="69.62842" lon="18.38685">
        <ele>29.484905</ele>
        <time>2020-08-26T11:27:48.815Z</time>
      </trkpt>
      <trkpt lat="69.6285" lon="18.38717">
        <ele>29.621894</ele>
        <time>2020-08-26T11:27:50.895Z</time>
      </trkpt>
      <trkpt lat="69.62857" lon="18.38748">
        <ele>29.753112</ele>
        <time>2020-08-26T11:27:52.836Z</time>
      </trkpt>
      <trkpt lat="69.62864" lon="18.38776">
        <ele>29.872805</ele>
        <time>2020-08-26T11:27:54.831Z</time>
      </trkpt>
      <trkpt lat="69.62869" lon="18.38803">
        <ele>29.982497</ele>
        <time>2020-08-26T11:27:56.853Z</time>
      </trkpt>
      <trkpt lat="69.62875" lon="18.3883">
        <ele>30.094809</ele>
        <time>2020-08-26T11:27:58.856Z</time>
      </trkpt>
      <trkpt lat="69.62882" lon="18.38856">
        <ele>30.165973</ele>
        <time>2020-08-26T11:28:00.844Z</time>
      </trkpt>
      <trkpt lat="69.62888" lon="18.38884">
        <ele>30.216138</ele>
        <time>2020-08-26T11:28:02.871Z</time>
      </trkpt>
      <trkpt lat="69.62894" lon="18.38912">
        <ele>30.266338</ele>
        <time>2020-08-26T11:28:04.834Z</time>
      </trkpt>
      <trkpt lat="69.62901" lon="18.38939">
        <ele>30.315376</ele>
        <time>2020-08-26T11:28:06.845Z</time>
      </trkpt>
      <trkpt lat="69.62908" lon="18.38967">
        <ele>30.367008</ele>
        <time>2020-08-26T11:28:08.838Z</time>
      </trkpt>
      <trkpt lat="69.62914" lon="18.38995">
        <ele>30.417662</ele>
        <time>2020-08-26T11:28:10.853Z</time>
      </trkpt>
      <trkpt lat="69.6292" lon="18.39022">
        <ele>30.466108</ele>
        <time>2020-08-26T11:28:12.862Z</time>
      </trkpt>
      <trkpt lat="69.62926" lon="18.39048">
        <ele>30.513024</ele>
        <time>2020-08-26T11:28:14.879Z</time>
      </trkpt>
      <trkpt lat="69.62931" lon="18.39071">
        <ele>30.553797</ele>
        <time>2020-08-26T11:28:16.838Z</time>
      </trkpt>
      <trkpt lat="69.62936" lon="18.39093">
        <ele>30.5932</ele>
        <time>2020-08-26T11:28:18.834Z</time>
      </trkpt>
      <trkpt lat="69.62943" lon="18.39121">
        <ele>30.643867</ele>
        <time>2020-08-26T11:28:21.840Z</time>
      </trkpt>
      <trkpt lat="69.62949" lon="18.39151">
        <ele>30.696725</ele>
        <time>2020-08-26T11:28:24.859Z</time>
      </trkpt>
      <trkpt lat="69.62955" lon="18.39183">
        <ele>30.751429</ele>
        <time>2020-08-26T11:28:27.870Z</time>
      </trkpt>
      <trkpt lat="69.62962" lon="18.39213">
        <ele>30.806148</ele>
        <time>2020-08-26T11:28:30.836Z</time>
      </trkpt>
      <trkpt lat="69.62967" lon="18.39235">
        <ele>30.846539</ele>
        <time>2020-08-26T11:28:32.852Z</time>
      </trkpt>
      <trkpt lat="69.62972" lon="18.39257">
        <ele>30.886931</ele>
        <time>2020-08-26T11:28:34.836Z</time>
      </trkpt>
      <trkpt lat="69.62978" lon="18.39281">
        <ele>30.835156</ele>
        <time>2020-08-26T11:28:36.832Z</time>
      </trkpt>
      <trkpt lat="69.62983" lon="18.39306">
        <ele>30.623328</ele>
        <time>2020-08-26T11:28:38.876Z</time>
      </trkpt>
      <trkpt lat="69.62989" lon="18.39329">
        <ele>30.418535</ele>
        <time>2020-08-26T11:28:40.850Z</time>
      </trkpt>
      <trkpt lat="69.62994" lon="18.39356">
        <ele>30.197596</ele>
        <time>2020-08-26T11:28:42.826Z</time>
      </trkpt>
      <trkpt lat="69.63001" lon="18.39384">
        <ele>29.951439</ele>
        <time>2020-08-26T11:28:44.888Z</time>
      </trkpt>
      <trkpt lat="69.63007" lon="18.39416">
        <ele>29.688258</ele>
        <time>2020-08-26T11:28:46.858Z</time>
      </trkpt>
      <trkpt lat="69.63015" lon="18.39448">
        <ele>29.412461</ele>
        <time>2020-08-26T11:28:48.826Z</time>
      </trkpt>
      <trkpt lat="69.63022" lon="18.39481">
        <ele>29.124921</ele>
        <time>2020-08-26T11:28:50.849Z</time>
      </trkpt>
      <trkpt lat="69.6303" lon="18.39514">
        <ele>28.841851</ele>
        <time>2020-08-26T11:28:52.889Z</time>
      </trkpt>
      <trkpt lat="69.63037" lon="18.39545">
        <ele>28.578329</ele>
        <time>2020-08-26T11:28:54.844Z</time>
      </trkpt>
      <trkpt lat="69.63043" lon="18.39574">
        <ele>28.324329</ele>
        <time>2020-08-26T11:28:56.832Z</time>
      </trkpt>
      <trkpt lat="69.6305" lon="18.39604">
        <ele>28.076201</ele>
        <time>2020-08-26T11:28:58.843Z</time>
      </trkpt>
      <trkpt lat="69.63056" lon="18.3963">
        <ele>27.844776</ele>
        <time>2020-08-26T11:29:00.819Z</time>
      </trkpt>
      <trkpt lat="69.63062" lon="18.39656">
        <ele>27.625857</ele>
        <time>2020-08-26T11:29:02.824Z</time>
      </trkpt>
      <trkpt lat="69.63067" lon="18.3968">
        <ele>27.409919</ele>
        <time>2020-08-26T11:29:04.834Z</time>
      </trkpt>
      <trkpt lat="69.63073" lon="18.39703">
        <ele>27.210535</ele>
        <time>2020-08-26T11:29:06.828Z</time>
      </trkpt>
      <trkpt lat="69.63079" lon="18.39723">
        <ele>27.267515</ele>
        <time>2020-08-26T11:29:08.843Z</time>
      </trkpt>
      <trkpt lat="69.63086" lon="18.39742">
        <ele>27.352207</ele>
        <time>2020-08-26T11:29:10.831Z</time>
      </trkpt>
      <trkpt lat="69.63092" lon="18.39761">
        <ele>27.440035</ele>
        <time>2020-08-26T11:29:12.828Z</time>
      </trkpt>
      <trkpt lat="69.63099" lon="18.39779">
        <ele>27.525803</ele>
        <time>2020-08-26T11:29:14.820Z</time>
      </trkpt>
      <trkpt lat="69.63109" lon="18.39802">
        <ele>27.642684</ele>
        <time>2020-08-26T11:29:17.840Z</time>
      </trkpt>
      <trkpt lat="69.63119" lon="18.39821">
        <ele>27.759293</ele>
        <time>2020-08-26T11:29:20.823Z</time>
      </trkpt>
      <trkpt lat="69.63129" lon="18.39841">
        <ele>27.874761</ele>
        <time>2020-08-26T11:29:23.849Z</time>
      </trkpt>
      <trkpt lat="69.63139" lon="18.39859">
        <ele>27.985568</ele>
        <time>2020-08-26T11:29:26.870Z</time>
      </trkpt>
      <trkpt lat="69.63148" lon="18.39879">
        <ele>28.093582</ele>
        <time>2020-08-26T11:29:29.841Z</time>
      </trkpt>
      <trkpt lat="69.63157" lon="18.39897">
        <ele>28.193528</ele>
        <time>2020-08-26T11:29:32.869Z</time>
      </trkpt>
      <trkpt lat="69.63166" lon="18.39914">
        <ele>28.292947</ele>
        <time>2020-08-26T11:29:35.831Z</time>
      </trkpt>
      <trkpt lat="69.63175" lon="18.39932">
        <ele>28.395756</ele>
        <time>2020-08-26T11:29:38.861Z</time>
      </trkpt>
      <trkpt lat="69.63185" lon="18.39951">
        <ele>28.511831</ele>
        <time>2020-08-26T11:29:41.827Z</time>
      </trkpt>
      <trkpt lat="69.63196" lon="18.39973">
        <ele>28.639029</ele>
        <time>2020-08-26T11:29:44.837Z</time>
      </trkpt>
      <trkpt lat="69.63207" lon="18.39996">
        <ele>28.764861</ele>
        <time>2020-08-26T11:29:47.824Z</time>
      </trkpt>
      <trkpt lat="69.63219" lon="18.40015">
        <ele>28.868755</ele>
        <time>2020-08-26T11:29:50.834Z</time>
      </trkpt>
      <trkpt lat="69.6323" lon="18.40033">
        <ele>28.82109</ele>
        <time>2020-08-26T11:29:53.858Z</time>
      </trkpt>
      <trkpt lat="69.6324" lon="18.40049">
        <ele>28.774689</ele>
        <time>2020-08-26T11:29:56.842Z</time>
      </trkpt>
      <trkpt lat="69.63251" lon="18.40062">
        <ele>28.730239</ele>
        <time>2020-08-26T11:29:59.861Z</time>
      </trkpt>
      <trkpt lat="69.63262" lon="18.40076">
        <ele>28.683415</ele>
        <time>2020-08-26T11:30:02.857Z</time>
      </trkpt>
      <trkpt lat="69.63274" lon="18.4009">
        <ele>28.633662</ele>
        <time>2020-08-26T11:30:05.827Z</time>
      </trkpt>
      <trkpt lat="69.63283" lon="18.40101">
        <ele>28.596879</ele>
        <time>2020-08-26T11:30:07.835Z</time>
      </trkpt>
      <trkpt lat="69.63293" lon="18.40112">
        <ele>28.555486</ele>
        <time>2020-08-26T11:30:09.831Z</time>
      </trkpt>
      <trkpt lat="69.63304" lon="18.40123">
        <ele>28.511108</ele>
        <time>2020-08-26T11:30:11.825Z</time>
      </trkpt>
      <trkpt lat="69.63315" lon="18.40136">
        <ele>28.465142</ele>
        <time>2020-08-26T11:30:13.838Z</time>
      </trkpt>
      <trkpt lat="69.63327" lon="18.4015">
        <ele>28.416399</ele>
        <time>2020-08-26T11:30:15.836Z</time>
      </trkpt>
      <trkpt lat="69.63339" lon="18.40164">
        <ele>28.366897</ele>
        <time>2020-08-26T11:30:17.847Z</time>
      </trkpt>
      <trkpt lat="69.63351" lon="18.40177">
        <ele>28.317541</ele>
        <time>2020-08-26T11:30:19.863Z</time>
      </trkpt>
      <trkpt lat="69.63363" lon="18.40192">
        <ele>28.26848</ele>
        <time>2020-08-26T11:30:21.833Z</time>
      </trkpt>
      <trkpt lat="69.63374" lon="18.40207">
        <ele>28.219526</ele>
        <time>2020-08-26T11:30:23.838Z</time>
      </trkpt>
      <trkpt lat="69.63386" lon="18.40219">
        <ele>28.146653</ele>
        <time>2020-08-26T11:30:25.844Z</time>
      </trkpt>
      <trkpt lat="69.63399" lon="18.40231">
        <ele>28.02117</ele>
        <time>2020-08-26T11:30:27.827Z</time>
      </trkpt>
      <trkpt lat="69.63411" lon="18.40244">
        <ele>27.898079</ele>
        <time>2020-08-26T11:30:29.838Z</time>
      </trkpt>
      <trkpt lat="69.63423" lon="18.40256">
        <ele>27.778598</ele>
        <time>2020-08-26T11:30:31.846Z</time>
      </trkpt>
      <trkpt lat="69.63434" lon="18.40269">
        <ele>27.661488</ele>
        <time>2020-08-26T11:30:33.852Z</time>
      </trkpt>
      <trkpt lat="69.63445" lon="18.40281">
        <ele>27.550014</ele>
        <time>2020-08-26T11:30:35.833Z</time>
      </trkpt>
      <trkpt lat="69.63455" lon="18.40294">
        <ele>27.440759</ele>
        <time>2020-08-26T11:30:37.825Z</time>
      </trkpt>
      <trkpt lat="69.63466" lon="18.40307">
        <ele>27.332494</ele>
        <time>2020-08-26T11:30:39.832Z</time>
      </trkpt>
      <trkpt lat="69.63476" lon="18.40321">
        <ele>27.224198</ele>
        <time>2020-08-26T11:30:41.830Z</time>
      </trkpt>
      <trkpt lat="69.63486" lon="18.40332">
        <ele>27.119886</ele>
        <time>2020-08-26T11:30:43.820Z</time>
      </trkpt>
      <trkpt lat="69.63496" lon="18.40344">
        <ele>27.018239</ele>
        <time>2020-08-26T11:30:45.827Z</time>
      </trkpt>
      <trkpt lat="69.63506" lon="18.40356">
        <ele>26.914691</ele>
        <time>2020-08-26T11:30:47.819Z</time>
      </trkpt>
      <trkpt lat="69.63515" lon="18.40367">
        <ele>26.813801</ele>
        <time>2020-08-26T11:30:49.837Z</time>
      </trkpt>
      <trkpt lat="69.63525" lon="18.40378">
        <ele>26.717224</ele>
        <time>2020-08-26T11:30:51.848Z</time>
      </trkpt>
      <trkpt lat="69.63534" lon="18.40389">
        <ele>26.624317</ele>
        <time>2020-08-26T11:30:53.822Z</time>
      </trkpt>
      <trkpt lat="69.63543" lon="18.404">
        <ele>26.531743</ele>
        <time>2020-08-26T11:30:55.848Z</time>
      </trkpt>
      <trkpt lat="69.63554" lon="18.40417">
        <ele>26.738578</ele>
        <time>2020-08-26T11:30:58.845Z</time>
      </trkpt>
      <trkpt lat="69.63565" lon="18.40434">
        <ele>27.341219</ele>
        <time>2020-08-26T11:31:01.842Z</time>
      </trkpt>
      <trkpt lat="69.63576" lon="18.40454">
        <ele>27.949435</ele>
        <time>2020-08-26T11:31:04.840Z</time>
      </trkpt>
      <trkpt lat="69.63586" lon="18.40473">
        <ele>28.54728</ele>
        <time>2020-08-26T11:31:07.830Z</time>
      </trkpt>
      <trkpt lat="69.63596" lon="18.40493">
        <ele>29.12713</ele>
        <time>2020-08-26T11:31:10.874Z</time>
      </trkpt>
      <trkpt lat="69.63604" lon="18.40517">
        <ele>29.691409</ele>
        <time>2020-08-26T11:31:13.831Z</time>
      </trkpt>
      <trkpt lat="69.63612" lon="18.40539">
        <ele>30.213487</ele>
        <time>2020-08-26T11:31:16.859Z</time>
      </trkpt>
      <trkpt lat="69.63619" lon="18.4056">
        <ele>30.719099</ele>
        <time>2020-08-26T11:31:19.838Z</time>
      </trkpt>
      <trkpt lat="69.63626" lon="18.40582">
        <ele>31.218448</ele>
        <time>2020-08-26T11:31:22.869Z</time>
      </trkpt>
      <trkpt lat="69.63633" lon="18.40602">
        <ele>31.67778</ele>
        <time>2020-08-26T11:31:25.847Z</time>
      </trkpt>
      <trkpt lat="69.63639" lon="18.40623">
        <ele>32.145447</ele>
        <time>2020-08-26T11:31:28.824Z</time>
      </trkpt>
      <trkpt lat="69.63645" lon="18.40647">
        <ele>32.641896</ele>
        <time>2020-08-26T11:31:31.830Z</time>
      </trkpt>
      <trkpt lat="69.63652" lon="18.40673">
        <ele>33.187228</ele>
        <time>2020-08-26T11:31:34.870Z</time>
      </trkpt>
      <trkpt lat="69.63658" lon="18.407">
        <ele>33.722729</ele>
        <time>2020-08-26T11:31:37.857Z</time>
      </trkpt>
      <trkpt lat="69.63664" lon="18.40728">
        <ele>34.286903</ele>
        <time>2020-08-26T11:31:40.843Z</time>
      </trkpt>
      <trkpt lat="69.63671" lon="18.40753">
        <ele>34.825014</ele>
        <time>2020-08-26T11:31:43.847Z</time>
      </trkpt>
      <trkpt lat="69.63677" lon="18.4078">
        <ele>35.117317</ele>
        <time>2020-08-26T11:31:46.834Z</time>
      </trkpt>
      <trkpt lat="69.63684" lon="18.40805">
        <ele>34.994719</ele>
        <time>2020-08-26T11:31:49.823Z</time>
      </trkpt>
      <trkpt lat="69.6369" lon="18.40832">
        <ele>34.872167</ele>
        <time>2020-08-26T11:31:52.824Z</time>
      </trkpt>
      <trkpt lat="69.63697" lon="18.40859">
        <ele>34.745521</ele>
        <time>2020-08-26T11:31:55.826Z</time>
      </trkpt>
      <trkpt lat="69.63703" lon="18.40881">
        <ele>34.633775</ele>
        <time>2020-08-26T11:31:58.819Z</time>
      </trkpt>
      <trkpt lat="69.63711" lon="18.40905">
        <ele>34.511756</ele>
        <time>2020-08-26T11:32:01.853Z</time>
      </trkpt>
      <trkpt lat="69.63718" lon="18.40928">
        <ele>34.389738</ele>
        <time>2020-08-26T11:32:04.844Z</time>
      </trkpt>
      <trkpt lat="69.63726" lon="18.40952">
        <ele>34.265187</ele>
        <time>2020-08-26T11:32:07.837Z</time>
      </trkpt>
      <trkpt lat="69.63734" lon="18.40978">
        <ele>34.129519</ele>
        <time>2020-08-26T11:32:10.835Z</time>
      </trkpt>
      <trkpt lat="69.63743" lon="18.41003">
        <ele>33.991453</ele>
        <time>2020-08-26T11:32:13.851Z</time>
      </trkpt>
      <trkpt lat="69.63753" lon="18.41026">
        <ele>33.846469</ele>
        <time>2020-08-26T11:32:16.832Z</time>
      </trkpt>
      <trkpt lat="69.63762" lon="18.41041">
        <ele>33.734196</ele>
        <time>2020-08-26T11:32:18.842Z</time>
      </trkpt>
      <trkpt lat="69.63771" lon="18.41056">
        <ele>33.616759</ele>
        <time>2020-08-26T11:32:20.842Z</time>
      </trkpt>
      <trkpt lat="69.63781" lon="18.41072">
        <ele>33.496642</ele>
        <time>2020-08-26T11:32:22.865Z</time>
      </trkpt>
      <trkpt lat="69.63791" lon="18.41087">
        <ele>33.374425</ele>
        <time>2020-08-26T11:32:24.861Z</time>
      </trkpt>
      <trkpt lat="69.63801" lon="18.41101">
        <ele>33.244264</ele>
        <time>2020-08-26T11:32:26.839Z</time>
      </trkpt>
      <trkpt lat="69.63812" lon="18.41115">
        <ele>33.066068</ele>
        <time>2020-08-26T11:32:28.836Z</time>
      </trkpt>
      <trkpt lat="69.63823" lon="18.41127">
        <ele>32.828599</ele>
        <time>2020-08-26T11:32:30.857Z</time>
      </trkpt>
      <trkpt lat="69.63835" lon="18.41138">
        <ele>32.578317</ele>
        <time>2020-08-26T11:32:32.859Z</time>
      </trkpt>
      <trkpt lat="69.63847" lon="18.4115">
        <ele>32.332769</ele>
        <time>2020-08-26T11:32:34.838Z</time>
      </trkpt>
      <trkpt lat="69.63859" lon="18.41162">
        <ele>32.081212</ele>
        <time>2020-08-26T11:32:36.837Z</time>
      </trkpt>
      <trkpt lat="69.6387" lon="18.41173">
        <ele>31.848159</ele>
        <time>2020-08-26T11:32:38.857Z</time>
      </trkpt>
      <trkpt lat="69.63881" lon="18.41185">
        <ele>31.627331</ele>
        <time>2020-08-26T11:32:40.870Z</time>
      </trkpt>
      <trkpt lat="69.6389" lon="18.41196">
        <ele>31.425273</ele>
        <time>2020-08-26T11:32:42.860Z</time>
      </trkpt>
      <trkpt lat="69.639" lon="18.41206">
        <ele>31.235002</ele>
        <time>2020-08-26T11:32:44.830Z</time>
      </trkpt>
      <trkpt lat="69.63908" lon="18.41213">
        <ele>31.052341</ele>
        <time>2020-08-26T11:32:46.835Z</time>
      </trkpt>
      <trkpt lat="69.63917" lon="18.41222">
        <ele>30.866374</ele>
        <time>2020-08-26T11:32:48.840Z</time>
      </trkpt>
      <trkpt lat="69.63926" lon="18.41232">
        <ele>30.684562</ele>
        <time>2020-08-26T11:32:50.848Z</time>
      </trkpt>
      <trkpt lat="69.63938" lon="18.41244">
        <ele>30.43533</ele>
        <time>2020-08-26T11:32:53.826Z</time>
      </trkpt>
      <trkpt lat="69.63948" lon="18.41253">
        <ele>30.226233</ele>
        <time>2020-08-26T11:32:56.824Z</time>
      </trkpt>
      <trkpt lat="69.63958" lon="18.41263">
        <ele>30.015387</ele>
        <time>2020-08-26T11:33:00.826Z</time>
      </trkpt>
      <trkpt lat="69.63968" lon="18.41276">
        <ele>29.804761</ele>
        <time>2020-08-26T11:33:04.878Z</time>
      </trkpt>
      <trkpt lat="69.63978" lon="18.41289">
        <ele>29.872668</ele>
        <time>2020-08-26T11:33:09.836Z</time>
      </trkpt>
      <trkpt lat="69.63988" lon="18.413">
        <ele>30.772513</ele>
        <time>2020-08-26T11:33:14.837Z</time>
      </trkpt>
      <trkpt lat="69.63997" lon="18.4131">
        <ele>31.630144</ele>
        <time>2020-08-26T11:33:20.880Z</time>
      </trkpt>
      <trkpt lat="69.64006" lon="18.41321">
        <ele>32.433283</ele>
        <time>2020-08-26T11:33:26.839Z</time>
      </trkpt>
      <trkpt lat="69.64017" lon="18.41329">
        <ele>33.322712</ele>
        <time>2020-08-26T11:33:32.835Z</time>
      </trkpt>
      <trkpt lat="69.64026" lon="18.4134">
        <ele>34.194009</ele>
        <time>2020-08-26T11:33:38.827Z</time>
      </trkpt>
      <trkpt lat="69.64036" lon="18.41353">
        <ele>35.103883</ele>
        <time>2020-08-26T11:33:45.840Z</time>
      </trkpt>
      <trkpt lat="69.64046" lon="18.41361">
        <ele>35.937378</ele>
        <time>2020-08-26T11:33:51.831Z</time>
      </trkpt>
      <trkpt lat="69.64054" lon="18.41374">
        <ele>36.739555</ele>
        <time>2020-08-26T11:33:57.831Z</time>
      </trkpt>
      <trkpt lat="69.64063" lon="18.41391">
        <ele>37.637441</ele>
        <time>2020-08-26T11:34:03.855Z</time>
      </trkpt>
      <trkpt lat="69.6407" lon="18.41413">
        <ele>38.484513</ele>
        <time>2020-08-26T11:34:08.845Z</time>
      </trkpt>
      <trkpt lat="69.64075" lon="18.41439">
        <ele>39.381073</ele>
        <time>2020-08-26T11:34:13.844Z</time>
      </trkpt>
      <trkpt lat="69.6408" lon="18.4147">
        <ele>40.337218</ele>
        <time>2020-08-26T11:34:17.858Z</time>
      </trkpt>
      <trkpt lat="69.64082" lon="18.41499">
        <ele>41.221155</ele>
        <time>2020-08-26T11:34:20.829Z</time>
      </trkpt>
      <trkpt lat="69.64083" lon="18.41535">
        <ele>42.280876</ele>
        <time>2020-08-26T11:34:23.830Z</time>
      </trkpt>
      <trkpt lat="69.64084" lon="18.41571">
        <ele>43.331206</ele>
        <time>2020-08-26T11:34:26.827Z</time>
      </trkpt>
      <trkpt lat="69.64083" lon="18.41606">
        <ele>44.348157</ele>
        <time>2020-08-26T11:34:29.844Z</time>
      </trkpt>
      <trkpt lat="69.6408" lon="18.41634">
        <ele>45.271969</ele>
        <time>2020-08-26T11:34:32.823Z</time>
      </trkpt>
      <trkpt lat="69.64077" lon="18.4166">
        <ele>46.196618</ele>
        <time>2020-08-26T11:34:36.825Z</time>
      </trkpt>
      <trkpt lat="69.64075" lon="18.41687">
        <ele>47.129326</ele>
        <time>2020-08-26T11:34:41.839Z</time>
      </trkpt>
      <trkpt lat="69.64071" lon="18.41714">
        <ele>48.108048</ele>
        <time>2020-08-26T11:34:46.853Z</time>
      </trkpt>
      <trkpt lat="69.64068" lon="18.41739">
        <ele>49.036919</ele>
        <time>2020-08-26T11:34:51.824Z</time>
      </trkpt>
      <trkpt lat="69.64065" lon="18.41766">
        <ele>49.967918</ele>
        <time>2020-08-26T11:34:56.828Z</time>
      </trkpt>
      <trkpt lat="69.64061" lon="18.41791">
        <ele>50.873387</ele>
        <time>2020-08-26T11:35:01.833Z</time>
      </trkpt>
      <trkpt lat="69.64058" lon="18.41816">
        <ele>51.805953</ele>
        <time>2020-08-26T11:35:07.826Z</time>
      </trkpt>
      <trkpt lat="69.64054" lon="18.41841">
        <ele>52.720564</ele>
        <time>2020-08-26T11:35:12.850Z</time>
      </trkpt>
      <trkpt lat="69.6405" lon="18.41867">
        <ele>53.677658</ele>
        <time>2020-08-26T11:35:17.833Z</time>
      </trkpt>
      <trkpt lat="69.64047" lon="18.41891">
        <ele>54.551502</ele>
        <time>2020-08-26T11:35:22.874Z</time>
      </trkpt>
      <trkpt lat="69.64045" lon="18.4192">
        <ele>55.549133</ele>
        <time>2020-08-26T11:35:28.841Z</time>
      </trkpt>
      <trkpt lat="69.64042" lon="18.41946">
        <ele>56.461752</ele>
        <time>2020-08-26T11:35:34.855Z</time>
      </trkpt>
      <trkpt lat="69.6404" lon="18.41971">
        <ele>57.342488</ele>
        <time>2020-08-26T11:35:39.839Z</time>
      </trkpt>
      <trkpt lat="69.64036" lon="18.41998">
        <ele>58.299013</ele>
        <time>2020-08-26T11:35:45.854Z</time>
      </trkpt>
      <trkpt lat="69.64034" lon="18.42026">
        <ele>59.254753</ele>
        <time>2020-08-26T11:35:51.840Z</time>
      </trkpt>
      <trkpt lat="69.64031" lon="18.42054">
        <ele>60.266758</ele>
        <time>2020-08-26T11:35:57.832Z</time>
      </trkpt>
      <trkpt lat="69.64028" lon="18.42081">
        <ele>61.226454</ele>
        <time>2020-08-26T11:36:02.873Z</time>
      </trkpt>
      <trkpt lat="69.64026" lon="18.4211">
        <ele>62.161933</ele>
        <time>2020-08-26T11:36:08.833Z</time>
      </trkpt>
      <trkpt lat="69.64022" lon="18.42138">
        <ele>62.62369</ele>
        <time>2020-08-26T11:36:14.855Z</time>
      </trkpt>
      <trkpt lat="69.64023" lon="18.42181">
        <ele>63.265224</ele>
        <time>2020-08-26T11:44:20.858Z</time>
      </trkpt>
      <trkpt lat="69.64025" lon="18.42207">
        <ele>63.6689</ele>
        <time>2020-08-26T11:44:25.846Z</time>
      </trkpt>
      <trkpt lat="69.64027" lon="18.42237">
        <ele>64.119403</ele>
        <time>2020-08-26T11:44:29.839Z</time>
      </trkpt>
      <trkpt lat="69.64025" lon="18.42263">
        <ele>64.515361</ele>
        <time>2020-08-26T11:44:32.868Z</time>
      </trkpt>
      <trkpt lat="69.64023" lon="18.4229">
        <ele>64.936807</ele>
        <time>2020-08-26T11:44:35.851Z</time>
      </trkpt>
      <trkpt lat="69.6402" lon="18.42316">
        <ele>65.341268</ele>
        <time>2020-08-26T11:44:39.841Z</time>
      </trkpt>
      <trkpt lat="69.64019" lon="18.42347">
        <ele>65.806832</ele>
        <time>2020-08-26T11:44:44.867Z</time>
      </trkpt>
      <trkpt lat="69.64019" lon="18.42379">
        <ele>66.27316</ele>
        <time>2020-08-26T11:44:49.874Z</time>
      </trkpt>
      <trkpt lat="69.64016" lon="18.42404">
        <ele>66.681052</ele>
        <time>2020-08-26T11:44:54.859Z</time>
      </trkpt>
      <trkpt lat="69.64016" lon="18.42435">
        <ele>67.139813</ele>
        <time>2020-08-26T11:45:00.877Z</time>
      </trkpt>
      <trkpt lat="69.64017" lon="18.42463">
        <ele>67.561051</ele>
        <time>2020-08-26T11:45:05.839Z</time>
      </trkpt>
      <trkpt lat="69.64017" lon="18.42491">
        <ele>67.985389</ele>
        <time>2020-08-26T11:45:10.839Z</time>
      </trkpt>
      <trkpt lat="69.64015" lon="18.42519">
        <ele>68.410146</ele>
        <time>2020-08-26T11:45:15.867Z</time>
      </trkpt>
      <trkpt lat="69.64014" lon="18.42546">
        <ele>68.815046</ele>
        <time>2020-08-26T11:45:21.854Z</time>
      </trkpt>
      <trkpt lat="69.64011" lon="18.42573">
        <ele>69.241716</ele>
        <time>2020-08-26T11:45:27.819Z</time>
      </trkpt>
      <trkpt lat="69.64013" lon="18.42599">
        <ele>69.626703</ele>
        <time>2020-08-26T11:45:32.838Z</time>
      </trkpt>
      <trkpt lat="69.64015" lon="18.42624">
        <ele>70.092664</ele>
        <time>2020-08-26T11:45:37.881Z</time>
      </trkpt>
      <trkpt lat="69.64012" lon="18.42652">
        <ele>70.722651</ele>
        <time>2020-08-26T11:45:43.863Z</time>
      </trkpt>
      <trkpt lat="69.64011" lon="18.42682">
        <ele>71.350863</ele>
        <time>2020-08-26T11:45:49.840Z</time>
      </trkpt>
      <trkpt lat="69.64009" lon="18.4271">
        <ele>71.960321</ele>
        <time>2020-08-26T11:45:54.860Z</time>
      </trkpt>
      <trkpt lat="69.64007" lon="18.42738">
        <ele>72.559643</ele>
        <time>2020-08-26T11:45:59.862Z</time>
      </trkpt>
      <trkpt lat="69.64004" lon="18.42767">
        <ele>73.171573</ele>
        <time>2020-08-26T11:46:04.892Z</time>
      </trkpt>
      <trkpt lat="69.64003" lon="18.42793">
        <ele>73.735874</ele>
        <time>2020-08-26T11:46:09.834Z</time>
      </trkpt>
      <trkpt lat="69.63999" lon="18.4282">
        <ele>74.346301</ele>
        <time>2020-08-26T11:46:15.852Z</time>
      </trkpt>
      <trkpt lat="69.63997" lon="18.42848">
        <ele>74.93287</ele>
        <time>2020-08-26T11:46:21.840Z</time>
      </trkpt>
      <trkpt lat="69.63994" lon="18.42874">
        <ele>75.517318</ele>
        <time>2020-08-26T11:46:26.853Z</time>
      </trkpt>
      <trkpt lat="69.63989" lon="18.42899">
        <ele>76.104991</ele>
        <time>2020-08-26T11:46:31.846Z</time>
      </trkpt>
      <trkpt lat="69.63983" lon="18.42926">
        <ele>76.778328</ele>
        <time>2020-08-26T11:46:36.854Z</time>
      </trkpt>
      <trkpt lat="69.63977" lon="18.42949">
        <ele>77.407549</ele>
        <time>2020-08-26T11:46:40.841Z</time>
      </trkpt>
      <trkpt lat="69.63969" lon="18.42973">
        <ele>78.073867</ele>
        <time>2020-08-26T11:46:45.818Z</time>
      </trkpt>
      <trkpt lat="69.63963" lon="18.42997">
        <ele>78.722592</ele>
        <time>2020-08-26T11:46:50.872Z</time>
      </trkpt>
      <trkpt lat="69.63957" lon="18.4302">
        <ele>79.314885</ele>
        <time>2020-08-26T11:46:55.829Z</time>
      </trkpt>
      <trkpt lat="69.63951" lon="18.43043">
        <ele>79.912432</ele>
        <time>2020-08-26T11:47:00.832Z</time>
      </trkpt>
      <trkpt lat="69.63946" lon="18.43065">
        <ele>80.484098</ele>
        <time>2020-08-26T11:47:05.851Z</time>
      </trkpt>
      <trkpt lat="69.63939" lon="18.43088">
        <ele>80.973706</ele>
        <time>2020-08-26T11:47:10.832Z</time>
      </trkpt>
      <trkpt lat="69.63933" lon="18.43113">
        <ele>81.413727</ele>
        <time>2020-08-26T11:47:15.855Z</time>
      </trkpt>
      <trkpt lat="69.63927" lon="18.43133">
        <ele>81.800575</ele>
        <time>2020-08-26T11:47:19.838Z</time>
      </trkpt>
      <trkpt lat="69.63919" lon="18.43156">
        <ele>82.244143</ele>
        <time>2020-08-26T11:47:24.878Z</time>
      </trkpt>
      <trkpt lat="69.63913" lon="18.43179">
        <ele>82.655504</ele>
        <time>2020-08-26T11:47:29.831Z</time>
      </trkpt>
      <trkpt lat="69.63907" lon="18.432">
        <ele>83.059141</ele>
        <time>2020-08-26T11:47:34.848Z</time>
      </trkpt>
      <trkpt lat="69.63901" lon="18.43221">
        <ele>83.452486</ele>
        <time>2020-08-26T11:47:38.832Z</time>
      </trkpt>
      <trkpt lat="69.63894" lon="18.43247">
        <ele>83.902697</ele>
        <time>2020-08-26T11:47:43.823Z</time>
      </trkpt>
      <trkpt lat="69.63887" lon="18.43269">
        <ele>84.331644</ele>
        <time>2020-08-26T11:47:48.829Z</time>
      </trkpt>
      <trkpt lat="69.63881" lon="18.43293">
        <ele>84.762373</ele>
        <time>2020-08-26T11:47:53.837Z</time>
      </trkpt>
      <trkpt lat="69.63874" lon="18.43315">
        <ele>85.194082</ele>
        <time>2020-08-26T11:47:58.835Z</time>
      </trkpt>
      <trkpt lat="69.63867" lon="18.43337">
        <ele>85.615662</ele>
        <time>2020-08-26T11:48:03.831Z</time>
      </trkpt>
      <trkpt lat="69.6386" lon="18.43358">
        <ele>86.02154</ele>
        <time>2020-08-26T11:48:08.862Z</time>
      </trkpt>
      <trkpt lat="69.63853" lon="18.43383">
        <ele>86.483943</ele>
        <time>2020-08-26T11:48:13.853Z</time>
      </trkpt>
      <trkpt lat="69.63847" lon="18.43406">
        <ele>86.889568</ele>
        <time>2020-08-26T11:48:17.875Z</time>
      </trkpt>
      <trkpt lat="69.63841" lon="18.43427">
        <ele>87.286374</ele>
        <time>2020-08-26T11:48:21.835Z</time>
      </trkpt>
      <trkpt lat="69.63833" lon="18.43448">
        <ele>87.717284</ele>
        <time>2020-08-26T11:48:25.829Z</time>
      </trkpt>
      <trkpt lat="69.63827" lon="18.43469">
        <ele>88.174768</ele>
        <time>2020-08-26T11:48:29.855Z</time>
      </trkpt>
      <trkpt lat="69.63819" lon="18.4349">
        <ele>89.093503</ele>
        <time>2020-08-26T11:48:34.832Z</time>
      </trkpt>
      <trkpt lat="69.63813" lon="18.43509">
        <ele>89.910101</ele>
        <time>2020-08-26T11:48:39.861Z</time>
      </trkpt>
      <trkpt lat="69.63805" lon="18.4353">
        <ele>90.833169</ele>
        <time>2020-08-26T11:48:45.839Z</time>
      </trkpt>
      <trkpt lat="69.63798" lon="18.4355">
        <ele>91.726318</ele>
        <time>2020-08-26T11:48:51.825Z</time>
      </trkpt>
      <trkpt lat="69.63792" lon="18.43574">
        <ele>92.656127</ele>
        <time>2020-08-26T11:48:58.835Z</time>
      </trkpt>
      <trkpt lat="69.63784" lon="18.43593">
        <ele>93.554207</ele>
        <time>2020-08-26T11:49:04.850Z</time>
      </trkpt>
      <trkpt lat="69.63777" lon="18.43612">
        <ele>94.409438</ele>
        <time>2020-08-26T11:49:10.837Z</time>
      </trkpt>
      <trkpt lat="69.6377" lon="18.43634">
        <ele>95.289728</ele>
        <time>2020-08-26T11:49:17.832Z</time>
      </trkpt>
      <trkpt lat="69.63762" lon="18.43651">
        <ele>96.174278</ele>
        <time>2020-08-26T11:49:24.829Z</time>
      </trkpt>
      <trkpt lat="69.63756" lon="18.43671">
        <ele>96.986821</ele>
        <time>2020-08-26T11:49:30.840Z</time>
      </trkpt>
      <trkpt lat="69.63749" lon="18.43686">
        <ele>97.790883</ele>
        <time>2020-08-26T11:49:37.842Z</time>
      </trkpt>
      <trkpt lat="69.63742" lon="18.43704">
        <ele>98.624839</ele>
        <time>2020-08-26T11:49:44.849Z</time>
      </trkpt>
      <trkpt lat="69.63734" lon="18.4372">
        <ele>99.489842</ele>
        <time>2020-08-26T11:49:52.831Z</time>
      </trkpt>
      <trkpt lat="69.63726" lon="18.43739">
        <ele>100.383433</ele>
        <time>2020-08-26T11:49:59.861Z</time>
      </trkpt>
      <trkpt lat="69.63719" lon="18.43759">
        <ele>101.268433</ele>
        <time>2020-08-26T11:50:05.842Z</time>
      </trkpt>
      <trkpt lat="69.63714" lon="18.43782">
        <ele>102.1036</ele>
        <time>2020-08-26T11:50:11.843Z</time>
      </trkpt>
      <trkpt lat="69.63707" lon="18.438">
        <ele>102.964088</ele>
        <time>2020-08-26T11:50:19.883Z</time>
      </trkpt>
      <trkpt lat="69.637" lon="18.43821">
        <ele>103.810435</ele>
        <time>2020-08-26T11:50:25.838Z</time>
      </trkpt>
      <trkpt lat="69.63695" lon="18.43847">
        <ele>104.463201</ele>
        <time>2020-08-26T11:50:32.835Z</time>
      </trkpt>
      <trkpt lat="69.6369" lon="18.4387">
        <ele>105.005791</ele>
        <time>2020-08-26T11:50:38.837Z</time>
      </trkpt>
      <trkpt lat="69.63685" lon="18.43892">
        <ele>105.528353</ele>
        <time>2020-08-26T11:50:44.855Z</time>
      </trkpt>
      <trkpt lat="69.6368" lon="18.43916">
        <ele>106.065927</ele>
        <time>2020-08-26T11:50:51.840Z</time>
      </trkpt>
      <trkpt lat="69.63676" lon="18.43939">
        <ele>106.580224</ele>
        <time>2020-08-26T11:50:57.837Z</time>
      </trkpt>
      <trkpt lat="69.63671" lon="18.43963">
        <ele>107.103157</ele>
        <time>2020-08-26T11:51:03.841Z</time>
      </trkpt>
      <trkpt lat="69.63667" lon="18.43988">
        <ele>107.635741</ele>
        <time>2020-08-26T11:51:10.838Z</time>
      </trkpt>
      <trkpt lat="69.63664" lon="18.44013">
        <ele>108.17417</ele>
        <time>2020-08-26T11:51:17.823Z</time>
      </trkpt>
      <trkpt lat="69.6366" lon="18.44039">
        <ele>108.710113</ele>
        <time>2020-08-26T11:51:23.832Z</time>
      </trkpt>
      <trkpt lat="69.63657" lon="18.44067">
        <ele>109.277409</ele>
        <time>2020-08-26T11:51:29.836Z</time>
      </trkpt>
      <trkpt lat="69.63656" lon="18.44095">
        <ele>109.822458</ele>
        <time>2020-08-26T11:51:35.837Z</time>
      </trkpt>
      <trkpt lat="69.63654" lon="18.44124">
        <ele>110.415363</ele>
        <time>2020-08-26T11:51:41.839Z</time>
      </trkpt>
      <trkpt lat="69.63651" lon="18.44152">
        <ele>110.984805</ele>
        <time>2020-08-26T11:51:47.831Z</time>
      </trkpt>
      <trkpt lat="69.63648" lon="18.44183">
        <ele>111.601369</ele>
        <time>2020-08-26T11:51:52.850Z</time>
      </trkpt>
      <trkpt lat="69.63646" lon="18.44212">
        <ele>112.175178</ele>
        <time>2020-08-26T11:51:56.836Z</time>
      </trkpt>
      <trkpt lat="69.63643" lon="18.44239">
        <ele>112.724572</ele>
        <time>2020-08-26T11:52:00.830Z</time>
      </trkpt>
      <trkpt lat="69.63639" lon="18.44266">
        <ele>113.293878</ele>
        <time>2020-08-26T11:52:04.851Z</time>
      </trkpt>
      <trkpt lat="69.63636" lon="18.44296">
        <ele>113.900169</ele>
        <time>2020-08-26T11:52:08.832Z</time>
      </trkpt>
      <trkpt lat="69.63634" lon="18.44326">
        <ele>114.187363</ele>
        <time>2020-08-26T11:52:12.839Z</time>
      </trkpt>
      <trkpt lat="69.63631" lon="18.44356">
        <ele>114.32757</ele>
        <time>2020-08-26T11:52:16.872Z</time>
      </trkpt>
      <trkpt lat="69.63628" lon="18.44388">
        <ele>114.476068</ele>
        <time>2020-08-26T11:52:20.855Z</time>
      </trkpt>
      <trkpt lat="69.63625" lon="18.44418">
        <ele>114.618762</ele>
        <time>2020-08-26T11:52:24.836Z</time>
      </trkpt>
      <trkpt lat="69.63622" lon="18.44449">
        <ele>114.761527</ele>
        <time>2020-08-26T11:52:28.852Z</time>
      </trkpt>
      <trkpt lat="69.63619" lon="18.44479">
        <ele>114.900429</ele>
        <time>2020-08-26T11:52:32.823Z</time>
      </trkpt>
      <trkpt lat="69.63617" lon="18.44506">
        <ele>115.027138</ele>
        <time>2020-08-26T11:52:36.869Z</time>
      </trkpt>
      <trkpt lat="69.63616" lon="18.44532">
        <ele>115.143611</ele>
        <time>2020-08-26T11:52:41.834Z</time>
      </trkpt>
      <trkpt lat="69.63617" lon="18.44561">
        <ele>115.274115</ele>
        <time>2020-08-26T11:52:46.828Z</time>
      </trkpt>
      <trkpt lat="69.63617" lon="18.44591">
        <ele>115.406342</ele>
        <time>2020-08-26T11:52:52.845Z</time>
      </trkpt>
      <trkpt lat="69.63617" lon="18.44621">
        <ele>115.541912</ele>
        <time>2020-08-26T11:52:58.854Z</time>
      </trkpt>
      <trkpt lat="69.6362" lon="18.4465">
        <ele>115.678107</ele>
        <time>2020-08-26T11:53:03.824Z</time>
      </trkpt>
      <trkpt lat="69.63623" lon="18.44681">
        <ele>115.820759</ele>
        <time>2020-08-26T11:53:07.853Z</time>
      </trkpt>
      <trkpt lat="69.63626" lon="18.44713">
        <ele>115.970215</ele>
        <time>2020-08-26T11:53:11.839Z</time>
      </trkpt>
      <trkpt lat="69.6363" lon="18.44738">
        <ele>116.094537</ele>
        <time>2020-08-26T11:53:14.839Z</time>
      </trkpt>
      <trkpt lat="69.63635" lon="18.44766">
        <ele>116.241341</ele>
        <time>2020-08-26T11:53:17.859Z</time>
      </trkpt>
      <trkpt lat="69.63642" lon="18.44796">
        <ele>116.401171</ele>
        <time>2020-08-26T11:53:20.839Z</time>
      </trkpt>
      <trkpt lat="69.63649" lon="18.44829">
        <ele>116.595148</ele>
        <time>2020-08-26T11:53:23.845Z</time>
      </trkpt>
      <trkpt lat="69.63657" lon="18.44859">
        <ele>116.780479</ele>
        <time>2020-08-26T11:53:26.852Z</time>
      </trkpt>
      <trkpt lat="69.63662" lon="18.44886">
        <ele>116.944402</ele>
        <time>2020-08-26T11:53:29.851Z</time>
      </trkpt>
      <trkpt lat="69.63668" lon="18.44913">
        <ele>117.101714</ele>
        <time>2020-08-26T11:53:32.865Z</time>
      </trkpt>
      <trkpt lat="69.63673" lon="18.44937">
        <ele>117.246571</ele>
        <time>2020-08-26T11:53:35.865Z</time>
      </trkpt>
      <trkpt lat="69.63679" lon="18.44962">
        <ele>117.397799</ele>
        <time>2020-08-26T11:53:38.866Z</time>
      </trkpt>
      <trkpt lat="69.63684" lon="18.44987">
        <ele>117.544277</ele>
        <time>2020-08-26T11:53:41.845Z</time>
      </trkpt>
      <trkpt lat="69.63689" lon="18.45009">
        <ele>117.676685</ele>
        <time>2020-08-26T11:53:44.875Z</time>
      </trkpt>
      <trkpt lat="69.63694" lon="18.45037">
        <ele>117.839968</ele>
        <time>2020-08-26T11:53:48.823Z</time>
      </trkpt>
      <trkpt lat="69.637" lon="18.45057">
        <ele>117.975497</ele>
        <time>2020-08-26T11:53:51.846Z</time>
      </trkpt>
      <trkpt lat="69.63706" lon="18.45079">
        <ele>118.110545</ele>
        <time>2020-08-26T11:53:54.854Z</time>
      </trkpt>
      <trkpt lat="69.63711" lon="18.45101">
        <ele>118.248405</ele>
        <time>2020-08-26T11:53:57.868Z</time>
      </trkpt>
      <trkpt lat="69.63717" lon="18.45124">
        <ele>118.39214</ele>
        <time>2020-08-26T11:54:00.842Z</time>
      </trkpt>
      <trkpt lat="69.63722" lon="18.45147">
        <ele>118.527113</ele>
        <time>2020-08-26T11:54:03.835Z</time>
      </trkpt>
      <trkpt lat="69.63727" lon="18.45173">
        <ele>118.683246</ele>
        <time>2020-08-26T11:54:07.845Z</time>
      </trkpt>
      <trkpt lat="69.63733" lon="18.45202">
        <ele>118.852152</ele>
        <time>2020-08-26T11:54:11.851Z</time>
      </trkpt>
      <trkpt lat="69.63738" lon="18.45226">
        <ele>118.991818</ele>
        <time>2020-08-26T11:54:14.840Z</time>
      </trkpt>
      <trkpt lat="69.63743" lon="18.4525">
        <ele>119.245395</ele>
        <time>2020-08-26T11:54:17.832Z</time>
      </trkpt>
      <trkpt lat="69.63748" lon="18.45275">
        <ele>119.561321</ele>
        <time>2020-08-26T11:54:20.832Z</time>
      </trkpt>
      <trkpt lat="69.63754" lon="18.45299">
        <ele>119.870941</ele>
        <time>2020-08-26T11:54:23.849Z</time>
      </trkpt>
      <trkpt lat="69.63761" lon="18.45327">
        <ele>120.227917</ele>
        <time>2020-08-26T11:54:27.833Z</time>
      </trkpt>
      <trkpt lat="69.63765" lon="18.45349">
        <ele>120.50391</ele>
        <time>2020-08-26T11:54:30.878Z</time>
      </trkpt>
      <trkpt lat="69.63772" lon="18.45378">
        <ele>120.868938</ele>
        <time>2020-08-26T11:54:34.836Z</time>
      </trkpt>
      <trkpt lat="69.63776" lon="18.45402">
        <ele>121.152359</ele>
        <time>2020-08-26T11:54:37.862Z</time>
      </trkpt>
      <trkpt lat="69.63781" lon="18.45425">
        <ele>121.438141</ele>
        <time>2020-08-26T11:54:40.849Z</time>
      </trkpt>
      <trkpt lat="69.63786" lon="18.45446">
        <ele>121.71379</ele>
        <time>2020-08-26T11:54:43.838Z</time>
      </trkpt>
      <trkpt lat="69.63791" lon="18.45472">
        <ele>122.033959</ele>
        <time>2020-08-26T11:54:47.830Z</time>
      </trkpt>
      <trkpt lat="69.63797" lon="18.45497">
        <ele>122.362873</ele>
        <time>2020-08-26T11:54:51.831Z</time>
      </trkpt>
      <trkpt lat="69.63802" lon="18.45519">
        <ele>122.640472</ele>
        <time>2020-08-26T11:54:54.859Z</time>
      </trkpt>
      <trkpt lat="69.63807" lon="18.45545">
        <ele>122.956651</ele>
        <time>2020-08-26T11:54:57.840Z</time>
      </trkpt>
      <trkpt lat="69.63813" lon="18.45567">
        <ele>123.239163</ele>
        <time>2020-08-26T11:55:00.828Z</time>
      </trkpt>
      <trkpt lat="69.63818" lon="18.45589">
        <ele>123.529727</ele>
        <time>2020-08-26T11:55:03.850Z</time>
      </trkpt>
      <trkpt lat="69.63824" lon="18.45617">
        <ele>123.881735</ele>
        <time>2020-08-26T11:55:07.836Z</time>
      </trkpt>
      <trkpt lat="69.6383" lon="18.45646">
        <ele>124.247673</ele>
        <time>2020-08-26T11:55:11.854Z</time>
      </trkpt>
      <trkpt lat="69.63836" lon="18.45667">
        <ele>124.52324</ele>
        <time>2020-08-26T11:55:14.841Z</time>
      </trkpt>
      <trkpt lat="69.63841" lon="18.45689">
        <ele>124.673333</ele>
        <time>2020-08-26T11:55:17.849Z</time>
      </trkpt>
      <trkpt lat="69.63847" lon="18.45717">
        <ele>124.853616</ele>
        <time>2020-08-26T11:55:21.863Z</time>
      </trkpt>
      <trkpt lat="69.63852" lon="18.45739">
        <ele>124.992024</ele>
        <time>2020-08-26T11:55:24.837Z</time>
      </trkpt>
      <trkpt lat="69.63857" lon="18.45762">
        <ele>125.134622</ele>
        <time>2020-08-26T11:55:27.873Z</time>
      </trkpt>
      <trkpt lat="69.63863" lon="18.45785">
        <ele>125.283476</ele>
        <time>2020-08-26T11:55:30.851Z</time>
      </trkpt>
      <trkpt lat="69.63867" lon="18.4581">
        <ele>125.431644</ele>
        <time>2020-08-26T11:55:33.839Z</time>
      </trkpt>
      <trkpt lat="69.63873" lon="18.45838">
        <ele>125.610314</ele>
        <time>2020-08-26T11:55:37.858Z</time>
      </trkpt>
      <trkpt lat="69.63879" lon="18.45861">
        <ele>125.757721</ele>
        <time>2020-08-26T11:55:40.830Z</time>
      </trkpt>
      <trkpt lat="69.63884" lon="18.45891">
        <ele>125.93606</ele>
        <time>2020-08-26T11:55:44.840Z</time>
      </trkpt>
      <trkpt lat="69.6389" lon="18.45919">
        <ele>126.106419</ele>
        <time>2020-08-26T11:55:48.848Z</time>
      </trkpt>
      <trkpt lat="69.63896" lon="18.45942">
        <ele>126.264026</ele>
        <time>2020-08-26T11:55:52.864Z</time>
      </trkpt>
      <trkpt lat="69.63903" lon="18.45966">
        <ele>126.430808</ele>
        <time>2020-08-26T11:55:56.830Z</time>
      </trkpt>
      <trkpt lat="69.63909" lon="18.45995">
        <ele>126.610053</ele>
        <time>2020-08-26T11:56:00.876Z</time>
      </trkpt>
      <trkpt lat="69.63914" lon="18.4602">
        <ele>126.764334</ele>
        <time>2020-08-26T11:56:04.829Z</time>
      </trkpt>
      <trkpt lat="69.6392" lon="18.46045">
        <ele>126.920909</ele>
        <time>2020-08-26T11:56:08.855Z</time>
      </trkpt>
      <trkpt lat="69.63925" lon="18.46073">
        <ele>127.091181</ele>
        <time>2020-08-26T11:56:12.871Z</time>
      </trkpt>
      <trkpt lat="69.63932" lon="18.46098">
        <ele>127.25558</ele>
        <time>2020-08-26T11:56:16.860Z</time>
      </trkpt>
      <trkpt lat="69.63937" lon="18.46127">
        <ele>127.230221</ele>
        <time>2020-08-26T11:56:20.871Z</time>
      </trkpt>
      <trkpt lat="69.63943" lon="18.46155">
        <ele>127.156401</ele>
        <time>2020-08-26T11:56:24.828Z</time>
      </trkpt>
      <trkpt lat="69.63949" lon="18.46182">
        <ele>127.086097</ele>
        <time>2020-08-26T11:56:28.842Z</time>
      </trkpt>
      <trkpt lat="69.63954" lon="18.46208">
        <ele>127.01774</ele>
        <time>2020-08-26T11:56:33.836Z</time>
      </trkpt>
      <trkpt lat="69.63958" lon="18.46231">
        <ele>126.958562</ele>
        <time>2020-08-26T11:56:38.834Z</time>
      </trkpt>
      <trkpt lat="69.63963" lon="18.46258">
        <ele>126.890114</ele>
        <time>2020-08-26T11:56:44.848Z</time>
      </trkpt>
      <trkpt lat="69.63968" lon="18.46282">
        <ele>126.82617</ele>
        <time>2020-08-26T11:56:50.841Z</time>
      </trkpt>
      <trkpt lat="69.63973" lon="18.46308">
        <ele>126.757624</ele>
        <time>2020-08-26T11:56:57.828Z</time>
      </trkpt>
      <trkpt lat="69.63979" lon="18.4633">
        <ele>126.695426</ele>
        <time>2020-08-26T11:57:02.844Z</time>
      </trkpt>
      <trkpt lat="69.63984" lon="18.46352">
        <ele>126.633818</ele>
        <time>2020-08-26T11:57:07.850Z</time>
      </trkpt>
      <trkpt lat="69.63991" lon="18.46372">
        <ele>126.572631</ele>
        <time>2020-08-26T11:57:12.852Z</time>
      </trkpt>
      <trkpt lat="69.63998" lon="18.46394">
        <ele>126.504764</ele>
        <time>2020-08-26T11:57:17.872Z</time>
      </trkpt>
      <trkpt lat="69.64006" lon="18.46413">
        <ele>126.434043</ele>
        <time>2020-08-26T11:57:22.855Z</time>
      </trkpt>
      <trkpt lat="69.64014" lon="18.46434">
        <ele>126.363684</ele>
        <time>2020-08-26T11:57:27.851Z</time>
      </trkpt>
      <trkpt lat="69.64024" lon="18.46453">
        <ele>126.284408</ele>
        <time>2020-08-26T11:57:31.870Z</time>
      </trkpt>
      <trkpt lat="69.64034" lon="18.4647">
        <ele>126.212089</ele>
        <time>2020-08-26T11:57:34.836Z</time>
      </trkpt>
      <trkpt lat="69.64045" lon="18.46485">
        <ele>126.131326</ele>
        <time>2020-08-26T11:57:37.847Z</time>
      </trkpt>
      <trkpt lat="69.64057" lon="18.46502">
        <ele>125.469301</ele>
        <time>2020-08-26T11:57:40.852Z</time>
      </trkpt>
      <trkpt lat="69.64069" lon="18.46518">
        <ele>124.691797</ele>
        <time>2020-08-26T11:57:43.839Z</time>
      </trkpt>
      <trkpt lat="69.64081" lon="18.46535">
        <ele>123.894759</ele>
        <time>2020-08-26T11:57:46.832Z</time>
      </trkpt>
      <trkpt lat="69.6409" lon="18.46548">
        <ele>123.309612</ele>
        <time>2020-08-26T11:57:48.852Z</time>
      </trkpt>
      <trkpt lat="69.64099" lon="18.46562">
        <ele>122.670195</ele>
        <time>2020-08-26T11:57:50.833Z</time>
      </trkpt>
      <trkpt lat="69.64109" lon="18.46577">
        <ele>121.996654</ele>
        <time>2020-08-26T11:57:52.855Z</time>
      </trkpt>
      <trkpt lat="69.6412" lon="18.46593">
        <ele>121.276875</ele>
        <time>2020-08-26T11:57:54.838Z</time>
      </trkpt>
      <trkpt lat="69.64132" lon="18.4661">
        <ele>120.499392</ele>
        <time>2020-08-26T11:57:56.855Z</time>
      </trkpt>
      <trkpt lat="69.64145" lon="18.46627">
        <ele>119.664313</ele>
        <time>2020-08-26T11:57:58.863Z</time>
      </trkpt>
      <trkpt lat="69.64157" lon="18.46644">
        <ele>118.843519</ele>
        <time>2020-08-26T11:58:00.838Z</time>
      </trkpt>
      <trkpt lat="69.64171" lon="18.46661">
        <ele>117.968561</ele>
        <time>2020-08-26T11:58:02.882Z</time>
      </trkpt>
      <trkpt lat="69.64184" lon="18.46679">
        <ele>117.099716</ele>
        <time>2020-08-26T11:58:04.859Z</time>
      </trkpt>
      <trkpt lat="69.64198" lon="18.46699">
        <ele>116.192502</ele>
        <time>2020-08-26T11:58:06.837Z</time>
      </trkpt>
      <trkpt lat="69.64212" lon="18.4672">
        <ele>115.74303</ele>
        <time>2020-08-26T11:58:08.849Z</time>
      </trkpt>
      <trkpt lat="69.64225" lon="18.46739">
        <ele>116.895742</ele>
        <time>2020-08-26T11:58:10.843Z</time>
      </trkpt>
      <trkpt lat="69.64238" lon="18.46758">
        <ele>117.989589</ele>
        <time>2020-08-26T11:58:12.846Z</time>
      </trkpt>
      <trkpt lat="69.6425" lon="18.46775">
        <ele>118.987829</ele>
        <time>2020-08-26T11:58:14.849Z</time>
      </trkpt>
      <trkpt lat="69.64261" lon="18.46791">
        <ele>119.945193</ele>
        <time>2020-08-26T11:58:16.835Z</time>
      </trkpt>
      <trkpt lat="69.64272" lon="18.46807">
        <ele>120.831173</ele>
        <time>2020-08-26T11:58:18.866Z</time>
      </trkpt>
      <trkpt lat="69.64282" lon="18.46821">
        <ele>121.675882</ele>
        <time>2020-08-26T11:58:20.864Z</time>
      </trkpt>
      <trkpt lat="69.64292" lon="18.46835">
        <ele>122.522946</ele>
        <time>2020-08-26T11:58:22.825Z</time>
      </trkpt>
      <trkpt lat="69.64302" lon="18.46849">
        <ele>123.360742</ele>
        <time>2020-08-26T11:58:24.839Z</time>
      </trkpt>
      <trkpt lat="69.64311" lon="18.46861">
        <ele>124.127</ele>
        <time>2020-08-26T11:58:26.834Z</time>
      </trkpt>
      <trkpt lat="69.64322" lon="18.46878">
        <ele>125.054167</ele>
        <time>2020-08-26T11:58:29.829Z</time>
      </trkpt>
      <trkpt lat="69.6433" lon="18.46891">
        <ele>125.800055</ele>
        <time>2020-08-26T11:58:32.852Z</time>
      </trkpt>
      <trkpt lat="69.64339" lon="18.46902">
        <ele>126.512656</ele>
        <time>2020-08-26T11:58:35.863Z</time>
      </trkpt>
      <trkpt lat="69.64348" lon="18.46914">
        <ele>127.242455</ele>
        <time>2020-08-26T11:58:38.828Z</time>
      </trkpt>
      <trkpt lat="69.64356" lon="18.46925">
        <ele>127.92804</ele>
        <time>2020-08-26T11:58:41.876Z</time>
      </trkpt>
      <trkpt lat="69.64366" lon="18.46938">
        <ele>128.791634</ele>
        <time>2020-08-26T11:58:45.851Z</time>
      </trkpt>
      <trkpt lat="69.64377" lon="18.46952">
        <ele>129.655816</ele>
        <time>2020-08-26T11:58:49.842Z</time>
      </trkpt>
      <trkpt lat="69.64386" lon="18.46963">
        <ele>130.367608</ele>
        <time>2020-08-26T11:58:52.854Z</time>
      </trkpt>
      <trkpt lat="69.64395" lon="18.46973">
        <ele>131.081555</ele>
        <time>2020-08-26T11:58:55.849Z</time>
      </trkpt>
      <trkpt lat="69.64404" lon="18.46983">
        <ele>131.783197</ele>
        <time>2020-08-26T11:58:58.831Z</time>
      </trkpt>
      <trkpt lat="69.64414" lon="18.46999">
        <ele>132.638163</ele>
        <time>2020-08-26T11:59:02.845Z</time>
      </trkpt>
      <trkpt lat="69.64423" lon="18.47009">
        <ele>133.318394</ele>
        <time>2020-08-26T11:59:05.838Z</time>
      </trkpt>
      <trkpt lat="69.64432" lon="18.47025">
        <ele>134.145722</ele>
        <time>2020-08-26T11:59:09.845Z</time>
      </trkpt>
      <trkpt lat="69.64442" lon="18.47039">
        <ele>134.968214</ele>
        <time>2020-08-26T11:59:13.867Z</time>
      </trkpt>
      <trkpt lat="69.64451" lon="18.47054">
        <ele>135.708677</ele>
        <time>2020-08-26T11:59:17.832Z</time>
      </trkpt>
      <trkpt lat="69.64461" lon="18.47067">
        <ele>136.51561</ele>
        <time>2020-08-26T11:59:21.876Z</time>
      </trkpt>
      <trkpt lat="69.64469" lon="18.4708">
        <ele>137.223219</ele>
        <time>2020-08-26T11:59:24.838Z</time>
      </trkpt>
      <trkpt lat="69.64478" lon="18.47093">
        <ele>137.943354</ele>
        <time>2020-08-26T11:59:27.829Z</time>
      </trkpt>
      <trkpt lat="69.64487" lon="18.47105">
        <ele>138.663973</ele>
        <time>2020-08-26T11:59:30.890Z</time>
      </trkpt>
      <trkpt lat="69.64495" lon="18.47116">
        <ele>139.359151</ele>
        <time>2020-08-26T11:59:33.836Z</time>
      </trkpt>
      <trkpt lat="69.64505" lon="18.47127">
        <ele>140.10271</ele>
        <time>2020-08-26T11:59:36.853Z</time>
      </trkpt>
      <trkpt lat="69.64514" lon="18.47139">
        <ele>140.883482</ele>
        <time>2020-08-26T11:59:39.849Z</time>
      </trkpt>
      <trkpt lat="69.64524" lon="18.47151">
        <ele>141.644036</ele>
        <time>2020-08-26T11:59:42.842Z</time>
      </trkpt>
      <trkpt lat="69.64534" lon="18.47168">
        <ele>142.363143</ele>
        <time>2020-08-26T11:59:46.858Z</time>
      </trkpt>
      <trkpt lat="69.64542" lon="18.47185">
        <ele>142.453781</ele>
        <time>2020-08-26T11:59:49.848Z</time>
      </trkpt>
      <trkpt lat="69.64551" lon="18.47207">
        <ele>142.558798</ele>
        <time>2020-08-26T11:59:52.864Z</time>
      </trkpt>
      <trkpt lat="69.6456" lon="18.47231">
        <ele>142.669689</ele>
        <time>2020-08-26T11:59:55.834Z</time>
      </trkpt>
      <trkpt lat="69.64567" lon="18.47257">
        <ele>142.778159</ele>
        <time>2020-08-26T11:59:58.852Z</time>
      </trkpt>
      <trkpt lat="69.64574" lon="18.47286">
        <ele>142.887626</ele>
        <time>2020-08-26T12:00:01.830Z</time>
      </trkpt>
      <trkpt lat="69.64578" lon="18.47319">
        <ele>143.002002</ele>
        <time>2020-08-26T12:00:04.829Z</time>
      </trkpt>
      <trkpt lat="69.64583" lon="18.47352">
        <ele>143.113221</ele>
        <time>2020-08-26T12:00:07.866Z</time>
      </trkpt>
      <trkpt lat="69.64587" lon="18.47384">
        <ele>143.221667</ele>
        <time>2020-08-26T12:00:10.844Z</time>
      </trkpt>
      <trkpt lat="69.64589" lon="18.47413">
        <ele>143.316044</ele>
        <time>2020-08-26T12:00:13.821Z</time>
      </trkpt>
      <trkpt lat="69.64591" lon="18.47445">
        <ele>143.420067</ele>
        <time>2020-08-26T12:00:17.837Z</time>
      </trkpt>
      <trkpt lat="69.64595" lon="18.47473">
        <ele>143.515925</ele>
        <time>2020-08-26T12:00:22.846Z</time>
      </trkpt>
      <trkpt lat="69.646" lon="18.47498">
        <ele>143.60874</ele>
        <time>2020-08-26T12:00:27.837Z</time>
      </trkpt>
      <trkpt lat="69.64605" lon="18.47524">
        <ele>143.69896</ele>
        <time>2020-08-26T12:00:32.848Z</time>
      </trkpt>
      <trkpt lat="69.64613" lon="18.47544">
        <ele>143.798236</ele>
        <time>2020-08-26T12:00:37.835Z</time>
      </trkpt>
      <trkpt lat="69.64619" lon="18.47565">
        <ele>143.882834</ele>
        <time>2020-08-26T12:00:42.835Z</time>
      </trkpt>
      <trkpt lat="69.64624" lon="18.47587">
        <ele>143.969511</ele>
        <time>2020-08-26T12:00:48.838Z</time>
      </trkpt>
      <trkpt lat="69.64632" lon="18.47607">
        <ele>144.619981</ele>
        <time>2020-08-26T12:00:53.877Z</time>
      </trkpt>
      <trkpt lat="69.64639" lon="18.47627">
        <ele>145.448578</ele>
        <time>2020-08-26T12:00:59.834Z</time>
      </trkpt>
      <trkpt lat="69.64647" lon="18.47647">
        <ele>146.257004</ele>
        <time>2020-08-26T12:01:05.855Z</time>
      </trkpt>
      <trkpt lat="69.64654" lon="18.47665">
        <ele>146.980389</ele>
        <time>2020-08-26T12:01:11.850Z</time>
      </trkpt>
      <trkpt lat="69.64663" lon="18.47683">
        <ele>147.775152</ele>
        <time>2020-08-26T12:01:17.848Z</time>
      </trkpt>
      <trkpt lat="69.64668" lon="18.47704">
        <ele>148.496592</ele>
        <time>2020-08-26T12:01:23.834Z</time>
      </trkpt>
      <trkpt lat="69.64675" lon="18.47725">
        <ele>149.27444</ele>
        <time>2020-08-26T12:01:30.850Z</time>
      </trkpt>
      <trkpt lat="69.64681" lon="18.47746">
        <ele>149.977851</ele>
        <time>2020-08-26T12:01:37.878Z</time>
      </trkpt>
      <trkpt lat="69.64687" lon="18.47765">
        <ele>150.695263</ele>
        <time>2020-08-26T12:01:44.845Z</time>
      </trkpt>
      <trkpt lat="69.64693" lon="18.47788">
        <ele>151.475557</ele>
        <time>2020-08-26T12:01:51.853Z</time>
      </trkpt>
      <trkpt lat="69.647" lon="18.47809">
        <ele>152.213542</ele>
        <time>2020-08-26T12:01:58.883Z</time>
      </trkpt>
      <trkpt lat="69.64707" lon="18.47829">
        <ele>152.974992</ele>
        <time>2020-08-26T12:02:04.833Z</time>
      </trkpt>
      <trkpt lat="69.64715" lon="18.47844">
        <ele>153.733636</ele>
        <time>2020-08-26T12:02:10.836Z</time>
      </trkpt>
      <trkpt lat="69.6472" lon="18.47866">
        <ele>154.438412</ele>
        <time>2020-08-26T12:02:16.844Z</time>
      </trkpt>
      <trkpt lat="69.64728" lon="18.47885">
        <ele>155.239696</ele>
        <time>2020-08-26T12:02:22.843Z</time>
      </trkpt>
      <trkpt lat="69.64735" lon="18.47901">
        <ele>155.950215</ele>
        <time>2020-08-26T12:02:28.838Z</time>
      </trkpt>
      <trkpt lat="69.64742" lon="18.47923">
        <ele>156.777463</ele>
        <time>2020-08-26T12:02:35.838Z</time>
      </trkpt>
      <trkpt lat="69.64748" lon="18.47944">
        <ele>157.504458</ele>
        <time>2020-08-26T12:02:42.835Z</time>
      </trkpt>
      <trkpt lat="69.64756" lon="18.47965">
        <ele>158.252576</ele>
        <time>2020-08-26T12:02:50.855Z</time>
      </trkpt>
      <trkpt lat="69.64763" lon="18.47985">
        <ele>158.923732</ele>
        <time>2020-08-26T12:02:56.866Z</time>
      </trkpt>
      <trkpt lat="69.6477" lon="18.48004">
        <ele>159.590124</ele>
        <time>2020-08-26T12:03:02.827Z</time>
      </trkpt>
      <trkpt lat="69.64777" lon="18.48021">
        <ele>160.211408</ele>
        <time>2020-08-26T12:03:08.870Z</time>
      </trkpt>
      <trkpt lat="69.64784" lon="18.48042">
        <ele>160.876351</ele>
        <time>2020-08-26T12:03:15.849Z</time>
      </trkpt>
      <trkpt lat="69.64791" lon="18.48062">
        <ele>161.558859</ele>
        <time>2020-08-26T12:03:22.854Z</time>
      </trkpt>
      <trkpt lat="69.64798" lon="18.48082">
        <ele>162.182991</ele>
        <time>2020-08-26T12:03:28.871Z</time>
      </trkpt>
      <trkpt lat="69.64804" lon="18.48101">
        <ele>162.788734</ele>
        <time>2020-08-26T12:03:34.854Z</time>
      </trkpt>
      <trkpt lat="69.64809" lon="18.48123">
        <ele>163.43327</ele>
        <time>2020-08-26T12:03:40.834Z</time>
      </trkpt>
      <trkpt lat="69.64816" lon="18.48144">
        <ele>164.12441</ele>
        <time>2020-08-26T12:03:47.855Z</time>
      </trkpt>
      <trkpt lat="69.64823" lon="18.48163">
        <ele>164.758195</ele>
        <time>2020-08-26T12:03:53.839Z</time>
      </trkpt>
      <trkpt lat="69.6483" lon="18.48183">
        <ele>165.437409</ele>
        <time>2020-08-26T12:04:00.857Z</time>
      </trkpt>
      <trkpt lat="69.64837" lon="18.48203">
        <ele>166.06845</ele>
        <time>2020-08-26T12:04:06.845Z</time>
      </trkpt>
      <trkpt lat="69.64844" lon="18.48222">
        <ele>166.724934</ele>
        <time>2020-08-26T12:04:12.824Z</time>
      </trkpt>
      <trkpt lat="69.64851" lon="18.48241">
        <ele>167.353864</ele>
        <time>2020-08-26T12:04:18.851Z</time>
      </trkpt>
      <trkpt lat="69.64858" lon="18.48262">
        <ele>168.052482</ele>
        <time>2020-08-26T12:04:25.838Z</time>
      </trkpt>
      <trkpt lat="69.64864" lon="18.48285">
        <ele>168.73601</ele>
        <time>2020-08-26T12:04:32.837Z</time>
      </trkpt>
      <trkpt lat="69.64872" lon="18.48305">
        <ele>169.439659</ele>
        <time>2020-08-26T12:04:38.848Z</time>
      </trkpt>
      <trkpt lat="69.6488" lon="18.48324">
        <ele>170.130201</ele>
        <time>2020-08-26T12:04:44.860Z</time>
      </trkpt>
      <trkpt lat="69.64886" lon="18.48345">
        <ele>170.879706</ele>
        <time>2020-08-26T12:04:50.843Z</time>
      </trkpt>
      <trkpt lat="69.64893" lon="18.48367">
        <ele>171.68335</ele>
        <time>2020-08-26T12:04:57.850Z</time>
      </trkpt>
      <trkpt lat="69.64901" lon="18.48387">
        <ele>172.506213</ele>
        <time>2020-08-26T12:05:03.883Z</time>
      </trkpt>
      <trkpt lat="69.64908" lon="18.48409">
        <ele>173.329637</ele>
        <time>2020-08-26T12:05:09.853Z</time>
      </trkpt>
      <trkpt lat="69.64914" lon="18.48433">
        <ele>174.12645</ele>
        <time>2020-08-26T12:05:14.875Z</time>
      </trkpt>
      <trkpt lat="69.64919" lon="18.48455">
        <ele>174.832501</ele>
        <time>2020-08-26T12:05:19.825Z</time>
      </trkpt>
      <trkpt lat="69.64924" lon="18.48477">
        <ele>175.536131</ele>
        <time>2020-08-26T12:05:24.869Z</time>
      </trkpt>
      <trkpt lat="69.64929" lon="18.485">
        <ele>176.266741</ele>
        <time>2020-08-26T12:05:29.849Z</time>
      </trkpt>
      <trkpt lat="69.64933" lon="18.48527">
        <ele>177.067902</ele>
        <time>2020-08-26T12:05:35.834Z</time>
      </trkpt>
      <trkpt lat="69.64937" lon="18.48551">
        <ele>177.763128</ele>
        <time>2020-08-26T12:05:40.859Z</time>
      </trkpt>
      <trkpt lat="69.64942" lon="18.48577">
        <ele>178.562436</ele>
        <time>2020-08-26T12:05:46.899Z</time>
      </trkpt>
      <trkpt lat="69.64944" lon="18.48602">
        <ele>179.271798</ele>
        <time>2020-08-26T12:05:51.839Z</time>
      </trkpt>
      <trkpt lat="69.64946" lon="18.48629">
        <ele>179.994193</ele>
        <time>2020-08-26T12:05:56.845Z</time>
      </trkpt>
      <trkpt lat="69.64947" lon="18.48656">
        <ele>180.732567</ele>
        <time>2020-08-26T12:06:01.872Z</time>
      </trkpt>
      <trkpt lat="69.64948" lon="18.48683">
        <ele>181.467093</ele>
        <time>2020-08-26T12:06:06.853Z</time>
      </trkpt>
      <trkpt lat="69.6495" lon="18.48711">
        <ele>182.245095</ele>
        <time>2020-08-26T12:06:12.869Z</time>
      </trkpt>
      <trkpt lat="69.64951" lon="18.48741">
        <ele>183.056262</ele>
        <time>2020-08-26T12:06:18.841Z</time>
      </trkpt>
      <trkpt lat="69.64952" lon="18.4877">
        <ele>183.842461</ele>
        <time>2020-08-26T12:06:24.846Z</time>
      </trkpt>
      <trkpt lat="69.64953" lon="18.488">
        <ele>184.367043</ele>
        <time>2020-08-26T12:06:30.836Z</time>
      </trkpt>
      <trkpt lat="69.64953" lon="18.48831">
        <ele>184.848571</ele>
        <time>2020-08-26T12:06:36.865Z</time>
      </trkpt>
      <trkpt lat="69.64952" lon="18.48857">
        <ele>185.272844</ele>
        <time>2020-08-26T12:06:41.843Z</time>
      </trkpt>
      <trkpt lat="69.64953" lon="18.48888">
        <ele>185.767378</ele>
        <time>2020-08-26T12:06:46.840Z</time>
      </trkpt>
      <trkpt lat="69.64952" lon="18.48917">
        <ele>186.220494</ele>
        <time>2020-08-26T12:06:50.860Z</time>
      </trkpt>
      <trkpt lat="69.64952" lon="18.48946">
        <ele>186.689271</ele>
        <time>2020-08-26T12:06:54.831Z</time>
      </trkpt>
      <trkpt lat="69.64953" lon="18.48977">
        <ele>187.186991</ele>
        <time>2020-08-26T12:06:58.843Z</time>
      </trkpt>
      <trkpt lat="69.64952" lon="18.49008">
        <ele>187.677175</ele>
        <time>2020-08-26T12:07:02.865Z</time>
      </trkpt>
      <trkpt lat="69.64951" lon="18.49037">
        <ele>188.142188</ele>
        <time>2020-08-26T12:07:06.855Z</time>
      </trkpt>
      <trkpt lat="69.64951" lon="18.49063">
        <ele>188.563948</ele>
        <time>2020-08-26T12:07:10.843Z</time>
      </trkpt>
      <trkpt lat="69.6495" lon="18.49089">
        <ele>188.982546</ele>
        <time>2020-08-26T12:07:14.851Z</time>
      </trkpt>
      <trkpt lat="69.64949" lon="18.49116">
        <ele>189.400849</ele>
        <time>2020-08-26T12:07:18.854Z</time>
      </trkpt>
      <trkpt lat="69.6495" lon="18.49143">
        <ele>189.841056</ele>
        <time>2020-08-26T12:07:22.831Z</time>
      </trkpt>
      <trkpt lat="69.6495" lon="18.4917">
        <ele>190.263612</ele>
        <time>2020-08-26T12:07:26.830Z</time>
      </trkpt>
      <trkpt lat="69.6495" lon="18.49199">
        <ele>190.725946</ele>
        <time>2020-08-26T12:07:30.851Z</time>
      </trkpt>
      <trkpt lat="69.64951" lon="18.4923">
        <ele>191.231115</ele>
        <time>2020-08-26T12:07:35.859Z</time>
      </trkpt>
      <trkpt lat="69.64951" lon="18.49257">
        <ele>191.652077</ele>
        <time>2020-08-26T12:07:39.902Z</time>
      </trkpt>
      <trkpt lat="69.64953" lon="18.49283">
        <ele>192.072403</ele>
        <time>2020-08-26T12:07:43.859Z</time>
      </trkpt>
      <trkpt lat="69.64953" lon="18.4931">
        <ele>192.185256</ele>
        <time>2020-08-26T12:07:47.878Z</time>
      </trkpt>
      <trkpt lat="69.64955" lon="18.49338">
        <ele>192.167095</ele>
        <time>2020-08-26T12:07:51.840Z</time>
      </trkpt>
      <trkpt lat="69.64956" lon="18.4937">
        <ele>192.146548</ele>
        <time>2020-08-26T12:07:55.921Z</time>
      </trkpt>
      <trkpt lat="69.64957" lon="18.49397">
        <ele>192.128642</ele>
        <time>2020-08-26T12:07:58.853Z</time>
      </trkpt>
      <trkpt lat="69.64959" lon="18.49431">
        <ele>192.106932</ele>
        <time>2020-08-26T12:08:01.851Z</time>
      </trkpt>
      <trkpt lat="69.6496" lon="18.49466">
        <ele>192.084452</ele>
        <time>2020-08-26T12:08:04.834Z</time>
      </trkpt>
      <trkpt lat="69.64962" lon="18.49502">
        <ele>192.060931</ele>
        <time>2020-08-26T12:08:07.839Z</time>
      </trkpt>
      <trkpt lat="69.64965" lon="18.49539">
        <ele>192.03649</ele>
        <time>2020-08-26T12:08:10.838Z</time>
      </trkpt>
      <trkpt lat="69.64968" lon="18.49574">
        <ele>192.013493</ele>
        <time>2020-08-26T12:08:13.832Z</time>
      </trkpt>
      <trkpt lat="69.6497" lon="18.49609">
        <ele>191.99074</ele>
        <time>2020-08-26T12:08:16.853Z</time>
      </trkpt>
      <trkpt lat="69.64972" lon="18.49645">
        <ele>191.96704</ele>
        <time>2020-08-26T12:08:19.857Z</time>
      </trkpt>
      <trkpt lat="69.64975" lon="18.49682">
        <ele>191.942959</ele>
        <time>2020-08-26T12:08:22.842Z</time>
      </trkpt>
      <trkpt lat="69.64977" lon="18.49719">
        <ele>191.919221</ele>
        <time>2020-08-26T12:08:25.845Z</time>
      </trkpt>
      <trkpt lat="69.64979" lon="18.49756">
        <ele>191.894979</ele>
        <time>2020-08-26T12:08:28.904Z</time>
      </trkpt>
      <trkpt lat="69.64982" lon="18.49794">
        <ele>191.870331</ele>
        <time>2020-08-26T12:08:31.840Z</time>
      </trkpt>
      <trkpt lat="69.64983" lon="18.4982">
        <ele>191.827023</ele>
        <time>2020-08-26T12:08:33.859Z</time>
      </trkpt>
      <trkpt lat="69.64985" lon="18.49846">
        <ele>191.772594</ele>
        <time>2020-08-26T12:08:35.899Z</time>
      </trkpt>
      <trkpt lat="69.64987" lon="18.49873">
        <ele>191.718476</ele>
        <time>2020-08-26T12:08:37.842Z</time>
      </trkpt>
      <trkpt lat="69.64989" lon="18.49901">
        <ele>191.66291</ele>
        <time>2020-08-26T12:08:39.876Z</time>
      </trkpt>
      <trkpt lat="69.64991" lon="18.49928">
        <ele>191.607935</ele>
        <time>2020-08-26T12:08:41.833Z</time>
      </trkpt>
      <trkpt lat="69.64992" lon="18.49955">
        <ele>191.553939</ele>
        <time>2020-08-26T12:08:43.834Z</time>
      </trkpt>
      <trkpt lat="69.64994" lon="18.49982">
        <ele>191.499747</ele>
        <time>2020-08-26T12:08:45.849Z</time>
      </trkpt>
      <trkpt lat="69.64996" lon="18.50008">
        <ele>191.445824</ele>
        <time>2020-08-26T12:08:47.870Z</time>
      </trkpt>
      <trkpt lat="69.64998" lon="18.50036">
        <ele>191.389646</ele>
        <time>2020-08-26T12:08:49.831Z</time>
      </trkpt>
      <trkpt lat="69.65" lon="18.50064">
        <ele>191.332217</ele>
        <time>2020-08-26T12:08:51.841Z</time>
      </trkpt>
      <trkpt lat="69.65001" lon="18.50093">
        <ele>191.27421</ele>
        <time>2020-08-26T12:08:53.858Z</time>
      </trkpt>
      <trkpt lat="69.65003" lon="18.50121">
        <ele>191.217182</ele>
        <time>2020-08-26T12:08:55.835Z</time>
      </trkpt>
      <trkpt lat="69.65005" lon="18.5015">
        <ele>191.158892</ele>
        <time>2020-08-26T12:08:57.851Z</time>
      </trkpt>
      <trkpt lat="69.65007" lon="18.50178">
        <ele>191.101373</ele>
        <time>2020-08-26T12:08:59.867Z</time>
      </trkpt>
      <trkpt lat="69.65009" lon="18.50206">
        <ele>191.045615</ele>
        <time>2020-08-26T12:09:01.850Z</time>
      </trkpt>
      <trkpt lat="69.6501" lon="18.50234">
        <ele>190.989359</ele>
        <time>2020-08-26T12:09:03.844Z</time>
      </trkpt>
      <trkpt lat="69.65012" lon="18.50263">
        <ele>190.932353</ele>
        <time>2020-08-26T12:09:05.835Z</time>
      </trkpt>
      <trkpt lat="69.65013" lon="18.50291">
        <ele>190.874832</ele>
        <time>2020-08-26T12:09:07.825Z</time>
      </trkpt>
      <trkpt lat="69.65015" lon="18.50319">
        <ele>190.820289</ele>
        <time>2020-08-26T12:09:09.853Z</time>
      </trkpt>
      <trkpt lat="69.65017" lon="18.50347">
        <ele>190.765672</ele>
        <time>2020-08-26T12:09:11.832Z</time>
      </trkpt>
      <trkpt lat="69.65019" lon="18.50374">
        <ele>190.712798</ele>
        <time>2020-08-26T12:09:13.846Z</time>
      </trkpt>
      <trkpt lat="69.65021" lon="18.504">
        <ele>190.661709</ele>
        <time>2020-08-26T12:09:15.848Z</time>
      </trkpt>
      <trkpt lat="69.65023" lon="18.50439">
        <ele>190.587991</ele>
        <time>2020-08-26T12:09:18.847Z</time>
      </trkpt>
      <trkpt lat="69.65024" lon="18.50464">
        <ele>190.538626</ele>
        <time>2020-08-26T12:09:20.850Z</time>
      </trkpt>
      <trkpt lat="69.65026" lon="18.50491">
        <ele>190.48776</ele>
        <time>2020-08-26T12:09:22.841Z</time>
      </trkpt>
      <trkpt lat="69.65027" lon="18.50518">
        <ele>190.436143</ele>
        <time>2020-08-26T12:09:24.846Z</time>
      </trkpt>
      <trkpt lat="69.65029" lon="18.50554">
        <ele>190.367607</ele>
        <time>2020-08-26T12:09:27.840Z</time>
      </trkpt>
      <trkpt lat="69.65031" lon="18.5059">
        <ele>190.298212</ele>
        <time>2020-08-26T12:09:30.844Z</time>
      </trkpt>
      <trkpt lat="69.65032" lon="18.50624">
        <ele>190.232486</ele>
        <time>2020-08-26T12:09:33.839Z</time>
      </trkpt>
      <trkpt lat="69.65034" lon="18.50659">
        <ele>190.165273</ele>
        <time>2020-08-26T12:09:36.850Z</time>
      </trkpt>
      <trkpt lat="69.65036" lon="18.50695">
        <ele>190.097112</ele>
        <time>2020-08-26T12:09:39.833Z</time>
      </trkpt>
      <trkpt lat="69.65039" lon="18.50733">
        <ele>190.023821</ele>
        <time>2020-08-26T12:09:42.835Z</time>
      </trkpt>
      <trkpt lat="69.6504" lon="18.50759">
        <ele>189.97343</ele>
        <time>2020-08-26T12:09:44.880Z</time>
      </trkpt>
      <trkpt lat="69.65042" lon="18.50785">
        <ele>189.922763</ele>
        <time>2020-08-26T12:09:46.828Z</time>
      </trkpt>
      <trkpt lat="69.65044" lon="18.50812">
        <ele>189.871119</ele>
        <time>2020-08-26T12:09:48.881Z</time>
      </trkpt>
      <trkpt lat="69.65046" lon="18.50838">
        <ele>189.873993</ele>
        <time>2020-08-26T12:09:50.868Z</time>
      </trkpt>
      <trkpt lat="69.65047" lon="18.50864">
        <ele>189.896849</ele>
        <time>2020-08-26T12:09:52.849Z</time>
      </trkpt>
      <trkpt lat="69.6505" lon="18.50901">
        <ele>189.929671</ele>
        <time>2020-08-26T12:09:55.909Z</time>
      </trkpt>
      <trkpt lat="69.65051" lon="18.50937">
        <ele>189.960839</ele>
        <time>2020-08-26T12:09:58.837Z</time>
      </trkpt>
      <trkpt lat="69.65054" lon="18.50973">
        <ele>189.992574</ele>
        <time>2020-08-26T12:10:01.835Z</time>
      </trkpt>
      <trkpt lat="69.65056" lon="18.51009">
        <ele>190.024709</ele>
        <time>2020-08-26T12:10:04.833Z</time>
      </trkpt>
      <trkpt lat="69.65058" lon="18.51045">
        <ele>190.055487</ele>
        <time>2020-08-26T12:10:07.839Z</time>
      </trkpt>
      <trkpt lat="69.65061" lon="18.5108">
        <ele>190.086472</ele>
        <time>2020-08-26T12:10:10.837Z</time>
      </trkpt>
      <trkpt lat="69.65063" lon="18.51115">
        <ele>190.117307</ele>
        <time>2020-08-26T12:10:13.827Z</time>
      </trkpt>
      <trkpt lat="69.65066" lon="18.51145">
        <ele>190.144002</ele>
        <time>2020-08-26T12:10:16.827Z</time>
      </trkpt>
      <trkpt lat="69.65067" lon="18.51174">
        <ele>190.169114</ele>
        <time>2020-08-26T12:10:19.862Z</time>
      </trkpt>
      <trkpt lat="69.65069" lon="18.51205">
        <ele>190.196092</ele>
        <time>2020-08-26T12:10:22.833Z</time>
      </trkpt>
      <trkpt lat="69.6507" lon="18.51238">
        <ele>190.224713</ele>
        <time>2020-08-26T12:10:25.832Z</time>
      </trkpt>
      <trkpt lat="69.6507" lon="18.51275">
        <ele>190.256792</ele>
        <time>2020-08-26T12:10:28.884Z</time>
      </trkpt>
      <trkpt lat="69.6507" lon="18.51301">
        <ele>190.279355</ele>
        <time>2020-08-26T12:10:30.867Z</time>
      </trkpt>
      <trkpt lat="69.65069" lon="18.51327">
        <ele>190.301754</ele>
        <time>2020-08-26T12:10:32.840Z</time>
      </trkpt>
      <trkpt lat="69.65069" lon="18.51353">
        <ele>190.435457</ele>
        <time>2020-08-26T12:10:34.889Z</time>
      </trkpt>
      <trkpt lat="69.65069" lon="18.51382">
        <ele>190.594043</ele>
        <time>2020-08-26T12:10:36.856Z</time>
      </trkpt>
      <trkpt lat="69.65068" lon="18.51413">
        <ele>190.760445</ele>
        <time>2020-08-26T12:10:38.849Z</time>
      </trkpt>
      <trkpt lat="69.65067" lon="18.51443">
        <ele>190.929017</ele>
        <time>2020-08-26T12:10:40.847Z</time>
      </trkpt>
      <trkpt lat="69.65066" lon="18.51472">
        <ele>191.08473</ele>
        <time>2020-08-26T12:10:42.847Z</time>
      </trkpt>
      <trkpt lat="69.65065" lon="18.51499">
        <ele>191.233697</ele>
        <time>2020-08-26T12:10:44.861Z</time>
      </trkpt>
      <trkpt lat="69.65064" lon="18.51525">
        <ele>191.37858</ele>
        <time>2020-08-26T12:10:46.883Z</time>
      </trkpt>
      <trkpt lat="69.65062" lon="18.51562">
        <ele>191.578972</ele>
        <time>2020-08-26T12:10:49.893Z</time>
      </trkpt>
      <trkpt lat="69.65061" lon="18.51594">
        <ele>191.757651</ele>
        <time>2020-08-26T12:10:52.856Z</time>
      </trkpt>
      <trkpt lat="69.6506" lon="18.51625">
        <ele>191.926927</ele>
        <time>2020-08-26T12:10:55.868Z</time>
      </trkpt>
      <trkpt lat="69.65058" lon="18.51654">
        <ele>192.087301</ele>
        <time>2020-08-26T12:10:58.849Z</time>
      </trkpt>
      <trkpt lat="69.65057" lon="18.51682">
        <ele>192.243755</ele>
        <time>2020-08-26T12:11:01.837Z</time>
      </trkpt>
      <trkpt lat="69.65056" lon="18.51711">
        <ele>192.400207</ele>
        <time>2020-08-26T12:11:04.846Z</time>
      </trkpt>
      <trkpt lat="69.65056" lon="18.51738">
        <ele>192.548902</ele>
        <time>2020-08-26T12:11:07.837Z</time>
      </trkpt>
      <trkpt lat="69.65054" lon="18.51765">
        <ele>192.698654</ele>
        <time>2020-08-26T12:11:10.839Z</time>
      </trkpt>
      <trkpt lat="69.65053" lon="18.51792">
        <ele>192.847214</ele>
        <time>2020-08-26T12:11:13.883Z</time>
      </trkpt>
      <trkpt lat="69.65052" lon="18.51819">
        <ele>192.99606</ele>
        <time>2020-08-26T12:11:16.900Z</time>
      </trkpt>
      <trkpt lat="69.65051" lon="18.51847">
        <ele>193.150214</ele>
        <time>2020-08-26T12:11:19.836Z</time>
      </trkpt>
      <trkpt lat="69.6505" lon="18.51874">
        <ele>193.337209</ele>
        <time>2020-08-26T12:11:22.841Z</time>
      </trkpt>
      <trkpt lat="69.6505" lon="18.51903">
        <ele>193.533653</ele>
        <time>2020-08-26T12:11:25.893Z</time>
      </trkpt>
      <trkpt lat="69.65049" lon="18.51931">
        <ele>193.719298</ele>
        <time>2020-08-26T12:11:28.880Z</time>
      </trkpt>
      <trkpt lat="69.65049" lon="18.51957">
        <ele>193.895206</ele>
        <time>2020-08-26T12:11:31.849Z</time>
      </trkpt>
      <trkpt lat="69.6505" lon="18.51988">
        <ele>194.10708</ele>
        <time>2020-08-26T12:11:35.839Z</time>
      </trkpt>
      <trkpt lat="69.6505" lon="18.52016">
        <ele>194.293751</ele>
        <time>2020-08-26T12:11:39.850Z</time>
      </trkpt>
      <trkpt lat="69.65052" lon="18.52047">
        <ele>194.506731</ele>
        <time>2020-08-26T12:11:44.877Z</time>
      </trkpt>
      <trkpt lat="69.65054" lon="18.52078">
        <ele>194.719348</ele>
        <time>2020-08-26T12:11:49.911Z</time>
      </trkpt>
      <trkpt lat="69.65055" lon="18.52109">
        <ele>194.936348</ele>
        <time>2020-08-26T12:11:54.843Z</time>
      </trkpt>
      <trkpt lat="69.65057" lon="18.52135">
        <ele>195.115229</ele>
        <time>2020-08-26T12:11:58.859Z</time>
      </trkpt>
      <trkpt lat="69.65058" lon="18.52165">
        <ele>195.316093</ele>
        <time>2020-08-26T12:12:02.840Z</time>
      </trkpt>
      <trkpt lat="69.65061" lon="18.52196">
        <ele>195.529109</ele>
        <time>2020-08-26T12:12:06.882Z</time>
      </trkpt>
      <trkpt lat="69.65063" lon="18.5223">
        <ele>195.769794</ele>
        <time>2020-08-26T12:12:10.926Z</time>
      </trkpt>
      <trkpt lat="69.65066" lon="18.52263">
        <ele>195.994638</ele>
        <time>2020-08-26T12:12:13.890Z</time>
      </trkpt>
      <trkpt lat="69.65068" lon="18.523">
        <ele>196.24813</ele>
        <time>2020-08-26T12:12:16.841Z</time>
      </trkpt>
      <trkpt lat="69.65071" lon="18.52337">
        <ele>196.506795</ele>
        <time>2020-08-26T12:12:19.888Z</time>
      </trkpt>
      <trkpt lat="69.65073" lon="18.52364">
        <ele>196.583411</ele>
        <time>2020-08-26T12:12:21.876Z</time>
      </trkpt>
      <trkpt lat="69.65075" lon="18.52392">
        <ele>196.463648</ele>
        <time>2020-08-26T12:12:23.856Z</time>
      </trkpt>
      <trkpt lat="69.65077" lon="18.52419">
        <ele>196.348309</ele>
        <time>2020-08-26T12:12:25.875Z</time>
      </trkpt>
      <trkpt lat="69.6508" lon="18.52454">
        <ele>196.197248</ele>
        <time>2020-08-26T12:12:28.872Z</time>
      </trkpt>
      <trkpt lat="69.65082" lon="18.52483">
        <ele>196.073101</ele>
        <time>2020-08-26T12:12:31.841Z</time>
      </trkpt>
      <trkpt lat="69.65085" lon="18.52509">
        <ele>195.957658</ele>
        <time>2020-08-26T12:12:34.852Z</time>
      </trkpt>
      <trkpt lat="69.65087" lon="18.52534">
        <ele>195.846755</ele>
        <time>2020-08-26T12:12:37.845Z</time>
      </trkpt>
      <trkpt lat="69.65089" lon="18.52561">
        <ele>195.731363</ele>
        <time>2020-08-26T12:12:40.847Z</time>
      </trkpt>
      <trkpt lat="69.65091" lon="18.52588">
        <ele>195.616041</ele>
        <time>2020-08-26T12:12:43.842Z</time>
      </trkpt>
      <trkpt lat="69.65093" lon="18.52616">
        <ele>195.495943</ele>
        <time>2020-08-26T12:12:46.846Z</time>
      </trkpt>
      <trkpt lat="69.65096" lon="18.52648">
        <ele>195.358547</ele>
        <time>2020-08-26T12:12:49.832Z</time>
      </trkpt>
      <trkpt lat="69.65098" lon="18.52684">
        <ele>195.204842</ele>
        <time>2020-08-26T12:12:52.874Z</time>
      </trkpt>
      <trkpt lat="69.651" lon="18.52711">
        <ele>195.086567</ele>
        <time>2020-08-26T12:12:54.841Z</time>
      </trkpt>
      <trkpt lat="69.65102" lon="18.52741">
        <ele>194.960116</ele>
        <time>2020-08-26T12:12:56.847Z</time>
      </trkpt>
      <trkpt lat="69.65104" lon="18.52771">
        <ele>194.829637</ele>
        <time>2020-08-26T12:12:58.872Z</time>
      </trkpt>
      <trkpt lat="69.65106" lon="18.52803">
        <ele>194.6942</ele>
        <time>2020-08-26T12:13:00.869Z</time>
      </trkpt>
      <trkpt lat="69.65108" lon="18.52835">
        <ele>194.555877</ele>
        <time>2020-08-26T12:13:02.890Z</time>
      </trkpt>
      <trkpt lat="69.6511" lon="18.52866">
        <ele>194.453673</ele>
        <time>2020-08-26T12:13:04.850Z</time>
      </trkpt>
      <trkpt lat="69.65112" lon="18.52896">
        <ele>194.477913</ele>
        <time>2020-08-26T12:13:06.852Z</time>
      </trkpt>
      <trkpt lat="69.65115" lon="18.52927">
        <ele>194.502251</ele>
        <time>2020-08-26T12:13:08.876Z</time>
      </trkpt>
      <trkpt lat="69.65117" lon="18.52957">
        <ele>194.525989</ele>
        <time>2020-08-26T12:13:10.842Z</time>
      </trkpt>
      <trkpt lat="69.65119" lon="18.52985">
        <ele>194.548768</ele>
        <time>2020-08-26T12:13:12.854Z</time>
      </trkpt>
      <trkpt lat="69.65122" lon="18.53013">
        <ele>194.571091</ele>
        <time>2020-08-26T12:13:14.864Z</time>
      </trkpt>
      <trkpt lat="69.65124" lon="18.5304">
        <ele>194.592531</ele>
        <time>2020-08-26T12:13:16.848Z</time>
      </trkpt>
      <trkpt lat="69.65126" lon="18.53067">
        <ele>194.61369</ele>
        <time>2020-08-26T12:13:18.853Z</time>
      </trkpt>
      <trkpt lat="69.65128" lon="18.53095">
        <ele>194.636</ele>
        <time>2020-08-26T12:13:20.840Z</time>
      </trkpt>
      <trkpt lat="69.65129" lon="18.53123">
        <ele>194.657887</ele>
        <time>2020-08-26T12:13:22.856Z</time>
      </trkpt>
      <trkpt lat="69.65131" lon="18.5315">
        <ele>194.679252</ele>
        <time>2020-08-26T12:13:24.849Z</time>
      </trkpt>
      <trkpt lat="69.65134" lon="18.53175">
        <ele>194.699488</ele>
        <time>2020-08-26T12:13:26.854Z</time>
      </trkpt>
      <trkpt lat="69.65137" lon="18.5321">
        <ele>194.727972</ele>
        <time>2020-08-26T12:13:29.838Z</time>
      </trkpt>
      <trkpt lat="69.65139" lon="18.53244">
        <ele>194.754756</ele>
        <time>2020-08-26T12:13:32.859Z</time>
      </trkpt>
      <trkpt lat="69.65141" lon="18.53276">
        <ele>194.779438</ele>
        <time>2020-08-26T12:13:35.889Z</time>
      </trkpt>
      <trkpt lat="69.65143" lon="18.53302">
        <ele>194.800681</ele>
        <time>2020-08-26T12:13:38.840Z</time>
      </trkpt>
      <trkpt lat="69.65144" lon="18.53333">
        <ele>194.82447</ele>
        <time>2020-08-26T12:13:42.838Z</time>
      </trkpt>
      <trkpt lat="69.65146" lon="18.53364">
        <ele>194.849341</ele>
        <time>2020-08-26T12:13:47.838Z</time>
      </trkpt>
      <trkpt lat="69.65148" lon="18.53391">
        <ele>195.140426</ele>
        <time>2020-08-26T12:13:51.856Z</time>
      </trkpt>
      <trkpt lat="69.65151" lon="18.5342">
        <ele>195.485578</ele>
        <time>2020-08-26T12:13:56.834Z</time>
      </trkpt>
      <trkpt lat="69.65153" lon="18.53451">
        <ele>195.848254</ele>
        <time>2020-08-26T12:14:01.855Z</time>
      </trkpt>
      <trkpt lat="69.65156" lon="18.53478">
        <ele>196.174923</ele>
        <time>2020-08-26T12:14:06.838Z</time>
      </trkpt>
      <trkpt lat="69.65157" lon="18.53505">
        <ele>196.485783</ele>
        <time>2020-08-26T12:14:10.878Z</time>
      </trkpt>
      <trkpt lat="69.65157" lon="18.53534">
        <ele>196.816915</ele>
        <time>2020-08-26T12:14:14.857Z</time>
      </trkpt>
      <trkpt lat="69.65159" lon="18.53563">
        <ele>197.154446</ele>
        <time>2020-08-26T12:14:18.863Z</time>
      </trkpt>
      <trkpt lat="69.65161" lon="18.53595">
        <ele>197.534646</ele>
        <time>2020-08-26T12:14:22.849Z</time>
      </trkpt>
      <trkpt lat="69.65164" lon="18.53621">
        <ele>197.83507</ele>
        <time>2020-08-26T12:14:25.832Z</time>
      </trkpt>
      <trkpt lat="69.65166" lon="18.53647">
        <ele>198.143653</ele>
        <time>2020-08-26T12:14:28.839Z</time>
      </trkpt>
      <trkpt lat="69.65168" lon="18.53676">
        <ele>198.492134</ele>
        <time>2020-08-26T12:14:31.851Z</time>
      </trkpt>
      <trkpt lat="69.6517" lon="18.5371">
        <ele>198.881361</ele>
        <time>2020-08-26T12:14:34.849Z</time>
      </trkpt>
      <trkpt lat="69.65172" lon="18.53745">
        <ele>199.286289</ele>
        <time>2020-08-26T12:14:37.860Z</time>
      </trkpt>
      <trkpt lat="69.65175" lon="18.53777">
        <ele>199.673319</ele>
        <time>2020-08-26T12:14:40.853Z</time>
      </trkpt>
      <trkpt lat="69.65179" lon="18.53812">
        <ele>200.088581</ele>
        <time>2020-08-26T12:14:43.843Z</time>
      </trkpt>
      <trkpt lat="69.65183" lon="18.53845">
        <ele>200.488588</ele>
        <time>2020-08-26T12:14:46.890Z</time>
      </trkpt>
      <trkpt lat="69.65186" lon="18.53875">
        <ele>200.784401</ele>
        <time>2020-08-26T12:14:49.857Z</time>
      </trkpt>
      <trkpt lat="69.65189" lon="18.53905">
        <ele>200.767727</ele>
        <time>2020-08-26T12:14:52.843Z</time>
      </trkpt>
      <trkpt lat="69.65191" lon="18.53936">
        <ele>200.750715</ele>
        <time>2020-08-26T12:14:55.845Z</time>
      </trkpt>
      <trkpt lat="69.65194" lon="18.53964">
        <ele>200.735285</ele>
        <time>2020-08-26T12:14:58.847Z</time>
      </trkpt>
      <trkpt lat="69.65198" lon="18.53988">
        <ele>200.721517</ele>
        <time>2020-08-26T12:15:01.856Z</time>
      </trkpt>
      <trkpt lat="69.65203" lon="18.54018">
        <ele>200.703889</ele>
        <time>2020-08-26T12:15:05.832Z</time>
      </trkpt>
      <trkpt lat="69.65208" lon="18.54044">
        <ele>200.687973</ele>
        <time>2020-08-26T12:15:09.860Z</time>
      </trkpt>
      <trkpt lat="69.65214" lon="18.54074">
        <ele>200.669674</ele>
        <time>2020-08-26T12:15:13.831Z</time>
      </trkpt>
      <trkpt lat="69.65219" lon="18.54096">
        <ele>200.65509</ele>
        <time>2020-08-26T12:15:16.848Z</time>
      </trkpt>
      <trkpt lat="69.65225" lon="18.54119">
        <ele>200.640724</ele>
        <time>2020-08-26T12:15:19.833Z</time>
      </trkpt>
      <trkpt lat="69.6523" lon="18.54141">
        <ele>200.626577</ele>
        <time>2020-08-26T12:15:22.837Z</time>
      </trkpt>
      <trkpt lat="69.65235" lon="18.54165">
        <ele>200.611239</ele>
        <time>2020-08-26T12:15:25.832Z</time>
      </trkpt>
      <trkpt lat="69.6524" lon="18.54188">
        <ele>200.596632</ele>
        <time>2020-08-26T12:15:28.831Z</time>
      </trkpt>
      <trkpt lat="69.65245" lon="18.54211">
        <ele>200.582659</ele>
        <time>2020-08-26T12:15:31.863Z</time>
      </trkpt>
      <trkpt lat="69.6525" lon="18.54233">
        <ele>200.568815</ele>
        <time>2020-08-26T12:15:34.834Z</time>
      </trkpt>
      <trkpt lat="69.65255" lon="18.54254">
        <ele>200.554799</ele>
        <time>2020-08-26T12:15:37.844Z</time>
      </trkpt>
      <trkpt lat="69.65261" lon="18.54276">
        <ele>200.539697</ele>
        <time>2020-08-26T12:15:40.842Z</time>
      </trkpt>
      <trkpt lat="69.65268" lon="18.543">
        <ele>200.523654</ele>
        <time>2020-08-26T12:15:43.847Z</time>
      </trkpt>
      <trkpt lat="69.65275" lon="18.54327">
        <ele>200.336265</ele>
        <time>2020-08-26T12:15:46.826Z</time>
      </trkpt>
      <trkpt lat="69.65284" lon="18.54355">
        <ele>199.836499</ele>
        <time>2020-08-26T12:15:49.846Z</time>
      </trkpt>
      <trkpt lat="69.65291" lon="18.54375">
        <ele>199.463876</ele>
        <time>2020-08-26T12:15:51.861Z</time>
      </trkpt>
      <trkpt lat="69.65299" lon="18.54397">
        <ele>199.04846</ele>
        <time>2020-08-26T12:15:53.833Z</time>
      </trkpt>
      <trkpt lat="69.65309" lon="18.5442">
        <ele>198.575789</ele>
        <time>2020-08-26T12:15:55.840Z</time>
      </trkpt>
      <trkpt lat="69.6532" lon="18.54444">
        <ele>198.050848</ele>
        <time>2020-08-26T12:15:57.853Z</time>
      </trkpt>
      <trkpt lat="69.65332" lon="18.54469">
        <ele>197.487582</ele>
        <time>2020-08-26T12:15:59.856Z</time>
      </trkpt>
      <trkpt lat="69.65344" lon="18.54497">
        <ele>196.907179</ele>
        <time>2020-08-26T12:16:01.849Z</time>
      </trkpt>
      <trkpt lat="69.65357" lon="18.54525">
        <ele>196.284538</ele>
        <time>2020-08-26T12:16:03.867Z</time>
      </trkpt>
      <trkpt lat="69.6537" lon="18.54556">
        <ele>195.632179</ele>
        <time>2020-08-26T12:16:05.846Z</time>
      </trkpt>
      <trkpt lat="69.65378" lon="18.54573">
        <ele>195.282008</ele>
        <time>2020-08-26T12:16:06.847Z</time>
      </trkpt>
      <trkpt lat="69.65385" lon="18.5459">
        <ele>194.920152</ele>
        <time>2020-08-26T12:16:07.836Z</time>
      </trkpt>
      <trkpt lat="69.65392" lon="18.54608">
        <ele>194.560377</ele>
        <time>2020-08-26T12:16:08.845Z</time>
      </trkpt>
      <trkpt lat="69.65399" lon="18.54625">
        <ele>194.210114</ele>
        <time>2020-08-26T12:16:09.857Z</time>
      </trkpt>
      <trkpt lat="69.65406" lon="18.54642">
        <ele>193.870122</ele>
        <time>2020-08-26T12:16:10.836Z</time>
      </trkpt>
      <trkpt lat="69.65419" lon="18.54676">
        <ele>193.579931</ele>
        <time>2020-08-26T12:16:12.841Z</time>
      </trkpt>
      <trkpt lat="69.6543" lon="18.54707">
        <ele>193.429263</ele>
        <time>2020-08-26T12:16:14.918Z</time>
      </trkpt>
      <trkpt lat="69.65441" lon="18.54734">
        <ele>193.29206</ele>
        <time>2020-08-26T12:16:16.850Z</time>
      </trkpt>
      <trkpt lat="69.65451" lon="18.54759">
        <ele>193.162698</ele>
        <time>2020-08-26T12:16:18.852Z</time>
      </trkpt>
      <trkpt lat="69.6546" lon="18.54781">
        <ele>193.052564</ele>
        <time>2020-08-26T12:16:20.841Z</time>
      </trkpt>
      <trkpt lat="69.65468" lon="18.54802">
        <ele>192.950805</ele>
        <time>2020-08-26T12:16:22.851Z</time>
      </trkpt>
      <trkpt lat="69.65475" lon="18.5482">
        <ele>192.857014</ele>
        <time>2020-08-26T12:16:24.867Z</time>
      </trkpt>
      <trkpt lat="69.65481" lon="18.54839">
        <ele>192.770148</ele>
        <time>2020-08-26T12:16:26.855Z</time>
      </trkpt>
      <trkpt lat="69.6549" lon="18.54866">
        <ele>192.644835</ele>
        <time>2020-08-26T12:16:29.872Z</time>
      </trkpt>
      <trkpt lat="69.65499" lon="18.5489">
        <ele>192.530171</ele>
        <time>2020-08-26T12:16:32.845Z</time>
      </trkpt>
      <trkpt lat="69.65507" lon="18.5491">
        <ele>192.425836</ele>
        <time>2020-08-26T12:16:35.860Z</time>
      </trkpt>
      <trkpt lat="69.65515" lon="18.5493">
        <ele>192.328848</ele>
        <time>2020-08-26T12:16:38.851Z</time>
      </trkpt>
      <trkpt lat="69.65522" lon="18.54947">
        <ele>192.236567</ele>
        <time>2020-08-26T12:16:41.856Z</time>
      </trkpt>
      <trkpt lat="69.65529" lon="18.54967">
        <ele>192.147899</ele>
        <time>2020-08-26T12:16:44.875Z</time>
      </trkpt>
      <trkpt lat="69.65535" lon="18.54986">
        <ele>192.054682</ele>
        <time>2020-08-26T12:16:47.881Z</time>
      </trkpt>
      <trkpt lat="69.65543" lon="18.55006">
        <ele>191.960376</ele>
        <time>2020-08-26T12:16:50.843Z</time>
      </trkpt>
      <trkpt lat="69.6555" lon="18.55027">
        <ele>191.872237</ele>
        <time>2020-08-26T12:16:53.853Z</time>
      </trkpt>
      <trkpt lat="69.65557" lon="18.55047">
        <ele>191.785155</ele>
        <time>2020-08-26T12:16:56.834Z</time>
      </trkpt>
      <trkpt lat="69.65565" lon="18.55067">
        <ele>191.690009</ele>
        <time>2020-08-26T12:16:59.846Z</time>
      </trkpt>
      <trkpt lat="69.65575" lon="18.55091">
        <ele>191.583168</ele>
        <time>2020-08-26T12:17:02.871Z</time>
      </trkpt>
      <trkpt lat="69.65584" lon="18.55114">
        <ele>191.479328</ele>
        <time>2020-08-26T12:17:05.872Z</time>
      </trkpt>
      <trkpt lat="69.65593" lon="18.55141">
        <ele>191.362377</ele>
        <time>2020-08-26T12:17:08.846Z</time>
      </trkpt>
      <trkpt lat="69.65601" lon="18.55159">
        <ele>191.275109</ele>
        <time>2020-08-26T12:17:10.855Z</time>
      </trkpt>
      <trkpt lat="69.6561" lon="18.5518">
        <ele>191.177396</ele>
        <time>2020-08-26T12:17:12.847Z</time>
      </trkpt>
      <trkpt lat="69.65618" lon="18.55202">
        <ele>191.077572</ele>
        <time>2020-08-26T12:17:14.900Z</time>
      </trkpt>
      <trkpt lat="69.65627" lon="18.55224">
        <ele>190.977685</ele>
        <time>2020-08-26T12:17:16.859Z</time>
      </trkpt>
      <trkpt lat="69.65635" lon="18.55246">
        <ele>190.879114</ele>
        <time>2020-08-26T12:17:18.896Z</time>
      </trkpt>
      <trkpt lat="69.65644" lon="18.55269">
        <ele>190.77656</ele>
        <time>2020-08-26T12:17:20.856Z</time>
      </trkpt>
      <trkpt lat="69.65653" lon="18.55292">
        <ele>190.670115</ele>
        <time>2020-08-26T12:17:22.835Z</time>
      </trkpt>
      <trkpt lat="69.65662" lon="18.55317">
        <ele>190.561508</ele>
        <time>2020-08-26T12:17:24.854Z</time>
      </trkpt>
      <trkpt lat="69.65671" lon="18.55341">
        <ele>190.452902</ele>
        <time>2020-08-26T12:17:26.871Z</time>
      </trkpt>
      <trkpt lat="69.65681" lon="18.55366">
        <ele>190.507456</ele>
        <time>2020-08-26T12:17:28.849Z</time>
      </trkpt>
      <trkpt lat="69.6569" lon="18.5539">
        <ele>190.643588</ele>
        <time>2020-08-26T12:17:30.835Z</time>
      </trkpt>
      <trkpt lat="69.657" lon="18.55415">
        <ele>190.779122</ele>
        <time>2020-08-26T12:17:32.852Z</time>
      </trkpt>
      <trkpt lat="69.65709" lon="18.5544">
        <ele>190.916692</ele>
        <time>2020-08-26T12:17:34.837Z</time>
      </trkpt>
      <trkpt lat="69.65719" lon="18.55465">
        <ele>191.053228</ele>
        <time>2020-08-26T12:17:36.833Z</time>
      </trkpt>
      <trkpt lat="69.65728" lon="18.55489">
        <ele>191.191206</ele>
        <time>2020-08-26T12:17:38.853Z</time>
      </trkpt>
      <trkpt lat="69.65738" lon="18.55513">
        <ele>191.326211</ele>
        <time>2020-08-26T12:17:40.841Z</time>
      </trkpt>
      <trkpt lat="69.65747" lon="18.55537">
        <ele>191.459712</ele>
        <time>2020-08-26T12:17:42.843Z</time>
      </trkpt>
      <trkpt lat="69.65756" lon="18.55561">
        <ele>191.588804</ele>
        <time>2020-08-26T12:17:44.841Z</time>
      </trkpt>
      <trkpt lat="69.65764" lon="18.55583">
        <ele>191.706372</ele>
        <time>2020-08-26T12:17:46.850Z</time>
      </trkpt>
      <trkpt lat="69.65773" lon="18.55605">
        <ele>191.830487</ele>
        <time>2020-08-26T12:17:48.848Z</time>
      </trkpt>
      <trkpt lat="69.65782" lon="18.55625">
        <ele>191.949878</ele>
        <time>2020-08-26T12:17:50.832Z</time>
      </trkpt>
      <trkpt lat="69.65789" lon="18.55646">
        <ele>192.063087</ele>
        <time>2020-08-26T12:17:52.888Z</time>
      </trkpt>
      <trkpt lat="69.65796" lon="18.55665">
        <ele>192.1602</ele>
        <time>2020-08-26T12:17:54.837Z</time>
      </trkpt>
      <trkpt lat="69.65803" lon="18.55683">
        <ele>192.258324</ele>
        <time>2020-08-26T12:17:56.857Z</time>
      </trkpt>
      <trkpt lat="69.65812" lon="18.55708">
        <ele>192.291716</ele>
        <time>2020-08-26T12:17:59.855Z</time>
      </trkpt>
      <trkpt lat="69.65821" lon="18.55732">
        <ele>192.207706</ele>
        <time>2020-08-26T12:18:02.856Z</time>
      </trkpt>
      <trkpt lat="69.6583" lon="18.55756">
        <ele>192.12372</ele>
        <time>2020-08-26T12:18:05.861Z</time>
      </trkpt>
      <trkpt lat="69.65838" lon="18.55781">
        <ele>192.040062</ele>
        <time>2020-08-26T12:18:08.824Z</time>
      </trkpt>
      <trkpt lat="69.65849" lon="18.55806">
        <ele>191.946809</ele>
        <time>2020-08-26T12:18:11.882Z</time>
      </trkpt>
      <trkpt lat="69.65856" lon="18.55824">
        <ele>191.880141</ele>
        <time>2020-08-26T12:18:13.873Z</time>
      </trkpt>
      <trkpt lat="69.65864" lon="18.55844">
        <ele>191.809351</ele>
        <time>2020-08-26T12:18:15.840Z</time>
      </trkpt>
      <trkpt lat="69.65872" lon="18.55865">
        <ele>191.731579</ele>
        <time>2020-08-26T12:18:17.865Z</time>
      </trkpt>
      <trkpt lat="69.65881" lon="18.55888">
        <ele>191.649326</ele>
        <time>2020-08-26T12:18:19.860Z</time>
      </trkpt>
      <trkpt lat="69.65891" lon="18.55913">
        <ele>191.559523</ele>
        <time>2020-08-26T12:18:21.849Z</time>
      </trkpt>
      <trkpt lat="69.65901" lon="18.55939">
        <ele>191.467735</ele>
        <time>2020-08-26T12:18:23.848Z</time>
      </trkpt>
      <trkpt lat="69.6591" lon="18.55965">
        <ele>191.376082</ele>
        <time>2020-08-26T12:18:25.825Z</time>
      </trkpt>
      <trkpt lat="69.6592" lon="18.5599">
        <ele>191.285899</ele>
        <time>2020-08-26T12:18:27.846Z</time>
      </trkpt>
      <trkpt lat="69.6593" lon="18.56015">
        <ele>191.198914</ele>
        <time>2020-08-26T12:18:29.847Z</time>
      </trkpt>
      <trkpt lat="69.65939" lon="18.56038">
        <ele>191.11539</ele>
        <time>2020-08-26T12:18:31.865Z</time>
      </trkpt>
      <trkpt lat="69.65947" lon="18.5606">
        <ele>190.884955</ele>
        <time>2020-08-26T12:18:33.830Z</time>
      </trkpt>
      <trkpt lat="69.65956" lon="18.56084">
        <ele>190.595151</ele>
        <time>2020-08-26T12:18:35.879Z</time>
      </trkpt>
      <trkpt lat="69.65964" lon="18.56106">
        <ele>190.312444</ele>
        <time>2020-08-26T12:18:37.843Z</time>
      </trkpt>
      <trkpt lat="69.65973" lon="18.56129">
        <ele>190.02194</ele>
        <time>2020-08-26T12:18:39.837Z</time>
      </trkpt>
      <trkpt lat="69.65981" lon="18.56151">
        <ele>189.732015</ele>
        <time>2020-08-26T12:18:41.874Z</time>
      </trkpt>
      <trkpt lat="69.6599" lon="18.56174">
        <ele>189.438525</ele>
        <time>2020-08-26T12:18:43.842Z</time>
      </trkpt>
      <trkpt lat="69.65999" lon="18.56199">
        <ele>189.129034</ele>
        <time>2020-08-26T12:18:45.846Z</time>
      </trkpt>
      <trkpt lat="69.66009" lon="18.56224">
        <ele>188.811826</ele>
        <time>2020-08-26T12:18:47.879Z</time>
      </trkpt>
      <trkpt lat="69.66018" lon="18.56248">
        <ele>188.495692</ele>
        <time>2020-08-26T12:18:49.847Z</time>
      </trkpt>
      <trkpt lat="69.66028" lon="18.56273">
        <ele>188.174571</ele>
        <time>2020-08-26T12:18:51.889Z</time>
      </trkpt>
      <trkpt lat="69.66038" lon="18.56299">
        <ele>187.848996</ele>
        <time>2020-08-26T12:18:53.866Z</time>
      </trkpt>
      <trkpt lat="69.66048" lon="18.56325">
        <ele>187.517451</ele>
        <time>2020-08-26T12:18:55.839Z</time>
      </trkpt>
      <trkpt lat="69.66057" lon="18.5635">
        <ele>187.194328</ele>
        <time>2020-08-26T12:18:57.838Z</time>
      </trkpt>
      <trkpt lat="69.66067" lon="18.56376">
        <ele>186.871205</ele>
        <time>2020-08-26T12:18:59.864Z</time>
      </trkpt>
      <trkpt lat="69.66076" lon="18.56402">
        <ele>186.588937</ele>
        <time>2020-08-26T12:19:01.834Z</time>
      </trkpt>
      <trkpt lat="69.66086" lon="18.56427">
        <ele>186.407983</ele>
        <time>2020-08-26T12:19:03.838Z</time>
      </trkpt>
      <trkpt lat="69.66095" lon="18.56454">
        <ele>186.228432</ele>
        <time>2020-08-26T12:19:05.869Z</time>
      </trkpt>
      <trkpt lat="69.66104" lon="18.5648">
        <ele>186.050888</ele>
        <time>2020-08-26T12:19:07.862Z</time>
      </trkpt>
      <trkpt lat="69.66113" lon="18.56507">
        <ele>185.872302</ele>
        <time>2020-08-26T12:19:09.848Z</time>
      </trkpt>
      <trkpt lat="69.66121" lon="18.56533">
        <ele>185.702821</ele>
        <time>2020-08-26T12:19:11.850Z</time>
      </trkpt>
      <trkpt lat="69.66129" lon="18.56557">
        <ele>185.541946</ele>
        <time>2020-08-26T12:19:13.834Z</time>
      </trkpt>
      <trkpt lat="69.66136" lon="18.56579">
        <ele>185.394768</ele>
        <time>2020-08-26T12:19:15.846Z</time>
      </trkpt>
      <trkpt lat="69.66143" lon="18.566">
        <ele>185.256089</ele>
        <time>2020-08-26T12:19:17.840Z</time>
      </trkpt>
      <trkpt lat="69.6615" lon="18.56622">
        <ele>185.114229</ele>
        <time>2020-08-26T12:19:19.834Z</time>
      </trkpt>
      <trkpt lat="69.66157" lon="18.56642">
        <ele>184.975846</ele>
        <time>2020-08-26T12:19:21.847Z</time>
      </trkpt>
      <trkpt lat="69.66164" lon="18.56664">
        <ele>184.837559</ele>
        <time>2020-08-26T12:19:23.884Z</time>
      </trkpt>
      <trkpt lat="69.6617" lon="18.56686">
        <ele>184.697066</ele>
        <time>2020-08-26T12:19:25.851Z</time>
      </trkpt>
      <trkpt lat="69.66177" lon="18.56708">
        <ele>184.559145</ele>
        <time>2020-08-26T12:19:27.861Z</time>
      </trkpt>
      <trkpt lat="69.66183" lon="18.5673">
        <ele>184.417217</ele>
        <time>2020-08-26T12:19:29.834Z</time>
      </trkpt>
      <trkpt lat="69.66191" lon="18.56753">
        <ele>184.266147</ele>
        <time>2020-08-26T12:19:31.834Z</time>
      </trkpt>
      <trkpt lat="69.66196" lon="18.56776">
        <ele>184.156336</ele>
        <time>2020-08-26T12:19:33.839Z</time>
      </trkpt>
      <trkpt lat="69.66203" lon="18.56799">
        <ele>184.2347</ele>
        <time>2020-08-26T12:19:35.858Z</time>
      </trkpt>
      <trkpt lat="69.66209" lon="18.56822">
        <ele>184.310174</ele>
        <time>2020-08-26T12:19:37.902Z</time>
      </trkpt>
      <trkpt lat="69.66216" lon="18.56845">
        <ele>184.385448</ele>
        <time>2020-08-26T12:19:39.849Z</time>
      </trkpt>
      <trkpt lat="69.66222" lon="18.56867">
        <ele>184.458724</ele>
        <time>2020-08-26T12:19:41.858Z</time>
      </trkpt>
      <trkpt lat="69.66228" lon="18.56888">
        <ele>184.529118</ele>
        <time>2020-08-26T12:19:43.833Z</time>
      </trkpt>
      <trkpt lat="69.66234" lon="18.56908">
        <ele>184.596504</ele>
        <time>2020-08-26T12:19:45.846Z</time>
      </trkpt>
      <trkpt lat="69.66239" lon="18.56929">
        <ele>184.664898</ele>
        <time>2020-08-26T12:19:47.842Z</time>
      </trkpt>
      <trkpt lat="69.66247" lon="18.5696">
        <ele>184.764135</ele>
        <time>2020-08-26T12:19:50.878Z</time>
      </trkpt>
      <trkpt lat="69.66255" lon="18.56991">
        <ele>184.862561</ele>
        <time>2020-08-26T12:19:53.847Z</time>
      </trkpt>
      <trkpt lat="69.6626" lon="18.57012">
        <ele>184.929982</ele>
        <time>2020-08-26T12:19:55.867Z</time>
      </trkpt>
      <trkpt lat="69.66266" lon="18.57035">
        <ele>185.00102</ele>
        <time>2020-08-26T12:19:57.850Z</time>
      </trkpt>
      <trkpt lat="69.66271" lon="18.57056">
        <ele>185.06866</ele>
        <time>2020-08-26T12:19:59.850Z</time>
      </trkpt>
      <trkpt lat="69.66278" lon="18.57088">
        <ele>185.167279</ele>
        <time>2020-08-26T12:20:02.853Z</time>
      </trkpt>
      <trkpt lat="69.66286" lon="18.57119">
        <ele>185.267145</ele>
        <time>2020-08-26T12:20:05.855Z</time>
      </trkpt>
      <trkpt lat="69.66291" lon="18.5714">
        <ele>185.333947</ele>
        <time>2020-08-26T12:20:07.864Z</time>
      </trkpt>
      <trkpt lat="69.66299" lon="18.57171">
        <ele>185.431059</ele>
        <time>2020-08-26T12:20:10.849Z</time>
      </trkpt>
      <trkpt lat="69.66306" lon="18.57201">
        <ele>185.633934</ele>
        <time>2020-08-26T12:20:13.838Z</time>
      </trkpt>
      <trkpt lat="69.66313" lon="18.57229">
        <ele>185.974616</ele>
        <time>2020-08-26T12:20:16.840Z</time>
      </trkpt>
      <trkpt lat="69.66319" lon="18.57255">
        <ele>186.275393</ele>
        <time>2020-08-26T12:20:19.840Z</time>
      </trkpt>
      <trkpt lat="69.66324" lon="18.57282">
        <ele>186.58259</ele>
        <time>2020-08-26T12:20:22.840Z</time>
      </trkpt>
      <trkpt lat="69.66329" lon="18.57307">
        <ele>186.858844</ele>
        <time>2020-08-26T12:20:25.850Z</time>
      </trkpt>
      <trkpt lat="69.66334" lon="18.57333">
        <ele>187.158722</ele>
        <time>2020-08-26T12:20:28.835Z</time>
      </trkpt>
      <trkpt lat="69.6634" lon="18.57361">
        <ele>187.476702</ele>
        <time>2020-08-26T12:20:31.870Z</time>
      </trkpt>
      <trkpt lat="69.66346" lon="18.57389">
        <ele>187.785585</ele>
        <time>2020-08-26T12:20:34.840Z</time>
      </trkpt>
      <trkpt lat="69.66352" lon="18.57417">
        <ele>188.109966</ele>
        <time>2020-08-26T12:20:37.840Z</time>
      </trkpt>
      <trkpt lat="69.66358" lon="18.57445">
        <ele>188.43791</ele>
        <time>2020-08-26T12:20:40.853Z</time>
      </trkpt>
      <trkpt lat="69.66364" lon="18.57472">
        <ele>188.751027</ele>
        <time>2020-08-26T12:20:43.869Z</time>
      </trkpt>
      <trkpt lat="69.6637" lon="18.57501">
        <ele>189.074882</ele>
        <time>2020-08-26T12:20:46.848Z</time>
      </trkpt>
      <trkpt lat="69.66375" lon="18.5753">
        <ele>189.3914</ele>
        <time>2020-08-26T12:20:49.853Z</time>
      </trkpt>
      <trkpt lat="69.6638" lon="18.57556">
        <ele>189.677561</ele>
        <time>2020-08-26T12:20:52.856Z</time>
      </trkpt>
      <trkpt lat="69.66383" lon="18.57581">
        <ele>189.93812</ele>
        <time>2020-08-26T12:20:55.846Z</time>
      </trkpt>
      <trkpt lat="69.66387" lon="18.5761">
        <ele>190.244396</ele>
        <time>2020-08-26T12:20:59.875Z</time>
      </trkpt>
      <trkpt lat="69.6639" lon="18.57635">
        <ele>190.509101</ele>
        <time>2020-08-26T12:21:03.893Z</time>
      </trkpt>
      <trkpt lat="69.66394" lon="18.5766">
        <ele>190.709229</ele>
        <time>2020-08-26T12:21:07.857Z</time>
      </trkpt>
      <trkpt lat="69.66399" lon="18.57686">
        <ele>190.933471</ele>
        <time>2020-08-26T12:21:11.875Z</time>
      </trkpt>
      <trkpt lat="69.66404" lon="18.57712">
        <ele>191.149945</ele>
        <time>2020-08-26T12:21:15.849Z</time>
      </trkpt>
      <trkpt lat="69.66409" lon="18.57741">
        <ele>191.379756</ele>
        <time>2020-08-26T12:21:19.837Z</time>
      </trkpt>
      <trkpt lat="69.66414" lon="18.57769">
        <ele>191.605895</ele>
        <time>2020-08-26T12:21:23.871Z</time>
      </trkpt>
      <trkpt lat="69.66419" lon="18.57799">
        <ele>191.855258</ele>
        <time>2020-08-26T12:21:27.832Z</time>
      </trkpt>
      <trkpt lat="69.66424" lon="18.57824">
        <ele>192.057457</ele>
        <time>2020-08-26T12:21:30.839Z</time>
      </trkpt>
      <trkpt lat="69.66428" lon="18.5785">
        <ele>192.269053</ele>
        <time>2020-08-26T12:21:33.854Z</time>
      </trkpt>
      <trkpt lat="69.66433" lon="18.57879">
        <ele>192.499571</ele>
        <time>2020-08-26T12:21:36.847Z</time>
      </trkpt>
      <trkpt lat="69.66437" lon="18.57906">
        <ele>192.722559</ele>
        <time>2020-08-26T12:21:39.878Z</time>
      </trkpt>
      <trkpt lat="69.66441" lon="18.57932">
        <ele>192.931215</ele>
        <time>2020-08-26T12:21:42.853Z</time>
      </trkpt>
      <trkpt lat="69.66446" lon="18.57961">
        <ele>193.156219</ele>
        <time>2020-08-26T12:21:45.850Z</time>
      </trkpt>
      <trkpt lat="69.6645" lon="18.5799">
        <ele>193.392915</ele>
        <time>2020-08-26T12:21:48.848Z</time>
      </trkpt>
      <trkpt lat="69.66456" lon="18.5802">
        <ele>193.637741</ele>
        <time>2020-08-26T12:21:51.847Z</time>
      </trkpt>
      <trkpt lat="69.66461" lon="18.58051">
        <ele>193.883652</ele>
        <time>2020-08-26T12:21:54.857Z</time>
      </trkpt>
      <trkpt lat="69.66465" lon="18.58082">
        <ele>194.128938</ele>
        <time>2020-08-26T12:21:57.854Z</time>
      </trkpt>
      <trkpt lat="69.6647" lon="18.58112">
        <ele>194.413088</ele>
        <time>2020-08-26T12:22:00.839Z</time>
      </trkpt>
      <trkpt lat="69.66474" lon="18.58143">
        <ele>194.795127</ele>
        <time>2020-08-26T12:22:03.880Z</time>
      </trkpt>
      <trkpt lat="69.66479" lon="18.58172">
        <ele>195.169234</ele>
        <time>2020-08-26T12:22:06.836Z</time>
      </trkpt>
      <trkpt lat="69.66484" lon="18.58199">
        <ele>195.508558</ele>
        <time>2020-08-26T12:22:09.859Z</time>
      </trkpt>
      <trkpt lat="69.66488" lon="18.58226">
        <ele>195.859037</ele>
        <time>2020-08-26T12:22:12.837Z</time>
      </trkpt>
      <trkpt lat="69.66493" lon="18.58253">
        <ele>196.204487</ele>
        <time>2020-08-26T12:22:15.843Z</time>
      </trkpt>
      <trkpt lat="69.66498" lon="18.5828">
        <ele>196.560193</ele>
        <time>2020-08-26T12:22:18.847Z</time>
      </trkpt>
      <trkpt lat="69.66502" lon="18.58307">
        <ele>196.901085</ele>
        <time>2020-08-26T12:22:21.838Z</time>
      </trkpt>
      <trkpt lat="69.66505" lon="18.58333">
        <ele>197.218962</ele>
        <time>2020-08-26T12:22:24.836Z</time>
      </trkpt>
      <trkpt lat="69.66509" lon="18.58359">
        <ele>197.548994</ele>
        <time>2020-08-26T12:22:27.858Z</time>
      </trkpt>
      <trkpt lat="69.66513" lon="18.58385">
        <ele>197.865601</ele>
        <time>2020-08-26T12:22:30.845Z</time>
      </trkpt>
      <trkpt lat="69.66517" lon="18.58414">
        <ele>198.223243</ele>
        <time>2020-08-26T12:22:34.835Z</time>
      </trkpt>
      <trkpt lat="69.66522" lon="18.58437">
        <ele>198.543246</ele>
        <time>2020-08-26T12:22:38.834Z</time>
      </trkpt>
      <trkpt lat="69.66526" lon="18.5846">
        <ele>198.848895</ele>
        <time>2020-08-26T12:22:42.839Z</time>
      </trkpt>
      <trkpt lat="69.66529" lon="18.58485">
        <ele>199.148744</ele>
        <time>2020-08-26T12:22:46.864Z</time>
      </trkpt>
      <trkpt lat="69.66534" lon="18.58512">
        <ele>199.497119</ele>
        <time>2020-08-26T12:22:50.856Z</time>
      </trkpt>
      <trkpt lat="69.66539" lon="18.58542">
        <ele>199.873453</ele>
        <time>2020-08-26T12:22:54.836Z</time>
      </trkpt>
      <trkpt lat="69.66542" lon="18.58568">
        <ele>200.206459</ele>
        <time>2020-08-26T12:22:58.861Z</time>
      </trkpt>
      <trkpt lat="69.66546" lon="18.58598">
        <ele>200.246508</ele>
        <time>2020-08-26T12:23:02.883Z</time>
      </trkpt>
      <trkpt lat="69.66551" lon="18.58624">
        <ele>200.206315</ele>
        <time>2020-08-26T12:23:07.850Z</time>
      </trkpt>
      <trkpt lat="69.66555" lon="18.58649">
        <ele>200.169497</ele>
        <time>2020-08-26T12:23:11.880Z</time>
      </trkpt>
      <trkpt lat="69.6656" lon="18.58675">
        <ele>200.130024</ele>
        <time>2020-08-26T12:23:15.835Z</time>
      </trkpt>
      <trkpt lat="69.66564" lon="18.58699">
        <ele>200.095192</ele>
        <time>2020-08-26T12:23:18.837Z</time>
      </trkpt>
      <trkpt lat="69.66569" lon="18.58724">
        <ele>200.056612</ele>
        <time>2020-08-26T12:23:21.875Z</time>
      </trkpt>
      <trkpt lat="69.66574" lon="18.58752">
        <ele>200.014777</ele>
        <time>2020-08-26T12:23:24.854Z</time>
      </trkpt>
      <trkpt lat="69.66579" lon="18.58782">
        <ele>199.970177</ele>
        <time>2020-08-26T12:23:27.837Z</time>
      </trkpt>
      <trkpt lat="69.66583" lon="18.58814">
        <ele>199.923786</ele>
        <time>2020-08-26T12:23:30.843Z</time>
      </trkpt>
      <trkpt lat="69.66588" lon="18.58845">
        <ele>199.878255</ele>
        <time>2020-08-26T12:23:33.848Z</time>
      </trkpt>
      <trkpt lat="69.66593" lon="18.58876">
        <ele>199.833603</ele>
        <time>2020-08-26T12:23:36.838Z</time>
      </trkpt>
      <trkpt lat="69.66597" lon="18.58908">
        <ele>199.788314</ele>
        <time>2020-08-26T12:23:39.867Z</time>
      </trkpt>
      <trkpt lat="69.66602" lon="18.58938">
        <ele>199.744188</ele>
        <time>2020-08-26T12:23:42.858Z</time>
      </trkpt>
      <trkpt lat="69.66606" lon="18.5897">
        <ele>199.698317</ele>
        <time>2020-08-26T12:23:45.861Z</time>
      </trkpt>
      <trkpt lat="69.6661" lon="18.58999">
        <ele>199.656182</ele>
        <time>2020-08-26T12:23:48.856Z</time>
      </trkpt>
      <trkpt lat="69.66615" lon="18.59025">
        <ele>199.616538</ele>
        <time>2020-08-26T12:23:51.866Z</time>
      </trkpt>
      <trkpt lat="69.66619" lon="18.59051">
        <ele>199.600563</ele>
        <time>2020-08-26T12:23:54.867Z</time>
      </trkpt>
      <trkpt lat="69.66624" lon="18.59076">
        <ele>199.643397</ele>
        <time>2020-08-26T12:23:57.860Z</time>
      </trkpt>
      <trkpt lat="69.66628" lon="18.59099">
        <ele>199.682241</ele>
        <time>2020-08-26T12:24:00.838Z</time>
      </trkpt>
      <trkpt lat="69.66633" lon="18.59131">
        <ele>199.735117</ele>
        <time>2020-08-26T12:24:04.848Z</time>
      </trkpt>
      <trkpt lat="69.66638" lon="18.59157">
        <ele>199.779088</ele>
        <time>2020-08-26T12:24:07.868Z</time>
      </trkpt>
      <trkpt lat="69.66642" lon="18.59185">
        <ele>199.825331</ele>
        <time>2020-08-26T12:24:10.837Z</time>
      </trkpt>
      <trkpt lat="69.66647" lon="18.59217">
        <ele>199.876631</ele>
        <time>2020-08-26T12:24:13.845Z</time>
      </trkpt>
      <trkpt lat="69.66652" lon="18.59252">
        <ele>199.934347</ele>
        <time>2020-08-26T12:24:16.859Z</time>
      </trkpt>
      <trkpt lat="69.66656" lon="18.59276">
        <ele>199.973753</ele>
        <time>2020-08-26T12:24:18.847Z</time>
      </trkpt>
      <trkpt lat="69.66661" lon="18.59311">
        <ele>200.032043</ele>
        <time>2020-08-26T12:24:21.847Z</time>
      </trkpt>
      <trkpt lat="69.66665" lon="18.59335">
        <ele>200.07227</ele>
        <time>2020-08-26T12:24:23.868Z</time>
      </trkpt>
      <trkpt lat="69.66669" lon="18.59359">
        <ele>200.111522</ele>
        <time>2020-08-26T12:24:25.835Z</time>
      </trkpt>
      <trkpt lat="69.66673" lon="18.5939">
        <ele>200.160863</ele>
        <time>2020-08-26T12:24:28.882Z</time>
      </trkpt>
      <trkpt lat="69.66677" lon="18.59417">
        <ele>200.204299</ele>
        <time>2020-08-26T12:24:31.849Z</time>
      </trkpt>
      <trkpt lat="69.66682" lon="18.59445">
        <ele>200.253128</ele>
        <time>2020-08-26T12:24:35.848Z</time>
      </trkpt>
      <trkpt lat="69.66686" lon="18.5947">
        <ele>200.294499</ele>
        <time>2020-08-26T12:24:39.840Z</time>
      </trkpt>
      <trkpt lat="69.6669" lon="18.59494">
        <ele>200.333495</ele>
        <time>2020-08-26T12:24:42.840Z</time>
      </trkpt>
      <trkpt lat="69.66693" lon="18.59519">
        <ele>200.396797</ele>
        <time>2020-08-26T12:24:45.870Z</time>
      </trkpt>
      <trkpt lat="69.66698" lon="18.59541">
        <ele>200.579877</ele>
        <time>2020-08-26T12:24:48.851Z</time>
      </trkpt>
      <trkpt lat="69.66702" lon="18.59566">
        <ele>200.779136</ele>
        <time>2020-08-26T12:24:51.842Z</time>
      </trkpt>
      <trkpt lat="69.66706" lon="18.59591">
        <ele>200.974072</ele>
        <time>2020-08-26T12:24:54.830Z</time>
      </trkpt>
      <trkpt lat="69.6671" lon="18.59615">
        <ele>201.164292</ele>
        <time>2020-08-26T12:24:57.859Z</time>
      </trkpt>
      <trkpt lat="69.66714" lon="18.5964">
        <ele>201.352577</ele>
        <time>2020-08-26T12:25:00.849Z</time>
      </trkpt>
      <trkpt lat="69.66718" lon="18.59665">
        <ele>201.544442</ele>
        <time>2020-08-26T12:25:03.835Z</time>
      </trkpt>
      <trkpt lat="69.66722" lon="18.59691">
        <ele>201.749815</ele>
        <time>2020-08-26T12:25:06.857Z</time>
      </trkpt>
      <trkpt lat="69.66726" lon="18.59718">
        <ele>201.960124</ele>
        <time>2020-08-26T12:25:09.835Z</time>
      </trkpt>
      <trkpt lat="69.66731" lon="18.59748">
        <ele>202.192847</ele>
        <time>2020-08-26T12:25:12.863Z</time>
      </trkpt>
      <trkpt lat="69.66738" lon="18.59781">
        <ele>202.460295</ele>
        <time>2020-08-26T12:25:15.889Z</time>
      </trkpt>
      <trkpt lat="69.66742" lon="18.59804">
        <ele>202.646427</ele>
        <time>2020-08-26T12:25:17.846Z</time>
      </trkpt>
      <trkpt lat="69.66748" lon="18.59835">
        <ele>202.895806</ele>
        <time>2020-08-26T12:25:20.848Z</time>
      </trkpt>
      <trkpt lat="69.66752" lon="18.59866">
        <ele>203.133978</ele>
        <time>2020-08-26T12:25:23.859Z</time>
      </trkpt>
      <trkpt lat="69.66757" lon="18.59895">
        <ele>203.362087</ele>
        <time>2020-08-26T12:25:26.850Z</time>
      </trkpt>
      <trkpt lat="69.66763" lon="18.59925">
        <ele>203.601126</ele>
        <time>2020-08-26T12:25:29.836Z</time>
      </trkpt>
      <trkpt lat="69.66767" lon="18.59959">
        <ele>203.860901</ele>
        <time>2020-08-26T12:25:32.851Z</time>
      </trkpt>
      <trkpt lat="69.66771" lon="18.59983">
        <ele>203.987856</ele>
        <time>2020-08-26T12:25:34.838Z</time>
      </trkpt>
      <trkpt lat="69.66776" lon="18.60009">
        <ele>203.657407</ele>
        <time>2020-08-26T12:25:36.839Z</time>
      </trkpt>
      <trkpt lat="69.66782" lon="18.60036">
        <ele>203.31228</ele>
        <time>2020-08-26T12:25:38.840Z</time>
      </trkpt>
      <trkpt lat="69.66786" lon="18.60065">
        <ele>202.944644</ele>
        <time>2020-08-26T12:25:40.847Z</time>
      </trkpt>
      <trkpt lat="69.66792" lon="18.60097">
        <ele>202.556266</ele>
        <time>2020-08-26T12:25:42.841Z</time>
      </trkpt>
      <trkpt lat="69.66796" lon="18.60128">
        <ele>202.170958</ele>
        <time>2020-08-26T12:25:44.879Z</time>
      </trkpt>
      <trkpt lat="69.66802" lon="18.60162">
        <ele>201.751971</ele>
        <time>2020-08-26T12:25:46.871Z</time>
      </trkpt>
      <trkpt lat="69.66807" lon="18.60198">
        <ele>201.305907</ele>
        <time>2020-08-26T12:25:48.847Z</time>
      </trkpt>
      <trkpt lat="69.66813" lon="18.60236">
        <ele>200.846236</ele>
        <time>2020-08-26T12:25:50.846Z</time>
      </trkpt>
      <trkpt lat="69.66819" lon="18.60275">
        <ele>200.364306</ele>
        <time>2020-08-26T12:25:52.909Z</time>
      </trkpt>
      <trkpt lat="69.66826" lon="18.60317">
        <ele>199.846708</ele>
        <time>2020-08-26T12:25:54.852Z</time>
      </trkpt>
      <trkpt lat="69.66833" lon="18.60362">
        <ele>199.294374</ele>
        <time>2020-08-26T12:25:56.850Z</time>
      </trkpt>
      <trkpt lat="69.6684" lon="18.60409">
        <ele>198.714799</ele>
        <time>2020-08-26T12:25:58.871Z</time>
      </trkpt>
      <trkpt lat="69.66844" lon="18.60433">
        <ele>198.418453</ele>
        <time>2020-08-26T12:25:59.850Z</time>
      </trkpt>
      <trkpt lat="69.66848" lon="18.60458">
        <ele>198.020513</ele>
        <time>2020-08-26T12:26:00.906Z</time>
      </trkpt>
      <trkpt lat="69.66852" lon="18.60485">
        <ele>197.422142</ele>
        <time>2020-08-26T12:26:01.865Z</time>
      </trkpt>
      <trkpt lat="69.66856" lon="18.60513">
        <ele>196.803346</ele>
        <time>2020-08-26T12:26:02.853Z</time>
      </trkpt>
      <trkpt lat="69.6686" lon="18.60542">
        <ele>196.1665</ele>
        <time>2020-08-26T12:26:03.845Z</time>
      </trkpt>
      <trkpt lat="69.66865" lon="18.60572">
        <ele>195.506182</ele>
        <time>2020-08-26T12:26:04.845Z</time>
      </trkpt>
      <trkpt lat="69.6687" lon="18.60601">
        <ele>194.84827</ele>
        <time>2020-08-26T12:26:05.887Z</time>
      </trkpt>
      <trkpt lat="69.66874" lon="18.60631">
        <ele>194.193175</ele>
        <time>2020-08-26T12:26:06.869Z</time>
      </trkpt>
      <trkpt lat="69.66879" lon="18.60662">
        <ele>193.507705</ele>
        <time>2020-08-26T12:26:07.864Z</time>
      </trkpt>
      <trkpt lat="69.66884" lon="18.60693">
        <ele>192.803777</ele>
        <time>2020-08-26T12:26:08.847Z</time>
      </trkpt>
      <trkpt lat="69.6689" lon="18.60725">
        <ele>192.081986</ele>
        <time>2020-08-26T12:26:09.850Z</time>
      </trkpt>
      <trkpt lat="69.66895" lon="18.60758">
        <ele>191.327713</ele>
        <time>2020-08-26T12:26:10.848Z</time>
      </trkpt>
      <trkpt lat="69.66901" lon="18.60792">
        <ele>190.575269</ele>
        <time>2020-08-26T12:26:11.855Z</time>
      </trkpt>
      <trkpt lat="69.66906" lon="18.60825">
        <ele>189.820999</ele>
        <time>2020-08-26T12:26:12.858Z</time>
      </trkpt>
      <trkpt lat="69.66912" lon="18.60859">
        <ele>189.060534</ele>
        <time>2020-08-26T12:26:13.841Z</time>
      </trkpt>
      <trkpt lat="69.66918" lon="18.60893">
        <ele>188.294593</ele>
        <time>2020-08-26T12:26:14.867Z</time>
      </trkpt>
      <trkpt lat="69.66924" lon="18.60927">
        <ele>187.447188</ele>
        <time>2020-08-26T12:26:15.848Z</time>
      </trkpt>
      <trkpt lat="69.66929" lon="18.60962">
        <ele>186.367613</ele>
        <time>2020-08-26T12:26:16.854Z</time>
      </trkpt>
      <trkpt lat="69.66935" lon="18.60996">
        <ele>185.287269</ele>
        <time>2020-08-26T12:26:17.857Z</time>
      </trkpt>
      <trkpt lat="69.6694" lon="18.61031">
        <ele>184.213657</ele>
        <time>2020-08-26T12:26:18.852Z</time>
      </trkpt>
      <trkpt lat="69.66945" lon="18.61065">
        <ele>183.160246</ele>
        <time>2020-08-26T12:26:19.834Z</time>
      </trkpt>
      <trkpt lat="69.6695" lon="18.61098">
        <ele>182.137276</ele>
        <time>2020-08-26T12:26:20.847Z</time>
      </trkpt>
      <trkpt lat="69.66954" lon="18.61131">
        <ele>181.133212</ele>
        <time>2020-08-26T12:26:21.843Z</time>
      </trkpt>
      <trkpt lat="69.66959" lon="18.61162">
        <ele>180.168587</ele>
        <time>2020-08-26T12:26:22.848Z</time>
      </trkpt>
      <trkpt lat="69.66964" lon="18.61193">
        <ele>179.205248</ele>
        <time>2020-08-26T12:26:23.850Z</time>
      </trkpt>
      <trkpt lat="69.66968" lon="18.61223">
        <ele>178.265338</ele>
        <time>2020-08-26T12:26:24.861Z</time>
      </trkpt>
      <trkpt lat="69.66972" lon="18.61253">
        <ele>177.339522</ele>
        <time>2020-08-26T12:26:25.840Z</time>
      </trkpt>
      <trkpt lat="69.66977" lon="18.61284">
        <ele>176.410119</ele>
        <time>2020-08-26T12:26:26.840Z</time>
      </trkpt>
      <trkpt lat="69.66981" lon="18.61313">
        <ele>175.501661</ele>
        <time>2020-08-26T12:26:27.875Z</time>
      </trkpt>
      <trkpt lat="69.66986" lon="18.61341">
        <ele>174.617592</ele>
        <time>2020-08-26T12:26:28.868Z</time>
      </trkpt>
      <trkpt lat="69.6699" lon="18.61369">
        <ele>173.740245</ele>
        <time>2020-08-26T12:26:29.832Z</time>
      </trkpt>
      <trkpt lat="69.66995" lon="18.61396">
        <ele>172.916212</ele>
        <time>2020-08-26T12:26:30.848Z</time>
      </trkpt>
      <trkpt lat="69.66999" lon="18.61422">
        <ele>172.289778</ele>
        <time>2020-08-26T12:26:31.872Z</time>
      </trkpt>
      <trkpt lat="69.67002" lon="18.61447">
        <ele>171.673457</ele>
        <time>2020-08-26T12:26:32.855Z</time>
      </trkpt>
      <trkpt lat="69.67006" lon="18.61473">
        <ele>171.072698</ele>
        <time>2020-08-26T12:26:33.841Z</time>
      </trkpt>
      <trkpt lat="69.67009" lon="18.61497">
        <ele>170.503846</ele>
        <time>2020-08-26T12:26:34.836Z</time>
      </trkpt>
      <trkpt lat="69.67015" lon="18.61543">
        <ele>169.418252</ele>
        <time>2020-08-26T12:26:36.839Z</time>
      </trkpt>
      <trkpt lat="69.67021" lon="18.61585">
        <ele>168.41355</ele>
        <time>2020-08-26T12:26:38.864Z</time>
      </trkpt>
      <trkpt lat="69.67027" lon="18.61625">
        <ele>167.445815</ele>
        <time>2020-08-26T12:26:40.849Z</time>
      </trkpt>
      <trkpt lat="69.67034" lon="18.61663">
        <ele>166.502407</ele>
        <time>2020-08-26T12:26:42.849Z</time>
      </trkpt>
      <trkpt lat="69.6704" lon="18.61701">
        <ele>165.571454</ele>
        <time>2020-08-26T12:26:44.858Z</time>
      </trkpt>
      <trkpt lat="69.67046" lon="18.61739">
        <ele>164.671508</ele>
        <time>2020-08-26T12:26:46.848Z</time>
      </trkpt>
      <trkpt lat="69.67052" lon="18.61775">
        <ele>163.802582</ele>
        <time>2020-08-26T12:26:48.844Z</time>
      </trkpt>
      <trkpt lat="69.67057" lon="18.6181">
        <ele>162.944104</ele>
        <time>2020-08-26T12:26:50.886Z</time>
      </trkpt>
      <trkpt lat="69.67063" lon="18.61846">
        <ele>162.085089</ele>
        <time>2020-08-26T12:26:52.869Z</time>
      </trkpt>
      <trkpt lat="69.67068" lon="18.61881">
        <ele>161.440123</ele>
        <time>2020-08-26T12:26:54.870Z</time>
      </trkpt>
      <trkpt lat="69.67074" lon="18.61918">
        <ele>161.114589</ele>
        <time>2020-08-26T12:26:56.859Z</time>
      </trkpt>
      <trkpt lat="69.6708" lon="18.61953">
        <ele>160.795818</ele>
        <time>2020-08-26T12:26:58.863Z</time>
      </trkpt>
      <trkpt lat="69.67085" lon="18.61989">
        <ele>160.47039</ele>
        <time>2020-08-26T12:27:00.867Z</time>
      </trkpt>
      <trkpt lat="69.67091" lon="18.62025">
        <ele>160.150883</ele>
        <time>2020-08-26T12:27:02.864Z</time>
      </trkpt>
      <trkpt lat="69.67097" lon="18.6206">
        <ele>159.831837</ele>
        <time>2020-08-26T12:27:04.851Z</time>
      </trkpt>
      <trkpt lat="69.67104" lon="18.62096">
        <ele>159.499548</ele>
        <time>2020-08-26T12:27:06.840Z</time>
      </trkpt>
      <trkpt lat="69.6711" lon="18.62136">
        <ele>159.140792</ele>
        <time>2020-08-26T12:27:08.831Z</time>
      </trkpt>
      <trkpt lat="69.67118" lon="18.62178">
        <ele>158.74806</ele>
        <time>2020-08-26T12:27:10.853Z</time>
      </trkpt>
      <trkpt lat="69.67126" lon="18.62222">
        <ele>158.342286</ele>
        <time>2020-08-26T12:27:12.839Z</time>
      </trkpt>
      <trkpt lat="69.67134" lon="18.62265">
        <ele>157.945855</ele>
        <time>2020-08-26T12:27:14.859Z</time>
      </trkpt>
      <trkpt lat="69.67141" lon="18.62309">
        <ele>157.546857</ele>
        <time>2020-08-26T12:27:16.863Z</time>
      </trkpt>
      <trkpt lat="69.67148" lon="18.62353">
        <ele>157.207917</ele>
        <time>2020-08-26T12:27:18.888Z</time>
      </trkpt>
      <trkpt lat="69.67155" lon="18.62396">
        <ele>156.936029</ele>
        <time>2020-08-26T12:27:20.850Z</time>
      </trkpt>
      <trkpt lat="69.67161" lon="18.62439">
        <ele>156.665882</ele>
        <time>2020-08-26T12:27:22.869Z</time>
      </trkpt>
      <trkpt lat="69.67168" lon="18.62479">
        <ele>156.407793</ele>
        <time>2020-08-26T12:27:24.860Z</time>
      </trkpt>
      <trkpt lat="69.67174" lon="18.62518">
        <ele>156.163864</ele>
        <time>2020-08-26T12:27:26.852Z</time>
      </trkpt>
      <trkpt lat="69.67179" lon="18.62555">
        <ele>155.929652</ele>
        <time>2020-08-26T12:27:28.857Z</time>
      </trkpt>
      <trkpt lat="69.67185" lon="18.62592">
        <ele>155.697256</ele>
        <time>2020-08-26T12:27:30.856Z</time>
      </trkpt>
      <trkpt lat="69.67191" lon="18.62628">
        <ele>155.461502</ele>
        <time>2020-08-26T12:27:32.901Z</time>
      </trkpt>
      <trkpt lat="69.67198" lon="18.62665">
        <ele>155.228034</ele>
        <time>2020-08-26T12:27:34.867Z</time>
      </trkpt>
      <trkpt lat="69.67204" lon="18.62701">
        <ele>154.992483</ele>
        <time>2020-08-26T12:27:36.829Z</time>
      </trkpt>
      <trkpt lat="69.6721" lon="18.62736">
        <ele>154.768855</ele>
        <time>2020-08-26T12:27:38.850Z</time>
      </trkpt>
      <trkpt lat="69.67217" lon="18.62767">
        <ele>154.556842</ele>
        <time>2020-08-26T12:27:40.871Z</time>
      </trkpt>
      <trkpt lat="69.67223" lon="18.62796">
        <ele>154.357088</ele>
        <time>2020-08-26T12:27:42.841Z</time>
      </trkpt>
      <trkpt lat="69.6723" lon="18.62821">
        <ele>154.06766</ele>
        <time>2020-08-26T12:27:44.898Z</time>
      </trkpt>
      <trkpt lat="69.67238" lon="18.62845">
        <ele>153.773467</ele>
        <time>2020-08-26T12:27:46.850Z</time>
      </trkpt>
      <trkpt lat="69.67245" lon="18.62867">
        <ele>153.482327</ele>
        <time>2020-08-26T12:27:48.847Z</time>
      </trkpt>
      <trkpt lat="69.67253" lon="18.62891">
        <ele>153.192722</ele>
        <time>2020-08-26T12:27:50.872Z</time>
      </trkpt>
      <trkpt lat="69.67261" lon="18.62915">
        <ele>152.883163</ele>
        <time>2020-08-26T12:27:52.853Z</time>
      </trkpt>
      <trkpt lat="69.6727" lon="18.62939">
        <ele>152.562191</ele>
        <time>2020-08-26T12:27:54.831Z</time>
      </trkpt>
      <trkpt lat="69.67279" lon="18.62964">
        <ele>152.238119</ele>
        <time>2020-08-26T12:27:56.834Z</time>
      </trkpt>
      <trkpt lat="69.67289" lon="18.62988">
        <ele>151.887448</ele>
        <time>2020-08-26T12:27:58.863Z</time>
      </trkpt>
      <trkpt lat="69.67299" lon="18.63015">
        <ele>151.511991</ele>
        <time>2020-08-26T12:28:00.847Z</time>
      </trkpt>
      <trkpt lat="69.6731" lon="18.63041">
        <ele>151.135707</ele>
        <time>2020-08-26T12:28:02.838Z</time>
      </trkpt>
      <trkpt lat="69.67322" lon="18.63069">
        <ele>150.746611</ele>
        <time>2020-08-26T12:28:04.845Z</time>
      </trkpt>
      <trkpt lat="69.67333" lon="18.63095">
        <ele>150.3651</ele>
        <time>2020-08-26T12:28:06.857Z</time>
      </trkpt>
      <trkpt lat="69.67344" lon="18.63121">
        <ele>149.982769</ele>
        <time>2020-08-26T12:28:08.841Z</time>
      </trkpt>
      <trkpt lat="69.67356" lon="18.63145">
        <ele>149.591383</ele>
        <time>2020-08-26T12:28:10.838Z</time>
      </trkpt>
      <trkpt lat="69.67369" lon="18.63168">
        <ele>148.969571</ele>
        <time>2020-08-26T12:28:12.846Z</time>
      </trkpt>
      <trkpt lat="69.67384" lon="18.63187">
        <ele>148.298371</ele>
        <time>2020-08-26T12:28:14.853Z</time>
      </trkpt>
      <trkpt lat="69.67401" lon="18.63205">
        <ele>147.557344</ele>
        <time>2020-08-26T12:28:16.844Z</time>
      </trkpt>
      <trkpt lat="69.6741" lon="18.63214">
        <ele>147.162323</ele>
        <time>2020-08-26T12:28:17.849Z</time>
      </trkpt>
      <trkpt lat="69.67419" lon="18.63225">
        <ele>146.741427</ele>
        <time>2020-08-26T12:28:18.876Z</time>
      </trkpt>
      <trkpt lat="69.67429" lon="18.63237">
        <ele>146.309075</ele>
        <time>2020-08-26T12:28:19.850Z</time>
      </trkpt>
      <trkpt lat="69.67439" lon="18.6325">
        <ele>145.857762</ele>
        <time>2020-08-26T12:28:20.860Z</time>
      </trkpt>
      <trkpt lat="69.67449" lon="18.63265">
        <ele>145.394569</ele>
        <time>2020-08-26T12:28:21.877Z</time>
      </trkpt>
      <trkpt lat="69.67459" lon="18.6328">
        <ele>144.934028</ele>
        <time>2020-08-26T12:28:22.856Z</time>
      </trkpt>
      <trkpt lat="69.67468" lon="18.63296">
        <ele>144.474328</ele>
        <time>2020-08-26T12:28:23.859Z</time>
      </trkpt>
      <trkpt lat="69.67477" lon="18.63311">
        <ele>144.038264</ele>
        <time>2020-08-26T12:28:24.840Z</time>
      </trkpt>
      <trkpt lat="69.67487" lon="18.63326">
        <ele>143.594283</ele>
        <time>2020-08-26T12:28:25.866Z</time>
      </trkpt>
      <trkpt lat="69.67496" lon="18.63342">
        <ele>143.141682</ele>
        <time>2020-08-26T12:28:26.865Z</time>
      </trkpt>
      <trkpt lat="69.67506" lon="18.63357">
        <ele>142.681985</ele>
        <time>2020-08-26T12:28:27.867Z</time>
      </trkpt>
      <trkpt lat="69.67516" lon="18.63374">
        <ele>142.213716</ele>
        <time>2020-08-26T12:28:28.866Z</time>
      </trkpt>
      <trkpt lat="69.67526" lon="18.6339">
        <ele>141.432928</ele>
        <time>2020-08-26T12:28:29.841Z</time>
      </trkpt>
      <trkpt lat="69.67535" lon="18.63407">
        <ele>140.609178</ele>
        <time>2020-08-26T12:28:30.837Z</time>
      </trkpt>
      <trkpt lat="69.67545" lon="18.63422">
        <ele>139.792997</ele>
        <time>2020-08-26T12:28:31.851Z</time>
      </trkpt>
      <trkpt lat="69.67555" lon="18.63435">
        <ele>138.998874</ele>
        <time>2020-08-26T12:28:32.852Z</time>
      </trkpt>
      <trkpt lat="69.67566" lon="18.63445">
        <ele>138.189726</ele>
        <time>2020-08-26T12:28:33.839Z</time>
      </trkpt>
      <trkpt lat="69.67577" lon="18.63452">
        <ele>137.360977</ele>
        <time>2020-08-26T12:28:34.836Z</time>
      </trkpt>
      <trkpt lat="69.67588" lon="18.63459">
        <ele>136.510871</ele>
        <time>2020-08-26T12:28:35.859Z</time>
      </trkpt>
      <trkpt lat="69.676" lon="18.63467">
        <ele>135.642653</ele>
        <time>2020-08-26T12:28:36.849Z</time>
      </trkpt>
      <trkpt lat="69.67611" lon="18.63474">
        <ele>134.761903</ele>
        <time>2020-08-26T12:28:37.868Z</time>
      </trkpt>
      <trkpt lat="69.67623" lon="18.63482">
        <ele>133.907875</ele>
        <time>2020-08-26T12:28:38.883Z</time>
      </trkpt>
      <trkpt lat="69.67634" lon="18.63491">
        <ele>133.048293</ele>
        <time>2020-08-26T12:28:39.861Z</time>
      </trkpt>
      <trkpt lat="69.67646" lon="18.63501">
        <ele>132.176693</ele>
        <time>2020-08-26T12:28:40.851Z</time>
      </trkpt>
      <trkpt lat="69.67657" lon="18.63514">
        <ele>131.302109</ele>
        <time>2020-08-26T12:28:41.852Z</time>
      </trkpt>
      <trkpt lat="69.67668" lon="18.63528">
        <ele>130.424511</ele>
        <time>2020-08-26T12:28:42.835Z</time>
      </trkpt>
      <trkpt lat="69.67679" lon="18.63544">
        <ele>129.500162</ele>
        <time>2020-08-26T12:28:43.842Z</time>
      </trkpt>
      <trkpt lat="69.67691" lon="18.63561">
        <ele>128.397183</ele>
        <time>2020-08-26T12:28:44.860Z</time>
      </trkpt>
      <trkpt lat="69.67702" lon="18.63579">
        <ele>127.129598</ele>
        <time>2020-08-26T12:28:45.875Z</time>
      </trkpt>
      <trkpt lat="69.67713" lon="18.63597">
        <ele>125.857129</ele>
        <time>2020-08-26T12:28:46.837Z</time>
      </trkpt>
      <trkpt lat="69.67725" lon="18.63615">
        <ele>124.601744</ele>
        <time>2020-08-26T12:28:47.856Z</time>
      </trkpt>
      <trkpt lat="69.67735" lon="18.63633">
        <ele>123.37168</ele>
        <time>2020-08-26T12:28:48.838Z</time>
      </trkpt>
      <trkpt lat="69.67746" lon="18.63652">
        <ele>122.203453</ele>
        <time>2020-08-26T12:28:49.857Z</time>
      </trkpt>
      <trkpt lat="69.67755" lon="18.63669">
        <ele>121.09648</ele>
        <time>2020-08-26T12:28:50.864Z</time>
      </trkpt>
      <trkpt lat="69.67764" lon="18.63686">
        <ele>120.03062</ele>
        <time>2020-08-26T12:28:51.830Z</time>
      </trkpt>
      <trkpt lat="69.67773" lon="18.63704">
        <ele>118.98139</ele>
        <time>2020-08-26T12:28:52.839Z</time>
      </trkpt>
      <trkpt lat="69.67782" lon="18.63722">
        <ele>117.919892</ele>
        <time>2020-08-26T12:28:53.856Z</time>
      </trkpt>
      <trkpt lat="69.67792" lon="18.63737">
        <ele>116.845849</ele>
        <time>2020-08-26T12:28:54.861Z</time>
      </trkpt>
      <trkpt lat="69.67801" lon="18.63753">
        <ele>115.774996</ele>
        <time>2020-08-26T12:28:55.842Z</time>
      </trkpt>
      <trkpt lat="69.67811" lon="18.63768">
        <ele>114.675147</ele>
        <time>2020-08-26T12:28:56.880Z</time>
      </trkpt>
      <trkpt lat="69.67821" lon="18.63785">
        <ele>113.550205</ele>
        <time>2020-08-26T12:28:57.853Z</time>
      </trkpt>
      <trkpt lat="69.67831" lon="18.63803">
        <ele>112.414839</ele>
        <time>2020-08-26T12:28:58.838Z</time>
      </trkpt>
      <trkpt lat="69.6784" lon="18.63822">
        <ele>111.299321</ele>
        <time>2020-08-26T12:28:59.849Z</time>
      </trkpt>
      <trkpt lat="69.67848" lon="18.63841">
        <ele>110.079057</ele>
        <time>2020-08-26T12:29:00.868Z</time>
      </trkpt>
      <trkpt lat="69.67857" lon="18.63861">
        <ele>108.821787</ele>
        <time>2020-08-26T12:29:01.837Z</time>
      </trkpt>
      <trkpt lat="69.67865" lon="18.63881">
        <ele>107.60955</ele>
        <time>2020-08-26T12:29:02.863Z</time>
      </trkpt>
      <trkpt lat="69.67873" lon="18.639">
        <ele>106.418782</ele>
        <time>2020-08-26T12:29:03.855Z</time>
      </trkpt>
      <trkpt lat="69.6788" lon="18.63918">
        <ele>105.313367</ele>
        <time>2020-08-26T12:29:04.886Z</time>
      </trkpt>
      <trkpt lat="69.67893" lon="18.63951">
        <ele>103.3593</ele>
        <time>2020-08-26T12:29:06.854Z</time>
      </trkpt>
      <trkpt lat="69.67903" lon="18.63983">
        <ele>101.693347</ele>
        <time>2020-08-26T12:29:08.869Z</time>
      </trkpt>
      <trkpt lat="69.67911" lon="18.64014">
        <ele>100.156775</ele>
        <time>2020-08-26T12:29:10.860Z</time>
      </trkpt>
      <trkpt lat="69.6792" lon="18.64044">
        <ele>98.599672</ele>
        <time>2020-08-26T12:29:12.885Z</time>
      </trkpt>
      <trkpt lat="69.67929" lon="18.64071">
        <ele>97.094102</ele>
        <time>2020-08-26T12:29:14.849Z</time>
      </trkpt>
      <trkpt lat="69.67938" lon="18.64096">
        <ele>95.684086</ele>
        <time>2020-08-26T12:29:16.855Z</time>
      </trkpt>
      <trkpt lat="69.67945" lon="18.64121">
        <ele>94.404742</ele>
        <time>2020-08-26T12:29:18.868Z</time>
      </trkpt>
      <trkpt lat="69.67951" lon="18.64141">
        <ele>93.373221</ele>
        <time>2020-08-26T12:29:20.840Z</time>
      </trkpt>
      <trkpt lat="69.6796" lon="18.64164">
        <ele>91.993101</ele>
        <time>2020-08-26T12:29:23.840Z</time>
      </trkpt>
      <trkpt lat="69.67969" lon="18.6419">
        <ele>90.842677</ele>
        <time>2020-08-26T12:29:26.846Z</time>
      </trkpt>
      <trkpt lat="69.67976" lon="18.64209">
        <ele>90.479006</ele>
        <time>2020-08-26T12:29:28.841Z</time>
      </trkpt>
      <trkpt lat="69.67982" lon="18.64231">
        <ele>90.095272</ele>
        <time>2020-08-26T12:29:30.852Z</time>
      </trkpt>
      <trkpt lat="69.6799" lon="18.64254">
        <ele>89.651541</ele>
        <time>2020-08-26T12:29:32.848Z</time>
      </trkpt>
      <trkpt lat="69.67999" lon="18.64279">
        <ele>89.155617</ele>
        <time>2020-08-26T12:29:34.854Z</time>
      </trkpt>
      <trkpt lat="69.6801" lon="18.64307">
        <ele>88.615876</ele>
        <time>2020-08-26T12:29:36.877Z</time>
      </trkpt>
      <trkpt lat="69.68019" lon="18.64334">
        <ele>88.083603</ele>
        <time>2020-08-26T12:29:38.896Z</time>
      </trkpt>
      <trkpt lat="69.68027" lon="18.64359">
        <ele>87.631574</ele>
        <time>2020-08-26T12:29:40.887Z</time>
      </trkpt>
      <trkpt lat="69.68035" lon="18.64381">
        <ele>87.218312</ele>
        <time>2020-08-26T12:29:42.838Z</time>
      </trkpt>
      <trkpt lat="69.68042" lon="18.64404">
        <ele>86.809655</ele>
        <time>2020-08-26T12:29:44.847Z</time>
      </trkpt>
      <trkpt lat="69.6805" lon="18.64433">
        <ele>86.293783</ele>
        <time>2020-08-26T12:29:47.834Z</time>
      </trkpt>
      <trkpt lat="69.6806" lon="18.6446">
        <ele>85.777069</ele>
        <time>2020-08-26T12:29:50.901Z</time>
      </trkpt>
      <trkpt lat="69.68066" lon="18.64479">
        <ele>85.416263</ele>
        <time>2020-08-26T12:29:52.829Z</time>
      </trkpt>
      <trkpt lat="69.68074" lon="18.645">
        <ele>85.008906</ele>
        <time>2020-08-26T12:29:54.842Z</time>
      </trkpt>
      <trkpt lat="69.6808" lon="18.6452">
        <ele>84.643799</ele>
        <time>2020-08-26T12:29:56.855Z</time>
      </trkpt>
      <trkpt lat="69.68087" lon="18.64544">
        <ele>84.231004</ele>
        <time>2020-08-26T12:29:59.855Z</time>
      </trkpt>
      <trkpt lat="69.68095" lon="18.64561">
        <ele>83.891828</ele>
        <time>2020-08-26T12:30:03.887Z</time>
      </trkpt>
      <trkpt lat="69.68109" lon="18.64597">
        <ele>83.343586</ele>
        <time>2020-08-26T12:32:38.877Z</time>
      </trkpt>
      <trkpt lat="69.68119" lon="18.64626">
        <ele>82.93111</ele>
        <time>2020-08-26T12:32:41.869Z</time>
      </trkpt>
      <trkpt lat="69.68127" lon="18.6465">
        <ele>82.592278</ele>
        <time>2020-08-26T12:32:43.867Z</time>
      </trkpt>
      <trkpt lat="69.68135" lon="18.64673">
        <ele>82.258375</ele>
        <time>2020-08-26T12:32:45.857Z</time>
      </trkpt>
      <trkpt lat="69.68142" lon="18.64699">
        <ele>81.923391</ele>
        <time>2020-08-26T12:32:47.862Z</time>
      </trkpt>
      <trkpt lat="69.68151" lon="18.64724">
        <ele>81.563384</ele>
        <time>2020-08-26T12:32:49.870Z</time>
      </trkpt>
      <trkpt lat="69.68159" lon="18.64748">
        <ele>81.221827</ele>
        <time>2020-08-26T12:32:51.878Z</time>
      </trkpt>
      <trkpt lat="69.68169" lon="18.64772">
        <ele>80.856368</ele>
        <time>2020-08-26T12:32:53.886Z</time>
      </trkpt>
      <trkpt lat="69.68178" lon="18.64797">
        <ele>80.478063</ele>
        <time>2020-08-26T12:32:55.847Z</time>
      </trkpt>
      <trkpt lat="69.68189" lon="18.6482">
        <ele>80.077455</ele>
        <time>2020-08-26T12:32:57.851Z</time>
      </trkpt>
      <trkpt lat="69.68202" lon="18.64843">
        <ele>79.640617</ele>
        <time>2020-08-26T12:32:59.877Z</time>
      </trkpt>
      <trkpt lat="69.68217" lon="18.64863">
        <ele>79.152871</ele>
        <time>2020-08-26T12:33:01.833Z</time>
      </trkpt>
      <trkpt lat="69.68226" lon="18.64873">
        <ele>78.890401</ele>
        <time>2020-08-26T12:33:02.845Z</time>
      </trkpt>
      <trkpt lat="69.68234" lon="18.64882">
        <ele>78.372547</ele>
        <time>2020-08-26T12:33:03.886Z</time>
      </trkpt>
      <trkpt lat="69.68244" lon="18.64893">
        <ele>77.633359</ele>
        <time>2020-08-26T12:33:04.895Z</time>
      </trkpt>
      <trkpt lat="69.68253" lon="18.64905">
        <ele>76.908351</ele>
        <time>2020-08-26T12:33:05.834Z</time>
      </trkpt>
      <trkpt lat="69.68261" lon="18.64917">
        <ele>76.195708</ele>
        <time>2020-08-26T12:33:06.848Z</time>
      </trkpt>
      <trkpt lat="69.6827" lon="18.64928">
        <ele>75.48739</ele>
        <time>2020-08-26T12:33:07.871Z</time>
      </trkpt>
      <trkpt lat="69.68279" lon="18.64939">
        <ele>74.769676</ele>
        <time>2020-08-26T12:33:08.873Z</time>
      </trkpt>
      <trkpt lat="69.68288" lon="18.6495">
        <ele>74.055959</ele>
        <time>2020-08-26T12:33:09.847Z</time>
      </trkpt>
      <trkpt lat="69.68297" lon="18.6496">
        <ele>73.338275</ele>
        <time>2020-08-26T12:33:10.854Z</time>
      </trkpt>
      <trkpt lat="69.68306" lon="18.64971">
        <ele>72.595171</ele>
        <time>2020-08-26T12:33:11.893Z</time>
      </trkpt>
      <trkpt lat="69.68315" lon="18.64981">
        <ele>71.84986</ele>
        <time>2020-08-26T12:33:12.872Z</time>
      </trkpt>
      <trkpt lat="69.68325" lon="18.64993">
        <ele>71.077366</ele>
        <time>2020-08-26T12:33:13.844Z</time>
      </trkpt>
      <trkpt lat="69.68335" lon="18.65006">
        <ele>70.259636</ele>
        <time>2020-08-26T12:33:14.860Z</time>
      </trkpt>
      <trkpt lat="69.68345" lon="18.65018">
        <ele>69.447002</ele>
        <time>2020-08-26T12:33:15.864Z</time>
      </trkpt>
      <trkpt lat="69.68355" lon="18.6503">
        <ele>68.646977</ele>
        <time>2020-08-26T12:33:16.848Z</time>
      </trkpt>
      <trkpt lat="69.68365" lon="18.65043">
        <ele>67.82611</ele>
        <time>2020-08-26T12:33:17.847Z</time>
      </trkpt>
      <trkpt lat="69.68375" lon="18.65057">
        <ele>67.003116</ele>
        <time>2020-08-26T12:33:18.847Z</time>
      </trkpt>
      <trkpt lat="69.68385" lon="18.6507">
        <ele>66.183303</ele>
        <time>2020-08-26T12:33:19.844Z</time>
      </trkpt>
      <trkpt lat="69.68395" lon="18.65083">
        <ele>65.344253</ele>
        <time>2020-08-26T12:33:20.867Z</time>
      </trkpt>
      <trkpt lat="69.68405" lon="18.65096">
        <ele>64.091306</ele>
        <time>2020-08-26T12:33:21.851Z</time>
      </trkpt>
      <trkpt lat="69.68415" lon="18.65109">
        <ele>62.839551</ele>
        <time>2020-08-26T12:33:22.855Z</time>
      </trkpt>
      <trkpt lat="69.68425" lon="18.65121">
        <ele>61.560437</ele>
        <time>2020-08-26T12:33:23.870Z</time>
      </trkpt>
      <trkpt lat="69.68435" lon="18.65133">
        <ele>60.273346</ele>
        <time>2020-08-26T12:33:24.893Z</time>
      </trkpt>
      <trkpt lat="69.68445" lon="18.65146">
        <ele>58.94015</ele>
        <time>2020-08-26T12:33:25.848Z</time>
      </trkpt>
      <trkpt lat="69.68456" lon="18.6516">
        <ele>57.634172</ele>
        <time>2020-08-26T12:33:26.852Z</time>
      </trkpt>
      <trkpt lat="69.68466" lon="18.65173">
        <ele>56.34435</ele>
        <time>2020-08-26T12:33:27.867Z</time>
      </trkpt>
      <trkpt lat="69.68475" lon="18.65188">
        <ele>55.095148</ele>
        <time>2020-08-26T12:33:28.867Z</time>
      </trkpt>
      <trkpt lat="69.68483" lon="18.65203">
        <ele>53.925664</ele>
        <time>2020-08-26T12:33:29.839Z</time>
      </trkpt>
      <trkpt lat="69.68491" lon="18.6522">
        <ele>52.793079</ele>
        <time>2020-08-26T12:33:30.853Z</time>
      </trkpt>
      <trkpt lat="69.68499" lon="18.65235">
        <ele>51.70787</ele>
        <time>2020-08-26T12:33:31.834Z</time>
      </trkpt>
      <trkpt lat="69.68513" lon="18.65264">
        <ele>49.674885</ele>
        <time>2020-08-26T12:33:33.840Z</time>
      </trkpt>
      <trkpt lat="69.68526" lon="18.6529">
        <ele>47.850298</ele>
        <time>2020-08-26T12:33:35.850Z</time>
      </trkpt>
      <trkpt lat="69.68536" lon="18.65315">
        <ele>46.273452</ele>
        <time>2020-08-26T12:33:37.875Z</time>
      </trkpt>
      <trkpt lat="69.68542" lon="18.65341">
        <ele>45.056227</ele>
        <time>2020-08-26T12:33:39.838Z</time>
      </trkpt>
      <trkpt lat="69.6854" lon="18.65372">
        <ele>44.077205</ele>
        <time>2020-08-26T12:33:41.844Z</time>
      </trkpt>
      <trkpt lat="69.68532" lon="18.65393">
        <ele>43.403067</ele>
        <time>2020-08-26T12:33:43.871Z</time>
      </trkpt>
      <trkpt lat="69.68524" lon="18.65418">
        <ele>42.615924</ele>
        <time>2020-08-26T12:33:45.858Z</time>
      </trkpt>
      <trkpt lat="69.68517" lon="18.65447">
        <ele>41.852806</ele>
        <time>2020-08-26T12:33:47.852Z</time>
      </trkpt>
      <trkpt lat="69.6851" lon="18.65477">
        <ele>41.055118</ele>
        <time>2020-08-26T12:33:49.889Z</time>
      </trkpt>
      <trkpt lat="69.68502" lon="18.65507">
        <ele>40.209224</ele>
        <time>2020-08-26T12:33:51.880Z</time>
      </trkpt>
      <trkpt lat="69.68495" lon="18.65539">
        <ele>39.356786</ele>
        <time>2020-08-26T12:33:53.872Z</time>
      </trkpt>
      <trkpt lat="69.68487" lon="18.65571">
        <ele>38.471522</ele>
        <time>2020-08-26T12:33:55.878Z</time>
      </trkpt>
      <trkpt lat="69.6848" lon="18.65604">
        <ele>37.624497</ele>
        <time>2020-08-26T12:33:57.847Z</time>
      </trkpt>
      <trkpt lat="69.68475" lon="18.65637">
        <ele>36.818275</ele>
        <time>2020-08-26T12:33:59.887Z</time>
      </trkpt>
      <trkpt lat="69.68471" lon="18.6567">
        <ele>36.051997</ele>
        <time>2020-08-26T12:34:01.847Z</time>
      </trkpt>
      <trkpt lat="69.68468" lon="18.65702">
        <ele>35.325669</ele>
        <time>2020-08-26T12:34:03.900Z</time>
      </trkpt>
      <trkpt lat="69.68466" lon="18.65733">
        <ele>34.627183</ele>
        <time>2020-08-26T12:34:05.838Z</time>
      </trkpt>
      <trkpt lat="69.68464" lon="18.65763">
        <ele>33.940575</ele>
        <time>2020-08-26T12:34:07.834Z</time>
      </trkpt>
      <trkpt lat="69.68462" lon="18.65792">
        <ele>33.273568</ele>
        <time>2020-08-26T12:34:09.846Z</time>
      </trkpt>
      <trkpt lat="69.68461" lon="18.65822">
        <ele>33.032223</ele>
        <time>2020-08-26T12:34:11.840Z</time>
      </trkpt>
      <trkpt lat="69.6846" lon="18.65848">
        <ele>33.226266</ele>
        <time>2020-08-26T12:34:13.839Z</time>
      </trkpt>
      <trkpt lat="69.68458" lon="18.65884">
        <ele>33.484224</ele>
        <time>2020-08-26T12:34:16.879Z</time>
      </trkpt>
      <trkpt lat="69.68457" lon="18.65917">
        <ele>33.731154</ele>
        <time>2020-08-26T12:34:19.842Z</time>
      </trkpt>
      <trkpt lat="69.68457" lon="18.65949">
        <ele>33.957517</ele>
        <time>2020-08-26T12:34:22.878Z</time>
      </trkpt>
      <trkpt lat="69.68456" lon="18.65978">
        <ele>34.168502</ele>
        <time>2020-08-26T12:34:25.851Z</time>
      </trkpt>
      <trkpt lat="69.68456" lon="18.66006">
        <ele>34.373064</ele>
        <time>2020-08-26T12:34:28.856Z</time>
      </trkpt>
      <trkpt lat="69.68456" lon="18.66035">
        <ele>34.585654</ele>
        <time>2020-08-26T12:34:31.859Z</time>
      </trkpt>
      <trkpt lat="69.68456" lon="18.66066">
        <ele>34.811245</ele>
        <time>2020-08-26T12:34:34.857Z</time>
      </trkpt>
      <trkpt lat="69.68454" lon="18.66098">
        <ele>35.045627</ele>
        <time>2020-08-26T12:34:37.852Z</time>
      </trkpt>
      <trkpt lat="69.68452" lon="18.66132">
        <ele>35.291113</ele>
        <time>2020-08-26T12:34:40.893Z</time>
      </trkpt>
      <trkpt lat="69.68452" lon="18.66166">
        <ele>35.542475</ele>
        <time>2020-08-26T12:34:43.859Z</time>
      </trkpt>
      <trkpt lat="69.68452" lon="18.66202">
        <ele>35.800074</ele>
        <time>2020-08-26T12:34:46.859Z</time>
      </trkpt>
      <trkpt lat="69.68453" lon="18.66239">
        <ele>36.071107</ele>
        <time>2020-08-26T12:34:49.853Z</time>
      </trkpt>
      <trkpt lat="69.68454" lon="18.66278">
        <ele>36.352801</ele>
        <time>2020-08-26T12:34:52.845Z</time>
      </trkpt>
      <trkpt lat="69.68457" lon="18.66316">
        <ele>36.634012</ele>
        <time>2020-08-26T12:34:55.850Z</time>
      </trkpt>
      <trkpt lat="69.68459" lon="18.66343">
        <ele>36.823794</ele>
        <time>2020-08-26T12:34:57.872Z</time>
      </trkpt>
      <trkpt lat="69.68461" lon="18.66369">
        <ele>37.010052</ele>
        <time>2020-08-26T12:34:59.840Z</time>
      </trkpt>
      <trkpt lat="69.68463" lon="18.66395">
        <ele>37.197416</ele>
        <time>2020-08-26T12:35:01.864Z</time>
      </trkpt>
      <trkpt lat="69.68466" lon="18.66421">
        <ele>37.382378</ele>
        <time>2020-08-26T12:35:03.855Z</time>
      </trkpt>
      <trkpt lat="69.6847" lon="18.66455">
        <ele>37.635192</ele>
        <time>2020-08-26T12:35:06.872Z</time>
      </trkpt>
      <trkpt lat="69.68475" lon="18.66487">
        <ele>37.876269</ele>
        <time>2020-08-26T12:35:09.860Z</time>
      </trkpt>
      <trkpt lat="69.68481" lon="18.66521">
        <ele>38.133178</ele>
        <time>2020-08-26T12:35:12.879Z</time>
      </trkpt>
      <trkpt lat="69.68487" lon="18.66552">
        <ele>38.386053</ele>
        <time>2020-08-26T12:35:15.847Z</time>
      </trkpt>
      <trkpt lat="69.68494" lon="18.6658">
        <ele>38.621024</ele>
        <time>2020-08-26T12:35:18.874Z</time>
      </trkpt>
      <trkpt lat="69.68502" lon="18.66606">
        <ele>38.856061</ele>
        <time>2020-08-26T12:35:21.857Z</time>
      </trkpt>
      <trkpt lat="69.68509" lon="18.66633">
        <ele>39.09118</ele>
        <time>2020-08-26T12:35:24.848Z</time>
      </trkpt>
      <trkpt lat="69.68517" lon="18.66658">
        <ele>39.318676</ele>
        <time>2020-08-26T12:35:27.858Z</time>
      </trkpt>
      <trkpt lat="69.68523" lon="18.66683">
        <ele>39.539105</ele>
        <time>2020-08-26T12:35:30.876Z</time>
      </trkpt>
      <trkpt lat="69.6853" lon="18.66709">
        <ele>39.758984</ele>
        <time>2020-08-26T12:35:33.855Z</time>
      </trkpt>
      <trkpt lat="69.68537" lon="18.66734">
        <ele>39.977221</ele>
        <time>2020-08-26T12:35:36.855Z</time>
      </trkpt>
      <trkpt lat="69.68543" lon="18.66758">
        <ele>40.188559</ele>
        <time>2020-08-26T12:35:39.846Z</time>
      </trkpt>
      <trkpt lat="69.68548" lon="18.66783">
        <ele>40.403421</ele>
        <time>2020-08-26T12:35:42.839Z</time>
      </trkpt>
      <trkpt lat="69.68552" lon="18.66806">
        <ele>40.626522</ele>
        <time>2020-08-26T12:35:45.852Z</time>
      </trkpt>
      <trkpt lat="69.68557" lon="18.6683">
        <ele>40.847408</ele>
        <time>2020-08-26T12:35:48.835Z</time>
      </trkpt>
      <trkpt lat="69.6856" lon="18.66855">
        <ele>41.066468</ele>
        <time>2020-08-26T12:35:51.841Z</time>
      </trkpt>
      <trkpt lat="69.68563" lon="18.66881">
        <ele>41.287432</ele>
        <time>2020-08-26T12:35:54.844Z</time>
      </trkpt>
      <trkpt lat="69.68566" lon="18.66906">
        <ele>41.510697</ele>
        <time>2020-08-26T12:35:57.855Z</time>
      </trkpt>
      <trkpt lat="69.68569" lon="18.66933">
        <ele>41.74403</ele>
        <time>2020-08-26T12:36:00.840Z</time>
      </trkpt>
      <trkpt lat="69.68572" lon="18.66958">
        <ele>41.963407</ele>
        <time>2020-08-26T12:36:03.849Z</time>
      </trkpt>
      <trkpt lat="69.68575" lon="18.66985">
        <ele>42.193751</ele>
        <time>2020-08-26T12:36:06.848Z</time>
      </trkpt>
      <trkpt lat="69.68578" lon="18.67012">
        <ele>42.422086</ele>
        <time>2020-08-26T12:36:09.845Z</time>
      </trkpt>
      <trkpt lat="69.68581" lon="18.67039">
        <ele>42.64884</ele>
        <time>2020-08-26T12:36:12.868Z</time>
      </trkpt>
      <trkpt lat="69.68583" lon="18.67067">
        <ele>42.884141</ele>
        <time>2020-08-26T12:36:15.854Z</time>
      </trkpt>
      <trkpt lat="69.68585" lon="18.67097">
        <ele>43.134766</ele>
        <time>2020-08-26T12:36:18.842Z</time>
      </trkpt>
      <trkpt lat="69.68586" lon="18.67129">
        <ele>43.404841</ele>
        <time>2020-08-26T12:36:21.851Z</time>
      </trkpt>
      <trkpt lat="69.68588" lon="18.67162">
        <ele>43.676627</ele>
        <time>2020-08-26T12:36:24.896Z</time>
      </trkpt>
      <trkpt lat="69.68589" lon="18.67195">
        <ele>43.947871</ele>
        <time>2020-08-26T12:36:27.864Z</time>
      </trkpt>
      <trkpt lat="69.6859" lon="18.67228">
        <ele>44.217852</ele>
        <time>2020-08-26T12:36:30.872Z</time>
      </trkpt>
      <trkpt lat="69.68591" lon="18.67262">
        <ele>44.498865</ele>
        <time>2020-08-26T12:36:33.887Z</time>
      </trkpt>
      <trkpt lat="69.68592" lon="18.67295">
        <ele>44.871575</ele>
        <time>2020-08-26T12:36:36.858Z</time>
      </trkpt>
      <trkpt lat="69.68593" lon="18.67328">
        <ele>45.232624</ele>
        <time>2020-08-26T12:36:39.847Z</time>
      </trkpt>
      <trkpt lat="69.68594" lon="18.67362">
        <ele>45.61589</ele>
        <time>2020-08-26T12:36:42.846Z</time>
      </trkpt>
      <trkpt lat="69.68594" lon="18.67394">
        <ele>45.971846</ele>
        <time>2020-08-26T12:36:45.855Z</time>
      </trkpt>
      <trkpt lat="69.68594" lon="18.67423">
        <ele>46.299677</ele>
        <time>2020-08-26T12:36:48.897Z</time>
      </trkpt>
      <trkpt lat="69.68592" lon="18.67456">
        <ele>46.670835</ele>
        <time>2020-08-26T12:36:52.875Z</time>
      </trkpt>
      <trkpt lat="69.68591" lon="18.67488">
        <ele>47.027129</ele>
        <time>2020-08-26T12:36:56.881Z</time>
      </trkpt>
      <trkpt lat="69.6859" lon="18.67519">
        <ele>47.370443</ele>
        <time>2020-08-26T12:37:00.836Z</time>
      </trkpt>
      <trkpt lat="69.6859" lon="18.67548">
        <ele>47.700267</ele>
        <time>2020-08-26T12:37:04.856Z</time>
      </trkpt>
      <trkpt lat="69.68589" lon="18.67575">
        <ele>48.00138</ele>
        <time>2020-08-26T12:37:08.844Z</time>
      </trkpt>
      <trkpt lat="69.68588" lon="18.67603">
        <ele>48.309095</ele>
        <time>2020-08-26T12:37:12.848Z</time>
      </trkpt>
      <trkpt lat="69.68588" lon="18.67635">
        <ele>48.667888</ele>
        <time>2020-08-26T12:37:17.859Z</time>
      </trkpt>
      <trkpt lat="69.68587" lon="18.67664">
        <ele>48.991484</ele>
        <time>2020-08-26T12:37:21.869Z</time>
      </trkpt>
      <trkpt lat="69.68584" lon="18.67692">
        <ele>49.317424</ele>
        <time>2020-08-26T12:37:25.835Z</time>
      </trkpt>
      <trkpt lat="69.68582" lon="18.67718">
        <ele>49.6185</ele>
        <time>2020-08-26T12:37:29.844Z</time>
      </trkpt>
      <trkpt lat="69.68581" lon="18.67746">
        <ele>49.928634</ele>
        <time>2020-08-26T12:37:33.845Z</time>
      </trkpt>
      <trkpt lat="69.68579" lon="18.67776">
        <ele>50.267453</ele>
        <time>2020-08-26T12:37:37.871Z</time>
      </trkpt>
      <trkpt lat="69.68577" lon="18.67806">
        <ele>50.400475</ele>
        <time>2020-08-26T12:37:41.874Z</time>
      </trkpt>
      <trkpt lat="69.68575" lon="18.67832">
        <ele>50.50496</ele>
        <time>2020-08-26T12:37:44.841Z</time>
      </trkpt>
      <trkpt lat="69.68573" lon="18.67858">
        <ele>50.609781</ele>
        <time>2020-08-26T12:37:47.877Z</time>
      </trkpt>
      <trkpt lat="69.68572" lon="18.67887">
        <ele>50.725536</ele>
        <time>2020-08-26T12:37:50.848Z</time>
      </trkpt>
      <trkpt lat="69.6857" lon="18.67915">
        <ele>50.834768</ele>
        <time>2020-08-26T12:37:53.866Z</time>
      </trkpt>
      <trkpt lat="69.68569" lon="18.67943">
        <ele>50.949529</ele>
        <time>2020-08-26T12:37:56.859Z</time>
      </trkpt>
      <trkpt lat="69.68566" lon="18.67974">
        <ele>51.072781</ele>
        <time>2020-08-26T12:37:59.851Z</time>
      </trkpt>
      <trkpt lat="69.68565" lon="18.68">
        <ele>51.177051</ele>
        <time>2020-08-26T12:38:02.880Z</time>
      </trkpt>
      <trkpt lat="69.68564" lon="18.68028">
        <ele>51.285127</ele>
        <time>2020-08-26T12:38:05.865Z</time>
      </trkpt>
      <trkpt lat="69.68563" lon="18.68058">
        <ele>51.404747</ele>
        <time>2020-08-26T12:38:08.841Z</time>
      </trkpt>
      <trkpt lat="69.68561" lon="18.68087">
        <ele>51.520473</ele>
        <time>2020-08-26T12:38:11.885Z</time>
      </trkpt>
      <trkpt lat="69.68559" lon="18.68115">
        <ele>51.635405</ele>
        <time>2020-08-26T12:38:14.878Z</time>
      </trkpt>
      <trkpt lat="69.68556" lon="18.68143">
        <ele>51.747821</ele>
        <time>2020-08-26T12:38:17.852Z</time>
      </trkpt>
      <trkpt lat="69.68554" lon="18.68171">
        <ele>51.862259</ele>
        <time>2020-08-26T12:38:20.835Z</time>
      </trkpt>
      <trkpt lat="69.68552" lon="18.682">
        <ele>51.97702</ele>
        <time>2020-08-26T12:38:23.850Z</time>
      </trkpt>
      <trkpt lat="69.68551" lon="18.6823">
        <ele>52.099931</ele>
        <time>2020-08-26T12:38:26.851Z</time>
      </trkpt>
      <trkpt lat="69.68549" lon="18.68264">
        <ele>52.235867</ele>
        <time>2020-08-26T12:38:29.855Z</time>
      </trkpt>
      <trkpt lat="69.68546" lon="18.683">
        <ele>52.260839</ele>
        <time>2020-08-26T12:38:32.838Z</time>
      </trkpt>
      <trkpt lat="69.68544" lon="18.68337">
        <ele>52.092014</ele>
        <time>2020-08-26T12:38:35.887Z</time>
      </trkpt>
      <trkpt lat="69.68542" lon="18.68363">
        <ele>51.973889</ele>
        <time>2020-08-26T12:38:37.871Z</time>
      </trkpt>
      <trkpt lat="69.68539" lon="18.68389">
        <ele>51.852723</ele>
        <time>2020-08-26T12:38:39.851Z</time>
      </trkpt>
      <trkpt lat="69.68537" lon="18.68417">
        <ele>51.720103</ele>
        <time>2020-08-26T12:38:41.896Z</time>
      </trkpt>
      <trkpt lat="69.68534" lon="18.68448">
        <ele>51.575129</ele>
        <time>2020-08-26T12:38:43.844Z</time>
      </trkpt>
      <trkpt lat="69.6853" lon="18.68481">
        <ele>51.420111</ele>
        <time>2020-08-26T12:38:45.851Z</time>
      </trkpt>
      <trkpt lat="69.68526" lon="18.68514">
        <ele>51.25825</ele>
        <time>2020-08-26T12:38:47.849Z</time>
      </trkpt>
      <trkpt lat="69.6852" lon="18.68551">
        <ele>51.079169</ele>
        <time>2020-08-26T12:38:49.851Z</time>
      </trkpt>
      <trkpt lat="69.68515" lon="18.6859">
        <ele>50.891104</ele>
        <time>2020-08-26T12:38:51.862Z</time>
      </trkpt>
      <trkpt lat="69.68509" lon="18.6863">
        <ele>50.695009</ele>
        <time>2020-08-26T12:38:53.856Z</time>
      </trkpt>
      <trkpt lat="69.68503" lon="18.6867">
        <ele>50.495707</ele>
        <time>2020-08-26T12:38:55.847Z</time>
      </trkpt>
      <trkpt lat="69.68497" lon="18.68709">
        <ele>50.304782</ele>
        <time>2020-08-26T12:38:57.879Z</time>
      </trkpt>
      <trkpt lat="69.68492" lon="18.68745">
        <ele>50.127784</ele>
        <time>2020-08-26T12:38:59.846Z</time>
      </trkpt>
      <trkpt lat="69.68486" lon="18.68779">
        <ele>49.885535</ele>
        <time>2020-08-26T12:39:01.851Z</time>
      </trkpt>
      <trkpt lat="69.68481" lon="18.6881">
        <ele>49.375527</ele>
        <time>2020-08-26T12:39:03.893Z</time>
      </trkpt>
      <trkpt lat="69.68476" lon="18.68839">
        <ele>48.905671</ele>
        <time>2020-08-26T12:39:05.841Z</time>
      </trkpt>
      <trkpt lat="69.68472" lon="18.68865">
        <ele>48.48087</ele>
        <time>2020-08-26T12:39:07.840Z</time>
      </trkpt>
      <trkpt lat="69.68468" lon="18.6889">
        <ele>48.069953</ele>
        <time>2020-08-26T12:39:09.844Z</time>
      </trkpt>
      <trkpt lat="69.68464" lon="18.68915">
        <ele>47.659867</ele>
        <time>2020-08-26T12:39:11.838Z</time>
      </trkpt>
      <trkpt lat="69.6846" lon="18.6894">
        <ele>47.253437</ele>
        <time>2020-08-26T12:39:13.854Z</time>
      </trkpt>
      <trkpt lat="69.68456" lon="18.68966">
        <ele>46.840272</ele>
        <time>2020-08-26T12:39:15.857Z</time>
      </trkpt>
      <trkpt lat="69.68452" lon="18.68994">
        <ele>46.383517</ele>
        <time>2020-08-26T12:39:17.834Z</time>
      </trkpt>
      <trkpt lat="69.68448" lon="18.69025">
        <ele>45.899249</ele>
        <time>2020-08-26T12:39:19.844Z</time>
      </trkpt>
      <trkpt lat="69.68444" lon="18.69058">
        <ele>45.374461</ele>
        <time>2020-08-26T12:39:21.846Z</time>
      </trkpt>
      <trkpt lat="69.68441" lon="18.69097">
        <ele>44.788498</ele>
        <time>2020-08-26T12:39:23.846Z</time>
      </trkpt>
      <trkpt lat="69.68439" lon="18.6914">
        <ele>44.145234</ele>
        <time>2020-08-26T12:39:25.860Z</time>
      </trkpt>
      <trkpt lat="69.68437" lon="18.69187">
        <ele>43.444173</ele>
        <time>2020-08-26T12:39:27.849Z</time>
      </trkpt>
      <trkpt lat="69.68436" lon="18.69239">
        <ele>42.681776</ele>
        <time>2020-08-26T12:39:29.866Z</time>
      </trkpt>
      <trkpt lat="69.68436" lon="18.69265">
        <ele>42.289858</ele>
        <time>2020-08-26T12:39:30.854Z</time>
      </trkpt>
      <trkpt lat="69.68436" lon="18.69293">
        <ele>41.933711</ele>
        <time>2020-08-26T12:39:31.855Z</time>
      </trkpt>
      <trkpt lat="69.68437" lon="18.69321">
        <ele>41.565248</ele>
        <time>2020-08-26T12:39:32.848Z</time>
      </trkpt>
      <trkpt lat="69.68438" lon="18.69349">
        <ele>41.198156</ele>
        <time>2020-08-26T12:39:33.839Z</time>
      </trkpt>
      <trkpt lat="69.68439" lon="18.69378">
        <ele>40.823339</ele>
        <time>2020-08-26T12:39:34.856Z</time>
      </trkpt>
      <trkpt lat="69.68441" lon="18.69407">
        <ele>40.44693</ele>
        <time>2020-08-26T12:39:35.879Z</time>
      </trkpt>
      <trkpt lat="69.68443" lon="18.69435">
        <ele>40.069121</ele>
        <time>2020-08-26T12:39:36.887Z</time>
      </trkpt>
      <trkpt lat="69.68445" lon="18.69464">
        <ele>39.686755</ele>
        <time>2020-08-26T12:39:37.863Z</time>
      </trkpt>
      <trkpt lat="69.68448" lon="18.69492">
        <ele>39.315782</ele>
        <time>2020-08-26T12:39:38.853Z</time>
      </trkpt>
      <trkpt lat="69.68451" lon="18.69519">
        <ele>38.95236</ele>
        <time>2020-08-26T12:39:39.868Z</time>
      </trkpt>
      <trkpt lat="69.68453" lon="18.69544">
        <ele>38.609789</ele>
        <time>2020-08-26T12:39:40.841Z</time>
      </trkpt>
      <trkpt lat="69.68456" lon="18.69569">
        <ele>38.270903</ele>
        <time>2020-08-26T12:39:41.834Z</time>
      </trkpt>
      <trkpt lat="69.68461" lon="18.69617">
        <ele>37.618021</ele>
        <time>2020-08-26T12:39:43.906Z</time>
      </trkpt>
      <trkpt lat="69.68465" lon="18.69663">
        <ele>37.005657</ele>
        <time>2020-08-26T12:39:45.862Z</time>
      </trkpt>
      <trkpt lat="69.68467" lon="18.69707">
        <ele>36.43022</ele>
        <time>2020-08-26T12:39:47.845Z</time>
      </trkpt>
      <trkpt lat="69.68468" lon="18.69747">
        <ele>35.904676</ele>
        <time>2020-08-26T12:39:49.845Z</time>
      </trkpt>
      <trkpt lat="69.68468" lon="18.69785">
        <ele>35.762042</ele>
        <time>2020-08-26T12:39:51.843Z</time>
      </trkpt>
      <trkpt lat="69.68467" lon="18.69816">
        <ele>36.113063</ele>
        <time>2020-08-26T12:39:53.862Z</time>
      </trkpt>
      <trkpt lat="69.68465" lon="18.69847">
        <ele>36.456814</ele>
        <time>2020-08-26T12:39:55.850Z</time>
      </trkpt>
      <trkpt lat="69.68463" lon="18.69878">
        <ele>36.804919</ele>
        <time>2020-08-26T12:39:57.889Z</time>
      </trkpt>
      <trkpt lat="69.68461" lon="18.69907">
        <ele>37.132696</ele>
        <time>2020-08-26T12:39:59.856Z</time>
      </trkpt>
      <trkpt lat="69.68458" lon="18.69934">
        <ele>37.441937</ele>
        <time>2020-08-26T12:40:01.840Z</time>
      </trkpt>
      <trkpt lat="69.68455" lon="18.69959">
        <ele>37.732192</ele>
        <time>2020-08-26T12:40:03.860Z</time>
      </trkpt>
      <trkpt lat="69.68452" lon="18.69992">
        <ele>38.102312</ele>
        <time>2020-08-26T12:40:06.855Z</time>
      </trkpt>
      <trkpt lat="69.68449" lon="18.70025">
        <ele>38.474829</ele>
        <time>2020-08-26T12:40:09.905Z</time>
      </trkpt>
      <trkpt lat="69.68448" lon="18.70055">
        <ele>38.808881</ele>
        <time>2020-08-26T12:40:12.918Z</time>
      </trkpt>
      <trkpt lat="69.68447" lon="18.70082">
        <ele>39.106314</ele>
        <time>2020-08-26T12:40:15.872Z</time>
      </trkpt>
      <trkpt lat="69.68445" lon="18.70113">
        <ele>39.458868</ele>
        <time>2020-08-26T12:40:19.884Z</time>
      </trkpt>
      <trkpt lat="69.6844" lon="18.70141">
        <ele>39.802452</ele>
        <time>2020-08-26T12:40:23.881Z</time>
      </trkpt>
      <trkpt lat="69.6844" lon="18.70172">
        <ele>40.140351</ele>
        <time>2020-08-26T12:40:27.840Z</time>
      </trkpt>
      <trkpt lat="69.68441" lon="18.70206">
        <ele>40.508444</ele>
        <time>2020-08-26T12:40:31.885Z</time>
      </trkpt>
      <trkpt lat="69.68441" lon="18.70237">
        <ele>40.857464</ele>
        <time>2020-08-26T12:40:35.871Z</time>
      </trkpt>
      <trkpt lat="69.68442" lon="18.70272">
        <ele>41.241783</ele>
        <time>2020-08-26T12:40:39.851Z</time>
      </trkpt>
      <trkpt lat="69.68443" lon="18.70301">
        <ele>41.389017</ele>
        <time>2020-08-26T12:40:42.868Z</time>
      </trkpt>
      <trkpt lat="69.68444" lon="18.70329">
        <ele>41.490508</ele>
        <time>2020-08-26T12:40:45.850Z</time>
      </trkpt>
      <trkpt lat="69.68444" lon="18.70355">
        <ele>41.583412</ele>
        <time>2020-08-26T12:40:48.842Z</time>
      </trkpt>
      <trkpt lat="69.68443" lon="18.70389">
        <ele>41.704318</ele>
        <time>2020-08-26T12:40:52.907Z</time>
      </trkpt>
      <trkpt lat="69.68442" lon="18.70423">
        <ele>41.825658</ele>
        <time>2020-08-26T12:40:56.853Z</time>
      </trkpt>
      <trkpt lat="69.68441" lon="18.70451">
        <ele>41.923859</ele>
        <time>2020-08-26T12:40:59.859Z</time>
      </trkpt>
      <trkpt lat="69.6844" lon="18.70479">
        <ele>42.025717</ele>
        <time>2020-08-26T12:41:02.855Z</time>
      </trkpt>
      <trkpt lat="69.68437" lon="18.70509">
        <ele>42.136819</ele>
        <time>2020-08-26T12:41:05.852Z</time>
      </trkpt>
      <trkpt lat="69.68434" lon="18.70538">
        <ele>42.243394</ele>
        <time>2020-08-26T12:41:08.848Z</time>
      </trkpt>
      <trkpt lat="69.68428" lon="18.70571">
        <ele>42.371468</ele>
        <time>2020-08-26T12:41:11.850Z</time>
      </trkpt>
      <trkpt lat="69.68424" lon="18.70595">
        <ele>42.469121</ele>
        <time>2020-08-26T12:41:13.850Z</time>
      </trkpt>
      <trkpt lat="69.68418" lon="18.70621">
        <ele>42.577053</ele>
        <time>2020-08-26T12:41:15.866Z</time>
      </trkpt>
      <trkpt lat="69.68412" lon="18.7065">
        <ele>42.699087</ele>
        <time>2020-08-26T12:41:17.871Z</time>
      </trkpt>
      <trkpt lat="69.68404" lon="18.70682">
        <ele>42.835975</ele>
        <time>2020-08-26T12:41:19.861Z</time>
      </trkpt>
      <trkpt lat="69.68396" lon="18.70718">
        <ele>42.990427</ele>
        <time>2020-08-26T12:41:21.837Z</time>
      </trkpt>
      <trkpt lat="69.68387" lon="18.70756">
        <ele>43.134031</ele>
        <time>2020-08-26T12:41:23.847Z</time>
      </trkpt>
      <trkpt lat="69.68377" lon="18.70792">
        <ele>42.903222</ele>
        <time>2020-08-26T12:41:25.920Z</time>
      </trkpt>
      <trkpt lat="69.68367" lon="18.70826">
        <ele>42.682697</ele>
        <time>2020-08-26T12:41:27.866Z</time>
      </trkpt>
      <trkpt lat="69.68359" lon="18.70859">
        <ele>42.487727</ele>
        <time>2020-08-26T12:41:29.864Z</time>
      </trkpt>
      <trkpt lat="69.68352" lon="18.70888">
        <ele>42.316126</ele>
        <time>2020-08-26T12:41:31.866Z</time>
      </trkpt>
      <trkpt lat="69.68347" lon="18.70914">
        <ele>42.165878</ele>
        <time>2020-08-26T12:41:33.843Z</time>
      </trkpt>
      <trkpt lat="69.68342" lon="18.7094">
        <ele>42.017926</ele>
        <time>2020-08-26T12:41:35.848Z</time>
      </trkpt>
      <trkpt lat="69.68336" lon="18.70964">
        <ele>41.874418</ele>
        <time>2020-08-26T12:41:37.843Z</time>
      </trkpt>
      <trkpt lat="69.68331" lon="18.70989">
        <ele>41.732599</ele>
        <time>2020-08-26T12:41:39.854Z</time>
      </trkpt>
      <trkpt lat="69.68327" lon="18.71016">
        <ele>41.587049</ele>
        <time>2020-08-26T12:41:41.881Z</time>
      </trkpt>
      <trkpt lat="69.68322" lon="18.71042">
        <ele>41.44099</ele>
        <time>2020-08-26T12:41:43.837Z</time>
      </trkpt>
      <trkpt lat="69.68317" lon="18.71064">
        <ele>41.310545</ele>
        <time>2020-08-26T12:41:45.859Z</time>
      </trkpt>
      <trkpt lat="69.68309" lon="18.71093">
        <ele>41.126214</ele>
        <time>2020-08-26T12:41:48.889Z</time>
      </trkpt>
      <trkpt lat="69.68301" lon="18.71124">
        <ele>40.93797</ele>
        <time>2020-08-26T12:41:51.836Z</time>
      </trkpt>
      <trkpt lat="69.68296" lon="18.71145">
        <ele>40.80874</ele>
        <time>2020-08-26T12:41:53.877Z</time>
      </trkpt>
      <trkpt lat="69.6829" lon="18.71166">
        <ele>40.675428</ele>
        <time>2020-08-26T12:41:55.876Z</time>
      </trkpt>
      <trkpt lat="69.68284" lon="18.71188">
        <ele>40.627119</ele>
        <time>2020-08-26T12:41:57.846Z</time>
      </trkpt>
      <trkpt lat="69.68278" lon="18.7121">
        <ele>40.765277</ele>
        <time>2020-08-26T12:41:59.868Z</time>
      </trkpt>
      <trkpt lat="69.68272" lon="18.71232">
        <ele>40.904248</ele>
        <time>2020-08-26T12:42:01.872Z</time>
      </trkpt>
      <trkpt lat="69.68265" lon="18.71255">
        <ele>41.051809</ele>
        <time>2020-08-26T12:42:03.866Z</time>
      </trkpt>
      <trkpt lat="69.68259" lon="18.71278">
        <ele>41.198991</ele>
        <time>2020-08-26T12:42:05.843Z</time>
      </trkpt>
      <trkpt lat="69.68253" lon="18.71301">
        <ele>41.343046</ele>
        <time>2020-08-26T12:42:07.859Z</time>
      </trkpt>
      <trkpt lat="69.68247" lon="18.71327">
        <ele>41.492283</ele>
        <time>2020-08-26T12:42:09.848Z</time>
      </trkpt>
      <trkpt lat="69.68242" lon="18.71353">
        <ele>41.636594</ele>
        <time>2020-08-26T12:42:11.844Z</time>
      </trkpt>
      <trkpt lat="69.68238" lon="18.71379">
        <ele>41.777033</ele>
        <time>2020-08-26T12:42:13.848Z</time>
      </trkpt>
      <trkpt lat="69.68234" lon="18.71408">
        <ele>41.927234</ele>
        <time>2020-08-26T12:42:15.885Z</time>
      </trkpt>
      <trkpt lat="69.68231" lon="18.71439">
        <ele>42.08811</ele>
        <time>2020-08-26T12:42:17.849Z</time>
      </trkpt>
      <trkpt lat="69.68227" lon="18.71468">
        <ele>42.241641</ele>
        <time>2020-08-26T12:42:19.856Z</time>
      </trkpt>
      <trkpt lat="69.68223" lon="18.71498">
        <ele>42.39602</ele>
        <time>2020-08-26T12:42:21.839Z</time>
      </trkpt>
      <trkpt lat="69.6822" lon="18.71526">
        <ele>42.54252</ele>
        <time>2020-08-26T12:42:23.867Z</time>
      </trkpt>
      <trkpt lat="69.68217" lon="18.71552">
        <ele>42.675226</ele>
        <time>2020-08-26T12:42:25.895Z</time>
      </trkpt>
      <trkpt lat="69.68215" lon="18.71579">
        <ele>42.809886</ele>
        <time>2020-08-26T12:42:27.856Z</time>
      </trkpt>
      <trkpt lat="69.68215" lon="18.71606">
        <ele>42.943484</ele>
        <time>2020-08-26T12:42:29.863Z</time>
      </trkpt>
      <trkpt lat="69.68213" lon="18.71632">
        <ele>43.073547</ele>
        <time>2020-08-26T12:42:31.874Z</time>
      </trkpt>
      <trkpt lat="69.6821" lon="18.71669">
        <ele>43.035608</ele>
        <time>2020-08-26T12:42:34.845Z</time>
      </trkpt>
      <trkpt lat="69.68208" lon="18.71707">
        <ele>42.905325</ele>
        <time>2020-08-26T12:42:37.859Z</time>
      </trkpt>
      <trkpt lat="69.68206" lon="18.71736">
        <ele>42.808541</ele>
        <time>2020-08-26T12:42:39.837Z</time>
      </trkpt>
      <trkpt lat="69.68205" lon="18.71768">
        <ele>42.701067</ele>
        <time>2020-08-26T12:42:41.840Z</time>
      </trkpt>
      <trkpt lat="69.68204" lon="18.71801">
        <ele>42.590648</ele>
        <time>2020-08-26T12:42:43.861Z</time>
      </trkpt>
      <trkpt lat="69.68203" lon="18.71834">
        <ele>42.480668</ele>
        <time>2020-08-26T12:42:45.851Z</time>
      </trkpt>
      <trkpt lat="69.68202" lon="18.71866">
        <ele>42.372279</ele>
        <time>2020-08-26T12:42:47.894Z</time>
      </trkpt>
      <trkpt lat="69.68201" lon="18.719">
        <ele>42.258076</ele>
        <time>2020-08-26T12:42:49.841Z</time>
      </trkpt>
      <trkpt lat="69.682" lon="18.71937">
        <ele>42.135721</ele>
        <time>2020-08-26T12:42:51.861Z</time>
      </trkpt>
      <trkpt lat="69.68198" lon="18.71975">
        <ele>42.006963</ele>
        <time>2020-08-26T12:42:53.919Z</time>
      </trkpt>
      <trkpt lat="69.68198" lon="18.72015">
        <ele>41.874909</ele>
        <time>2020-08-26T12:42:55.851Z</time>
      </trkpt>
      <trkpt lat="69.68199" lon="18.72056">
        <ele>41.737637</ele>
        <time>2020-08-26T12:42:57.851Z</time>
      </trkpt>
      <trkpt lat="69.682" lon="18.72098">
        <ele>41.595796</ele>
        <time>2020-08-26T12:42:59.872Z</time>
      </trkpt>
      <trkpt lat="69.68201" lon="18.72138">
        <ele>41.463792</ele>
        <time>2020-08-26T12:43:01.851Z</time>
      </trkpt>
      <trkpt lat="69.68202" lon="18.72176">
        <ele>41.263271</ele>
        <time>2020-08-26T12:43:03.868Z</time>
      </trkpt>
      <trkpt lat="69.68204" lon="18.72212">
        <ele>41.006881</ele>
        <time>2020-08-26T12:43:05.859Z</time>
      </trkpt>
      <trkpt lat="69.68205" lon="18.72245">
        <ele>40.766131</ele>
        <time>2020-08-26T12:43:07.845Z</time>
      </trkpt>
      <trkpt lat="69.68206" lon="18.72277">
        <ele>40.538593</ele>
        <time>2020-08-26T12:43:09.860Z</time>
      </trkpt>
      <trkpt lat="69.68207" lon="18.72311">
        <ele>40.298061</ele>
        <time>2020-08-26T12:43:11.852Z</time>
      </trkpt>
      <trkpt lat="69.68209" lon="18.72345">
        <ele>40.055267</ele>
        <time>2020-08-26T12:43:13.855Z</time>
      </trkpt>
      <trkpt lat="69.6821" lon="18.72378">
        <ele>39.820523</ele>
        <time>2020-08-26T12:43:15.836Z</time>
      </trkpt>
      <trkpt lat="69.68211" lon="18.72409">
        <ele>39.598394</ele>
        <time>2020-08-26T12:43:17.899Z</time>
      </trkpt>
      <trkpt lat="69.68211" lon="18.7244">
        <ele>39.379239</ele>
        <time>2020-08-26T12:43:19.840Z</time>
      </trkpt>
      <trkpt lat="69.68212" lon="18.7247">
        <ele>39.165988</ele>
        <time>2020-08-26T12:43:21.884Z</time>
      </trkpt>
      <trkpt lat="69.68213" lon="18.72499">
        <ele>38.962264</ele>
        <time>2020-08-26T12:43:23.857Z</time>
      </trkpt>
      <trkpt lat="69.68213" lon="18.72527">
        <ele>38.758695</ele>
        <time>2020-08-26T12:43:25.838Z</time>
      </trkpt>
      <trkpt lat="69.68214" lon="18.72554">
        <ele>38.566717</ele>
        <time>2020-08-26T12:43:27.864Z</time>
      </trkpt>
      <trkpt lat="69.68214" lon="18.72582">
        <ele>38.371461</ele>
        <time>2020-08-26T12:43:29.843Z</time>
      </trkpt>
      <trkpt lat="69.68214" lon="18.72609">
        <ele>38.178293</ele>
        <time>2020-08-26T12:43:31.851Z</time>
      </trkpt>
      <trkpt lat="69.68214" lon="18.72636">
        <ele>37.987297</ele>
        <time>2020-08-26T12:43:33.855Z</time>
      </trkpt>
      <trkpt lat="69.68214" lon="18.72663">
        <ele>37.793365</ele>
        <time>2020-08-26T12:43:35.891Z</time>
      </trkpt>
      <trkpt lat="69.68214" lon="18.7269">
        <ele>37.924319</ele>
        <time>2020-08-26T12:43:37.840Z</time>
      </trkpt>
      <trkpt lat="69.68215" lon="18.72716">
        <ele>38.237903</ele>
        <time>2020-08-26T12:43:39.857Z</time>
      </trkpt>
      <trkpt lat="69.68216" lon="18.72753">
        <ele>38.681379</ele>
        <time>2020-08-26T12:43:42.844Z</time>
      </trkpt>
      <trkpt lat="69.68217" lon="18.72788">
        <ele>39.10578</ele>
        <time>2020-08-26T12:43:45.834Z</time>
      </trkpt>
      <trkpt lat="69.68216" lon="18.72825">
        <ele>39.548237</ele>
        <time>2020-08-26T12:43:48.846Z</time>
      </trkpt>
      <trkpt lat="69.68217" lon="18.7286">
        <ele>39.978434</ele>
        <time>2020-08-26T12:43:51.866Z</time>
      </trkpt>
      <trkpt lat="69.68219" lon="18.72897">
        <ele>40.422579</ele>
        <time>2020-08-26T12:43:54.880Z</time>
      </trkpt>
      <trkpt lat="69.68222" lon="18.72929">
        <ele>40.826704</ele>
        <time>2020-08-26T12:43:57.842Z</time>
      </trkpt>
      <trkpt lat="69.68224" lon="18.72959">
        <ele>41.192887</ele>
        <time>2020-08-26T12:44:00.849Z</time>
      </trkpt>
      <trkpt lat="69.68225" lon="18.72989">
        <ele>41.56026</ele>
        <time>2020-08-26T12:44:03.857Z</time>
      </trkpt>
      <trkpt lat="69.68227" lon="18.73016">
        <ele>41.894019</ele>
        <time>2020-08-26T12:44:06.851Z</time>
      </trkpt>
      <trkpt lat="69.68228" lon="18.73044">
        <ele>42.224554</ele>
        <time>2020-08-26T12:44:09.838Z</time>
      </trkpt>
      <trkpt lat="69.68229" lon="18.73071">
        <ele>42.554325</ele>
        <time>2020-08-26T12:44:12.839Z</time>
      </trkpt>
      <trkpt lat="69.6823" lon="18.73098">
        <ele>42.875541</ele>
        <time>2020-08-26T12:44:15.846Z</time>
      </trkpt>
      <trkpt lat="69.68231" lon="18.73128">
        <ele>43.240689</ele>
        <time>2020-08-26T12:44:19.848Z</time>
      </trkpt>
      <trkpt lat="69.68231" lon="18.7316">
        <ele>43.623837</ele>
        <time>2020-08-26T12:44:24.878Z</time>
      </trkpt>
      <trkpt lat="69.68232" lon="18.73189">
        <ele>43.980266</ele>
        <time>2020-08-26T12:44:29.839Z</time>
      </trkpt>
      <trkpt lat="69.68232" lon="18.73216">
        <ele>44.238188</ele>
        <time>2020-08-26T12:44:34.851Z</time>
      </trkpt>
      <trkpt lat="69.68232" lon="18.73245">
        <ele>44.523296</ele>
        <time>2020-08-26T12:44:39.862Z</time>
      </trkpt>
      <trkpt lat="69.68231" lon="18.73272">
        <ele>44.794557</ele>
        <time>2020-08-26T12:44:43.868Z</time>
      </trkpt>
      <trkpt lat="69.68231" lon="18.73303">
        <ele>45.094413</ele>
        <time>2020-08-26T12:44:47.844Z</time>
      </trkpt>
      <trkpt lat="69.68231" lon="18.73335">
        <ele>45.412775</ele>
        <time>2020-08-26T12:44:51.877Z</time>
      </trkpt>
      <trkpt lat="69.68232" lon="18.73369">
        <ele>45.746297</ele>
        <time>2020-08-26T12:44:55.852Z</time>
      </trkpt>
      <trkpt lat="69.68233" lon="18.734">
        <ele>46.052413</ele>
        <time>2020-08-26T12:44:59.889Z</time>
      </trkpt>
      <trkpt lat="69.68235" lon="18.73432">
        <ele>46.364058</ele>
        <time>2020-08-26T12:45:03.861Z</time>
      </trkpt>
      <trkpt lat="69.68237" lon="18.73464">
        <ele>46.686866</ele>
        <time>2020-08-26T12:45:07.880Z</time>
      </trkpt>
      <trkpt lat="69.68237" lon="18.7349">
        <ele>46.939569</ele>
        <time>2020-08-26T12:45:10.870Z</time>
      </trkpt>
      <trkpt lat="69.68237" lon="18.73522">
        <ele>47.251993</ele>
        <time>2020-08-26T12:45:14.838Z</time>
      </trkpt>
      <trkpt lat="69.68236" lon="18.7355">
        <ele>47.522003</ele>
        <time>2020-08-26T12:45:17.869Z</time>
      </trkpt>
      <trkpt lat="69.68234" lon="18.7358">
        <ele>47.821089</ele>
        <time>2020-08-26T12:45:20.847Z</time>
      </trkpt>
      <trkpt lat="69.68231" lon="18.73614">
        <ele>48.168877</ele>
        <time>2020-08-26T12:45:23.869Z</time>
      </trkpt>
      <trkpt lat="69.68228" lon="18.73645">
        <ele>48.484692</ele>
        <time>2020-08-26T12:45:26.862Z</time>
      </trkpt>
      <trkpt lat="69.68226" lon="18.73675">
        <ele>48.782045</ele>
        <time>2020-08-26T12:45:29.882Z</time>
      </trkpt>
      <trkpt lat="69.68225" lon="18.73704">
        <ele>49.095973</ele>
        <time>2020-08-26T12:45:32.840Z</time>
      </trkpt>
      <trkpt lat="69.68222" lon="18.73732">
        <ele>49.617371</ele>
        <time>2020-08-26T12:45:35.923Z</time>
      </trkpt>
      <trkpt lat="69.6822" lon="18.73765">
        <ele>50.209165</ele>
        <time>2020-08-26T12:45:39.840Z</time>
      </trkpt>
      <trkpt lat="69.68217" lon="18.73797">
        <ele>50.807018</ele>
        <time>2020-08-26T12:45:43.862Z</time>
      </trkpt>
      <trkpt lat="69.68214" lon="18.73827">
        <ele>51.36403</ele>
        <time>2020-08-26T12:45:47.859Z</time>
      </trkpt>
      <trkpt lat="69.68211" lon="18.73854">
        <ele>51.858954</ele>
        <time>2020-08-26T12:45:51.840Z</time>
      </trkpt>
      <trkpt lat="69.68209" lon="18.73881">
        <ele>52.359967</ele>
        <time>2020-08-26T12:45:56.854Z</time>
      </trkpt>
      <trkpt lat="69.68206" lon="18.73912">
        <ele>52.918992</ele>
        <time>2020-08-26T12:46:01.847Z</time>
      </trkpt>
      <trkpt lat="69.68204" lon="18.73941">
        <ele>53.456354</ele>
        <time>2020-08-26T12:46:07.869Z</time>
      </trkpt>
      <trkpt lat="69.68201" lon="18.73968">
        <ele>53.971506</ele>
        <time>2020-08-26T12:46:13.860Z</time>
      </trkpt>
      <trkpt lat="69.68197" lon="18.73994">
        <ele>54.467632</ele>
        <time>2020-08-26T12:46:18.871Z</time>
      </trkpt>
      <trkpt lat="69.68193" lon="18.74022">
        <ele>55.008327</ele>
        <time>2020-08-26T12:46:23.859Z</time>
      </trkpt>
      <trkpt lat="69.68188" lon="18.74046">
        <ele>55.500334</ele>
        <time>2020-08-26T12:46:28.855Z</time>
      </trkpt>
      <trkpt lat="69.68183" lon="18.74069">
        <ele>55.988434</ele>
        <time>2020-08-26T12:46:33.872Z</time>
      </trkpt>
      <trkpt lat="69.68178" lon="18.74093">
        <ele>56.483032</ele>
        <time>2020-08-26T12:46:38.894Z</time>
      </trkpt>
      <trkpt lat="69.68173" lon="18.74116">
        <ele>56.986685</ele>
        <time>2020-08-26T12:46:43.860Z</time>
      </trkpt>
      <trkpt lat="69.68167" lon="18.74141">
        <ele>57.5356</ele>
        <time>2020-08-26T12:46:49.892Z</time>
      </trkpt>
      <trkpt lat="69.68162" lon="18.74165">
        <ele>58.006676</ele>
        <time>2020-08-26T12:46:53.857Z</time>
      </trkpt>
      <trkpt lat="69.68158" lon="18.74191">
        <ele>58.369345</ele>
        <time>2020-08-26T12:46:57.867Z</time>
      </trkpt>
      <trkpt lat="69.68154" lon="18.74216">
        <ele>58.563283</ele>
        <time>2020-08-26T12:47:01.846Z</time>
      </trkpt>
      <trkpt lat="69.68149" lon="18.74243">
        <ele>58.790476</ele>
        <time>2020-08-26T12:47:05.847Z</time>
      </trkpt>
      <trkpt lat="69.68143" lon="18.74271">
        <ele>59.024002</ele>
        <time>2020-08-26T12:47:09.852Z</time>
      </trkpt>
      <trkpt lat="69.68137" lon="18.743">
        <ele>59.259693</ele>
        <time>2020-08-26T12:47:13.848Z</time>
      </trkpt>
      <trkpt lat="69.68132" lon="18.7433">
        <ele>59.506202</ele>
        <time>2020-08-26T12:47:17.880Z</time>
      </trkpt>
      <trkpt lat="69.68126" lon="18.74356">
        <ele>59.728865</ele>
        <time>2020-08-26T12:47:21.853Z</time>
      </trkpt>
      <trkpt lat="69.68119" lon="18.74381">
        <ele>59.957052</ele>
        <time>2020-08-26T12:47:25.875Z</time>
      </trkpt>
      <trkpt lat="69.68113" lon="18.74407">
        <ele>60.176808</ele>
        <time>2020-08-26T12:47:29.896Z</time>
      </trkpt>
      <trkpt lat="69.68108" lon="18.74429">
        <ele>60.362666</ele>
        <time>2020-08-26T12:47:32.847Z</time>
      </trkpt>
      <trkpt lat="69.68103" lon="18.74452">
        <ele>60.565316</ele>
        <time>2020-08-26T12:47:35.867Z</time>
      </trkpt>
      <trkpt lat="69.68096" lon="18.74476">
        <ele>60.789693</ele>
        <time>2020-08-26T12:47:39.857Z</time>
      </trkpt>
      <trkpt lat="69.68089" lon="18.745">
        <ele>61.019333</ele>
        <time>2020-08-26T12:47:43.890Z</time>
      </trkpt>
      <trkpt lat="69.68082" lon="18.74521">
        <ele>61.212145</ele>
        <time>2020-08-26T12:47:46.878Z</time>
      </trkpt>
      <trkpt lat="69.68076" lon="18.74541">
        <ele>61.412888</ele>
        <time>2020-08-26T12:47:49.870Z</time>
      </trkpt>
      <trkpt lat="69.68065" lon="18.74564">
        <ele>61.684734</ele>
        <time>2020-08-26T12:47:52.861Z</time>
      </trkpt>
      <trkpt lat="69.68057" lon="18.74579">
        <ele>61.87609</ele>
        <time>2020-08-26T12:47:54.843Z</time>
      </trkpt>
      <trkpt lat="69.68046" lon="18.74597">
        <ele>61.784856</ele>
        <time>2020-08-26T12:47:57.853Z</time>
      </trkpt>
      <trkpt lat="69.68038" lon="18.7461">
        <ele>61.573074</ele>
        <time>2020-08-26T12:47:59.856Z</time>
      </trkpt>
      <trkpt lat="69.68029" lon="18.7462">
        <ele>61.329938</ele>
        <time>2020-08-26T12:48:01.872Z</time>
      </trkpt>
      <trkpt lat="69.68017" lon="18.7463">
        <ele>61.055717</ele>
        <time>2020-08-26T12:48:03.883Z</time>
      </trkpt>
      <trkpt lat="69.68005" lon="18.74637">
        <ele>60.753581</ele>
        <time>2020-08-26T12:48:05.837Z</time>
      </trkpt>
      <trkpt lat="69.6799" lon="18.74643">
        <ele>60.412329</ele>
        <time>2020-08-26T12:48:07.861Z</time>
      </trkpt>
      <trkpt lat="69.67975" lon="18.74647">
        <ele>60.055585</ele>
        <time>2020-08-26T12:48:09.884Z</time>
      </trkpt>
      <trkpt lat="69.67959" lon="18.7465">
        <ele>59.671121</ele>
        <time>2020-08-26T12:48:11.856Z</time>
      </trkpt>
      <trkpt lat="69.67944" lon="18.74654">
        <ele>59.313859</ele>
        <time>2020-08-26T12:48:13.899Z</time>
      </trkpt>
      <trkpt lat="69.6793" lon="18.74657">
        <ele>58.981087</ele>
        <time>2020-08-26T12:48:15.864Z</time>
      </trkpt>
      <trkpt lat="69.67915" lon="18.74659">
        <ele>58.641722</ele>
        <time>2020-08-26T12:48:17.850Z</time>
      </trkpt>
      <trkpt lat="69.679" lon="18.74662">
        <ele>58.280414</ele>
        <time>2020-08-26T12:48:19.858Z</time>
      </trkpt>
      <trkpt lat="69.67886" lon="18.74666">
        <ele>57.942291</ele>
        <time>2020-08-26T12:48:21.877Z</time>
      </trkpt>
      <trkpt lat="69.67874" lon="18.7467">
        <ele>57.574222</ele>
        <time>2020-08-26T12:48:23.869Z</time>
      </trkpt>
      <trkpt lat="69.67861" lon="18.74672">
        <ele>57.052162</ele>
        <time>2020-08-26T12:48:25.857Z</time>
      </trkpt>
      <trkpt lat="69.67848" lon="18.74673">
        <ele>56.452651</ele>
        <time>2020-08-26T12:48:27.862Z</time>
      </trkpt>
      <trkpt lat="69.67834" lon="18.74678">
        <ele>55.844628</ele>
        <time>2020-08-26T12:48:29.839Z</time>
      </trkpt>
      <trkpt lat="69.6782" lon="18.74689">
        <ele>55.237373</ele>
        <time>2020-08-26T12:48:31.851Z</time>
      </trkpt>
      <trkpt lat="69.67807" lon="18.747">
        <ele>54.649245</ele>
        <time>2020-08-26T12:48:33.875Z</time>
      </trkpt>
      <trkpt lat="69.67792" lon="18.74711">
        <ele>54.004369</ele>
        <time>2020-08-26T12:48:35.861Z</time>
      </trkpt>
      <trkpt lat="69.67778" lon="18.74729">
        <ele>53.312492</ele>
        <time>2020-08-26T12:48:37.896Z</time>
      </trkpt>
      <trkpt lat="69.67763" lon="18.74746">
        <ele>52.637077</ele>
        <time>2020-08-26T12:48:39.884Z</time>
      </trkpt>
      <trkpt lat="69.67749" lon="18.74765">
        <ele>51.954728</ele>
        <time>2020-08-26T12:48:41.854Z</time>
      </trkpt>
      <trkpt lat="69.67737" lon="18.74793">
        <ele>51.312181</ele>
        <time>2020-08-26T12:48:43.854Z</time>
      </trkpt>
      <trkpt lat="69.6773" lon="18.74828">
        <ele>50.692746</ele>
        <time>2020-08-26T12:48:45.886Z</time>
      </trkpt>
      <trkpt lat="69.67725" lon="18.74856">
        <ele>50.232709</ele>
        <time>2020-08-26T12:48:47.849Z</time>
      </trkpt>
      <trkpt lat="69.6772" lon="18.7488">
        <ele>49.849449</ele>
        <time>2020-08-26T12:48:49.846Z</time>
      </trkpt>
      <trkpt lat="69.67715" lon="18.74902">
        <ele>49.531252</ele>
        <time>2020-08-26T12:48:51.880Z</time>
      </trkpt>
      <trkpt lat="69.67708" lon="18.74923">
        <ele>49.204191</ele>
        <time>2020-08-26T12:48:53.861Z</time>
      </trkpt>
      <trkpt lat="69.67701" lon="18.74943">
        <ele>48.853263</ele>
        <time>2020-08-26T12:48:55.859Z</time>
      </trkpt>
      <trkpt lat="69.67692" lon="18.74963">
        <ele>48.486383</ele>
        <time>2020-08-26T12:48:57.851Z</time>
      </trkpt>
      <trkpt lat="69.67684" lon="18.74981">
        <ele>48.128199</ele>
        <time>2020-08-26T12:48:59.909Z</time>
      </trkpt>
      <trkpt lat="69.67674" lon="18.74997">
        <ele>47.753925</ele>
        <time>2020-08-26T12:49:01.851Z</time>
      </trkpt>
      <trkpt lat="69.67664" lon="18.75013">
        <ele>47.358867</ele>
        <time>2020-08-26T12:49:03.871Z</time>
      </trkpt>
      <trkpt lat="69.67654" lon="18.75027">
        <ele>46.987293</ele>
        <time>2020-08-26T12:49:05.856Z</time>
      </trkpt>
      <trkpt lat="69.67644" lon="18.75041">
        <ele>46.608118</ele>
        <time>2020-08-26T12:49:07.874Z</time>
      </trkpt>
      <trkpt lat="69.67634" lon="18.75057">
        <ele>46.247682</ele>
        <time>2020-08-26T12:49:09.866Z</time>
      </trkpt>
      <trkpt lat="69.67625" lon="18.75072">
        <ele>45.890289</ele>
        <time>2020-08-26T12:49:11.866Z</time>
      </trkpt>
      <trkpt lat="69.67616" lon="18.75092">
        <ele>45.493817</ele>
        <time>2020-08-26T12:49:13.860Z</time>
      </trkpt>
      <trkpt lat="69.67607" lon="18.75111">
        <ele>45.114426</ele>
        <time>2020-08-26T12:49:15.873Z</time>
      </trkpt>
      <trkpt lat="69.67598" lon="18.7513">
        <ele>44.745644</ele>
        <time>2020-08-26T12:49:17.846Z</time>
      </trkpt>
      <trkpt lat="69.67589" lon="18.7515">
        <ele>44.366017</ele>
        <time>2020-08-26T12:49:19.865Z</time>
      </trkpt>
      <trkpt lat="69.6758" lon="18.75172">
        <ele>43.983079</ele>
        <time>2020-08-26T12:49:21.847Z</time>
      </trkpt>
      <trkpt lat="69.67572" lon="18.75196">
        <ele>43.781385</ele>
        <time>2020-08-26T12:49:23.839Z</time>
      </trkpt>
      <trkpt lat="69.67564" lon="18.75221">
        <ele>43.608832</ele>
        <time>2020-08-26T12:49:25.858Z</time>
      </trkpt>
      <trkpt lat="69.67556" lon="18.75248">
        <ele>43.43094</ele>
        <time>2020-08-26T12:49:27.887Z</time>
      </trkpt>
      <trkpt lat="69.67549" lon="18.75277">
        <ele>43.254257</ele>
        <time>2020-08-26T12:49:29.861Z</time>
      </trkpt>
      <trkpt lat="69.67543" lon="18.75306">
        <ele>43.079808</ele>
        <time>2020-08-26T12:49:31.858Z</time>
      </trkpt>
      <trkpt lat="69.67537" lon="18.75336">
        <ele>42.903734</ele>
        <time>2020-08-26T12:49:33.868Z</time>
      </trkpt>
      <trkpt lat="69.6753" lon="18.75366">
        <ele>42.724098</ele>
        <time>2020-08-26T12:49:35.850Z</time>
      </trkpt>
      <trkpt lat="69.67523" lon="18.75396">
        <ele>42.542439</ele>
        <time>2020-08-26T12:49:37.880Z</time>
      </trkpt>
      <trkpt lat="69.67516" lon="18.75425">
        <ele>42.360717</ele>
        <time>2020-08-26T12:49:39.854Z</time>
      </trkpt>
      <trkpt lat="69.67508" lon="18.75454">
        <ele>42.177801</ele>
        <time>2020-08-26T12:49:41.840Z</time>
      </trkpt>
      <trkpt lat="69.67501" lon="18.75483">
        <ele>41.999039</ele>
        <time>2020-08-26T12:49:43.845Z</time>
      </trkpt>
      <trkpt lat="69.67495" lon="18.75513">
        <ele>41.822681</ele>
        <time>2020-08-26T12:49:45.852Z</time>
      </trkpt>
      <trkpt lat="69.67489" lon="18.75544">
        <ele>41.641296</ele>
        <time>2020-08-26T12:49:47.881Z</time>
      </trkpt>
      <trkpt lat="69.67483" lon="18.75574">
        <ele>41.465219</ele>
        <time>2020-08-26T12:49:49.841Z</time>
      </trkpt>
      <trkpt lat="69.67476" lon="18.75602">
        <ele>41.35211</ele>
        <time>2020-08-26T12:49:51.859Z</time>
      </trkpt>
      <trkpt lat="69.67469" lon="18.75632">
        <ele>41.613632</ele>
        <time>2020-08-26T12:49:53.874Z</time>
      </trkpt>
      <trkpt lat="69.67463" lon="18.7566">
        <ele>41.871247</ele>
        <time>2020-08-26T12:49:55.859Z</time>
      </trkpt>
      <trkpt lat="69.67457" lon="18.75689">
        <ele>42.127048</ele>
        <time>2020-08-26T12:49:57.843Z</time>
      </trkpt>
      <trkpt lat="69.6745" lon="18.75719">
        <ele>42.395369</ele>
        <time>2020-08-26T12:49:59.856Z</time>
      </trkpt>
      <trkpt lat="69.67444" lon="18.75751">
        <ele>42.665649</ele>
        <time>2020-08-26T12:50:01.862Z</time>
      </trkpt>
      <trkpt lat="69.67438" lon="18.75781">
        <ele>42.927887</ele>
        <time>2020-08-26T12:50:03.870Z</time>
      </trkpt>
      <trkpt lat="69.67434" lon="18.75811">
        <ele>43.1751</ele>
        <time>2020-08-26T12:50:05.870Z</time>
      </trkpt>
      <trkpt lat="69.67432" lon="18.75838">
        <ele>43.385172</ele>
        <time>2020-08-26T12:50:07.876Z</time>
      </trkpt>
      <trkpt lat="69.6743" lon="18.75864">
        <ele>43.583226</ele>
        <time>2020-08-26T12:50:09.846Z</time>
      </trkpt>
      <trkpt lat="69.67428" lon="18.75892">
        <ele>43.792723</ele>
        <time>2020-08-26T12:50:11.848Z</time>
      </trkpt>
      <trkpt lat="69.67427" lon="18.7592">
        <ele>44.009931</ele>
        <time>2020-08-26T12:50:13.859Z</time>
      </trkpt>
      <trkpt lat="69.67427" lon="18.75948">
        <ele>44.220509</ele>
        <time>2020-08-26T12:50:15.862Z</time>
      </trkpt>
      <trkpt lat="69.67426" lon="18.75975">
        <ele>44.423687</ele>
        <time>2020-08-26T12:50:17.854Z</time>
      </trkpt>
      <trkpt lat="69.67427" lon="18.76001">
        <ele>44.61835</ele>
        <time>2020-08-26T12:50:19.881Z</time>
      </trkpt>
      <trkpt lat="69.67428" lon="18.76036">
        <ele>44.887718</ele>
        <time>2020-08-26T12:50:22.868Z</time>
      </trkpt>
      <trkpt lat="69.67431" lon="18.76068">
        <ele>45.134668</ele>
        <time>2020-08-26T12:50:25.849Z</time>
      </trkpt>
      <trkpt lat="69.67433" lon="18.76104">
        <ele>45.477418</ele>
        <time>2020-08-26T12:50:28.883Z</time>
      </trkpt>
      <trkpt lat="69.67436" lon="18.76135">
        <ele>45.810075</ele>
        <time>2020-08-26T12:50:31.909Z</time>
      </trkpt>
      <trkpt lat="69.67439" lon="18.76165">
        <ele>46.132581</ele>
        <time>2020-08-26T12:50:34.894Z</time>
      </trkpt>
      <trkpt lat="69.67442" lon="18.76196">
        <ele>46.457736</ele>
        <time>2020-08-26T12:50:37.848Z</time>
      </trkpt>
      <trkpt lat="69.67445" lon="18.76228">
        <ele>46.804316</ele>
        <time>2020-08-26T12:50:40.842Z</time>
      </trkpt>
      <trkpt lat="69.6745" lon="18.76262">
        <ele>47.180108</ele>
        <time>2020-08-26T12:50:43.860Z</time>
      </trkpt>
      <trkpt lat="69.67452" lon="18.76287">
        <ele>47.455334</ele>
        <time>2020-08-26T12:50:45.839Z</time>
      </trkpt>
      <trkpt lat="69.67455" lon="18.76312">
        <ele>47.722284</ele>
        <time>2020-08-26T12:50:47.868Z</time>
      </trkpt>
      <trkpt lat="69.67458" lon="18.76338">
        <ele>48.010471</ele>
        <time>2020-08-26T12:50:49.854Z</time>
      </trkpt>
      <trkpt lat="69.67462" lon="18.76367">
        <ele>48.330663</ele>
        <time>2020-08-26T12:50:51.862Z</time>
      </trkpt>
      <trkpt lat="69.67466" lon="18.76396">
        <ele>48.6527</ele>
        <time>2020-08-26T12:50:53.856Z</time>
      </trkpt>
      <trkpt lat="69.6747" lon="18.76426">
        <ele>48.982857</ele>
        <time>2020-08-26T12:50:55.853Z</time>
      </trkpt>
      <trkpt lat="69.67474" lon="18.76456">
        <ele>49.31812</ele>
        <time>2020-08-26T12:50:57.884Z</time>
      </trkpt>
      <trkpt lat="69.67479" lon="18.76487">
        <ele>49.668262</ele>
        <time>2020-08-26T12:50:59.876Z</time>
      </trkpt>
      <trkpt lat="69.67483" lon="18.76519">
        <ele>50.023163</ele>
        <time>2020-08-26T12:51:01.869Z</time>
      </trkpt>
      <trkpt lat="69.67488" lon="18.76551">
        <ele>50.38609</ele>
        <time>2020-08-26T12:51:03.900Z</time>
      </trkpt>
      <trkpt lat="69.67494" lon="18.76583">
        <ele>50.464348</ele>
        <time>2020-08-26T12:51:05.852Z</time>
      </trkpt>
      <trkpt lat="69.675" lon="18.76612">
        <ele>50.266879</ele>
        <time>2020-08-26T12:51:07.869Z</time>
      </trkpt>
      <trkpt lat="69.67507" lon="18.76638">
        <ele>50.071163</ele>
        <time>2020-08-26T12:51:09.845Z</time>
      </trkpt>
      <trkpt lat="69.67513" lon="18.76663">
        <ele>49.889817</ele>
        <time>2020-08-26T12:51:11.841Z</time>
      </trkpt>
      <trkpt lat="69.67519" lon="18.76682">
        <ele>49.737457</ele>
        <time>2020-08-26T12:51:13.838Z</time>
      </trkpt>
      <trkpt lat="69.67526" lon="18.76702">
        <ele>49.573197</ele>
        <time>2020-08-26T12:51:16.866Z</time>
      </trkpt>
      <trkpt lat="69.67533" lon="18.76722">
        <ele>49.400803</ele>
        <time>2020-08-26T12:51:19.868Z</time>
      </trkpt>
      <trkpt lat="69.67541" lon="18.76743">
        <ele>49.223525</ele>
        <time>2020-08-26T12:51:22.879Z</time>
      </trkpt>
      <trkpt lat="69.67548" lon="18.76761">
        <ele>49.058991</ele>
        <time>2020-08-26T12:51:25.886Z</time>
      </trkpt>
      <trkpt lat="69.67557" lon="18.76782">
        <ele>48.863146</ele>
        <time>2020-08-26T12:51:29.850Z</time>
      </trkpt>
      <trkpt lat="69.67564" lon="18.76798">
        <ele>48.71108</ele>
        <time>2020-08-26T12:51:32.855Z</time>
      </trkpt>
      <trkpt lat="69.67571" lon="18.76815">
        <ele>48.555502</ele>
        <time>2020-08-26T12:51:35.849Z</time>
      </trkpt>
      <trkpt lat="69.6758" lon="18.76838">
        <ele>48.35332</ele>
        <time>2020-08-26T12:51:39.856Z</time>
      </trkpt>
      <trkpt lat="69.67588" lon="18.76859">
        <ele>48.180472</ele>
        <time>2020-08-26T12:51:43.858Z</time>
      </trkpt>
      <trkpt lat="69.67595" lon="18.76874">
        <ele>48.023956</ele>
        <time>2020-08-26T12:51:46.882Z</time>
      </trkpt>
      <trkpt lat="69.67603" lon="18.76892">
        <ele>47.860705</ele>
        <time>2020-08-26T12:51:49.858Z</time>
      </trkpt>
      <trkpt lat="69.6761" lon="18.7691">
        <ele>47.695079</ele>
        <time>2020-08-26T12:51:52.857Z</time>
      </trkpt>
      <trkpt lat="69.67619" lon="18.7693">
        <ele>47.529444</ele>
        <time>2020-08-26T12:51:55.899Z</time>
      </trkpt>
      <trkpt lat="69.67629" lon="18.76948">
        <ele>47.541635</ele>
        <time>2020-08-26T12:51:58.899Z</time>
      </trkpt>
      <trkpt lat="69.67638" lon="18.76966">
        <ele>47.553441</ele>
        <time>2020-08-26T12:52:01.856Z</time>
      </trkpt>
      <trkpt lat="69.67647" lon="18.76987">
        <ele>47.565539</ele>
        <time>2020-08-26T12:52:04.845Z</time>
      </trkpt>
      <trkpt lat="69.67656" lon="18.77006">
        <ele>47.577659</ele>
        <time>2020-08-26T12:52:07.874Z</time>
      </trkpt>
      <trkpt lat="69.67666" lon="18.77024">
        <ele>47.590035</ele>
        <time>2020-08-26T12:52:10.850Z</time>
      </trkpt>
      <trkpt lat="69.67676" lon="18.77039">
        <ele>47.601545</ele>
        <time>2020-08-26T12:52:13.852Z</time>
      </trkpt>
      <trkpt lat="69.67686" lon="18.7705">
        <ele>47.613188</ele>
        <time>2020-08-26T12:52:16.843Z</time>
      </trkpt>
      <trkpt lat="69.67696" lon="18.77064">
        <ele>47.624717</ele>
        <time>2020-08-26T12:52:19.860Z</time>
      </trkpt>
      <trkpt lat="69.67704" lon="18.77086">
        <ele>47.636496</ele>
        <time>2020-08-26T12:52:22.848Z</time>
      </trkpt>
      <trkpt lat="69.6771" lon="18.77117">
        <ele>47.649463</ele>
        <time>2020-08-26T12:52:25.873Z</time>
      </trkpt>
      <trkpt lat="69.67717" lon="18.77147">
        <ele>47.662955</ele>
        <time>2020-08-26T12:52:28.865Z</time>
      </trkpt>
      <trkpt lat="69.67723" lon="18.77167">
        <ele>47.672614</ele>
        <time>2020-08-26T12:52:30.857Z</time>
      </trkpt>
      <trkpt lat="69.6773" lon="18.77186">
        <ele>47.68231</ele>
        <time>2020-08-26T12:52:32.859Z</time>
      </trkpt>
      <trkpt lat="69.67737" lon="18.77202">
        <ele>47.69187</ele>
        <time>2020-08-26T12:52:34.860Z</time>
      </trkpt>
      <trkpt lat="69.67744" lon="18.77217">
        <ele>47.701553</ele>
        <time>2020-08-26T12:52:36.875Z</time>
      </trkpt>
      <trkpt lat="69.67753" lon="18.77228">
        <ele>47.711306</ele>
        <time>2020-08-26T12:52:38.865Z</time>
      </trkpt>
      <trkpt lat="69.67762" lon="18.77236">
        <ele>47.572711</ele>
        <time>2020-08-26T12:52:42.873Z</time>
      </trkpt>
      <trkpt lat="69.67773" lon="18.77269">
        <ele>46.801406</ele>
        <time>2020-08-26T12:54:37.873Z</time>
      </trkpt>
      <trkpt lat="69.67781" lon="18.77285">
        <ele>46.37333</ele>
        <time>2020-08-26T12:54:40.844Z</time>
      </trkpt>
      <trkpt lat="69.67789" lon="18.77304">
        <ele>45.875181</ele>
        <time>2020-08-26T12:54:43.858Z</time>
      </trkpt>
      <trkpt lat="69.67798" lon="18.77327">
        <ele>45.299988</ele>
        <time>2020-08-26T12:54:46.874Z</time>
      </trkpt>
      <trkpt lat="69.67806" lon="18.77345">
        <ele>44.834984</ele>
        <time>2020-08-26T12:54:48.875Z</time>
      </trkpt>
      <trkpt lat="69.67816" lon="18.77364">
        <ele>44.286099</ele>
        <time>2020-08-26T12:54:50.870Z</time>
      </trkpt>
      <trkpt lat="69.67826" lon="18.77383">
        <ele>43.719573</ele>
        <time>2020-08-26T12:54:52.851Z</time>
      </trkpt>
      <trkpt lat="69.67834" lon="18.77399">
        <ele>43.246112</ele>
        <time>2020-08-26T12:54:54.852Z</time>
      </trkpt>
      <trkpt lat="69.67842" lon="18.77416">
        <ele>42.788209</ele>
        <time>2020-08-26T12:54:56.892Z</time>
      </trkpt>
      <trkpt lat="69.6785" lon="18.77437">
        <ele>42.283946</ele>
        <time>2020-08-26T12:54:58.857Z</time>
      </trkpt>
      <trkpt lat="69.67859" lon="18.77459">
        <ele>41.742163</ele>
        <time>2020-08-26T12:55:00.847Z</time>
      </trkpt>
      <trkpt lat="69.67868" lon="18.77481">
        <ele>41.173709</ele>
        <time>2020-08-26T12:55:02.858Z</time>
      </trkpt>
      <trkpt lat="69.67877" lon="18.77504">
        <ele>40.605256</ele>
        <time>2020-08-26T12:55:04.873Z</time>
      </trkpt>
      <trkpt lat="69.67886" lon="18.77526">
        <ele>40.052809</ele>
        <time>2020-08-26T12:55:06.865Z</time>
      </trkpt>
      <trkpt lat="69.67894" lon="18.77548">
        <ele>39.531852</ele>
        <time>2020-08-26T12:55:08.865Z</time>
      </trkpt>
      <trkpt lat="69.67901" lon="18.77568">
        <ele>39.309616</ele>
        <time>2020-08-26T12:55:10.858Z</time>
      </trkpt>
      <trkpt lat="69.67908" lon="18.77589">
        <ele>39.359085</ele>
        <time>2020-08-26T12:55:12.885Z</time>
      </trkpt>
      <trkpt lat="69.67914" lon="18.77609">
        <ele>39.407367</ele>
        <time>2020-08-26T12:55:14.869Z</time>
      </trkpt>
      <trkpt lat="69.67923" lon="18.77635">
        <ele>39.471328</ele>
        <time>2020-08-26T12:55:17.864Z</time>
      </trkpt>
      <trkpt lat="69.6793" lon="18.77658">
        <ele>39.525579</ele>
        <time>2020-08-26T12:55:20.877Z</time>
      </trkpt>
      <trkpt lat="69.67936" lon="18.77679">
        <ele>39.575598</ele>
        <time>2020-08-26T12:55:23.866Z</time>
      </trkpt>
      <trkpt lat="69.67942" lon="18.77699">
        <ele>39.624231</ele>
        <time>2020-08-26T12:55:26.870Z</time>
      </trkpt>
      <trkpt lat="69.67949" lon="18.77726">
        <ele>39.683458</ele>
        <time>2020-08-26T12:55:30.856Z</time>
      </trkpt>
      <trkpt lat="69.67956" lon="18.77751">
        <ele>39.739999</ele>
        <time>2020-08-26T12:55:34.870Z</time>
      </trkpt>
      <trkpt lat="69.67963" lon="18.77775">
        <ele>39.795396</ele>
        <time>2020-08-26T12:55:38.870Z</time>
      </trkpt>
      <trkpt lat="69.6797" lon="18.77796">
        <ele>39.848069</ele>
        <time>2020-08-26T12:55:42.840Z</time>
      </trkpt>
      <trkpt lat="69.67977" lon="18.77817">
        <ele>39.89993</ele>
        <time>2020-08-26T12:55:46.872Z</time>
      </trkpt>
      <trkpt lat="69.67984" lon="18.77838">
        <ele>39.952476</ele>
        <time>2020-08-26T12:55:50.862Z</time>
      </trkpt>
      <trkpt lat="69.67991" lon="18.77859">
        <ele>40.006146</ele>
        <time>2020-08-26T12:55:54.893Z</time>
      </trkpt>
      <trkpt lat="69.67998" lon="18.77878">
        <ele>40.053486</ele>
        <time>2020-08-26T12:55:57.843Z</time>
      </trkpt>
      <trkpt lat="69.68004" lon="18.779">
        <ele>40.102818</ele>
        <time>2020-08-26T12:56:00.860Z</time>
      </trkpt>
      <trkpt lat="69.6801" lon="18.77924">
        <ele>40.156036</ele>
        <time>2020-08-26T12:56:03.911Z</time>
      </trkpt>
      <trkpt lat="69.68015" lon="18.77945">
        <ele>40.20273</ele>
        <time>2020-08-26T12:56:05.892Z</time>
      </trkpt>
      <trkpt lat="69.68022" lon="18.77969">
        <ele>40.091764</ele>
        <time>2020-08-26T12:56:07.856Z</time>
      </trkpt>
      <trkpt lat="69.68029" lon="18.77996">
        <ele>39.937244</ele>
        <time>2020-08-26T12:56:09.851Z</time>
      </trkpt>
      <trkpt lat="69.68037" lon="18.78021">
        <ele>39.778195</ele>
        <time>2020-08-26T12:56:11.864Z</time>
      </trkpt>
      <trkpt lat="69.68046" lon="18.78047">
        <ele>39.614919</ele>
        <time>2020-08-26T12:56:13.846Z</time>
      </trkpt>
      <trkpt lat="69.68056" lon="18.78075">
        <ele>39.43023</ele>
        <time>2020-08-26T12:56:15.840Z</time>
      </trkpt>
      <trkpt lat="69.68067" lon="18.78105">
        <ele>39.233043</ele>
        <time>2020-08-26T12:56:17.851Z</time>
      </trkpt>
      <trkpt lat="69.68077" lon="18.78136">
        <ele>39.047863</ele>
        <time>2020-08-26T12:56:19.866Z</time>
      </trkpt>
      <trkpt lat="69.68086" lon="18.78163">
        <ele>38.87495</ele>
        <time>2020-08-26T12:56:21.852Z</time>
      </trkpt>
      <trkpt lat="69.68094" lon="18.7819">
        <ele>38.720789</ele>
        <time>2020-08-26T12:56:23.908Z</time>
      </trkpt>
      <trkpt lat="69.68101" lon="18.78214">
        <ele>38.574538</ele>
        <time>2020-08-26T12:56:25.899Z</time>
      </trkpt>
      <trkpt lat="69.68108" lon="18.78238">
        <ele>38.43384</ele>
        <time>2020-08-26T12:56:27.859Z</time>
      </trkpt>
      <trkpt lat="69.68114" lon="18.78264">
        <ele>38.294625</ele>
        <time>2020-08-26T12:56:29.902Z</time>
      </trkpt>
      <trkpt lat="69.68121" lon="18.78289">
        <ele>38.145842</ele>
        <time>2020-08-26T12:56:31.879Z</time>
      </trkpt>
      <trkpt lat="69.68128" lon="18.78313">
        <ele>38.00502</ele>
        <time>2020-08-26T12:56:33.863Z</time>
      </trkpt>
      <trkpt lat="69.68134" lon="18.78338">
        <ele>37.86616</ele>
        <time>2020-08-26T12:56:35.877Z</time>
      </trkpt>
      <trkpt lat="69.6814" lon="18.78363">
        <ele>37.773863</ele>
        <time>2020-08-26T12:56:37.866Z</time>
      </trkpt>
      <trkpt lat="69.68145" lon="18.78386">
        <ele>37.68966</ele>
        <time>2020-08-26T12:56:39.872Z</time>
      </trkpt>
      <trkpt lat="69.6815" lon="18.78409">
        <ele>37.606202</ele>
        <time>2020-08-26T12:56:41.859Z</time>
      </trkpt>
      <trkpt lat="69.68155" lon="18.7843">
        <ele>37.524816</ele>
        <time>2020-08-26T12:56:43.851Z</time>
      </trkpt>
      <trkpt lat="69.68163" lon="18.78462">
        <ele>37.407596</ele>
        <time>2020-08-26T12:56:46.860Z</time>
      </trkpt>
      <trkpt lat="69.68169" lon="18.78495">
        <ele>37.293558</ele>
        <time>2020-08-26T12:56:49.855Z</time>
      </trkpt>
      <trkpt lat="69.68173" lon="18.78528">
        <ele>37.182833</ele>
        <time>2020-08-26T12:56:52.869Z</time>
      </trkpt>
      <trkpt lat="69.68178" lon="18.78561">
        <ele>37.073641</ele>
        <time>2020-08-26T12:56:55.867Z</time>
      </trkpt>
      <trkpt lat="69.68184" lon="18.78588">
        <ele>36.97246</ele>
        <time>2020-08-26T12:56:58.887Z</time>
      </trkpt>
      <trkpt lat="69.68192" lon="18.78609">
        <ele>36.880538</ele>
        <time>2020-08-26T12:57:01.863Z</time>
      </trkpt>
      <trkpt lat="69.68199" lon="18.78633">
        <ele>36.77936</ele>
        <time>2020-08-26T12:57:04.854Z</time>
      </trkpt>
      <trkpt lat="69.68204" lon="18.78668">
        <ele>36.665891</ele>
        <time>2020-08-26T12:57:07.868Z</time>
      </trkpt>
      <trkpt lat="69.68207" lon="18.78697">
        <ele>36.570492</ele>
        <time>2020-08-26T12:57:10.874Z</time>
      </trkpt>
      <trkpt lat="69.68208" lon="18.78732">
        <ele>36.462049</ele>
        <time>2020-08-26T12:57:13.859Z</time>
      </trkpt>
      <trkpt lat="69.68213" lon="18.78768">
        <ele>36.344537</ele>
        <time>2020-08-26T12:57:16.857Z</time>
      </trkpt>
      <trkpt lat="69.68218" lon="18.78802">
        <ele>36.347352</ele>
        <time>2020-08-26T12:57:19.850Z</time>
      </trkpt>
      <trkpt lat="69.68224" lon="18.78836">
        <ele>36.568621</ele>
        <time>2020-08-26T12:57:22.870Z</time>
      </trkpt>
      <trkpt lat="69.68228" lon="18.7886">
        <ele>36.736392</ele>
        <time>2020-08-26T12:57:24.849Z</time>
      </trkpt>
      <trkpt lat="69.68233" lon="18.78886">
        <ele>36.908563</ele>
        <time>2020-08-26T12:57:26.843Z</time>
      </trkpt>
      <trkpt lat="69.68238" lon="18.78913">
        <ele>37.088442</ele>
        <time>2020-08-26T12:57:28.851Z</time>
      </trkpt>
      <trkpt lat="69.68241" lon="18.78941">
        <ele>37.267675</ele>
        <time>2020-08-26T12:57:30.857Z</time>
      </trkpt>
      <trkpt lat="69.68245" lon="18.78968">
        <ele>37.435132</ele>
        <time>2020-08-26T12:57:32.872Z</time>
      </trkpt>
      <trkpt lat="69.68248" lon="18.78993">
        <ele>37.596898</ele>
        <time>2020-08-26T12:57:34.843Z</time>
      </trkpt>
      <trkpt lat="69.68252" lon="18.79019">
        <ele>37.763106</ele>
        <time>2020-08-26T12:57:36.875Z</time>
      </trkpt>
      <trkpt lat="69.68256" lon="18.79044">
        <ele>37.925667</ele>
        <time>2020-08-26T12:57:38.898Z</time>
      </trkpt>
      <trkpt lat="69.68261" lon="18.79077">
        <ele>38.143638</ele>
        <time>2020-08-26T12:57:41.859Z</time>
      </trkpt>
      <trkpt lat="69.68266" lon="18.79107">
        <ele>38.340587</ele>
        <time>2020-08-26T12:57:44.867Z</time>
      </trkpt>
      <trkpt lat="69.68272" lon="18.79135">
        <ele>38.528327</ele>
        <time>2020-08-26T12:57:47.872Z</time>
      </trkpt>
      <trkpt lat="69.68276" lon="18.7916">
        <ele>38.694198</ele>
        <time>2020-08-26T12:57:50.882Z</time>
      </trkpt>
      <trkpt lat="69.68281" lon="18.79183">
        <ele>38.853891</ele>
        <time>2020-08-26T12:57:53.889Z</time>
      </trkpt>
      <trkpt lat="69.68285" lon="18.79205">
        <ele>39.006958</ele>
        <time>2020-08-26T12:57:56.894Z</time>
      </trkpt>
      <trkpt lat="69.6829" lon="18.79235">
        <ele>39.205683</ele>
        <time>2020-08-26T12:58:00.859Z</time>
      </trkpt>
      <trkpt lat="69.68294" lon="18.79259">
        <ele>39.373211</ele>
        <time>2020-08-26T12:58:03.850Z</time>
      </trkpt>
      <trkpt lat="69.68299" lon="18.79283">
        <ele>39.650883</ele>
        <time>2020-08-26T12:58:06.860Z</time>
      </trkpt>
      <trkpt lat="69.68304" lon="18.79305">
        <ele>39.914746</ele>
        <time>2020-08-26T12:58:09.906Z</time>
      </trkpt>
      <trkpt lat="69.68308" lon="18.79328">
        <ele>40.173455</ele>
        <time>2020-08-26T12:58:12.852Z</time>
      </trkpt>
      <trkpt lat="69.68312" lon="18.79351">
        <ele>40.430855</ele>
        <time>2020-08-26T12:58:15.869Z</time>
      </trkpt>
      <trkpt lat="69.68315" lon="18.79376">
        <ele>40.688547</ele>
        <time>2020-08-26T12:58:18.858Z</time>
      </trkpt>
      <trkpt lat="69.68319" lon="18.79401">
        <ele>40.962336</ele>
        <time>2020-08-26T12:58:21.857Z</time>
      </trkpt>
      <trkpt lat="69.68323" lon="18.79427">
        <ele>41.24354</ele>
        <time>2020-08-26T12:58:24.870Z</time>
      </trkpt>
      <trkpt lat="69.68328" lon="18.79453">
        <ele>41.537002</ele>
        <time>2020-08-26T12:58:27.857Z</time>
      </trkpt>
      <trkpt lat="69.68332" lon="18.7948">
        <ele>41.826375</ele>
        <time>2020-08-26T12:58:30.838Z</time>
      </trkpt>
      <trkpt lat="69.68335" lon="18.79504">
        <ele>42.093693</ele>
        <time>2020-08-26T12:58:33.868Z</time>
      </trkpt>
      <trkpt lat="69.68338" lon="18.7953">
        <ele>42.359766</ele>
        <time>2020-08-26T12:58:36.870Z</time>
      </trkpt>
      <trkpt lat="69.68341" lon="18.79557">
        <ele>42.639922</ele>
        <time>2020-08-26T12:58:39.848Z</time>
      </trkpt>
      <trkpt lat="69.68345" lon="18.79584">
        <ele>42.933252</ele>
        <time>2020-08-26T12:58:42.856Z</time>
      </trkpt>
      <trkpt lat="69.68348" lon="18.79615">
        <ele>43.251962</ele>
        <time>2020-08-26T12:58:45.853Z</time>
      </trkpt>
      <trkpt lat="69.68352" lon="18.79647">
        <ele>43.587563</ele>
        <time>2020-08-26T12:58:48.871Z</time>
      </trkpt>
      <trkpt lat="69.68356" lon="18.79678">
        <ele>43.917543</ele>
        <time>2020-08-26T12:58:51.874Z</time>
      </trkpt>
      <trkpt lat="69.6836" lon="18.79711">
        <ele>44.260906</ele>
        <time>2020-08-26T12:58:54.857Z</time>
      </trkpt>
      <trkpt lat="69.68362" lon="18.79743">
        <ele>44.350971</ele>
        <time>2020-08-26T12:58:57.877Z</time>
      </trkpt>
      <trkpt lat="69.68367" lon="18.79775">
        <ele>43.787251</ele>
        <time>2020-08-26T12:59:00.868Z</time>
      </trkpt>
      <trkpt lat="69.6837" lon="18.79807">
        <ele>43.232106</ele>
        <time>2020-08-26T12:59:03.888Z</time>
      </trkpt>
      <trkpt lat="69.68372" lon="18.7984">
        <ele>42.664755</ele>
        <time>2020-08-26T12:59:06.850Z</time>
      </trkpt>
      <trkpt lat="69.68375" lon="18.79873">
        <ele>42.081848</ele>
        <time>2020-08-26T12:59:09.892Z</time>
      </trkpt>
      <trkpt lat="69.68378" lon="18.79907">
        <ele>41.486906</ele>
        <time>2020-08-26T12:59:12.869Z</time>
      </trkpt>
      <trkpt lat="69.68382" lon="18.79945">
        <ele>40.839161</ele>
        <time>2020-08-26T12:59:15.856Z</time>
      </trkpt>
      <trkpt lat="69.68383" lon="18.79972">
        <ele>40.380203</ele>
        <time>2020-08-26T12:59:17.856Z</time>
      </trkpt>
      <trkpt lat="69.68384" lon="18.80003">
        <ele>39.859282</ele>
        <time>2020-08-26T12:59:19.888Z</time>
      </trkpt>
      <trkpt lat="69.68383" lon="18.80038">
        <ele>39.274417</ele>
        <time>2020-08-26T12:59:21.846Z</time>
      </trkpt>
      <trkpt lat="69.68382" lon="18.80074">
        <ele>38.662775</ele>
        <time>2020-08-26T12:59:23.857Z</time>
      </trkpt>
      <trkpt lat="69.68381" lon="18.80104">
        <ele>38.149723</ele>
        <time>2020-08-26T12:59:25.856Z</time>
      </trkpt>
      <trkpt lat="69.6838" lon="18.80132">
        <ele>37.688168</ele>
        <time>2020-08-26T12:59:27.846Z</time>
      </trkpt>
      <trkpt lat="69.68379" lon="18.80162">
        <ele>37.180346</ele>
        <time>2020-08-26T12:59:29.861Z</time>
      </trkpt>
      <trkpt lat="69.68377" lon="18.80193">
        <ele>36.640616</ele>
        <time>2020-08-26T12:59:31.851Z</time>
      </trkpt>
      <trkpt lat="69.68376" lon="18.80226">
        <ele>36.084577</ele>
        <time>2020-08-26T12:59:33.889Z</time>
      </trkpt>
      <trkpt lat="69.68375" lon="18.80259">
        <ele>35.737393</ele>
        <time>2020-08-26T12:59:35.866Z</time>
      </trkpt>
      <trkpt lat="69.68374" lon="18.80293">
        <ele>35.592229</ele>
        <time>2020-08-26T12:59:37.889Z</time>
      </trkpt>
      <trkpt lat="69.68374" lon="18.80327">
        <ele>35.450531</ele>
        <time>2020-08-26T12:59:39.871Z</time>
      </trkpt>
      <trkpt lat="69.68373" lon="18.80363">
        <ele>35.294159</ele>
        <time>2020-08-26T12:59:41.859Z</time>
      </trkpt>
      <trkpt lat="69.68372" lon="18.80398">
        <ele>35.14382</ele>
        <time>2020-08-26T12:59:43.866Z</time>
      </trkpt>
      <trkpt lat="69.68372" lon="18.80431">
        <ele>35.00519</ele>
        <time>2020-08-26T12:59:45.864Z</time>
      </trkpt>
      <trkpt lat="69.68371" lon="18.80464">
        <ele>34.862512</ele>
        <time>2020-08-26T12:59:47.917Z</time>
      </trkpt>
      <trkpt lat="69.68371" lon="18.80495">
        <ele>34.731089</ele>
        <time>2020-08-26T12:59:49.853Z</time>
      </trkpt>
      <trkpt lat="69.6837" lon="18.80522">
        <ele>34.616155</ele>
        <time>2020-08-26T12:59:51.888Z</time>
      </trkpt>
      <trkpt lat="69.6837" lon="18.80548">
        <ele>34.503478</ele>
        <time>2020-08-26T12:59:53.868Z</time>
      </trkpt>
      <trkpt lat="69.68369" lon="18.80575">
        <ele>34.388879</ele>
        <time>2020-08-26T12:59:55.869Z</time>
      </trkpt>
      <trkpt lat="69.68368" lon="18.80605">
        <ele>34.262282</ele>
        <time>2020-08-26T12:59:57.875Z</time>
      </trkpt>
      <trkpt lat="69.68368" lon="18.80632">
        <ele>34.145447</ele>
        <time>2020-08-26T12:59:59.900Z</time>
      </trkpt>
      <trkpt lat="69.68368" lon="18.80659">
        <ele>34.031165</ele>
        <time>2020-08-26T13:00:01.848Z</time>
      </trkpt>
      <trkpt lat="69.68369" lon="18.80686">
        <ele>33.91444</ele>
        <time>2020-08-26T13:00:03.853Z</time>
      </trkpt>
      <trkpt lat="69.6837" lon="18.80715">
        <ele>33.793462</ele>
        <time>2020-08-26T13:00:05.859Z</time>
      </trkpt>
      <trkpt lat="69.6837" lon="18.80742">
        <ele>33.675119</ele>
        <time>2020-08-26T13:00:07.852Z</time>
      </trkpt>
      <trkpt lat="69.68371" lon="18.80771">
        <ele>33.604148</ele>
        <time>2020-08-26T13:00:09.847Z</time>
      </trkpt>
      <trkpt lat="69.68371" lon="18.80799">
        <ele>33.615866</ele>
        <time>2020-08-26T13:00:11.849Z</time>
      </trkpt>
      <trkpt lat="69.68372" lon="18.80827">
        <ele>33.627624</ele>
        <time>2020-08-26T13:00:13.849Z</time>
      </trkpt>
      <trkpt lat="69.68373" lon="18.80855">
        <ele>33.639252</ele>
        <time>2020-08-26T13:00:15.873Z</time>
      </trkpt>
      <trkpt lat="69.68374" lon="18.80884">
        <ele>33.651398</ele>
        <time>2020-08-26T13:00:17.857Z</time>
      </trkpt>
      <trkpt lat="69.68375" lon="18.80915">
        <ele>33.66405</ele>
        <time>2020-08-26T13:00:19.845Z</time>
      </trkpt>
      <trkpt lat="69.68376" lon="18.80946">
        <ele>33.676772</ele>
        <time>2020-08-26T13:00:21.865Z</time>
      </trkpt>
      <trkpt lat="69.68377" lon="18.80976">
        <ele>33.689481</ele>
        <time>2020-08-26T13:00:23.873Z</time>
      </trkpt>
      <trkpt lat="69.68377" lon="18.81006">
        <ele>33.701949</ele>
        <time>2020-08-26T13:00:25.849Z</time>
      </trkpt>
      <trkpt lat="69.68378" lon="18.81039">
        <ele>33.715339</ele>
        <time>2020-08-26T13:00:27.861Z</time>
      </trkpt>
      <trkpt lat="69.68379" lon="18.81072">
        <ele>33.729119</ele>
        <time>2020-08-26T13:00:29.874Z</time>
      </trkpt>
      <trkpt lat="69.6838" lon="18.81103">
        <ele>33.742164</ele>
        <time>2020-08-26T13:00:31.865Z</time>
      </trkpt>
      <trkpt lat="69.6838" lon="18.81133">
        <ele>33.75468</ele>
        <time>2020-08-26T13:00:33.850Z</time>
      </trkpt>
      <trkpt lat="69.68382" lon="18.81165">
        <ele>33.767743</ele>
        <time>2020-08-26T13:00:35.865Z</time>
      </trkpt>
      <trkpt lat="69.68382" lon="18.81195">
        <ele>33.780128</ele>
        <time>2020-08-26T13:00:37.891Z</time>
      </trkpt>
      <trkpt lat="69.68383" lon="18.81222">
        <ele>33.791315</ele>
        <time>2020-08-26T13:00:39.866Z</time>
      </trkpt>
      <trkpt lat="69.68384" lon="18.81259">
        <ele>33.806661</ele>
        <time>2020-08-26T13:00:42.840Z</time>
      </trkpt>
      <trkpt lat="69.68385" lon="18.81294">
        <ele>33.865867</ele>
        <time>2020-08-26T13:00:45.860Z</time>
      </trkpt>
      <trkpt lat="69.68386" lon="18.81327">
        <ele>33.96281</ele>
        <time>2020-08-26T13:00:48.876Z</time>
      </trkpt>
      <trkpt lat="69.68389" lon="18.81358">
        <ele>34.055713</ele>
        <time>2020-08-26T13:00:51.852Z</time>
      </trkpt>
      <trkpt lat="69.68392" lon="18.81385">
        <ele>34.137919</ele>
        <time>2020-08-26T13:00:54.856Z</time>
      </trkpt>
      <trkpt lat="69.68392" lon="18.81415">
        <ele>34.224124</ele>
        <time>2020-08-26T13:00:57.856Z</time>
      </trkpt>
      <trkpt lat="69.6839" lon="18.81448">
        <ele>34.31945</ele>
        <time>2020-08-26T13:01:00.877Z</time>
      </trkpt>
      <trkpt lat="69.68389" lon="18.81481">
        <ele>34.415525</ele>
        <time>2020-08-26T13:01:03.858Z</time>
      </trkpt>
      <trkpt lat="69.68391" lon="18.81516">
        <ele>34.51896</ele>
        <time>2020-08-26T13:01:06.869Z</time>
      </trkpt>
      <trkpt lat="69.68392" lon="18.81552">
        <ele>34.623199</ele>
        <time>2020-08-26T13:01:09.864Z</time>
      </trkpt>
      <trkpt lat="69.68393" lon="18.81585">
        <ele>34.71851</ele>
        <time>2020-08-26T13:01:12.860Z</time>
      </trkpt>
      <trkpt lat="69.68393" lon="18.81615">
        <ele>34.807512</ele>
        <time>2020-08-26T13:01:15.839Z</time>
      </trkpt>
      <trkpt lat="69.68394" lon="18.81645">
        <ele>34.894057</ele>
        <time>2020-08-26T13:01:18.892Z</time>
      </trkpt>
      <trkpt lat="69.68395" lon="18.81674">
        <ele>34.980236</ele>
        <time>2020-08-26T13:01:21.868Z</time>
      </trkpt>
      <trkpt lat="69.68396" lon="18.81707">
        <ele>35.07381</ele>
        <time>2020-08-26T13:01:24.855Z</time>
      </trkpt>
      <trkpt lat="69.68396" lon="18.8174">
        <ele>35.169247</ele>
        <time>2020-08-26T13:01:27.852Z</time>
      </trkpt>
      <trkpt lat="69.68397" lon="18.81774">
        <ele>35.268953</ele>
        <time>2020-08-26T13:01:30.875Z</time>
      </trkpt>
      <trkpt lat="69.68398" lon="18.81809">
        <ele>35.315359</ele>
        <time>2020-08-26T13:01:33.853Z</time>
      </trkpt>
      <trkpt lat="69.684" lon="18.81847">
        <ele>35.313194</ele>
        <time>2020-08-26T13:01:36.858Z</time>
      </trkpt>
      <trkpt lat="69.68401" lon="18.81884">
        <ele>35.311034</ele>
        <time>2020-08-26T13:01:39.899Z</time>
      </trkpt>
      <trkpt lat="69.68402" lon="18.81918">
        <ele>35.309077</ele>
        <time>2020-08-26T13:01:42.852Z</time>
      </trkpt>
      <trkpt lat="69.68403" lon="18.81955">
        <ele>35.306945</ele>
        <time>2020-08-26T13:01:45.866Z</time>
      </trkpt>
      <trkpt lat="69.68404" lon="18.81982">
        <ele>35.305405</ele>
        <time>2020-08-26T13:01:47.861Z</time>
      </trkpt>
      <trkpt lat="69.68405" lon="18.8202">
        <ele>35.30319</ele>
        <time>2020-08-26T13:01:50.862Z</time>
      </trkpt>
      <trkpt lat="69.68405" lon="18.82047">
        <ele>35.301672</ele>
        <time>2020-08-26T13:01:52.848Z</time>
      </trkpt>
      <trkpt lat="69.68406" lon="18.82074">
        <ele>35.30011</ele>
        <time>2020-08-26T13:01:54.851Z</time>
      </trkpt>
      <trkpt lat="69.68407" lon="18.82102">
        <ele>35.298488</ele>
        <time>2020-08-26T13:01:56.875Z</time>
      </trkpt>
      <trkpt lat="69.68407" lon="18.82128">
        <ele>35.296977</ele>
        <time>2020-08-26T13:01:58.867Z</time>
      </trkpt>
      <trkpt lat="69.68407" lon="18.82155">
        <ele>35.295419</ele>
        <time>2020-08-26T13:02:00.844Z</time>
      </trkpt>
      <trkpt lat="69.68408" lon="18.82184">
        <ele>35.293723</ele>
        <time>2020-08-26T13:02:02.875Z</time>
      </trkpt>
      <trkpt lat="69.68409" lon="18.82215">
        <ele>35.291972</ele>
        <time>2020-08-26T13:02:04.857Z</time>
      </trkpt>
      <trkpt lat="69.6841" lon="18.82243">
        <ele>35.290318</ele>
        <time>2020-08-26T13:02:06.832Z</time>
      </trkpt>
      <trkpt lat="69.68411" lon="18.82273">
        <ele>35.288634</ele>
        <time>2020-08-26T13:02:08.848Z</time>
      </trkpt>
      <trkpt lat="69.68411" lon="18.82302">
        <ele>35.286923</ele>
        <time>2020-08-26T13:02:10.871Z</time>
      </trkpt>
      <trkpt lat="69.68413" lon="18.82333">
        <ele>35.199797</ele>
        <time>2020-08-26T13:02:12.877Z</time>
      </trkpt>
      <trkpt lat="69.68413" lon="18.82364">
        <ele>35.099849</ele>
        <time>2020-08-26T13:02:14.855Z</time>
      </trkpt>
      <trkpt lat="69.68413" lon="18.82395">
        <ele>34.997926</ele>
        <time>2020-08-26T13:02:16.840Z</time>
      </trkpt>
      <trkpt lat="69.68414" lon="18.82427">
        <ele>34.896857</ele>
        <time>2020-08-26T13:02:18.852Z</time>
      </trkpt>
      <trkpt lat="69.68415" lon="18.82457">
        <ele>34.799056</ele>
        <time>2020-08-26T13:02:20.864Z</time>
      </trkpt>
      <trkpt lat="69.68416" lon="18.82483">
        <ele>34.713095</ele>
        <time>2020-08-26T13:02:22.865Z</time>
      </trkpt>
      <trkpt lat="69.68416" lon="18.82522">
        <ele>34.587276</ele>
        <time>2020-08-26T13:02:25.856Z</time>
      </trkpt>
      <trkpt lat="69.68416" lon="18.8255">
        <ele>34.497031</ele>
        <time>2020-08-26T13:02:27.867Z</time>
      </trkpt>
      <trkpt lat="69.68416" lon="18.82578">
        <ele>34.40694</ele>
        <time>2020-08-26T13:02:29.877Z</time>
      </trkpt>
      <trkpt lat="69.68417" lon="18.82605">
        <ele>34.317921</ele>
        <time>2020-08-26T13:02:31.847Z</time>
      </trkpt>
      <trkpt lat="69.68418" lon="18.82632">
        <ele>34.231156</ele>
        <time>2020-08-26T13:02:33.858Z</time>
      </trkpt>
      <trkpt lat="69.68419" lon="18.8266">
        <ele>34.140436</ele>
        <time>2020-08-26T13:02:35.895Z</time>
      </trkpt>
      <trkpt lat="69.6842" lon="18.82689">
        <ele>34.045941</ele>
        <time>2020-08-26T13:02:37.851Z</time>
      </trkpt>
      <trkpt lat="69.68421" lon="18.82717">
        <ele>33.953137</ele>
        <time>2020-08-26T13:02:39.872Z</time>
      </trkpt>
      <trkpt lat="69.68422" lon="18.82747">
        <ele>33.857354</ele>
        <time>2020-08-26T13:02:41.869Z</time>
      </trkpt>
      <trkpt lat="69.68423" lon="18.82776">
        <ele>33.762571</ele>
        <time>2020-08-26T13:02:43.879Z</time>
      </trkpt>
      <trkpt lat="69.68424" lon="18.82807">
        <ele>33.66316</ele>
        <time>2020-08-26T13:02:45.853Z</time>
      </trkpt>
      <trkpt lat="69.68425" lon="18.82837">
        <ele>33.643904</ele>
        <time>2020-08-26T13:02:47.868Z</time>
      </trkpt>
      <trkpt lat="69.68426" lon="18.82868">
        <ele>33.714186</ele>
        <time>2020-08-26T13:02:49.851Z</time>
      </trkpt>
      <trkpt lat="69.68427" lon="18.82899">
        <ele>33.785219</ele>
        <time>2020-08-26T13:02:51.866Z</time>
      </trkpt>
      <trkpt lat="69.68428" lon="18.82931">
        <ele>33.858198</ele>
        <time>2020-08-26T13:02:53.862Z</time>
      </trkpt>
      <trkpt lat="69.68429" lon="18.82964">
        <ele>33.933148</ele>
        <time>2020-08-26T13:02:55.857Z</time>
      </trkpt>
      <trkpt lat="69.6843" lon="18.82997">
        <ele>34.008389</ele>
        <time>2020-08-26T13:02:57.885Z</time>
      </trkpt>
      <trkpt lat="69.68431" lon="18.83029">
        <ele>34.080403</ele>
        <time>2020-08-26T13:02:59.875Z</time>
      </trkpt>
      <trkpt lat="69.68432" lon="18.8306">
        <ele>34.152132</ele>
        <time>2020-08-26T13:03:01.879Z</time>
      </trkpt>
      <trkpt lat="69.68433" lon="18.83089">
        <ele>34.217748</ele>
        <time>2020-08-26T13:03:03.847Z</time>
      </trkpt>
      <trkpt lat="69.68433" lon="18.83116">
        <ele>34.279514</ele>
        <time>2020-08-26T13:03:05.864Z</time>
      </trkpt>
      <trkpt lat="69.68433" lon="18.83143">
        <ele>34.339185</ele>
        <time>2020-08-26T13:03:07.855Z</time>
      </trkpt>
      <trkpt lat="69.68434" lon="18.83178">
        <ele>34.420182</ele>
        <time>2020-08-26T13:03:10.854Z</time>
      </trkpt>
      <trkpt lat="69.68435" lon="18.83214">
        <ele>34.50036</ele>
        <time>2020-08-26T13:03:13.899Z</time>
      </trkpt>
      <trkpt lat="69.68436" lon="18.83247">
        <ele>34.576123</ele>
        <time>2020-08-26T13:03:16.860Z</time>
      </trkpt>
      <trkpt lat="69.68437" lon="18.83279">
        <ele>34.65092</ele>
        <time>2020-08-26T13:03:19.877Z</time>
      </trkpt>
      <trkpt lat="69.68438" lon="18.83312">
        <ele>34.72587</ele>
        <time>2020-08-26T13:03:22.847Z</time>
      </trkpt>
      <trkpt lat="69.6844" lon="18.83343">
        <ele>34.797651</ele>
        <time>2020-08-26T13:03:25.852Z</time>
      </trkpt>
      <trkpt lat="69.6844" lon="18.83372">
        <ele>34.873971</ele>
        <time>2020-08-26T13:03:28.850Z</time>
      </trkpt>
      <trkpt lat="69.68442" lon="18.834">
        <ele>34.949745</ele>
        <time>2020-08-26T13:03:31.871Z</time>
      </trkpt>
      <trkpt lat="69.68444" lon="18.83427">
        <ele>35.023031</ele>
        <time>2020-08-26T13:03:34.842Z</time>
      </trkpt>
      <trkpt lat="69.68445" lon="18.83456">
        <ele>35.098283</ele>
        <time>2020-08-26T13:03:37.852Z</time>
      </trkpt>
      <trkpt lat="69.68447" lon="18.83486">
        <ele>35.179487</ele>
        <time>2020-08-26T13:03:40.890Z</time>
      </trkpt>
      <trkpt lat="69.68449" lon="18.83516">
        <ele>35.259799</ele>
        <time>2020-08-26T13:03:43.858Z</time>
      </trkpt>
      <trkpt lat="69.68451" lon="18.83546">
        <ele>35.341128</ele>
        <time>2020-08-26T13:03:46.857Z</time>
      </trkpt>
      <trkpt lat="69.68455" lon="18.83574">
        <ele>35.417834</ele>
        <time>2020-08-26T13:03:49.847Z</time>
      </trkpt>
      <trkpt lat="69.68458" lon="18.83602">
        <ele>35.49554</ele>
        <time>2020-08-26T13:03:52.897Z</time>
      </trkpt>
      <trkpt lat="69.68461" lon="18.83632">
        <ele>35.578497</ele>
        <time>2020-08-26T13:03:55.861Z</time>
      </trkpt>
      <trkpt lat="69.68464" lon="18.83663">
        <ele>35.662876</ele>
        <time>2020-08-26T13:03:58.864Z</time>
      </trkpt>
      <trkpt lat="69.68467" lon="18.83695">
        <ele>35.752858</ele>
        <time>2020-08-26T13:04:01.848Z</time>
      </trkpt>
      <trkpt lat="69.6847" lon="18.83721">
        <ele>35.823108</ele>
        <time>2020-08-26T13:04:03.854Z</time>
      </trkpt>
      <trkpt lat="69.68473" lon="18.83747">
        <ele>35.897336</ele>
        <time>2020-08-26T13:04:05.860Z</time>
      </trkpt>
      <trkpt lat="69.68475" lon="18.83777">
        <ele>35.976616</ele>
        <time>2020-08-26T13:04:07.859Z</time>
      </trkpt>
      <trkpt lat="69.68478" lon="18.83809">
        <ele>36.063791</ele>
        <time>2020-08-26T13:04:09.849Z</time>
      </trkpt>
      <trkpt lat="69.6848" lon="18.83844">
        <ele>36.132919</ele>
        <time>2020-08-26T13:04:11.893Z</time>
      </trkpt>
      <trkpt lat="69.68483" lon="18.83879">
        <ele>35.83693</ele>
        <time>2020-08-26T13:04:13.848Z</time>
      </trkpt>
      <trkpt lat="69.68486" lon="18.83914">
        <ele>35.537757</ele>
        <time>2020-08-26T13:04:15.852Z</time>
      </trkpt>
      <trkpt lat="69.6849" lon="18.83949">
        <ele>35.241174</ele>
        <time>2020-08-26T13:04:17.873Z</time>
      </trkpt>
      <trkpt lat="69.68492" lon="18.83982">
        <ele>34.962207</ele>
        <time>2020-08-26T13:04:19.864Z</time>
      </trkpt>
      <trkpt lat="69.68494" lon="18.84015">
        <ele>34.694599</ele>
        <time>2020-08-26T13:04:21.857Z</time>
      </trkpt>
      <trkpt lat="69.68496" lon="18.84045">
        <ele>34.43895</ele>
        <time>2020-08-26T13:04:23.849Z</time>
      </trkpt>
      <trkpt lat="69.68499" lon="18.84074">
        <ele>34.193737</ele>
        <time>2020-08-26T13:04:25.879Z</time>
      </trkpt>
      <trkpt lat="69.68501" lon="18.841">
        <ele>33.966144</ele>
        <time>2020-08-26T13:04:27.857Z</time>
      </trkpt>
      <trkpt lat="69.68504" lon="18.84126">
        <ele>33.749457</ele>
        <time>2020-08-26T13:04:29.867Z</time>
      </trkpt>
      <trkpt lat="69.68506" lon="18.84153">
        <ele>33.5223</ele>
        <time>2020-08-26T13:04:31.858Z</time>
      </trkpt>
      <trkpt lat="69.68507" lon="18.84179">
        <ele>33.301693</ele>
        <time>2020-08-26T13:04:33.852Z</time>
      </trkpt>
      <trkpt lat="69.6851" lon="18.84207">
        <ele>33.069824</ele>
        <time>2020-08-26T13:04:35.852Z</time>
      </trkpt>
      <trkpt lat="69.68512" lon="18.84233">
        <ele>32.849573</ele>
        <time>2020-08-26T13:04:37.857Z</time>
      </trkpt>
      <trkpt lat="69.68515" lon="18.84258">
        <ele>32.630612</ele>
        <time>2020-08-26T13:04:39.863Z</time>
      </trkpt>
      <trkpt lat="69.68519" lon="18.84293">
        <ele>32.329453</ele>
        <time>2020-08-26T13:04:42.876Z</time>
      </trkpt>
      <trkpt lat="69.68522" lon="18.84327">
        <ele>32.035431</ele>
        <time>2020-08-26T13:04:45.889Z</time>
      </trkpt>
      <trkpt lat="69.68524" lon="18.84362">
        <ele>31.92583</ele>
        <time>2020-08-26T13:04:48.857Z</time>
      </trkpt>
      <trkpt lat="69.68528" lon="18.84398">
        <ele>31.988838</ele>
        <time>2020-08-26T13:04:51.843Z</time>
      </trkpt>
      <trkpt lat="69.68531" lon="18.84433">
        <ele>32.051187</ele>
        <time>2020-08-26T13:04:54.855Z</time>
      </trkpt>
      <trkpt lat="69.68533" lon="18.84467">
        <ele>32.109104</ele>
        <time>2020-08-26T13:04:57.850Z</time>
      </trkpt>
      <trkpt lat="69.68537" lon="18.84501">
        <ele>32.169906</ele>
        <time>2020-08-26T13:05:00.853Z</time>
      </trkpt>
      <trkpt lat="69.6854" lon="18.8453">
        <ele>32.222268</ele>
        <time>2020-08-26T13:05:03.873Z</time>
      </trkpt>
      <trkpt lat="69.68545" lon="18.8456">
        <ele>32.278268</ele>
        <time>2020-08-26T13:05:06.859Z</time>
      </trkpt>
      <trkpt lat="69.68551" lon="18.84594">
        <ele>32.342401</ele>
        <time>2020-08-26T13:05:09.870Z</time>
      </trkpt>
      <trkpt lat="69.68556" lon="18.84616">
        <ele>32.388202</ele>
        <time>2020-08-26T13:05:11.884Z</time>
      </trkpt>
      <trkpt lat="69.68562" lon="18.84636">
        <ele>32.432949</ele>
        <time>2020-08-26T13:05:13.851Z</time>
      </trkpt>
      <trkpt lat="69.68568" lon="18.84656">
        <ele>32.478717</ele>
        <time>2020-08-26T13:05:15.868Z</time>
      </trkpt>
      <trkpt lat="69.68573" lon="18.84679">
        <ele>32.525079</ele>
        <time>2020-08-26T13:05:17.869Z</time>
      </trkpt>
      <trkpt lat="69.68579" lon="18.84701">
        <ele>32.573039</ele>
        <time>2020-08-26T13:05:19.866Z</time>
      </trkpt>
      <trkpt lat="69.68586" lon="18.84722">
        <ele>32.621333</ele>
        <time>2020-08-26T13:05:21.850Z</time>
      </trkpt>
      <trkpt lat="69.68592" lon="18.84742">
        <ele>32.667304</ele>
        <time>2020-08-26T13:05:23.907Z</time>
      </trkpt>
      <trkpt lat="69.68598" lon="18.84763">
        <ele>32.711996</ele>
        <time>2020-08-26T13:05:25.856Z</time>
      </trkpt>
      <trkpt lat="69.68607" lon="18.84792">
        <ele>32.781727</ele>
        <time>2020-08-26T13:05:28.872Z</time>
      </trkpt>
      <trkpt lat="69.68613" lon="18.84813">
        <ele>32.911317</ele>
        <time>2020-08-26T13:05:30.856Z</time>
      </trkpt>
      <trkpt lat="69.68618" lon="18.84834">
        <ele>33.040821</ele>
        <time>2020-08-26T13:05:32.855Z</time>
      </trkpt>
      <trkpt lat="69.68624" lon="18.84856">
        <ele>33.173012</ele>
        <time>2020-08-26T13:05:34.881Z</time>
      </trkpt>
      <trkpt lat="69.6863" lon="18.84878">
        <ele>33.307007</ele>
        <time>2020-08-26T13:05:36.873Z</time>
      </trkpt>
      <trkpt lat="69.68635" lon="18.84898">
        <ele>33.43557</ele>
        <time>2020-08-26T13:05:38.845Z</time>
      </trkpt>
      <trkpt lat="69.68642" lon="18.84919">
        <ele>33.571051</ele>
        <time>2020-08-26T13:05:40.862Z</time>
      </trkpt>
      <trkpt lat="69.68648" lon="18.84941">
        <ele>33.710383</ele>
        <time>2020-08-26T13:05:42.859Z</time>
      </trkpt>
      <trkpt lat="69.68655" lon="18.84963">
        <ele>33.847901</ele>
        <time>2020-08-26T13:05:44.844Z</time>
      </trkpt>
      <trkpt lat="69.6866" lon="18.84983">
        <ele>33.975094</ele>
        <time>2020-08-26T13:05:46.876Z</time>
      </trkpt>
      <trkpt lat="69.68666" lon="18.85003">
        <ele>34.100665</ele>
        <time>2020-08-26T13:05:48.864Z</time>
      </trkpt>
      <trkpt lat="69.68675" lon="18.85033">
        <ele>34.287409</ele>
        <time>2020-08-26T13:05:51.848Z</time>
      </trkpt>
      <trkpt lat="69.68683" lon="18.85063">
        <ele>34.474278</ele>
        <time>2020-08-26T13:05:54.858Z</time>
      </trkpt>
      <trkpt lat="69.68689" lon="18.85084">
        <ele>34.609033</ele>
        <time>2020-08-26T13:05:56.884Z</time>
      </trkpt>
      <trkpt lat="69.68696" lon="18.85106">
        <ele>34.751488</ele>
        <time>2020-08-26T13:05:58.867Z</time>
      </trkpt>
      <trkpt lat="69.68702" lon="18.85128">
        <ele>34.894321</ele>
        <time>2020-08-26T13:06:00.856Z</time>
      </trkpt>
      <trkpt lat="69.68709" lon="18.85148">
        <ele>35.026796</ele>
        <time>2020-08-26T13:06:02.862Z</time>
      </trkpt>
      <trkpt lat="69.68715" lon="18.85167">
        <ele>35.155934</ele>
        <time>2020-08-26T13:06:04.880Z</time>
      </trkpt>
      <trkpt lat="69.68724" lon="18.85196">
        <ele>35.409316</ele>
        <time>2020-08-26T13:06:07.857Z</time>
      </trkpt>
      <trkpt lat="69.68732" lon="18.85224">
        <ele>35.872002</ele>
        <time>2020-08-26T13:06:10.892Z</time>
      </trkpt>
      <trkpt lat="69.68739" lon="18.85249">
        <ele>36.293917</ele>
        <time>2020-08-26T13:06:13.858Z</time>
      </trkpt>
      <trkpt lat="69.68746" lon="18.85273">
        <ele>36.680118</ele>
        <time>2020-08-26T13:06:16.861Z</time>
      </trkpt>
      <trkpt lat="69.68752" lon="18.85294">
        <ele>37.01437</ele>
        <time>2020-08-26T13:06:19.851Z</time>
      </trkpt>
      <trkpt lat="69.68757" lon="18.85315">
        <ele>37.345423</ele>
        <time>2020-08-26T13:06:22.842Z</time>
      </trkpt>
      <trkpt lat="69.68763" lon="18.8534">
        <ele>37.742105</ele>
        <time>2020-08-26T13:06:26.866Z</time>
      </trkpt>
      <trkpt lat="69.6877" lon="18.85364">
        <ele>38.140162</ele>
        <time>2020-08-26T13:06:30.864Z</time>
      </trkpt>
      <trkpt lat="69.68777" lon="18.85385">
        <ele>38.493254</ele>
        <time>2020-08-26T13:06:34.848Z</time>
      </trkpt>
      <trkpt lat="69.68782" lon="18.85407">
        <ele>38.82839</ele>
        <time>2020-08-26T13:06:38.852Z</time>
      </trkpt>
      <trkpt lat="69.68789" lon="18.8543">
        <ele>39.209335</ele>
        <time>2020-08-26T13:06:43.877Z</time>
      </trkpt>
      <trkpt lat="69.68796" lon="18.85454">
        <ele>39.614072</ele>
        <time>2020-08-26T13:06:48.864Z</time>
      </trkpt>
      <trkpt lat="69.68803" lon="18.85474">
        <ele>39.96798</ele>
        <time>2020-08-26T13:06:52.855Z</time>
      </trkpt>
      <trkpt lat="69.68809" lon="18.85495">
        <ele>40.32483</ele>
        <time>2020-08-26T13:06:56.859Z</time>
      </trkpt>
      <trkpt lat="69.68815" lon="18.85518">
        <ele>40.677804</ele>
        <time>2020-08-26T13:07:00.853Z</time>
      </trkpt>
      <trkpt lat="69.6882" lon="18.8554">
        <ele>41.017283</ele>
        <time>2020-08-26T13:07:04.858Z</time>
      </trkpt>
      <trkpt lat="69.68827" lon="18.85563">
        <ele>41.399979</ele>
        <time>2020-08-26T13:07:09.861Z</time>
      </trkpt>
      <trkpt lat="69.68834" lon="18.85585">
        <ele>41.773369</ele>
        <time>2020-08-26T13:07:14.853Z</time>
      </trkpt>
      <trkpt lat="69.6884" lon="18.85604">
        <ele>41.842952</ele>
        <time>2020-08-26T13:07:18.890Z</time>
      </trkpt>
      <trkpt lat="69.68847" lon="18.85624">
        <ele>41.822436</ele>
        <time>2020-08-26T13:07:22.885Z</time>
      </trkpt>
      <trkpt lat="69.68856" lon="18.8564">
        <ele>41.798929</ele>
        <time>2020-08-26T13:07:27.868Z</time>
      </trkpt>
      <trkpt lat="69.68864" lon="18.85659">
        <ele>41.776816</ele>
        <time>2020-08-26T13:07:32.863Z</time>
      </trkpt>
      <trkpt lat="69.68869" lon="18.85688">
        <ele>41.753416</ele>
        <time>2020-08-26T13:07:37.875Z</time>
      </trkpt>
      <trkpt lat="69.68873" lon="18.85714">
        <ele>41.732056</ele>
        <time>2020-08-26T13:07:40.846Z</time>
      </trkpt>
      <trkpt lat="69.68879" lon="18.8574">
        <ele>41.708952</ele>
        <time>2020-08-26T13:07:43.849Z</time>
      </trkpt>
      <trkpt lat="69.68886" lon="18.85762">
        <ele>41.68614</ele>
        <time>2020-08-26T13:07:46.857Z</time>
      </trkpt>
      <trkpt lat="69.68894" lon="18.85787">
        <ele>41.661105</ele>
        <time>2020-08-26T13:07:49.853Z</time>
      </trkpt>
      <trkpt lat="69.68903" lon="18.85812">
        <ele>41.635007</ele>
        <time>2020-08-26T13:07:52.872Z</time>
      </trkpt>
      <trkpt lat="69.68911" lon="18.85838">
        <ele>41.608793</ele>
        <time>2020-08-26T13:07:55.881Z</time>
      </trkpt>
      <trkpt lat="69.68919" lon="18.85867">
        <ele>41.580828</ele>
        <time>2020-08-26T13:07:58.865Z</time>
      </trkpt>
      <trkpt lat="69.68927" lon="18.85897">
        <ele>41.552728</ele>
        <time>2020-08-26T13:08:01.898Z</time>
      </trkpt>
      <trkpt lat="69.68934" lon="18.85919">
        <ele>41.531427</ele>
        <time>2020-08-26T13:08:03.867Z</time>
      </trkpt>
      <trkpt lat="69.6894" lon="18.85942">
        <ele>41.510067</ele>
        <time>2020-08-26T13:08:05.849Z</time>
      </trkpt>
      <trkpt lat="69.68946" lon="18.85965">
        <ele>41.488459</ele>
        <time>2020-08-26T13:08:07.852Z</time>
      </trkpt>
      <trkpt lat="69.68953" lon="18.85989">
        <ele>41.486915</ele>
        <time>2020-08-26T13:08:09.851Z</time>
      </trkpt>
      <trkpt lat="69.6896" lon="18.86013">
        <ele>41.527797</ele>
        <time>2020-08-26T13:08:11.852Z</time>
      </trkpt>
      <trkpt lat="69.68967" lon="18.86037">
        <ele>41.566797</ele>
        <time>2020-08-26T13:08:13.854Z</time>
      </trkpt>
      <trkpt lat="69.68974" lon="18.86061">
        <ele>41.60622</ele>
        <time>2020-08-26T13:08:15.889Z</time>
      </trkpt>
      <trkpt lat="69.68981" lon="18.86084">
        <ele>41.642887</ele>
        <time>2020-08-26T13:08:17.849Z</time>
      </trkpt>
      <trkpt lat="69.68986" lon="18.86106">
        <ele>41.677243</ele>
        <time>2020-08-26T13:08:19.902Z</time>
      </trkpt>
      <trkpt lat="69.68994" lon="18.86136">
        <ele>41.723535</ele>
        <time>2020-08-26T13:08:22.881Z</time>
      </trkpt>
      <trkpt lat="69.69002" lon="18.86164">
        <ele>41.768143</ele>
        <time>2020-08-26T13:08:25.856Z</time>
      </trkpt>
      <trkpt lat="69.69009" lon="18.86192">
        <ele>41.812284</ele>
        <time>2020-08-26T13:08:28.855Z</time>
      </trkpt>
      <trkpt lat="69.69018" lon="18.86218">
        <ele>41.857731</ele>
        <time>2020-08-26T13:08:31.898Z</time>
      </trkpt>
      <trkpt lat="69.69024" lon="18.8624">
        <ele>41.893361</ele>
        <time>2020-08-26T13:08:33.853Z</time>
      </trkpt>
      <trkpt lat="69.6903" lon="18.86263">
        <ele>41.929805</ele>
        <time>2020-08-26T13:08:35.871Z</time>
      </trkpt>
      <trkpt lat="69.69035" lon="18.86286">
        <ele>41.963578</ele>
        <time>2020-08-26T13:08:37.842Z</time>
      </trkpt>
      <trkpt lat="69.69041" lon="18.86309">
        <ele>41.999256</ele>
        <time>2020-08-26T13:08:39.832Z</time>
      </trkpt>
      <trkpt lat="69.69048" lon="18.86337">
        <ele>42.04162</ele>
        <time>2020-08-26T13:08:42.842Z</time>
      </trkpt>
      <trkpt lat="69.69056" lon="18.86358">
        <ele>42.08151</ele>
        <time>2020-08-26T13:08:46.865Z</time>
      </trkpt>
      <trkpt lat="69.69065" lon="18.86381">
        <ele>42.125186</ele>
        <time>2020-08-26T13:08:49.825Z</time>
      </trkpt>
      <trkpt lat="69.69074" lon="18.86406">
        <ele>42.180201</ele>
        <time>2020-08-26T13:08:53.191Z</time>
      </trkpt>
      <trkpt lat="69.69082" lon="18.86435">
        <ele>42.237718</ele>
        <time>2020-08-26T13:08:55.847Z</time>
      </trkpt>
      <trkpt lat="69.6909" lon="18.86459">
        <ele>42.28752</ele>
        <time>2020-08-26T13:08:58.864Z</time>
      </trkpt>
      <trkpt lat="69.69098" lon="18.8648">
        <ele>42.333611</ele>
        <time>2020-08-26T13:09:01.872Z</time>
      </trkpt>
      <trkpt lat="69.69105" lon="18.86505">
        <ele>42.382319</ele>
        <time>2020-08-26T13:09:04.843Z</time>
      </trkpt>
      <trkpt lat="69.69113" lon="18.86531">
        <ele>42.436192</ele>
        <time>2020-08-26T13:09:07.855Z</time>
      </trkpt>
      <trkpt lat="69.69121" lon="18.86557">
        <ele>42.486012</ele>
        <time>2020-08-26T13:09:10.860Z</time>
      </trkpt>
      <trkpt lat="69.69127" lon="18.86583">
        <ele>42.535315</ele>
        <time>2020-08-26T13:09:13.850Z</time>
      </trkpt>
      <trkpt lat="69.69133" lon="18.86608">
        <ele>42.582396</ele>
        <time>2020-08-26T13:09:16.856Z</time>
      </trkpt>
      <trkpt lat="69.6914" lon="18.86625">
        <ele>42.622138</ele>
        <time>2020-08-26T13:09:19.892Z</time>
      </trkpt>
      <trkpt lat="69.69149" lon="18.86632">
        <ele>42.663227</ele>
        <time>2020-08-26T13:09:23.916Z</time>
      </trkpt>
      <trkpt lat="69.69157" lon="18.86656">
        <ele>42.711367</ele>
        <time>2020-08-26T13:09:27.857Z</time>
      </trkpt>
      <trkpt lat="69.69161" lon="18.8668">
        <ele>42.751561</ele>
        <time>2020-08-26T13:09:30.865Z</time>
      </trkpt>
      <trkpt lat="69.69166" lon="18.86705">
        <ele>42.796894</ele>
        <time>2020-08-26T13:09:33.921Z</time>
      </trkpt>
      <trkpt lat="69.69171" lon="18.86734">
        <ele>42.844622</ele>
        <time>2020-08-26T13:09:36.882Z</time>
      </trkpt>
      <trkpt lat="69.69176" lon="18.86761">
        <ele>42.892771</ele>
        <time>2020-08-26T13:09:39.870Z</time>
      </trkpt>
      <trkpt lat="69.69182" lon="18.86785">
        <ele>42.899554</ele>
        <time>2020-08-26T13:09:42.850Z</time>
      </trkpt>
      <trkpt lat="69.69189" lon="18.86808">
        <ele>42.887878</ele>
        <time>2020-08-26T13:09:45.870Z</time>
      </trkpt>
      <trkpt lat="69.69195" lon="18.86831">
        <ele>42.876041</ele>
        <time>2020-08-26T13:09:48.858Z</time>
      </trkpt>
      <trkpt lat="69.69202" lon="18.86854">
        <ele>42.863974</ele>
        <time>2020-08-26T13:09:51.857Z</time>
      </trkpt>
      <trkpt lat="69.69209" lon="18.86873">
        <ele>42.853152</ele>
        <time>2020-08-26T13:09:54.855Z</time>
      </trkpt>
      <trkpt lat="69.69216" lon="18.86898">
        <ele>42.840013</ele>
        <time>2020-08-26T13:09:58.866Z</time>
      </trkpt>
      <trkpt lat="69.69224" lon="18.86922">
        <ele>42.826671</ele>
        <time>2020-08-26T13:10:02.886Z</time>
      </trkpt>
      <trkpt lat="69.69231" lon="18.86941">
        <ele>42.816095</ele>
        <time>2020-08-26T13:10:05.847Z</time>
      </trkpt>
      <trkpt lat="69.69236" lon="18.86962">
        <ele>42.805251</ele>
        <time>2020-08-26T13:10:08.852Z</time>
      </trkpt>
      <trkpt lat="69.69243" lon="18.86985">
        <ele>42.793364</ele>
        <time>2020-08-26T13:10:11.852Z</time>
      </trkpt>
      <trkpt lat="69.69251" lon="18.87009">
        <ele>42.780026</ele>
        <time>2020-08-26T13:10:14.886Z</time>
      </trkpt>
      <trkpt lat="69.69257" lon="18.8703">
        <ele>42.769555</ele>
        <time>2020-08-26T13:10:16.865Z</time>
      </trkpt>
      <trkpt lat="69.69263" lon="18.87052">
        <ele>42.758317</ele>
        <time>2020-08-26T13:10:18.873Z</time>
      </trkpt>
      <trkpt lat="69.6927" lon="18.87077">
        <ele>42.745476</ele>
        <time>2020-08-26T13:10:20.851Z</time>
      </trkpt>
      <trkpt lat="69.69278" lon="18.87106">
        <ele>42.730266</ele>
        <time>2020-08-26T13:10:22.873Z</time>
      </trkpt>
      <trkpt lat="69.69287" lon="18.87137">
        <ele>42.714271</ele>
        <time>2020-08-26T13:10:24.883Z</time>
      </trkpt>
      <trkpt lat="69.69297" lon="18.8717">
        <ele>42.623575</ele>
        <time>2020-08-26T13:10:26.845Z</time>
      </trkpt>
      <trkpt lat="69.69308" lon="18.87205">
        <ele>42.228909</ele>
        <time>2020-08-26T13:10:28.860Z</time>
      </trkpt>
      <trkpt lat="69.69318" lon="18.87242">
        <ele>41.845551</ele>
        <time>2020-08-26T13:10:30.855Z</time>
      </trkpt>
      <trkpt lat="69.69328" lon="18.87276">
        <ele>41.479027</ele>
        <time>2020-08-26T13:10:32.856Z</time>
      </trkpt>
      <trkpt lat="69.69337" lon="18.87309">
        <ele>41.130787</ele>
        <time>2020-08-26T13:10:34.859Z</time>
      </trkpt>
      <trkpt lat="69.69346" lon="18.87341">
        <ele>40.787278</ele>
        <time>2020-08-26T13:10:36.865Z</time>
      </trkpt>
      <trkpt lat="69.69355" lon="18.87372">
        <ele>40.453725</ele>
        <time>2020-08-26T13:10:38.854Z</time>
      </trkpt>
      <trkpt lat="69.69364" lon="18.87403">
        <ele>40.118383</ele>
        <time>2020-08-26T13:10:40.877Z</time>
      </trkpt>
      <trkpt lat="69.69372" lon="18.87435">
        <ele>39.788618</ele>
        <time>2020-08-26T13:10:42.853Z</time>
      </trkpt>
      <trkpt lat="69.69381" lon="18.87463">
        <ele>39.469688</ele>
        <time>2020-08-26T13:10:44.851Z</time>
      </trkpt>
      <trkpt lat="69.69389" lon="18.87489">
        <ele>39.175882</ele>
        <time>2020-08-26T13:10:46.855Z</time>
      </trkpt>
      <trkpt lat="69.69397" lon="18.87514">
        <ele>38.900896</ele>
        <time>2020-08-26T13:10:48.854Z</time>
      </trkpt>
      <trkpt lat="69.69405" lon="18.87538">
        <ele>38.633075</ele>
        <time>2020-08-26T13:10:50.848Z</time>
      </trkpt>
      <trkpt lat="69.69412" lon="18.87562">
        <ele>38.373914</ele>
        <time>2020-08-26T13:10:52.953Z</time>
      </trkpt>
      <trkpt lat="69.69419" lon="18.87586">
        <ele>38.16065</ele>
        <time>2020-08-26T13:10:54.870Z</time>
      </trkpt>
      <trkpt lat="69.69427" lon="18.87611">
        <ele>37.941084</ele>
        <time>2020-08-26T13:10:56.852Z</time>
      </trkpt>
      <trkpt lat="69.69434" lon="18.8764">
        <ele>37.705679</ele>
        <time>2020-08-26T13:10:58.871Z</time>
      </trkpt>
      <trkpt lat="69.69441" lon="18.87667">
        <ele>37.473436</ele>
        <time>2020-08-26T13:11:00.859Z</time>
      </trkpt>
      <trkpt lat="69.69449" lon="18.87692">
        <ele>37.240883</ele>
        <time>2020-08-26T13:11:02.855Z</time>
      </trkpt>
      <trkpt lat="69.69457" lon="18.87718">
        <ele>37.006416</ele>
        <time>2020-08-26T13:11:04.875Z</time>
      </trkpt>
      <trkpt lat="69.69465" lon="18.87744">
        <ele>36.778029</ele>
        <time>2020-08-26T13:11:06.864Z</time>
      </trkpt>
      <trkpt lat="69.69473" lon="18.8777">
        <ele>36.542267</ele>
        <time>2020-08-26T13:11:08.859Z</time>
      </trkpt>
      <trkpt lat="69.69482" lon="18.87796">
        <ele>36.29863</ele>
        <time>2020-08-26T13:11:10.871Z</time>
      </trkpt>
      <trkpt lat="69.6949" lon="18.87826">
        <ele>36.041329</ele>
        <time>2020-08-26T13:11:12.849Z</time>
      </trkpt>
      <trkpt lat="69.69498" lon="18.87856">
        <ele>35.784774</ele>
        <time>2020-08-26T13:11:14.842Z</time>
      </trkpt>
      <trkpt lat="69.69507" lon="18.87885">
        <ele>35.530047</ele>
        <time>2020-08-26T13:11:16.847Z</time>
      </trkpt>
      <trkpt lat="69.69515" lon="18.87914">
        <ele>35.279642</ele>
        <time>2020-08-26T13:11:18.856Z</time>
      </trkpt>
      <trkpt lat="69.69523" lon="18.87944">
        <ele>35.028253</ele>
        <time>2020-08-26T13:11:20.927Z</time>
      </trkpt>
      <trkpt lat="69.6953" lon="18.87975">
        <ele>35.083357</ele>
        <time>2020-08-26T13:11:22.865Z</time>
      </trkpt>
      <trkpt lat="69.69538" lon="18.88007">
        <ele>35.355255</ele>
        <time>2020-08-26T13:11:24.872Z</time>
      </trkpt>
      <trkpt lat="69.69545" lon="18.88039">
        <ele>35.62778</ele>
        <time>2020-08-26T13:11:26.867Z</time>
      </trkpt>
      <trkpt lat="69.69553" lon="18.88068">
        <ele>35.885334</ele>
        <time>2020-08-26T13:11:28.867Z</time>
      </trkpt>
      <trkpt lat="69.69562" lon="18.88089">
        <ele>36.123355</ele>
        <time>2020-08-26T13:11:30.873Z</time>
      </trkpt>
      <trkpt lat="69.69572" lon="18.88102">
        <ele>36.34721</ele>
        <time>2020-08-26T13:11:32.887Z</time>
      </trkpt>
      <trkpt lat="69.69581" lon="18.88127">
        <ele>36.591268</ele>
        <time>2020-08-26T13:11:34.861Z</time>
      </trkpt>
      <trkpt lat="69.69584" lon="18.88158">
        <ele>36.819826</ele>
        <time>2020-08-26T13:11:36.868Z</time>
      </trkpt>
      <trkpt lat="69.69587" lon="18.88184">
        <ele>37.014253</ele>
        <time>2020-08-26T13:11:38.850Z</time>
      </trkpt>
      <trkpt lat="69.69591" lon="18.88207">
        <ele>37.204057</ele>
        <time>2020-08-26T13:11:40.882Z</time>
      </trkpt>
      <trkpt lat="69.69599" lon="18.88237">
        <ele>37.46495</ele>
        <time>2020-08-26T13:11:43.866Z</time>
      </trkpt>
      <trkpt lat="69.69607" lon="18.88263">
        <ele>37.714097</ele>
        <time>2020-08-26T13:11:46.885Z</time>
      </trkpt>
      <trkpt lat="69.69615" lon="18.88286">
        <ele>37.943037</ele>
        <time>2020-08-26T13:11:49.862Z</time>
      </trkpt>
      <trkpt lat="69.69622" lon="18.88307">
        <ele>38.149794</ele>
        <time>2020-08-26T13:11:52.881Z</time>
      </trkpt>
      <trkpt lat="69.69629" lon="18.88331">
        <ele>38.363649</ele>
        <time>2020-08-26T13:11:55.890Z</time>
      </trkpt>
      <trkpt lat="69.69629" lon="18.88359">
        <ele>38.563435</ele>
        <time>2020-08-26T13:11:58.872Z</time>
      </trkpt>
      <trkpt lat="69.69628" lon="18.88387">
        <ele>38.608287</ele>
        <time>2020-08-26T13:12:01.851Z</time>
      </trkpt>
      <trkpt lat="69.6962" lon="18.88415">
        <ele>38.636642</ele>
        <time>2020-08-26T13:12:04.873Z</time>
      </trkpt>
      <trkpt lat="69.6961" lon="18.88413">
        <ele>38.659028</ele>
        <time>2020-08-26T13:12:06.877Z</time>
      </trkpt>
      <trkpt lat="69.69599" lon="18.88418">
        <ele>38.683023</ele>
        <time>2020-08-26T13:12:08.947Z</time>
      </trkpt>
      <trkpt lat="69.6959" lon="18.88445">
        <ele>38.71175</ele>
        <time>2020-08-26T13:12:10.846Z</time>
      </trkpt>
      <trkpt lat="69.69585" lon="18.8848">
        <ele>38.740936</ele>
        <time>2020-08-26T13:12:12.869Z</time>
      </trkpt>
      <trkpt lat="69.69582" lon="18.88519">
        <ele>38.77111</ele>
        <time>2020-08-26T13:12:14.877Z</time>
      </trkpt>
      <trkpt lat="69.69578" lon="18.88558">
        <ele>38.802191</ele>
        <time>2020-08-26T13:12:16.858Z</time>
      </trkpt>
      <trkpt lat="69.69574" lon="18.88597">
        <ele>38.83373</ele>
        <time>2020-08-26T13:12:18.862Z</time>
      </trkpt>
      <trkpt lat="69.69569" lon="18.88634">
        <ele>38.864497</ele>
        <time>2020-08-26T13:12:20.886Z</time>
      </trkpt>
      <trkpt lat="69.69562" lon="18.88665">
        <ele>38.892231</ele>
        <time>2020-08-26T13:12:22.879Z</time>
      </trkpt>
      <trkpt lat="69.69557" lon="18.88693">
        <ele>38.916746</ele>
        <time>2020-08-26T13:12:24.864Z</time>
      </trkpt>
      <trkpt lat="69.69553" lon="18.88719">
        <ele>38.938776</ele>
        <time>2020-08-26T13:12:26.858Z</time>
      </trkpt>
      <trkpt lat="69.69549" lon="18.88744">
        <ele>38.95935</ele>
        <time>2020-08-26T13:12:28.850Z</time>
      </trkpt>
      <trkpt lat="69.69545" lon="18.88776">
        <ele>38.985886</ele>
        <time>2020-08-26T13:12:31.859Z</time>
      </trkpt>
      <trkpt lat="69.69541" lon="18.888">
        <ele>39.591273</ele>
        <time>2020-08-26T13:12:34.849Z</time>
      </trkpt>
      <trkpt lat="69.69536" lon="18.88823">
        <ele>40.23697</ele>
        <time>2020-08-26T13:12:37.852Z</time>
      </trkpt>
      <trkpt lat="69.69531" lon="18.88853">
        <ele>41.04284</ele>
        <time>2020-08-26T13:12:41.859Z</time>
      </trkpt>
      <trkpt lat="69.69528" lon="18.88878">
        <ele>41.724536</ele>
        <time>2020-08-26T13:12:44.904Z</time>
      </trkpt>
      <trkpt lat="69.69524" lon="18.88905">
        <ele>42.441613</ele>
        <time>2020-08-26T13:12:48.871Z</time>
      </trkpt>
      <trkpt lat="69.69519" lon="18.8893">
        <ele>43.132683</ele>
        <time>2020-08-26T13:12:52.867Z</time>
      </trkpt>
      <trkpt lat="69.69515" lon="18.88954">
        <ele>43.776631</ele>
        <time>2020-08-26T13:12:56.844Z</time>
      </trkpt>
      <trkpt lat="69.69509" lon="18.88982">
        <ele>44.569299</ele>
        <time>2020-08-26T13:13:01.900Z</time>
      </trkpt>
      <trkpt lat="69.69505" lon="18.89007">
        <ele>45.253745</ele>
        <time>2020-08-26T13:13:05.849Z</time>
      </trkpt>
      <trkpt lat="69.695" lon="18.89034">
        <ele>45.99768</ele>
        <time>2020-08-26T13:13:10.874Z</time>
      </trkpt>
      <trkpt lat="69.69497" lon="18.89059">
        <ele>46.673234</ele>
        <time>2020-08-26T13:13:15.849Z</time>
      </trkpt>
      <trkpt lat="69.69491" lon="18.89083">
        <ele>47.359427</ele>
        <time>2020-08-26T13:13:20.861Z</time>
      </trkpt>
      <trkpt lat="69.69486" lon="18.89106">
        <ele>48.036409</ele>
        <time>2020-08-26T13:13:25.861Z</time>
      </trkpt>
      <trkpt lat="69.69481" lon="18.89129">
        <ele>48.694389</ele>
        <time>2020-08-26T13:13:30.899Z</time>
      </trkpt>
      <trkpt lat="69.69477" lon="18.89152">
        <ele>49.329952</ele>
        <time>2020-08-26T13:13:35.906Z</time>
      </trkpt>
      <trkpt lat="69.69473" lon="18.89176">
        <ele>49.995607</ele>
        <time>2020-08-26T13:13:40.896Z</time>
      </trkpt>
      <trkpt lat="69.69467" lon="18.89198">
        <ele>50.66194</ele>
        <time>2020-08-26T13:13:45.860Z</time>
      </trkpt>
      <trkpt lat="69.69462" lon="18.89221">
        <ele>51.345898</ele>
        <time>2020-08-26T13:13:51.876Z</time>
      </trkpt>
      <trkpt lat="69.69456" lon="18.89246">
        <ele>52.076355</ele>
        <time>2020-08-26T13:13:57.868Z</time>
      </trkpt>
      <trkpt lat="69.6945" lon="18.8927">
        <ele>52.780806</ele>
        <time>2020-08-26T13:14:03.861Z</time>
      </trkpt>
      <trkpt lat="69.69445" lon="18.89296">
        <ele>53.500342</ele>
        <time>2020-08-26T13:14:09.874Z</time>
      </trkpt>
      <trkpt lat="69.69438" lon="18.8932">
        <ele>54.256318</ele>
        <time>2020-08-26T13:14:15.869Z</time>
      </trkpt>
      <trkpt lat="69.69432" lon="18.89342">
        <ele>54.911455</ele>
        <time>2020-08-26T13:14:21.889Z</time>
      </trkpt>
      <trkpt lat="69.69427" lon="18.89365">
        <ele>55.559246</ele>
        <time>2020-08-26T13:14:27.848Z</time>
      </trkpt>
      <trkpt lat="69.6942" lon="18.89388">
        <ele>56.280425</ele>
        <time>2020-08-26T13:14:33.867Z</time>
      </trkpt>
      <trkpt lat="69.69415" lon="18.8941">
        <ele>56.945376</ele>
        <time>2020-08-26T13:14:39.866Z</time>
      </trkpt>
      <trkpt lat="69.69408" lon="18.89434">
        <ele>57.680276</ele>
        <time>2020-08-26T13:14:45.892Z</time>
      </trkpt>
      <trkpt lat="69.69401" lon="18.89455">
        <ele>58.385406</ele>
        <time>2020-08-26T13:14:51.887Z</time>
      </trkpt>
      <trkpt lat="69.69394" lon="18.89476">
        <ele>59.090887</ele>
        <time>2020-08-26T13:14:57.846Z</time>
      </trkpt>
      <trkpt lat="69.69387" lon="18.89497">
        <ele>59.776735</ele>
        <time>2020-08-26T13:15:03.880Z</time>
      </trkpt>
      <trkpt lat="69.6938" lon="18.89519">
        <ele>60.518922</ele>
        <time>2020-08-26T13:15:09.852Z</time>
      </trkpt>
      <trkpt lat="69.69373" lon="18.8954">
        <ele>61.220033</ele>
        <time>2020-08-26T13:15:15.874Z</time>
      </trkpt>
      <trkpt lat="69.69366" lon="18.89561">
        <ele>61.888586</ele>
        <time>2020-08-26T13:15:22.849Z</time>
      </trkpt>
      <trkpt lat="69.6936" lon="18.89581">
        <ele>62.550238</ele>
        <time>2020-08-26T13:15:28.852Z</time>
      </trkpt>
      <trkpt lat="69.69353" lon="18.89598">
        <ele>63.192367</ele>
        <time>2020-08-26T13:15:34.858Z</time>
      </trkpt>
      <trkpt lat="69.69346" lon="18.89619">
        <ele>63.881758</ele>
        <time>2020-08-26T13:15:40.876Z</time>
      </trkpt>
      <trkpt lat="69.69339" lon="18.89637">
        <ele>64.52201</ele>
        <time>2020-08-26T13:15:45.845Z</time>
      </trkpt>
      <trkpt lat="69.69333" lon="18.89656">
        <ele>65.185639</ele>
        <time>2020-08-26T13:15:50.875Z</time>
      </trkpt>
      <trkpt lat="69.69326" lon="18.89675">
        <ele>65.871529</ele>
        <time>2020-08-26T13:15:57.872Z</time>
      </trkpt>
      <trkpt lat="69.69318" lon="18.89693">
        <ele>66.582665</ele>
        <time>2020-08-26T13:16:04.850Z</time>
      </trkpt>
      <trkpt lat="69.69311" lon="18.89712">
        <ele>67.310687</ele>
        <time>2020-08-26T13:16:11.860Z</time>
      </trkpt>
      <trkpt lat="69.69303" lon="18.89734">
        <ele>68.070987</ele>
        <time>2020-08-26T13:16:17.854Z</time>
      </trkpt>
      <trkpt lat="69.69296" lon="18.89751">
        <ele>68.729649</ele>
        <time>2020-08-26T13:16:23.884Z</time>
      </trkpt>
      <trkpt lat="69.69289" lon="18.8977">
        <ele>69.43112</ele>
        <time>2020-08-26T13:16:29.882Z</time>
      </trkpt>
      <trkpt lat="69.69281" lon="18.8979">
        <ele>70.178175</ele>
        <time>2020-08-26T13:16:35.853Z</time>
      </trkpt>
      <trkpt lat="69.69274" lon="18.89809">
        <ele>70.890484</ele>
        <time>2020-08-26T13:16:41.861Z</time>
      </trkpt>
      <trkpt lat="69.69267" lon="18.89826">
        <ele>71.560326</ele>
        <time>2020-08-26T13:16:47.847Z</time>
      </trkpt>
      <trkpt lat="69.6926" lon="18.89843">
        <ele>72.225347</ele>
        <time>2020-08-26T13:16:53.859Z</time>
      </trkpt>
      <trkpt lat="69.69253" lon="18.8986">
        <ele>72.872146</ele>
        <time>2020-08-26T13:16:59.894Z</time>
      </trkpt>
      <trkpt lat="69.69246" lon="18.89877">
        <ele>73.537722</ele>
        <time>2020-08-26T13:17:04.871Z</time>
      </trkpt>
      <trkpt lat="69.69238" lon="18.89898">
        <ele>74.2893</ele>
        <time>2020-08-26T13:17:11.866Z</time>
      </trkpt>
      <trkpt lat="69.69231" lon="18.89917">
        <ele>74.966638</ele>
        <time>2020-08-26T13:17:17.853Z</time>
      </trkpt>
      <trkpt lat="69.69224" lon="18.89934">
        <ele>75.648345</ele>
        <time>2020-08-26T13:17:21.856Z</time>
      </trkpt>
      <trkpt lat="69.69217" lon="18.89955">
        <ele>76.359814</ele>
        <time>2020-08-26T13:17:27.865Z</time>
      </trkpt>
      <trkpt lat="69.6921" lon="18.89975">
        <ele>77.055587</ele>
        <time>2020-08-26T13:17:34.887Z</time>
      </trkpt>
      <trkpt lat="69.69203" lon="18.89996">
        <ele>77.146771</ele>
        <time>2020-08-26T13:17:41.855Z</time>
      </trkpt>
      <trkpt lat="69.69197" lon="18.90015">
        <ele>77.230355</ele>
        <time>2020-08-26T13:17:47.851Z</time>
      </trkpt>
      <trkpt lat="69.69189" lon="18.90034">
        <ele>77.319401</ele>
        <time>2020-08-26T13:17:52.876Z</time>
      </trkpt>
      <trkpt lat="69.69181" lon="18.90053">
        <ele>77.414819</ele>
        <time>2020-08-26T13:17:58.853Z</time>
      </trkpt>
      <trkpt lat="69.69173" lon="18.90073">
        <ele>77.511046</ele>
        <time>2020-08-26T13:18:03.866Z</time>
      </trkpt>
      <trkpt lat="69.69166" lon="18.9009">
        <ele>77.595102</ele>
        <time>2020-08-26T13:18:07.867Z</time>
      </trkpt>
      <trkpt lat="69.69158" lon="18.9011">
        <ele>77.685948</ele>
        <time>2020-08-26T13:18:11.918Z</time>
      </trkpt>
      <trkpt lat="69.6915" lon="18.90134">
        <ele>77.793309</ele>
        <time>2020-08-26T13:18:15.856Z</time>
      </trkpt>
      <trkpt lat="69.69142" lon="18.90154">
        <ele>77.885477</ele>
        <time>2020-08-26T13:18:18.848Z</time>
      </trkpt>
      <trkpt lat="69.69135" lon="18.90172">
        <ele>77.976512</ele>
        <time>2020-08-26T13:18:21.864Z</time>
      </trkpt>
      <trkpt lat="69.69128" lon="18.9019">
        <ele>78.060026</ele>
        <time>2020-08-26T13:18:24.873Z</time>
      </trkpt>
      <trkpt lat="69.6912" lon="18.90213">
        <ele>78.163052</ele>
        <time>2020-08-26T13:18:27.860Z</time>
      </trkpt>
      <trkpt lat="69.69113" lon="18.90231">
        <ele>78.248752</ele>
        <time>2020-08-26T13:18:29.854Z</time>
      </trkpt>
      <trkpt lat="69.69105" lon="18.90252">
        <ele>78.344616</ele>
        <time>2020-08-26T13:18:31.851Z</time>
      </trkpt>
      <trkpt lat="69.69096" lon="18.90276">
        <ele>78.454414</ele>
        <time>2020-08-26T13:18:33.858Z</time>
      </trkpt>
      <trkpt lat="69.69086" lon="18.90302">
        <ele>78.57572</ele>
        <time>2020-08-26T13:18:35.831Z</time>
      </trkpt>
      <trkpt lat="69.69075" lon="18.9033">
        <ele>78.436756</ele>
        <time>2020-08-26T13:18:37.907Z</time>
      </trkpt>
      <trkpt lat="69.69064" lon="18.90358">
        <ele>77.40123</ele>
        <time>2020-08-26T13:18:39.865Z</time>
      </trkpt>
      <trkpt lat="69.69054" lon="18.90385">
        <ele>76.434575</ele>
        <time>2020-08-26T13:18:41.857Z</time>
      </trkpt>
      <trkpt lat="69.69044" lon="18.90412">
        <ele>75.457714</ele>
        <time>2020-08-26T13:18:43.899Z</time>
      </trkpt>
      <trkpt lat="69.69035" lon="18.90437">
        <ele>74.558113</ele>
        <time>2020-08-26T13:18:45.855Z</time>
      </trkpt>
      <trkpt lat="69.69025" lon="18.90463">
        <ele>73.58065</ele>
        <time>2020-08-26T13:18:47.861Z</time>
      </trkpt>
      <trkpt lat="69.69015" lon="18.90489">
        <ele>72.625735</ele>
        <time>2020-08-26T13:18:49.855Z</time>
      </trkpt>
      <trkpt lat="69.69005" lon="18.90514">
        <ele>71.686082</ele>
        <time>2020-08-26T13:18:51.873Z</time>
      </trkpt>
      <trkpt lat="69.68995" lon="18.90541">
        <ele>70.699559</ele>
        <time>2020-08-26T13:18:53.847Z</time>
      </trkpt>
      <trkpt lat="69.68985" lon="18.90566">
        <ele>69.730309</ele>
        <time>2020-08-26T13:18:55.854Z</time>
      </trkpt>
      <trkpt lat="69.68974" lon="18.90592">
        <ele>68.737122</ele>
        <time>2020-08-26T13:18:57.855Z</time>
      </trkpt>
      <trkpt lat="69.68963" lon="18.90618">
        <ele>67.7321</ele>
        <time>2020-08-26T13:18:59.858Z</time>
      </trkpt>
      <trkpt lat="69.68951" lon="18.90646">
        <ele>66.632519</ele>
        <time>2020-08-26T13:19:01.900Z</time>
      </trkpt>
      <trkpt lat="69.68938" lon="18.90674">
        <ele>65.363993</ele>
        <time>2020-08-26T13:19:03.853Z</time>
      </trkpt>
      <trkpt lat="69.68926" lon="18.90699">
        <ele>63.962175</ele>
        <time>2020-08-26T13:19:05.877Z</time>
      </trkpt>
      <trkpt lat="69.68914" lon="18.90723">
        <ele>62.604154</ele>
        <time>2020-08-26T13:19:07.898Z</time>
      </trkpt>
      <trkpt lat="69.68902" lon="18.90744">
        <ele>61.316755</ele>
        <time>2020-08-26T13:19:09.857Z</time>
      </trkpt>
      <trkpt lat="69.6889" lon="18.90762">
        <ele>60.106365</ele>
        <time>2020-08-26T13:19:11.862Z</time>
      </trkpt>
      <trkpt lat="69.68879" lon="18.90777">
        <ele>59.014228</ele>
        <time>2020-08-26T13:19:13.856Z</time>
      </trkpt>
      <trkpt lat="69.68868" lon="18.90793">
        <ele>57.854325</ele>
        <time>2020-08-26T13:19:15.853Z</time>
      </trkpt>
      <trkpt lat="69.68855" lon="18.90808">
        <ele>56.54758</ele>
        <time>2020-08-26T13:19:17.877Z</time>
      </trkpt>
      <trkpt lat="69.68842" lon="18.90822">
        <ele>55.31925</ele>
        <time>2020-08-26T13:19:19.856Z</time>
      </trkpt>
      <trkpt lat="69.6883" lon="18.90833">
        <ele>54.156607</ele>
        <time>2020-08-26T13:19:21.863Z</time>
      </trkpt>
      <trkpt lat="69.68817" lon="18.90845">
        <ele>52.853334</ele>
        <time>2020-08-26T13:19:23.864Z</time>
      </trkpt>
      <trkpt lat="69.68803" lon="18.90856">
        <ele>51.54471</ele>
        <time>2020-08-26T13:19:25.850Z</time>
      </trkpt>
      <trkpt lat="69.68789" lon="18.90865">
        <ele>50.23768</ele>
        <time>2020-08-26T13:19:27.876Z</time>
      </trkpt>
      <trkpt lat="69.68776" lon="18.90873">
        <ele>49.060061</ele>
        <time>2020-08-26T13:19:29.864Z</time>
      </trkpt>
      <trkpt lat="69.68761" lon="18.9088">
        <ele>48.145664</ele>
        <time>2020-08-26T13:19:31.853Z</time>
      </trkpt>
      <trkpt lat="69.68746" lon="18.90886">
        <ele>47.225458</ele>
        <time>2020-08-26T13:19:33.852Z</time>
      </trkpt>
      <trkpt lat="69.68731" lon="18.9089">
        <ele>46.331855</ele>
        <time>2020-08-26T13:19:35.871Z</time>
      </trkpt>
      <trkpt lat="69.68717" lon="18.90898">
        <ele>45.433146</ele>
        <time>2020-08-26T13:19:37.872Z</time>
      </trkpt>
      <trkpt lat="69.68701" lon="18.90908">
        <ele>44.466232</ele>
        <time>2020-08-26T13:19:39.881Z</time>
      </trkpt>
      <trkpt lat="69.68685" lon="18.90911">
        <ele>43.50248</ele>
        <time>2020-08-26T13:19:41.897Z</time>
      </trkpt>
      <trkpt lat="69.6867" lon="18.90909">
        <ele>42.55161</ele>
        <time>2020-08-26T13:19:43.866Z</time>
      </trkpt>
      <trkpt lat="69.68654" lon="18.90903">
        <ele>41.605904</ele>
        <time>2020-08-26T13:19:45.865Z</time>
      </trkpt>
      <trkpt lat="69.68639" lon="18.90896">
        <ele>40.658746</ele>
        <time>2020-08-26T13:19:47.877Z</time>
      </trkpt>
      <trkpt lat="69.68624" lon="18.9089">
        <ele>39.7531</ele>
        <time>2020-08-26T13:19:49.859Z</time>
      </trkpt>
      <trkpt lat="69.6861" lon="18.90883">
        <ele>38.899377</ele>
        <time>2020-08-26T13:19:51.854Z</time>
      </trkpt>
      <trkpt lat="69.68598" lon="18.90874">
        <ele>38.329226</ele>
        <time>2020-08-26T13:19:53.859Z</time>
      </trkpt>
      <trkpt lat="69.68585" lon="18.90868">
        <ele>38.310939</ele>
        <time>2020-08-26T13:19:55.872Z</time>
      </trkpt>
      <trkpt lat="69.68574" lon="18.9086">
        <ele>38.294031</ele>
        <time>2020-08-26T13:19:57.868Z</time>
      </trkpt>
      <trkpt lat="69.68564" lon="18.90851">
        <ele>38.278027</ele>
        <time>2020-08-26T13:19:59.898Z</time>
      </trkpt>
      <trkpt lat="69.68554" lon="18.90842">
        <ele>38.263236</ele>
        <time>2020-08-26T13:20:01.878Z</time>
      </trkpt>
      <trkpt lat="69.68545" lon="18.90834">
        <ele>38.248619</ele>
        <time>2020-08-26T13:20:03.874Z</time>
      </trkpt>
      <trkpt lat="69.68532" lon="18.90821">
        <ele>38.229067</ele>
        <time>2020-08-26T13:20:06.856Z</time>
      </trkpt>
      <trkpt lat="69.6852" lon="18.90807">
        <ele>38.210154</ele>
        <time>2020-08-26T13:20:09.871Z</time>
      </trkpt>
      <trkpt lat="69.68508" lon="18.90792">
        <ele>38.19027</ele>
        <time>2020-08-26T13:20:12.852Z</time>
      </trkpt>
      <trkpt lat="69.68499" lon="18.9078">
        <ele>38.176264</ele>
        <time>2020-08-26T13:20:14.872Z</time>
      </trkpt>
      <trkpt lat="69.68491" lon="18.90767">
        <ele>38.161963</ele>
        <time>2020-08-26T13:20:16.895Z</time>
      </trkpt>
      <trkpt lat="69.68482" lon="18.90754">
        <ele>38.147946</ele>
        <time>2020-08-26T13:20:18.894Z</time>
      </trkpt>
      <trkpt lat="69.68474" lon="18.90741">
        <ele>38.133752</ele>
        <time>2020-08-26T13:20:20.877Z</time>
      </trkpt>
      <trkpt lat="69.68465" lon="18.90727">
        <ele>38.119459</ele>
        <time>2020-08-26T13:20:22.852Z</time>
      </trkpt>
      <trkpt lat="69.68457" lon="18.90713">
        <ele>38.104838</ele>
        <time>2020-08-26T13:20:24.853Z</time>
      </trkpt>
      <trkpt lat="69.68448" lon="18.90699">
        <ele>38.090216</ele>
        <time>2020-08-26T13:20:26.879Z</time>
      </trkpt>
      <trkpt lat="69.6844" lon="18.90684">
        <ele>38.07577</ele>
        <time>2020-08-26T13:20:28.879Z</time>
      </trkpt>
      <trkpt lat="69.68431" lon="18.90669">
        <ele>37.961351</ele>
        <time>2020-08-26T13:20:30.853Z</time>
      </trkpt>
      <trkpt lat="69.68423" lon="18.90653">
        <ele>37.782045</ele>
        <time>2020-08-26T13:20:32.877Z</time>
      </trkpt>
      <trkpt lat="69.68415" lon="18.90638">
        <ele>37.618897</ele>
        <time>2020-08-26T13:20:34.867Z</time>
      </trkpt>
      <trkpt lat="69.68407" lon="18.9062">
        <ele>37.434433</ele>
        <time>2020-08-26T13:20:37.848Z</time>
      </trkpt>
      <trkpt lat="69.68399" lon="18.90604">
        <ele>37.255272</ele>
        <time>2020-08-26T13:20:40.869Z</time>
      </trkpt>
      <trkpt lat="69.68388" lon="18.90586">
        <ele>37.038458</ele>
        <time>2020-08-26T13:20:43.934Z</time>
      </trkpt>
      <trkpt lat="69.68376" lon="18.90568">
        <ele>36.795159</ele>
        <time>2020-08-26T13:20:46.857Z</time>
      </trkpt>
      <trkpt lat="69.68367" lon="18.90556">
        <ele>36.615799</ele>
        <time>2020-08-26T13:20:48.871Z</time>
      </trkpt>
      <trkpt lat="69.68358" lon="18.90541">
        <ele>36.438131</ele>
        <time>2020-08-26T13:20:50.861Z</time>
      </trkpt>
      <trkpt lat="69.6835" lon="18.90525">
        <ele>36.26364</ele>
        <time>2020-08-26T13:20:52.910Z</time>
      </trkpt>
      <trkpt lat="69.68343" lon="18.90507">
        <ele>36.089372</ele>
        <time>2020-08-26T13:20:54.877Z</time>
      </trkpt>
      <trkpt lat="69.68335" lon="18.90488">
        <ele>35.911403</ele>
        <time>2020-08-26T13:20:56.873Z</time>
      </trkpt>
      <trkpt lat="69.68329" lon="18.90466">
        <ele>35.737817</ele>
        <time>2020-08-26T13:20:58.853Z</time>
      </trkpt>
      <trkpt lat="69.68323" lon="18.90442">
        <ele>35.553333</ele>
        <time>2020-08-26T13:21:00.848Z</time>
      </trkpt>
      <trkpt lat="69.68316" lon="18.90418">
        <ele>35.359431</ele>
        <time>2020-08-26T13:21:02.896Z</time>
      </trkpt>
      <trkpt lat="69.68309" lon="18.90395">
        <ele>35.17512</ele>
        <time>2020-08-26T13:21:04.852Z</time>
      </trkpt>
      <trkpt lat="69.68303" lon="18.90373">
        <ele>34.993429</ele>
        <time>2020-08-26T13:21:06.876Z</time>
      </trkpt>
      <trkpt lat="69.68295" lon="18.90351">
        <ele>34.827403</ele>
        <time>2020-08-26T13:21:08.860Z</time>
      </trkpt>
      <trkpt lat="69.68287" lon="18.9033">
        <ele>34.709309</ele>
        <time>2020-08-26T13:21:10.875Z</time>
      </trkpt>
      <trkpt lat="69.68277" lon="18.90311">
        <ele>34.587834</ele>
        <time>2020-08-26T13:21:12.859Z</time>
      </trkpt>
      <trkpt lat="69.68268" lon="18.90293">
        <ele>34.467151</ele>
        <time>2020-08-26T13:21:14.848Z</time>
      </trkpt>
      <trkpt lat="69.68259" lon="18.90277">
        <ele>34.348704</ele>
        <time>2020-08-26T13:21:16.871Z</time>
      </trkpt>
      <trkpt lat="69.6825" lon="18.90261">
        <ele>34.233135</ele>
        <time>2020-08-26T13:21:18.878Z</time>
      </trkpt>
      <trkpt lat="69.6824" lon="18.90249">
        <ele>34.117664</ele>
        <time>2020-08-26T13:21:20.860Z</time>
      </trkpt>
      <trkpt lat="69.6823" lon="18.90238">
        <ele>34.005132</ele>
        <time>2020-08-26T13:21:22.870Z</time>
      </trkpt>
      <trkpt lat="69.6822" lon="18.90228">
        <ele>33.893379</ele>
        <time>2020-08-26T13:21:24.859Z</time>
      </trkpt>
      <trkpt lat="69.6821" lon="18.90219">
        <ele>33.776122</ele>
        <time>2020-08-26T13:21:26.887Z</time>
      </trkpt>
      <trkpt lat="69.682" lon="18.9021">
        <ele>33.659572</ele>
        <time>2020-08-26T13:21:28.861Z</time>
      </trkpt>
      <trkpt lat="69.6819" lon="18.90202">
        <ele>33.546262</ele>
        <time>2020-08-26T13:21:30.881Z</time>
      </trkpt>
      <trkpt lat="69.68179" lon="18.90196">
        <ele>33.425334</ele>
        <time>2020-08-26T13:21:32.867Z</time>
      </trkpt>
      <trkpt lat="69.68168" lon="18.90189">
        <ele>33.308126</ele>
        <time>2020-08-26T13:21:34.887Z</time>
      </trkpt>
      <trkpt lat="69.68159" lon="18.90183">
        <ele>33.203558</ele>
        <time>2020-08-26T13:21:36.890Z</time>
      </trkpt>
      <trkpt lat="69.68149" lon="18.90175">
        <ele>33.093967</ele>
        <time>2020-08-26T13:21:38.867Z</time>
      </trkpt>
      <trkpt lat="69.68138" lon="18.90169">
        <ele>32.980468</ele>
        <time>2020-08-26T13:21:40.856Z</time>
      </trkpt>
      <trkpt lat="69.68129" lon="18.90164">
        <ele>32.961169</ele>
        <time>2020-08-26T13:21:42.854Z</time>
      </trkpt>
      <trkpt lat="69.68119" lon="18.90157">
        <ele>33.032042</ele>
        <time>2020-08-26T13:21:44.852Z</time>
      </trkpt>
      <trkpt lat="69.68109" lon="18.9015">
        <ele>33.103648</ele>
        <time>2020-08-26T13:21:46.849Z</time>
      </trkpt>
      <trkpt lat="69.68098" lon="18.90143">
        <ele>33.177166</ele>
        <time>2020-08-26T13:21:48.863Z</time>
      </trkpt>
      <trkpt lat="69.68088" lon="18.90135">
        <ele>33.252934</ele>
        <time>2020-08-26T13:21:50.866Z</time>
      </trkpt>
      <trkpt lat="69.68078" lon="18.90128">
        <ele>33.326397</ele>
        <time>2020-08-26T13:21:52.878Z</time>
      </trkpt>
      <trkpt lat="69.68067" lon="18.90122">
        <ele>33.400377</ele>
        <time>2020-08-26T13:21:54.849Z</time>
      </trkpt>
      <trkpt lat="69.68057" lon="18.90116">
        <ele>33.472697</ele>
        <time>2020-08-26T13:21:56.856Z</time>
      </trkpt>
      <trkpt lat="69.68047" lon="18.9011">
        <ele>33.54201</ele>
        <time>2020-08-26T13:21:58.856Z</time>
      </trkpt>
      <trkpt lat="69.68037" lon="18.90105">
        <ele>33.613462</ele>
        <time>2020-08-26T13:22:00.867Z</time>
      </trkpt>
      <trkpt lat="69.68027" lon="18.90099">
        <ele>33.683692</ele>
        <time>2020-08-26T13:22:02.858Z</time>
      </trkpt>
      <trkpt lat="69.68017" lon="18.90093">
        <ele>33.753193</ele>
        <time>2020-08-26T13:22:04.857Z</time>
      </trkpt>
      <trkpt lat="69.68007" lon="18.90089">
        <ele>33.823172</ele>
        <time>2020-08-26T13:22:06.871Z</time>
      </trkpt>
      <trkpt lat="69.67997" lon="18.90088">
        <ele>33.894178</ele>
        <time>2020-08-26T13:22:08.857Z</time>
      </trkpt>
      <trkpt lat="69.67987" lon="18.90088">
        <ele>33.961577</ele>
        <time>2020-08-26T13:22:10.890Z</time>
      </trkpt>
      <trkpt lat="69.67977" lon="18.90089">
        <ele>34.03179</ele>
        <time>2020-08-26T13:22:12.868Z</time>
      </trkpt>
      <trkpt lat="69.67967" lon="18.90092">
        <ele>34.101609</ele>
        <time>2020-08-26T13:22:14.852Z</time>
      </trkpt>
      <trkpt lat="69.67958" lon="18.90097">
        <ele>34.170547</ele>
        <time>2020-08-26T13:22:16.867Z</time>
      </trkpt>
      <trkpt lat="69.67948" lon="18.90102">
        <ele>34.203275</ele>
        <time>2020-08-26T13:22:18.872Z</time>
      </trkpt>
      <trkpt lat="69.67938" lon="18.90108">
        <ele>34.232432</ele>
        <time>2020-08-26T13:22:20.857Z</time>
      </trkpt>
      <trkpt lat="69.67928" lon="18.90116">
        <ele>34.262561</ele>
        <time>2020-08-26T13:22:22.866Z</time>
      </trkpt>
      <trkpt lat="69.67919" lon="18.90127">
        <ele>34.29153</ele>
        <time>2020-08-26T13:22:24.854Z</time>
      </trkpt>
      <trkpt lat="69.67911" lon="18.9014">
        <ele>34.317739</ele>
        <time>2020-08-26T13:22:26.875Z</time>
      </trkpt>
      <trkpt lat="69.67902" lon="18.90164">
        <ele>34.352017</ele>
        <time>2020-08-26T13:22:29.862Z</time>
      </trkpt>
      <trkpt lat="69.67895" lon="18.90192">
        <ele>34.387889</ele>
        <time>2020-08-26T13:22:32.872Z</time>
      </trkpt>
      <trkpt lat="69.67887" lon="18.90219">
        <ele>34.423197</ele>
        <time>2020-08-26T13:22:35.866Z</time>
      </trkpt>
      <trkpt lat="69.67877" lon="18.90235">
        <ele>34.456115</ele>
        <time>2020-08-26T13:22:38.871Z</time>
      </trkpt>
      <trkpt lat="69.67865" lon="18.90248">
        <ele>34.494355</ele>
        <time>2020-08-26T13:22:41.864Z</time>
      </trkpt>
      <trkpt lat="69.67856" lon="18.90252">
        <ele>34.520885</ele>
        <time>2020-08-26T13:22:43.878Z</time>
      </trkpt>
      <trkpt lat="69.67847" lon="18.90255">
        <ele>34.5481</ele>
        <time>2020-08-26T13:22:45.880Z</time>
      </trkpt>
      <trkpt lat="69.67837" lon="18.90259">
        <ele>34.575157</ele>
        <time>2020-08-26T13:22:47.849Z</time>
      </trkpt>
      <trkpt lat="69.67828" lon="18.90264">
        <ele>34.602098</ele>
        <time>2020-08-26T13:22:49.850Z</time>
      </trkpt>
      <trkpt lat="69.67815" lon="18.90272">
        <ele>34.641063</ele>
        <time>2020-08-26T13:22:52.868Z</time>
      </trkpt>
      <trkpt lat="69.67803" lon="18.90284">
        <ele>34.677194</ele>
        <time>2020-08-26T13:22:55.859Z</time>
      </trkpt>
      <trkpt lat="69.67791" lon="18.90296">
        <ele>34.704297</ele>
        <time>2020-08-26T13:22:58.857Z</time>
      </trkpt>
      <trkpt lat="69.67783" lon="18.90305">
        <ele>34.712881</ele>
        <time>2020-08-26T13:23:00.862Z</time>
      </trkpt>
      <trkpt lat="69.6777" lon="18.9032">
        <ele>34.725787</ele>
        <time>2020-08-26T13:23:03.862Z</time>
      </trkpt>
      <trkpt lat="69.67762" lon="18.90331">
        <ele>34.734418</ele>
        <time>2020-08-26T13:23:05.878Z</time>
      </trkpt>
      <trkpt lat="69.67754" lon="18.90342">
        <ele>34.743162</ele>
        <time>2020-08-26T13:23:07.877Z</time>
      </trkpt>
      <trkpt lat="69.67745" lon="18.90354">
        <ele>34.752585</ele>
        <time>2020-08-26T13:23:09.862Z</time>
      </trkpt>
      <trkpt lat="69.67736" lon="18.90366">
        <ele>34.762196</ele>
        <time>2020-08-26T13:23:11.897Z</time>
      </trkpt>
      <trkpt lat="69.67727" lon="18.90378">
        <ele>34.771591</ele>
        <time>2020-08-26T13:23:13.849Z</time>
      </trkpt>
      <trkpt lat="69.67719" lon="18.90389">
        <ele>34.780638</ele>
        <time>2020-08-26T13:23:15.874Z</time>
      </trkpt>
      <trkpt lat="69.6771" lon="18.90402">
        <ele>34.789829</ele>
        <time>2020-08-26T13:23:17.868Z</time>
      </trkpt>
      <trkpt lat="69.67701" lon="18.90415">
        <ele>34.799358</ele>
        <time>2020-08-26T13:23:19.869Z</time>
      </trkpt>
      <trkpt lat="69.67692" lon="18.90427">
        <ele>34.808795</ele>
        <time>2020-08-26T13:23:21.861Z</time>
      </trkpt>
      <trkpt lat="69.67684" lon="18.90441">
        <ele>34.818016</ele>
        <time>2020-08-26T13:23:23.873Z</time>
      </trkpt>
      <trkpt lat="69.67675" lon="18.90454">
        <ele>34.827707</ele>
        <time>2020-08-26T13:23:25.876Z</time>
      </trkpt>
      <trkpt lat="69.67666" lon="18.90468">
        <ele>34.837955</ele>
        <time>2020-08-26T13:23:27.890Z</time>
      </trkpt>
      <trkpt lat="69.67656" lon="18.90484">
        <ele>34.848424</ele>
        <time>2020-08-26T13:23:29.860Z</time>
      </trkpt>
      <trkpt lat="69.67647" lon="18.905">
        <ele>34.858943</ele>
        <time>2020-08-26T13:23:31.861Z</time>
      </trkpt>
      <trkpt lat="69.67637" lon="18.90516">
        <ele>34.869528</ele>
        <time>2020-08-26T13:23:33.848Z</time>
      </trkpt>
      <trkpt lat="69.67628" lon="18.90532">
        <ele>34.887186</ele>
        <time>2020-08-26T13:23:35.865Z</time>
      </trkpt>
      <trkpt lat="69.67619" lon="18.90548">
        <ele>34.906072</ele>
        <time>2020-08-26T13:23:37.906Z</time>
      </trkpt>
      <trkpt lat="69.6761" lon="18.90562">
        <ele>34.924206</ele>
        <time>2020-08-26T13:23:39.850Z</time>
      </trkpt>
      <trkpt lat="69.67601" lon="18.90577">
        <ele>34.942154</ele>
        <time>2020-08-26T13:23:41.878Z</time>
      </trkpt>
      <trkpt lat="69.67593" lon="18.90591">
        <ele>34.960071</ele>
        <time>2020-08-26T13:23:43.874Z</time>
      </trkpt>
      <trkpt lat="69.67584" lon="18.90605">
        <ele>34.977678</ele>
        <time>2020-08-26T13:23:45.872Z</time>
      </trkpt>
      <trkpt lat="69.67576" lon="18.90619">
        <ele>34.995348</ele>
        <time>2020-08-26T13:23:47.879Z</time>
      </trkpt>
      <trkpt lat="69.67567" lon="18.90633">
        <ele>35.013144</ele>
        <time>2020-08-26T13:23:49.858Z</time>
      </trkpt>
      <trkpt lat="69.67558" lon="18.90647">
        <ele>35.031505</ele>
        <time>2020-08-26T13:23:51.881Z</time>
      </trkpt>
      <trkpt lat="69.67549" lon="18.90658">
        <ele>35.049017</ele>
        <time>2020-08-26T13:23:53.889Z</time>
      </trkpt>
      <trkpt lat="69.6754" lon="18.90669">
        <ele>35.066175</ele>
        <time>2020-08-26T13:23:55.867Z</time>
      </trkpt>
      <trkpt lat="69.67532" lon="18.9068">
        <ele>35.083307</ele>
        <time>2020-08-26T13:23:57.859Z</time>
      </trkpt>
      <trkpt lat="69.67523" lon="18.9069">
        <ele>35.10054</ele>
        <time>2020-08-26T13:23:59.864Z</time>
      </trkpt>
      <trkpt lat="69.67513" lon="18.90699">
        <ele>35.118259</ele>
        <time>2020-08-26T13:24:01.853Z</time>
      </trkpt>
      <trkpt lat="69.67504" lon="18.90708">
        <ele>35.136162</ele>
        <time>2020-08-26T13:24:03.880Z</time>
      </trkpt>
      <trkpt lat="69.67494" lon="18.90714">
        <ele>35.153687</ele>
        <time>2020-08-26T13:24:05.872Z</time>
      </trkpt>
      <trkpt lat="69.67485" lon="18.9072">
        <ele>35.170498</ele>
        <time>2020-08-26T13:24:07.871Z</time>
      </trkpt>
      <trkpt lat="69.67476" lon="18.90726">
        <ele>35.187416</ele>
        <time>2020-08-26T13:24:09.897Z</time>
      </trkpt>
      <trkpt lat="69.67466" lon="18.90731">
        <ele>35.186962</ele>
        <time>2020-08-26T13:24:11.854Z</time>
      </trkpt>
      <trkpt lat="69.67456" lon="18.90734">
        <ele>35.172515</ele>
        <time>2020-08-26T13:24:13.860Z</time>
      </trkpt>
      <trkpt lat="69.67446" lon="18.90736">
        <ele>35.15825</ele>
        <time>2020-08-26T13:24:15.849Z</time>
      </trkpt>
      <trkpt lat="69.67436" lon="18.90738">
        <ele>35.144572</ele>
        <time>2020-08-26T13:24:17.861Z</time>
      </trkpt>
      <trkpt lat="69.67426" lon="18.90738">
        <ele>35.130355</ele>
        <time>2020-08-26T13:24:19.877Z</time>
      </trkpt>
      <trkpt lat="69.67416" lon="18.90738">
        <ele>35.115575</ele>
        <time>2020-08-26T13:24:21.876Z</time>
      </trkpt>
      <trkpt lat="69.67405" lon="18.90739">
        <ele>35.100351</ele>
        <time>2020-08-26T13:24:23.875Z</time>
      </trkpt>
      <trkpt lat="69.67394" lon="18.90741">
        <ele>35.084574</ele>
        <time>2020-08-26T13:24:25.872Z</time>
      </trkpt>
      <trkpt lat="69.67382" lon="18.90741">
        <ele>35.068669</ele>
        <time>2020-08-26T13:24:27.865Z</time>
      </trkpt>
      <trkpt lat="69.67371" lon="18.90743">
        <ele>35.052867</ele>
        <time>2020-08-26T13:24:29.871Z</time>
      </trkpt>
      <trkpt lat="69.6736" lon="18.90746">
        <ele>35.03731</ele>
        <time>2020-08-26T13:24:31.847Z</time>
      </trkpt>
      <trkpt lat="69.67349" lon="18.90752">
        <ele>35.021318</ele>
        <time>2020-08-26T13:24:33.853Z</time>
      </trkpt>
      <trkpt lat="69.67338" lon="18.90758">
        <ele>35.005502</ele>
        <time>2020-08-26T13:24:35.880Z</time>
      </trkpt>
      <trkpt lat="69.67327" lon="18.90766">
        <ele>34.989917</ele>
        <time>2020-08-26T13:24:37.890Z</time>
      </trkpt>
      <trkpt lat="69.67317" lon="18.90778">
        <ele>34.974551</ele>
        <time>2020-08-26T13:24:39.881Z</time>
      </trkpt>
      <trkpt lat="69.67307" lon="18.9079">
        <ele>34.959592</ele>
        <time>2020-08-26T13:24:41.860Z</time>
      </trkpt>
      <trkpt lat="69.67298" lon="18.90804">
        <ele>34.945092</ele>
        <time>2020-08-26T13:24:43.868Z</time>
      </trkpt>
      <trkpt lat="69.6729" lon="18.9082">
        <ele>34.772966</ele>
        <time>2020-08-26T13:24:45.868Z</time>
      </trkpt>
      <trkpt lat="69.67281" lon="18.90838">
        <ele>34.550586</ele>
        <time>2020-08-26T13:24:47.854Z</time>
      </trkpt>
      <trkpt lat="69.67273" lon="18.90857">
        <ele>34.325327</ele>
        <time>2020-08-26T13:24:49.853Z</time>
      </trkpt>
      <trkpt lat="69.67265" lon="18.90876">
        <ele>34.109417</ele>
        <time>2020-08-26T13:24:51.853Z</time>
      </trkpt>
      <trkpt lat="69.67257" lon="18.90898">
        <ele>33.873829</ele>
        <time>2020-08-26T13:24:53.854Z</time>
      </trkpt>
      <trkpt lat="69.67249" lon="18.90922">
        <ele>33.636039</ele>
        <time>2020-08-26T13:24:55.866Z</time>
      </trkpt>
      <trkpt lat="69.67242" lon="18.90945">
        <ele>33.412417</ele>
        <time>2020-08-26T13:24:57.864Z</time>
      </trkpt>
      <trkpt lat="69.67236" lon="18.90968">
        <ele>33.198465</ele>
        <time>2020-08-26T13:24:59.887Z</time>
      </trkpt>
      <trkpt lat="69.6723" lon="18.90991">
        <ele>32.988934</ele>
        <time>2020-08-26T13:25:01.851Z</time>
      </trkpt>
      <trkpt lat="69.67225" lon="18.91023">
        <ele>32.731736</ele>
        <time>2020-08-26T13:25:04.866Z</time>
      </trkpt>
      <trkpt lat="69.67221" lon="18.91045">
        <ele>32.541073</ele>
        <time>2020-08-26T13:25:07.880Z</time>
      </trkpt>
      <trkpt lat="69.67215" lon="18.91074">
        <ele>32.296931</ele>
        <time>2020-08-26T13:25:11.845Z</time>
      </trkpt>
      <trkpt lat="69.6719" lon="18.91285">
        <ele>32.180164</ele>
        <time>2020-08-26T13:25:25.971Z</time>
      </trkpt>
      <trkpt lat="69.67203" lon="18.91305">
        <ele>32.846947</ele>
        <time>2020-08-26T13:25:26.879Z</time>
      </trkpt>
      <trkpt lat="69.67209" lon="18.91351">
        <ele>33.645224</ele>
        <time>2020-08-26T13:25:28.864Z</time>
      </trkpt>
      <trkpt lat="69.67209" lon="18.91378">
        <ele>34.078164</ele>
        <time>2020-08-26T13:25:30.879Z</time>
      </trkpt>
      <trkpt lat="69.67211" lon="18.91414">
        <ele>34.669152</ele>
        <time>2020-08-26T13:25:33.892Z</time>
      </trkpt>
      <trkpt lat="69.67214" lon="18.9145">
        <ele>35.259213</ele>
        <time>2020-08-26T13:25:36.872Z</time>
      </trkpt>
      <trkpt lat="69.67215" lon="18.91485">
        <ele>35.828032</ele>
        <time>2020-08-26T13:25:39.872Z</time>
      </trkpt>
      <trkpt lat="69.67217" lon="18.9152">
        <ele>36.402664</ele>
        <time>2020-08-26T13:25:42.904Z</time>
      </trkpt>
      <trkpt lat="69.67218" lon="18.91554">
        <ele>36.947416</ele>
        <time>2020-08-26T13:25:45.878Z</time>
      </trkpt>
      <trkpt lat="69.67219" lon="18.91589">
        <ele>37.507085</ele>
        <time>2020-08-26T13:25:48.868Z</time>
      </trkpt>
      <trkpt lat="69.67221" lon="18.91626">
        <ele>38.107836</ele>
        <time>2020-08-26T13:25:51.874Z</time>
      </trkpt>
      <trkpt lat="69.67222" lon="18.91653">
        <ele>38.550897</ele>
        <time>2020-08-26T13:25:53.881Z</time>
      </trkpt>
      <trkpt lat="69.6722" lon="18.91687">
        <ele>39.094019</ele>
        <time>2020-08-26T13:25:55.851Z</time>
      </trkpt>
      <trkpt lat="69.67218" lon="18.91722">
        <ele>39.697287</ele>
        <time>2020-08-26T13:25:57.850Z</time>
      </trkpt>
      <trkpt lat="69.67215" lon="18.91755">
        <ele>40.283431</ele>
        <time>2020-08-26T13:25:59.865Z</time>
      </trkpt>
      <trkpt lat="69.67249" lon="18.91823">
        <ele>42.374694</ele>
        <time>2020-08-26T13:26:07.877Z</time>
      </trkpt>
      <trkpt lat="69.67239" lon="18.91828">
        <ele>42.886523</ele>
        <time>2020-08-26T13:26:09.859Z</time>
      </trkpt>
      <trkpt lat="69.67234" lon="18.91851">
        <ele>43.369042</ele>
        <time>2020-08-26T13:26:14.872Z</time>
      </trkpt>
      <trkpt lat="69.67227" lon="18.91875">
        <ele>43.920908</ele>
        <time>2020-08-26T13:26:19.865Z</time>
      </trkpt>
      <trkpt lat="69.6722" lon="18.91894">
        <ele>44.42093</ele>
        <time>2020-08-26T13:26:24.861Z</time>
      </trkpt>
      <trkpt lat="69.67214" lon="18.91916">
        <ele>44.903873</ele>
        <time>2020-08-26T13:26:30.903Z</time>
      </trkpt>
      <trkpt lat="69.6721" lon="18.91943">
        <ele>45.407137</ele>
        <time>2020-08-26T13:26:36.897Z</time>
      </trkpt>
      <trkpt lat="69.67208" lon="18.9197">
        <ele>45.884457</ele>
        <time>2020-08-26T13:26:41.864Z</time>
      </trkpt>
      <trkpt lat="69.67207" lon="18.91998">
        <ele>46.386194</ele>
        <time>2020-08-26T13:26:46.866Z</time>
      </trkpt>
      <trkpt lat="69.67206" lon="18.92027">
        <ele>46.887108</ele>
        <time>2020-08-26T13:26:51.868Z</time>
      </trkpt>
      <trkpt lat="69.67205" lon="18.92054">
        <ele>47.356426</ele>
        <time>2020-08-26T13:26:57.862Z</time>
      </trkpt>
      <trkpt lat="69.67208" lon="18.92028">
        <ele>47.825556</ele>
        <time>2020-08-26T13:27:52.867Z</time>
      </trkpt>
      <trkpt lat="69.67211" lon="18.91996">
        <ele>48.394265</ele>
        <time>2020-08-26T13:27:55.868Z</time>
      </trkpt>
      <trkpt lat="69.67213" lon="18.91966">
        <ele>48.610327</ele>
        <time>2020-08-26T13:27:58.889Z</time>
      </trkpt>
      <trkpt lat="69.67216" lon="18.91935">
        <ele>48.732906</ele>
        <time>2020-08-26T13:28:01.888Z</time>
      </trkpt>
      <trkpt lat="69.67221" lon="18.91902">
        <ele>48.869441</ele>
        <time>2020-08-26T13:28:04.877Z</time>
      </trkpt>
      <trkpt lat="69.67229" lon="18.91879">
        <ele>48.996867</ele>
        <time>2020-08-26T13:28:06.901Z</time>
      </trkpt>
      <trkpt lat="69.6724" lon="18.9187">
        <ele>49.120568</ele>
        <time>2020-08-26T13:28:08.905Z</time>
      </trkpt>
      <trkpt lat="69.67248" lon="18.91892">
        <ele>49.249633</ele>
        <time>2020-08-26T13:28:11.867Z</time>
      </trkpt>
      <trkpt lat="69.67259" lon="18.91898">
        <ele>49.365833</ele>
        <time>2020-08-26T13:28:18.860Z</time>
      </trkpt>
      <trkpt lat="69.67269" lon="18.91905">
        <ele>49.481267</ele>
        <time>2020-08-26T13:28:24.864Z</time>
      </trkpt>
      <trkpt lat="69.67278" lon="18.91906">
        <ele>49.586431</ele>
        <time>2020-08-26T13:28:28.862Z</time>
      </trkpt>
      <trkpt lat="69.67289" lon="18.91908">
        <ele>49.708384</ele>
        <time>2020-08-26T13:28:33.860Z</time>
      </trkpt>
      <trkpt lat="69.67298" lon="18.91924">
        <ele>49.817224</ele>
        <time>2020-08-26T13:28:38.856Z</time>
      </trkpt>
      <trkpt lat="69.67297" lon="18.91955">
        <ele>49.936714</ele>
        <time>2020-08-26T13:28:44.898Z</time>
      </trkpt>
      <trkpt lat="69.67296" lon="18.91986">
        <ele>50.053624</ele>
        <time>2020-08-26T13:28:49.885Z</time>
      </trkpt>
      <trkpt lat="69.67293" lon="18.92014">
        <ele>50.16552</ele>
        <time>2020-08-26T13:28:54.864Z</time>
      </trkpt>
      <trkpt lat="69.67295" lon="18.9204">
        <ele>50.267939</ele>
        <time>2020-08-26T13:28:59.863Z</time>
      </trkpt>
      <trkpt lat="69.67295" lon="18.92067">
        <ele>50.371412</ele>
        <time>2020-08-26T13:29:04.857Z</time>
      </trkpt>
      <trkpt lat="69.67295" lon="18.92094">
        <ele>50.475897</ele>
        <time>2020-08-26T13:29:09.859Z</time>
      </trkpt>
      <trkpt lat="69.67294" lon="18.92123">
        <ele>50.95927</ele>
        <time>2020-08-26T13:29:16.861Z</time>
      </trkpt>
      <trkpt lat="69.67303" lon="18.92132">
        <ele>51.540134</ele>
        <time>2020-08-26T13:29:23.873Z</time>
      </trkpt>
      <trkpt lat="69.67312" lon="18.9213">
        <ele>52.12342</ele>
        <time>2020-08-26T13:29:27.872Z</time>
      </trkpt>
      <trkpt lat="69.67322" lon="18.92134">
        <ele>52.761619</ele>
        <time>2020-08-26T13:29:30.865Z</time>
      </trkpt>
      <trkpt lat="69.67333" lon="18.92127">
        <ele>53.461154</ele>
        <time>2020-08-26T13:29:34.865Z</time>
      </trkpt>
      <trkpt lat="69.67342" lon="18.9212">
        <ele>54.047227</ele>
        <time>2020-08-26T13:29:38.880Z</time>
      </trkpt>
      <trkpt lat="69.67349" lon="18.92138">
        <ele>54.626133</ele>
        <time>2020-08-26T13:29:42.866Z</time>
      </trkpt>
      <trkpt lat="69.67358" lon="18.92158">
        <ele>55.325052</ele>
        <time>2020-08-26T13:32:04.002Z</time>
      </trkpt>
      <trkpt lat="69.67358" lon="18.92158">
        <ele>55.325052</ele>
        <time>2020-08-26T14:31:38.067Z</time>
      </trkpt>
      <trkpt lat="69.67348" lon="18.9219">
        <ele>56.23767</ele>
        <time>2020-08-26T14:59:28.709Z</time>
      </trkpt>
      <trkpt lat="69.67328" lon="18.92156">
        <ele>57.735065</ele>
        <time>2020-08-26T14:59:30.708Z</time>
      </trkpt>
      <trkpt lat="69.67319" lon="18.92143">
        <ele>58.365462</ele>
        <time>2020-08-26T14:59:34.714Z</time>
      </trkpt>
      <trkpt lat="69.67311" lon="18.92122">
        <ele>59.00022</ele>
        <time>2020-08-26T14:59:38.740Z</time>
      </trkpt>
      <trkpt lat="69.67308" lon="18.92095">
        <ele>59.632484</ele>
        <time>2020-08-26T14:59:43.722Z</time>
      </trkpt>
      <trkpt lat="69.67306" lon="18.92061">
        <ele>60.384473</ele>
        <time>2020-08-26T14:59:47.715Z</time>
      </trkpt>
      <trkpt lat="69.67306" lon="18.9203">
        <ele>61.068489</ele>
        <time>2020-08-26T14:59:50.744Z</time>
      </trkpt>
      <trkpt lat="69.67305" lon="18.91999">
        <ele>61.73654</ele>
        <time>2020-08-26T14:59:53.710Z</time>
      </trkpt>
      <trkpt lat="69.67304" lon="18.9197">
        <ele>61.10121</ele>
        <time>2020-08-26T14:59:56.720Z</time>
      </trkpt>
      <trkpt lat="69.67303" lon="18.91944">
        <ele>60.491597</ele>
        <time>2020-08-26T14:59:59.732Z</time>
      </trkpt>
      <trkpt lat="69.67297" lon="18.9192">
        <ele>59.807385</ele>
        <time>2020-08-26T15:00:02.701Z</time>
      </trkpt>
      <trkpt lat="69.67284" lon="18.91915">
        <ele>58.97314</ele>
        <time>2020-08-26T15:00:05.729Z</time>
      </trkpt>
      <trkpt lat="69.67272" lon="18.91908">
        <ele>58.146498</ele>
        <time>2020-08-26T15:00:08.719Z</time>
      </trkpt>
      <trkpt lat="69.67259" lon="18.919">
        <ele>57.277443</ele>
        <time>2020-08-26T15:00:11.722Z</time>
      </trkpt>
      <trkpt lat="69.67247" lon="18.91888">
        <ele>56.418798</ele>
        <time>2020-08-26T15:00:14.721Z</time>
      </trkpt>
      <trkpt lat="69.67239" lon="18.91873">
        <ele>55.809434</ele>
        <time>2020-08-26T15:00:16.739Z</time>
      </trkpt>
      <trkpt lat="69.67233" lon="18.91841">
        <ele>54.962585</ele>
        <time>2020-08-26T15:00:19.706Z</time>
      </trkpt>
      <trkpt lat="69.67224" lon="18.9182">
        <ele>54.211074</ele>
        <time>2020-08-26T15:00:22.734Z</time>
      </trkpt>
      <trkpt lat="69.67213" lon="18.91827">
        <ele>53.501246</ele>
        <time>2020-08-26T15:00:25.714Z</time>
      </trkpt>
      <trkpt lat="69.67201" lon="18.91846">
        <ele>52.61111</ele>
        <time>2020-08-26T15:00:28.733Z</time>
      </trkpt>
      <trkpt lat="69.67193" lon="18.91839">
        <ele>52.020623</ele>
        <time>2020-08-26T15:00:31.716Z</time>
      </trkpt>
      <trkpt lat="69.67181" lon="18.91843">
        <ele>51.25524</ele>
        <time>2020-08-26T15:00:33.735Z</time>
      </trkpt>
      <trkpt lat="69.67172" lon="18.91839">
        <ele>50.648989</ele>
        <time>2020-08-26T15:00:35.732Z</time>
      </trkpt>
      <trkpt lat="69.67161" lon="18.91849">
        <ele>49.895308</ele>
        <time>2020-08-26T15:00:38.721Z</time>
      </trkpt>
      <trkpt lat="69.67151" lon="18.91859">
        <ele>49.301897</ele>
        <time>2020-08-26T15:00:41.743Z</time>
      </trkpt>
      <trkpt lat="69.67141" lon="18.91869">
        <ele>48.701969</ele>
        <time>2020-08-26T15:00:44.720Z</time>
      </trkpt>
      <trkpt lat="69.67132" lon="18.91877">
        <ele>48.128548</ele>
        <time>2020-08-26T15:00:47.747Z</time>
      </trkpt>
      <trkpt lat="69.67122" lon="18.91889">
        <ele>47.546438</ele>
        <time>2020-08-26T15:00:50.739Z</time>
      </trkpt>
      <trkpt lat="69.67112" lon="18.91903">
        <ele>46.911729</ele>
        <time>2020-08-26T15:00:53.707Z</time>
      </trkpt>
      <trkpt lat="69.67102" lon="18.91919">
        <ele>46.248229</ele>
        <time>2020-08-26T15:00:56.724Z</time>
      </trkpt>
      <trkpt lat="69.67092" lon="18.91936">
        <ele>45.58776</ele>
        <time>2020-08-26T15:00:59.747Z</time>
      </trkpt>
      <trkpt lat="69.67081" lon="18.91955">
        <ele>44.887273</ele>
        <time>2020-08-26T15:01:02.728Z</time>
      </trkpt>
      <trkpt lat="69.67071" lon="18.91971">
        <ele>44.22564</ele>
        <time>2020-08-26T15:01:05.713Z</time>
      </trkpt>
      <trkpt lat="69.67062" lon="18.91986">
        <ele>43.622843</ele>
        <time>2020-08-26T15:01:08.717Z</time>
      </trkpt>
      <trkpt lat="69.67053" lon="18.91999">
        <ele>43.075324</ele>
        <time>2020-08-26T15:01:11.703Z</time>
      </trkpt>
      <trkpt lat="69.67045" lon="18.92013">
        <ele>42.558222</ele>
        <time>2020-08-26T15:01:14.762Z</time>
      </trkpt>
      <trkpt lat="69.67038" lon="18.92027">
        <ele>42.047864</ele>
        <time>2020-08-26T15:01:17.704Z</time>
      </trkpt>
      <trkpt lat="69.67029" lon="18.92044">
        <ele>41.460593</ele>
        <time>2020-08-26T15:01:21.724Z</time>
      </trkpt>
      <trkpt lat="69.6702" lon="18.92064">
        <ele>40.805759</ele>
        <time>2020-08-26T15:01:25.737Z</time>
      </trkpt>
      <trkpt lat="69.67013" lon="18.92083">
        <ele>40.246107</ele>
        <time>2020-08-26T15:01:28.724Z</time>
      </trkpt>
      <trkpt lat="69.67009" lon="18.92109">
        <ele>39.721</ele>
        <time>2020-08-26T15:01:31.713Z</time>
      </trkpt>
      <trkpt lat="69.67007" lon="18.92137">
        <ele>40.527863</ele>
        <time>2020-08-26T15:01:34.724Z</time>
      </trkpt>
      <trkpt lat="69.6701" lon="18.92169">
        <ele>41.438873</ele>
        <time>2020-08-26T15:01:38.702Z</time>
      </trkpt>
      <trkpt lat="69.67014" lon="18.92196">
        <ele>42.299391</ele>
        <time>2020-08-26T15:01:43.724Z</time>
      </trkpt>
      <trkpt lat="69.67018" lon="18.92223">
        <ele>43.118304</ele>
        <time>2020-08-26T15:01:48.705Z</time>
      </trkpt>
      <trkpt lat="69.67024" lon="18.9225">
        <ele>43.999084</ele>
        <time>2020-08-26T15:01:53.719Z</time>
      </trkpt>
      <trkpt lat="69.67026" lon="18.92275">
        <ele>44.731684</ele>
        <time>2020-08-26T15:01:58.740Z</time>
      </trkpt>
      <trkpt lat="69.6703" lon="18.92302">
        <ele>45.559039</ele>
        <time>2020-08-26T15:02:03.745Z</time>
      </trkpt>
      <trkpt lat="69.67038" lon="18.92321">
        <ele>46.368314</ele>
        <time>2020-08-26T15:02:09.722Z</time>
      </trkpt>
      <trkpt lat="69.67037" lon="18.9229">
        <ele>47.246523</ele>
        <time>2020-08-26T15:02:18.708Z</time>
      </trkpt>
      <trkpt lat="69.67026" lon="18.92275">
        <ele>48.249798</ele>
        <time>2020-08-26T15:02:21.732Z</time>
      </trkpt>
      <trkpt lat="69.67014" lon="18.92276">
        <ele>49.230292</ele>
        <time>2020-08-26T15:02:24.703Z</time>
      </trkpt>
      <trkpt lat="69.67009" lon="18.92307">
        <ele>50.183589</ele>
        <time>2020-08-26T15:02:28.701Z</time>
      </trkpt>
      <trkpt lat="69.67006" lon="18.92335">
        <ele>51.000634</ele>
        <time>2020-08-26T15:02:32.732Z</time>
      </trkpt>
      <trkpt lat="69.67004" lon="18.9236">
        <ele>51.740843</ele>
        <time>2020-08-26T15:02:36.728Z</time>
      </trkpt>
      <trkpt lat="69.67001" lon="18.92386">
        <ele>52.511811</ele>
        <time>2020-08-26T15:02:40.715Z</time>
      </trkpt>
      <trkpt lat="69.66997" lon="18.92413">
        <ele>53.323363</ele>
        <time>2020-08-26T15:02:44.727Z</time>
      </trkpt>
      <trkpt lat="69.66993" lon="18.92443">
        <ele>54.217139</ele>
        <time>2020-08-26T15:02:49.728Z</time>
      </trkpt>
      <trkpt lat="69.6699" lon="18.9247">
        <ele>55.276392</ele>
        <time>2020-08-26T15:02:54.721Z</time>
      </trkpt>
      <trkpt lat="69.66987" lon="18.92498">
        <ele>56.340195</ele>
        <time>2020-08-26T15:02:59.723Z</time>
      </trkpt>
      <trkpt lat="69.66983" lon="18.92526">
        <ele>57.445577</ele>
        <time>2020-08-26T15:03:05.784Z</time>
      </trkpt>
      <trkpt lat="69.66984" lon="18.92555">
        <ele>58.521031</ele>
        <time>2020-08-26T15:03:12.708Z</time>
      </trkpt>
      <trkpt lat="69.66989" lon="18.9258">
        <ele>59.595628</ele>
        <time>2020-08-26T15:03:21.702Z</time>
      </trkpt>
      <trkpt lat="69.66996" lon="18.92602">
        <ele>60.674764</ele>
        <time>2020-08-26T15:03:28.710Z</time>
      </trkpt>
      <trkpt lat="69.67004" lon="18.92619">
        <ele>61.731108</ele>
        <time>2020-08-26T15:03:35.702Z</time>
      </trkpt>
      <trkpt lat="69.67011" lon="18.92633">
        <ele>62.708886</ele>
        <time>2020-08-26T15:03:41.716Z</time>
      </trkpt>
      <trkpt lat="69.67013" lon="18.9266">
        <ele>63.704869</ele>
        <time>2020-08-26T15:03:47.715Z</time>
      </trkpt>
      <trkpt lat="69.67009" lon="18.92684">
        <ele>64.726127</ele>
        <time>2020-08-26T15:03:59.742Z</time>
      </trkpt>
      <trkpt lat="69.67005" lon="18.92708">
        <ele>65.685952</ele>
        <time>2020-08-26T15:04:06.700Z</time>
      </trkpt>
      <trkpt lat="69.67" lon="18.92733">
        <ele>66.725268</ele>
        <time>2020-08-26T15:04:12.720Z</time>
      </trkpt>
      <trkpt lat="69.66996" lon="18.92758">
        <ele>67.762374</ele>
        <time>2020-08-26T15:04:19.716Z</time>
      </trkpt>
      <trkpt lat="69.66988" lon="18.92772">
        <ele>68.76559</ele>
        <time>2020-08-26T15:04:26.698Z</time>
      </trkpt>
      <trkpt lat="69.66979" lon="18.92758">
        <ele>69.847274</ele>
        <time>2020-08-26T15:04:32.715Z</time>
      </trkpt>
      <trkpt lat="69.6697" lon="18.92749">
        <ele>70.903122</ele>
        <time>2020-08-26T15:04:37.727Z</time>
      </trkpt>
      <trkpt lat="69.6696" lon="18.92741">
        <ele>72.026774</ele>
        <time>2020-08-26T15:04:42.704Z</time>
      </trkpt>
      <trkpt lat="69.6695" lon="18.9273">
        <ele>73.139334</ele>
        <time>2020-08-26T15:04:47.715Z</time>
      </trkpt>
      <trkpt lat="69.66942" lon="18.92719">
        <ele>73.449979</ele>
        <time>2020-08-26T15:04:51.707Z</time>
      </trkpt>
      <trkpt lat="69.66932" lon="18.92708">
        <ele>73.476939</ele>
        <time>2020-08-26T15:04:55.754Z</time>
      </trkpt>
      <trkpt lat="69.66923" lon="18.92696">
        <ele>73.502565</ele>
        <time>2020-08-26T15:04:59.729Z</time>
      </trkpt>
      <trkpt lat="69.66913" lon="18.92686">
        <ele>73.528219</ele>
        <time>2020-08-26T15:05:03.720Z</time>
      </trkpt>
      <trkpt lat="69.66905" lon="18.92675">
        <ele>73.551449</ele>
        <time>2020-08-26T15:05:06.699Z</time>
      </trkpt>
      <trkpt lat="69.66895" lon="18.92665">
        <ele>73.576739</ele>
        <time>2020-08-26T15:05:09.701Z</time>
      </trkpt>
      <trkpt lat="69.66887" lon="18.92653">
        <ele>73.601858</ele>
        <time>2020-08-26T15:05:12.709Z</time>
      </trkpt>
      <trkpt lat="69.66878" lon="18.92641">
        <ele>73.625144</ele>
        <time>2020-08-26T15:05:15.716Z</time>
      </trkpt>
      <trkpt lat="69.6687" lon="18.92628">
        <ele>73.649859</ele>
        <time>2020-08-26T15:05:19.765Z</time>
      </trkpt>
      <trkpt lat="69.6686" lon="18.92624">
        <ele>73.676062</ele>
        <time>2020-08-26T15:05:23.710Z</time>
      </trkpt>
      <trkpt lat="69.66854" lon="18.9265">
        <ele>73.703005</ele>
        <time>2020-08-26T15:05:29.717Z</time>
      </trkpt>
      <trkpt lat="69.66849" lon="18.92672">
        <ele>73.726384</ele>
        <time>2020-08-26T15:05:34.727Z</time>
      </trkpt>
      <trkpt lat="69.66838" lon="18.92674">
        <ele>73.753677</ele>
        <time>2020-08-26T15:05:40.722Z</time>
      </trkpt>
      <trkpt lat="69.66827" lon="18.92664">
        <ele>73.783679</ele>
        <time>2020-08-26T15:05:44.728Z</time>
      </trkpt>
      <trkpt lat="69.66817" lon="18.92657">
        <ele>73.809822</ele>
        <time>2020-08-26T15:05:47.715Z</time>
      </trkpt>
      <trkpt lat="69.66807" lon="18.92648">
        <ele>73.836696</ele>
        <time>2020-08-26T15:05:50.749Z</time>
      </trkpt>
      <trkpt lat="69.66796" lon="18.92639">
        <ele>73.864917</ele>
        <time>2020-08-26T15:05:53.713Z</time>
      </trkpt>
      <trkpt lat="69.66785" lon="18.92628">
        <ele>73.918842</ele>
        <time>2020-08-26T15:05:56.724Z</time>
      </trkpt>
      <trkpt lat="69.66774" lon="18.92616">
        <ele>74.192578</ele>
        <time>2020-08-26T15:05:59.717Z</time>
      </trkpt>
      <trkpt lat="69.66762" lon="18.92606">
        <ele>74.471505</ele>
        <time>2020-08-26T15:06:02.724Z</time>
      </trkpt>
      <trkpt lat="69.6675" lon="18.92594">
        <ele>74.760819</ele>
        <time>2020-08-26T15:06:05.719Z</time>
      </trkpt>
      <trkpt lat="69.66739" lon="18.92586">
        <ele>75.023104</ele>
        <time>2020-08-26T15:06:08.716Z</time>
      </trkpt>
      <trkpt lat="69.6673" lon="18.92581">
        <ele>75.235936</ele>
        <time>2020-08-26T15:06:11.713Z</time>
      </trkpt>
      <trkpt lat="69.6672" lon="18.92578">
        <ele>75.468233</ele>
        <time>2020-08-26T15:06:16.720Z</time>
      </trkpt>
      <trkpt lat="69.6671" lon="18.9257">
        <ele>75.690766</ele>
        <time>2020-08-26T15:06:20.709Z</time>
      </trkpt>
      <trkpt lat="69.667" lon="18.92563">
        <ele>75.93598</ele>
        <time>2020-08-26T15:06:24.740Z</time>
      </trkpt>
      <trkpt lat="69.66689" lon="18.92553">
        <ele>76.190984</ele>
        <time>2020-08-26T15:06:28.710Z</time>
      </trkpt>
      <trkpt lat="69.66679" lon="18.92544">
        <ele>76.437725</ele>
        <time>2020-08-26T15:06:32.709Z</time>
      </trkpt>
      <trkpt lat="69.66668" lon="18.92532">
        <ele>76.696294</ele>
        <time>2020-08-26T15:06:36.744Z</time>
      </trkpt>
      <trkpt lat="69.66661" lon="18.92517">
        <ele>76.908617</ele>
        <time>2020-08-26T15:06:39.760Z</time>
      </trkpt>
      <trkpt lat="69.66654" lon="18.92498">
        <ele>77.115753</ele>
        <time>2020-08-26T15:06:42.722Z</time>
      </trkpt>
      <trkpt lat="69.66648" lon="18.92469">
        <ele>77.385925</ele>
        <time>2020-08-26T15:06:46.761Z</time>
      </trkpt>
      <trkpt lat="69.6664" lon="18.92448">
        <ele>77.627063</ele>
        <time>2020-08-26T15:06:49.746Z</time>
      </trkpt>
      <trkpt lat="69.66632" lon="18.92434">
        <ele>77.860211</ele>
        <time>2020-08-26T15:06:52.721Z</time>
      </trkpt>
      <trkpt lat="69.66621" lon="18.92434">
        <ele>78.591808</ele>
        <time>2020-08-26T15:06:56.719Z</time>
      </trkpt>
      <trkpt lat="69.66613" lon="18.92444">
        <ele>79.99291</ele>
        <time>2020-08-26T15:07:02.746Z</time>
      </trkpt>
      <trkpt lat="69.66603" lon="18.92449">
        <ele>81.402466</ele>
        <time>2020-08-26T15:07:07.700Z</time>
      </trkpt>
      <trkpt lat="69.66593" lon="18.92457">
        <ele>82.922515</ele>
        <time>2020-08-26T15:07:13.733Z</time>
      </trkpt>
      <trkpt lat="69.66584" lon="18.92467">
        <ele>84.375049</ele>
        <time>2020-08-26T15:07:19.724Z</time>
      </trkpt>
      <trkpt lat="69.66575" lon="18.92472">
        <ele>85.769194</ele>
        <time>2020-08-26T15:07:25.741Z</time>
      </trkpt>
      <trkpt lat="69.66566" lon="18.92478">
        <ele>87.094839</ele>
        <time>2020-08-26T15:07:33.756Z</time>
      </trkpt>
      <trkpt lat="69.66557" lon="18.92484">
        <ele>88.448021</ele>
        <time>2020-08-26T15:07:40.761Z</time>
      </trkpt>
      <trkpt lat="69.66546" lon="18.92488">
        <ele>89.975575</ele>
        <time>2020-08-26T15:07:46.723Z</time>
      </trkpt>
      <trkpt lat="69.66537" lon="18.92495">
        <ele>91.444021</ele>
        <time>2020-08-26T15:07:52.743Z</time>
      </trkpt>
      <trkpt lat="69.66528" lon="18.92504">
        <ele>92.869235</ele>
        <time>2020-08-26T15:07:58.709Z</time>
      </trkpt>
      <trkpt lat="69.66519" lon="18.92511">
        <ele>94.209881</ele>
        <time>2020-08-26T15:08:04.722Z</time>
      </trkpt>
      <trkpt lat="69.6651" lon="18.92522">
        <ele>95.684791</ele>
        <time>2020-08-26T15:08:11.725Z</time>
      </trkpt>
      <trkpt lat="69.66502" lon="18.92536">
        <ele>96.998277</ele>
        <time>2020-08-26T15:08:18.726Z</time>
      </trkpt>
      <trkpt lat="69.66494" lon="18.92548">
        <ele>98.338389</ele>
        <time>2020-08-26T15:08:27.729Z</time>
      </trkpt>
      <trkpt lat="69.66485" lon="18.92559">
        <ele>99.745198</ele>
        <time>2020-08-26T15:08:35.736Z</time>
      </trkpt>
      <trkpt lat="69.66476" lon="18.92568">
        <ele>101.10623</ele>
        <time>2020-08-26T15:08:45.726Z</time>
      </trkpt>
      <trkpt lat="69.66469" lon="18.92584">
        <ele>102.456781</ele>
        <time>2020-08-26T15:08:52.757Z</time>
      </trkpt>
      <trkpt lat="69.66461" lon="18.926">
        <ele>103.854755</ele>
        <time>2020-08-26T15:08:59.721Z</time>
      </trkpt>
      <trkpt lat="69.66453" lon="18.92613">
        <ele>104.660648</ele>
        <time>2020-08-26T15:09:06.735Z</time>
      </trkpt>
      <trkpt lat="69.66445" lon="18.92621">
        <ele>105.111897</ele>
        <time>2020-08-26T15:09:14.741Z</time>
      </trkpt>
      <trkpt lat="69.66436" lon="18.92634">
        <ele>105.570165</ele>
        <time>2020-08-26T15:09:21.719Z</time>
      </trkpt>
      <trkpt lat="69.66429" lon="18.92654">
        <ele>106.048496</ele>
        <time>2020-08-26T15:09:30.716Z</time>
      </trkpt>
      <trkpt lat="69.66424" lon="18.92676">
        <ele>106.509593</ele>
        <time>2020-08-26T15:09:39.736Z</time>
      </trkpt>
      <trkpt lat="69.6642" lon="18.92701">
        <ele>106.961447</ele>
        <time>2020-08-26T15:09:46.720Z</time>
      </trkpt>
      <trkpt lat="69.66415" lon="18.92722">
        <ele>107.396377</ele>
        <time>2020-08-26T15:09:52.739Z</time>
      </trkpt>
      <trkpt lat="69.66406" lon="18.92737">
        <ele>107.885309</ele>
        <time>2020-08-26T15:09:57.707Z</time>
      </trkpt>
      <trkpt lat="69.66397" lon="18.92745">
        <ele>108.337672</ele>
        <time>2020-08-26T15:10:03.733Z</time>
      </trkpt>
      <trkpt lat="69.66389" lon="18.9275">
        <ele>108.774796</ele>
        <time>2020-08-26T15:10:09.705Z</time>
      </trkpt>
      <trkpt lat="69.66379" lon="18.92756">
        <ele>109.248666</ele>
        <time>2020-08-26T15:10:15.723Z</time>
      </trkpt>
      <trkpt lat="69.6637" lon="18.92762">
        <ele>109.713401</ele>
        <time>2020-08-26T15:10:21.730Z</time>
      </trkpt>
      <trkpt lat="69.66359" lon="18.92772">
        <ele>110.231792</ele>
        <time>2020-08-26T15:10:27.714Z</time>
      </trkpt>
      <trkpt lat="69.6635" lon="18.9278">
        <ele>110.700424</ele>
        <time>2020-08-26T15:10:32.721Z</time>
      </trkpt>
      <trkpt lat="69.66341" lon="18.9279">
        <ele>111.197267</ele>
        <time>2020-08-26T15:10:38.756Z</time>
      </trkpt>
      <trkpt lat="69.6633" lon="18.92797">
        <ele>111.699852</ele>
        <time>2020-08-26T15:10:43.739Z</time>
      </trkpt>
      <trkpt lat="69.6632" lon="18.92801">
        <ele>112.220455</ele>
        <time>2020-08-26T15:10:48.718Z</time>
      </trkpt>
      <trkpt lat="69.66309" lon="18.92798">
        <ele>112.725623</ele>
        <time>2020-08-26T15:10:53.782Z</time>
      </trkpt>
      <trkpt lat="69.66298" lon="18.92795">
        <ele>113.2842</ele>
        <time>2020-08-26T15:10:58.727Z</time>
      </trkpt>
      <trkpt lat="69.66289" lon="18.92794">
        <ele>113.753055</ele>
        <time>2020-08-26T15:11:02.729Z</time>
      </trkpt>
      <trkpt lat="69.66278" lon="18.92789">
        <ele>114.319729</ele>
        <time>2020-08-26T15:11:07.729Z</time>
      </trkpt>
      <trkpt lat="69.66267" lon="18.92784">
        <ele>114.874088</ele>
        <time>2020-08-26T15:11:12.765Z</time>
      </trkpt>
      <trkpt lat="69.66259" lon="18.92777">
        <ele>115.34098</ele>
        <time>2020-08-26T15:11:16.720Z</time>
      </trkpt>
      <trkpt lat="69.6625" lon="18.9277">
        <ele>115.806144</ele>
        <time>2020-08-26T15:11:20.739Z</time>
      </trkpt>
      <trkpt lat="69.6624" lon="18.9276">
        <ele>116.372489</ele>
        <time>2020-08-26T15:11:24.746Z</time>
      </trkpt>
      <trkpt lat="69.66229" lon="18.92752">
        <ele>116.946136</ele>
        <time>2020-08-26T15:11:28.722Z</time>
      </trkpt>
      <trkpt lat="69.66219" lon="18.92739">
        <ele>117.479551</ele>
        <time>2020-08-26T15:11:32.732Z</time>
      </trkpt>
      <trkpt lat="69.66208" lon="18.92731">
        <ele>118.064503</ele>
        <time>2020-08-26T15:11:37.740Z</time>
      </trkpt>
      <trkpt lat="69.66199" lon="18.92745">
        <ele>118.582862</ele>
        <time>2020-08-26T15:11:41.714Z</time>
      </trkpt>
      <trkpt lat="69.66191" lon="18.92757">
        <ele>119.062285</ele>
        <time>2020-08-26T15:11:45.697Z</time>
      </trkpt>
      <trkpt lat="69.66182" lon="18.92764">
        <ele>119.533379</ele>
        <time>2020-08-26T15:11:51.722Z</time>
      </trkpt>
      <trkpt lat="69.66174" lon="18.92774">
        <ele>120.007231</ele>
        <time>2020-08-26T15:11:58.730Z</time>
      </trkpt>
      <trkpt lat="69.66165" lon="18.92785">
        <ele>120.513775</ele>
        <time>2020-08-26T15:12:04.718Z</time>
      </trkpt>
      <trkpt lat="69.66156" lon="18.92796">
        <ele>120.986864</ele>
        <time>2020-08-26T15:12:11.719Z</time>
      </trkpt>
      <trkpt lat="69.66147" lon="18.92803">
        <ele>121.48957</ele>
        <time>2020-08-26T15:12:19.727Z</time>
      </trkpt>
      <trkpt lat="69.66137" lon="18.92807">
        <ele>122.018852</ele>
        <time>2020-08-26T15:12:27.725Z</time>
      </trkpt>
      <trkpt lat="69.66128" lon="18.92815">
        <ele>122.46069</ele>
        <time>2020-08-26T15:12:34.726Z</time>
      </trkpt>
      <trkpt lat="69.66119" lon="18.92821">
        <ele>122.806725</ele>
        <time>2020-08-26T15:12:41.708Z</time>
      </trkpt>
      <trkpt lat="69.66128" lon="18.9284">
        <ele>123.230192</ele>
        <time>2020-08-26T15:12:49.704Z</time>
      </trkpt>
      <trkpt lat="69.66138" lon="18.92837">
        <ele>123.610781</ele>
        <time>2020-08-26T15:12:51.721Z</time>
      </trkpt>
      <trkpt lat="69.6615" lon="18.92851">
        <ele>124.057133</ele>
        <time>2020-08-26T15:12:54.716Z</time>
      </trkpt>
      <trkpt lat="69.66154" lon="18.92876">
        <ele>124.425327</ele>
        <time>2020-08-26T15:12:57.715Z</time>
      </trkpt>
      <trkpt lat="69.66161" lon="18.92898">
        <ele>124.80869</ele>
        <time>2020-08-26T15:13:03.727Z</time>
      </trkpt>
      <trkpt lat="69.66168" lon="18.92918">
        <ele>125.157027</ele>
        <time>2020-08-26T15:13:09.700Z</time>
      </trkpt>
      <trkpt lat="69.66176" lon="18.92934">
        <ele>125.505843</ele>
        <time>2020-08-26T15:13:13.714Z</time>
      </trkpt>
      <trkpt lat="69.66183" lon="18.92954">
        <ele>125.875892</ele>
        <time>2020-08-26T15:13:17.712Z</time>
      </trkpt>
      <trkpt lat="69.6619" lon="18.92977">
        <ele>126.267389</ele>
        <time>2020-08-26T15:13:22.707Z</time>
      </trkpt>
      <trkpt lat="69.66193" lon="18.93002">
        <ele>126.606856</ele>
        <time>2020-08-26T15:13:28.705Z</time>
      </trkpt>
      <trkpt lat="69.66193" lon="18.93028">
        <ele>126.940844</ele>
        <time>2020-08-26T15:13:34.728Z</time>
      </trkpt>
      <trkpt lat="69.66191" lon="18.93056">
        <ele>127.309679</ele>
        <time>2020-08-26T15:13:41.708Z</time>
      </trkpt>
      <trkpt lat="69.66187" lon="18.93082">
        <ele>127.658986</ele>
        <time>2020-08-26T15:13:48.696Z</time>
      </trkpt>
      <trkpt lat="69.66182" lon="18.93106">
        <ele>128.02204</ele>
        <time>2020-08-26T15:13:55.717Z</time>
      </trkpt>
      <trkpt lat="69.66173" lon="18.93117">
        <ele>128.400881</ele>
        <time>2020-08-26T15:14:03.726Z</time>
      </trkpt>
      <trkpt lat="69.66164" lon="18.93113">
        <ele>128.734906</ele>
        <time>2020-08-26T15:14:08.742Z</time>
      </trkpt>
      <trkpt lat="69.66154" lon="18.93104">
        <ele>129.251652</ele>
        <time>2020-08-26T15:14:14.707Z</time>
      </trkpt>
      <trkpt lat="69.66146" lon="18.93097">
        <ele>130.087389</ele>
        <time>2020-08-26T15:14:20.703Z</time>
      </trkpt>
      <trkpt lat="69.66157" lon="18.9311">
        <ele>131.241517</ele>
        <time>2020-08-26T15:14:31.716Z</time>
      </trkpt>
      <trkpt lat="69.66166" lon="18.93124">
        <ele>132.155677</ele>
        <time>2020-08-26T15:14:34.709Z</time>
      </trkpt>
      <trkpt lat="69.66167" lon="18.93154">
        <ele>133.112535</ele>
        <time>2020-08-26T15:14:38.747Z</time>
      </trkpt>
      <trkpt lat="69.66162" lon="18.93177">
        <ele>133.933239</ele>
        <time>2020-08-26T15:14:42.709Z</time>
      </trkpt>
      <trkpt lat="69.66159" lon="18.93201">
        <ele>134.755687</ele>
        <time>2020-08-26T15:14:47.727Z</time>
      </trkpt>
      <trkpt lat="69.66157" lon="18.93227">
        <ele>135.575252</ele>
        <time>2020-08-26T15:14:51.717Z</time>
      </trkpt>
      <trkpt lat="69.66156" lon="18.93256">
        <ele>136.510218</ele>
        <time>2020-08-26T15:14:56.700Z</time>
      </trkpt>
      <trkpt lat="69.66152" lon="18.93281">
        <ele>137.366924</ele>
        <time>2020-08-26T15:15:01.707Z</time>
      </trkpt>
      <trkpt lat="69.66149" lon="18.93309">
        <ele>138.323376</ele>
        <time>2020-08-26T15:15:05.766Z</time>
      </trkpt>
      <trkpt lat="69.66145" lon="18.93337">
        <ele>139.251521</ele>
        <time>2020-08-26T15:15:08.748Z</time>
      </trkpt>
      <trkpt lat="69.66141" lon="18.93363">
        <ele>140.157088</ele>
        <time>2020-08-26T15:15:11.713Z</time>
      </trkpt>
      <trkpt lat="69.66136" lon="18.9339">
        <ele>141.108119</ele>
        <time>2020-08-26T15:15:15.730Z</time>
      </trkpt>
      <trkpt lat="69.66132" lon="18.93417">
        <ele>142.034667</ele>
        <time>2020-08-26T15:15:19.736Z</time>
      </trkpt>
      <trkpt lat="69.66128" lon="18.93444">
        <ele>142.968183</ele>
        <time>2020-08-26T15:15:24.773Z</time>
      </trkpt>
      <trkpt lat="69.66124" lon="18.93468">
        <ele>143.831164</ele>
        <time>2020-08-26T15:15:29.737Z</time>
      </trkpt>
      <trkpt lat="69.66119" lon="18.93492">
        <ele>144.696927</ele>
        <time>2020-08-26T15:15:34.733Z</time>
      </trkpt>
      <trkpt lat="69.66114" lon="18.93518">
        <ele>145.202691</ele>
        <time>2020-08-26T15:15:39.728Z</time>
      </trkpt>
      <trkpt lat="69.66109" lon="18.93546">
        <ele>144.886914</ele>
        <time>2020-08-26T15:15:44.725Z</time>
      </trkpt>
      <trkpt lat="69.66105" lon="18.93572">
        <ele>144.599878</ele>
        <time>2020-08-26T15:15:49.714Z</time>
      </trkpt>
      <trkpt lat="69.66104" lon="18.93601">
        <ele>144.301242</ele>
        <time>2020-08-26T15:15:54.706Z</time>
      </trkpt>
      <trkpt lat="69.66105" lon="18.93631">
        <ele>144.003806</ele>
        <time>2020-08-26T15:16:00.740Z</time>
      </trkpt>
      <trkpt lat="69.66105" lon="18.9366">
        <ele>143.706585</ele>
        <time>2020-08-26T15:16:05.714Z</time>
      </trkpt>
      <trkpt lat="69.66104" lon="18.93687">
        <ele>143.437385</ele>
        <time>2020-08-26T15:16:09.738Z</time>
      </trkpt>
      <trkpt lat="69.66105" lon="18.93712">
        <ele>143.174407</ele>
        <time>2020-08-26T15:16:13.734Z</time>
      </trkpt>
      <trkpt lat="69.66107" lon="18.93741">
        <ele>142.883033</ele>
        <time>2020-08-26T15:16:18.720Z</time>
      </trkpt>
      <trkpt lat="69.66107" lon="18.93771">
        <ele>142.572147</ele>
        <time>2020-08-26T15:16:23.730Z</time>
      </trkpt>
      <trkpt lat="69.66108" lon="18.93798">
        <ele>142.300748</ele>
        <time>2020-08-26T15:16:27.732Z</time>
      </trkpt>
      <trkpt lat="69.66108" lon="18.93825">
        <ele>142.027325</ele>
        <time>2020-08-26T15:16:30.727Z</time>
      </trkpt>
      <trkpt lat="69.6611" lon="18.93854">
        <ele>141.729824</ele>
        <time>2020-08-26T15:16:33.745Z</time>
      </trkpt>
      <trkpt lat="69.66112" lon="18.9388">
        <ele>141.454475</ele>
        <time>2020-08-26T15:16:36.743Z</time>
      </trkpt>
      <trkpt lat="69.66112" lon="18.93912">
        <ele>141.135848</ele>
        <time>2020-08-26T15:16:40.737Z</time>
      </trkpt>
      <trkpt lat="69.66113" lon="18.93938">
        <ele>140.86312</ele>
        <time>2020-08-26T15:16:44.727Z</time>
      </trkpt>
      <trkpt lat="69.66114" lon="18.93971">
        <ele>140.529079</ele>
        <time>2020-08-26T15:16:48.753Z</time>
      </trkpt>
      <trkpt lat="69.66112" lon="18.94002">
        <ele>140.219026</ele>
        <time>2020-08-26T15:16:51.754Z</time>
      </trkpt>
      <trkpt lat="69.6611" lon="18.94035">
        <ele>140.251982</ele>
        <time>2020-08-26T15:16:54.712Z</time>
      </trkpt>
      <trkpt lat="69.66105" lon="18.94069">
        <ele>140.637952</ele>
        <time>2020-08-26T15:16:57.731Z</time>
      </trkpt>
      <trkpt lat="69.66098" lon="18.94102">
        <ele>141.039489</ele>
        <time>2020-08-26T15:17:00.713Z</time>
      </trkpt>
      <trkpt lat="69.66091" lon="18.94133">
        <ele>141.433534</ele>
        <time>2020-08-26T15:17:03.741Z</time>
      </trkpt>
      <trkpt lat="69.66085" lon="18.9416">
        <ele>141.780108</ele>
        <time>2020-08-26T15:17:06.714Z</time>
      </trkpt>
      <trkpt lat="69.66078" lon="18.94189">
        <ele>142.154749</ele>
        <time>2020-08-26T15:17:09.723Z</time>
      </trkpt>
      <trkpt lat="69.6607" lon="18.94217">
        <ele>142.528328</ele>
        <time>2020-08-26T15:17:12.724Z</time>
      </trkpt>
      <trkpt lat="69.66055" lon="18.94255">
        <ele>143.145365</ele>
        <time>2020-08-26T15:19:20.748Z</time>
      </trkpt>
      <trkpt lat="69.66048" lon="18.9428">
        <ele>143.482171</ele>
        <time>2020-08-26T15:19:24.724Z</time>
      </trkpt>
      <trkpt lat="69.66042" lon="18.94305">
        <ele>143.815867</ele>
        <time>2020-08-26T15:19:28.737Z</time>
      </trkpt>
      <trkpt lat="69.66035" lon="18.94329">
        <ele>144.136437</ele>
        <time>2020-08-26T15:19:32.744Z</time>
      </trkpt>
      <trkpt lat="69.6603" lon="18.94354">
        <ele>144.44782</ele>
        <time>2020-08-26T15:19:36.736Z</time>
      </trkpt>
      <trkpt lat="69.66026" lon="18.94381">
        <ele>144.759517</ele>
        <time>2020-08-26T15:19:40.713Z</time>
      </trkpt>
      <trkpt lat="69.66021" lon="18.94411">
        <ele>145.113492</ele>
        <time>2020-08-26T15:19:44.707Z</time>
      </trkpt>
      <trkpt lat="69.66017" lon="18.94443">
        <ele>145.472032</ele>
        <time>2020-08-26T15:19:48.756Z</time>
      </trkpt>
      <trkpt lat="69.66013" lon="18.94469">
        <ele>145.592379</ele>
        <time>2020-08-26T15:19:51.717Z</time>
      </trkpt>
      <trkpt lat="69.66011" lon="18.94501">
        <ele>145.670312</ele>
        <time>2020-08-26T15:19:55.760Z</time>
      </trkpt>
      <trkpt lat="69.6601" lon="18.94529">
        <ele>145.736973</ele>
        <time>2020-08-26T15:19:59.732Z</time>
      </trkpt>
      <trkpt lat="69.66008" lon="18.9456">
        <ele>145.81111</ele>
        <time>2020-08-26T15:20:03.785Z</time>
      </trkpt>
      <trkpt lat="69.66008" lon="18.94588">
        <ele>145.875982</ele>
        <time>2020-08-26T15:20:07.735Z</time>
      </trkpt>
      <trkpt lat="69.66007" lon="18.94615">
        <ele>145.941378</ele>
        <time>2020-08-26T15:20:12.737Z</time>
      </trkpt>
      <trkpt lat="69.66007" lon="18.94644">
        <ele>146.010565</ele>
        <time>2020-08-26T15:20:17.727Z</time>
      </trkpt>
      <trkpt lat="69.66014" lon="18.94669">
        <ele>146.087479</ele>
        <time>2020-08-26T15:20:22.726Z</time>
      </trkpt>
      <trkpt lat="69.66026" lon="18.94679">
        <ele>146.171247</ele>
        <time>2020-08-26T15:20:26.752Z</time>
      </trkpt>
      <trkpt lat="69.66036" lon="18.94686">
        <ele>146.240852</ele>
        <time>2020-08-26T15:20:28.721Z</time>
      </trkpt>
      <trkpt lat="69.66045" lon="18.94708">
        <ele>146.318558</ele>
        <time>2020-08-26T15:20:30.737Z</time>
      </trkpt>
      <trkpt lat="69.6605" lon="18.94732">
        <ele>146.385272</ele>
        <time>2020-08-26T15:20:32.716Z</time>
      </trkpt>
      <trkpt lat="69.66056" lon="18.9476">
        <ele>146.462297</ele>
        <time>2020-08-26T15:20:35.731Z</time>
      </trkpt>
      <trkpt lat="69.66062" lon="18.94782">
        <ele>146.52907</ele>
        <time>2020-08-26T15:20:38.735Z</time>
      </trkpt>
      <trkpt lat="69.66069" lon="18.94808">
        <ele>146.60817</ele>
        <time>2020-08-26T15:20:42.704Z</time>
      </trkpt>
      <trkpt lat="69.66075" lon="18.94832">
        <ele>146.67829</ele>
        <time>2020-08-26T15:20:46.720Z</time>
      </trkpt>
      <trkpt lat="69.6608" lon="18.94854">
        <ele>146.741714</ele>
        <time>2020-08-26T15:20:50.727Z</time>
      </trkpt>
      <trkpt lat="69.66086" lon="18.94877">
        <ele>147.45125</ele>
        <time>2020-08-26T15:20:55.764Z</time>
      </trkpt>
      <trkpt lat="69.66092" lon="18.94902">
        <ele>148.563739</ele>
        <time>2020-08-26T15:21:02.757Z</time>
      </trkpt>
      <trkpt lat="69.66097" lon="18.94924">
        <ele>149.534901</ele>
        <time>2020-08-26T15:21:08.736Z</time>
      </trkpt>
      <trkpt lat="69.66103" lon="18.94947">
        <ele>150.562218</ele>
        <time>2020-08-26T15:21:16.724Z</time>
      </trkpt>
      <trkpt lat="69.66109" lon="18.94969">
        <ele>151.618229</ele>
        <time>2020-08-26T15:21:25.738Z</time>
      </trkpt>
      <trkpt lat="69.66114" lon="18.94996">
        <ele>152.714507</ele>
        <time>2020-08-26T15:21:34.715Z</time>
      </trkpt>
      <trkpt lat="69.66119" lon="18.9502">
        <ele>153.782037</ele>
        <time>2020-08-26T15:21:41.723Z</time>
      </trkpt>
      <trkpt lat="69.66127" lon="18.95038">
        <ele>154.8378</ele>
        <time>2020-08-26T15:21:46.713Z</time>
      </trkpt>
      <trkpt lat="69.66134" lon="18.95053">
        <ele>155.799301</ele>
        <time>2020-08-26T15:21:53.720Z</time>
      </trkpt>
      <trkpt lat="69.66142" lon="18.9507">
        <ele>156.807079</ele>
        <time>2020-08-26T15:22:01.720Z</time>
      </trkpt>
      <trkpt lat="69.66149" lon="18.95089">
        <ele>157.858433</ele>
        <time>2020-08-26T15:22:08.741Z</time>
      </trkpt>
      <trkpt lat="69.66155" lon="18.95109">
        <ele>158.857284</ele>
        <time>2020-08-26T15:22:14.733Z</time>
      </trkpt>
      <trkpt lat="69.66163" lon="18.95128">
        <ele>159.935578</ele>
        <time>2020-08-26T15:22:23.759Z</time>
      </trkpt>
      <trkpt lat="69.6617" lon="18.95143">
        <ele>160.897767</ele>
        <time>2020-08-26T15:22:29.753Z</time>
      </trkpt>
      <trkpt lat="69.66177" lon="18.95162">
        <ele>161.88486</ele>
        <time>2020-08-26T15:22:35.721Z</time>
      </trkpt>
      <trkpt lat="69.66184" lon="18.95179">
        <ele>162.907005</ele>
        <time>2020-08-26T15:22:40.761Z</time>
      </trkpt>
      <trkpt lat="69.66192" lon="18.952">
        <ele>164.025836</ele>
        <time>2020-08-26T15:22:46.770Z</time>
      </trkpt>
      <trkpt lat="69.662" lon="18.9522">
        <ele>165.160121</ele>
        <time>2020-08-26T15:22:52.754Z</time>
      </trkpt>
      <trkpt lat="69.66207" lon="18.95236">
        <ele>165.825344</ele>
        <time>2020-08-26T15:22:57.747Z</time>
      </trkpt>
      <trkpt lat="69.66214" lon="18.95256">
        <ele>165.679734</ele>
        <time>2020-08-26T15:23:02.724Z</time>
      </trkpt>
      <trkpt lat="69.66221" lon="18.95275">
        <ele>165.530022</ele>
        <time>2020-08-26T15:23:07.730Z</time>
      </trkpt>
      <trkpt lat="69.66227" lon="18.95295">
        <ele>165.386856</ele>
        <time>2020-08-26T15:23:12.723Z</time>
      </trkpt>
      <trkpt lat="69.66234" lon="18.95318">
        <ele>165.222582</ele>
        <time>2020-08-26T15:23:17.726Z</time>
      </trkpt>
      <trkpt lat="69.66241" lon="18.95336">
        <ele>165.082774</ele>
        <time>2020-08-26T15:23:21.735Z</time>
      </trkpt>
      <trkpt lat="69.66247" lon="18.95363">
        <ele>164.913494</ele>
        <time>2020-08-26T15:23:26.721Z</time>
      </trkpt>
      <trkpt lat="69.66254" lon="18.95387">
        <ele>164.744128</ele>
        <time>2020-08-26T15:23:30.738Z</time>
      </trkpt>
      <trkpt lat="69.66263" lon="18.95407">
        <ele>164.565206</ele>
        <time>2020-08-26T15:23:34.712Z</time>
      </trkpt>
      <trkpt lat="69.66273" lon="18.95421">
        <ele>164.401428</ele>
        <time>2020-08-26T15:23:37.730Z</time>
      </trkpt>
      <trkpt lat="69.66286" lon="18.95434">
        <ele>164.195716</ele>
        <time>2020-08-26T15:23:40.745Z</time>
      </trkpt>
      <trkpt lat="69.66295" lon="18.95442">
        <ele>164.045467</ele>
        <time>2020-08-26T15:23:42.713Z</time>
      </trkpt>
      <trkpt lat="69.66306" lon="18.9545">
        <ele>163.878982</ele>
        <time>2020-08-26T15:23:45.742Z</time>
      </trkpt>
      <trkpt lat="69.66316" lon="18.95459">
        <ele>163.718062</ele>
        <time>2020-08-26T15:23:48.718Z</time>
      </trkpt>
      <trkpt lat="69.66328" lon="18.95469">
        <ele>163.527578</ele>
        <time>2020-08-26T15:23:51.737Z</time>
      </trkpt>
      <trkpt lat="69.66338" lon="18.95476">
        <ele>163.364596</ele>
        <time>2020-08-26T15:23:54.718Z</time>
      </trkpt>
      <trkpt lat="69.66349" lon="18.95485">
        <ele>163.19417</ele>
        <time>2020-08-26T15:23:57.724Z</time>
      </trkpt>
      <trkpt lat="69.66359" lon="18.95491">
        <ele>162.437469</ele>
        <time>2020-08-26T15:24:00.736Z</time>
      </trkpt>
      <trkpt lat="69.66369" lon="18.95497">
        <ele>160.910427</ele>
        <time>2020-08-26T15:24:03.721Z</time>
      </trkpt>
      <trkpt lat="69.66381" lon="18.95504">
        <ele>159.205031</ele>
        <time>2020-08-26T15:24:06.731Z</time>
      </trkpt>
      <trkpt lat="69.66392" lon="18.9551">
        <ele>157.532759</ele>
        <time>2020-08-26T15:24:09.746Z</time>
      </trkpt>
      <trkpt lat="69.66403" lon="18.95518">
        <ele>155.940157</ele>
        <time>2020-08-26T15:24:12.740Z</time>
      </trkpt>
      <trkpt lat="69.66414" lon="18.95525">
        <ele>154.282454</ele>
        <time>2020-08-26T15:24:15.755Z</time>
      </trkpt>
      <trkpt lat="69.66426" lon="18.95533">
        <ele>152.512384</ele>
        <time>2020-08-26T15:24:18.760Z</time>
      </trkpt>
      <trkpt lat="69.66435" lon="18.95542">
        <ele>151.166986</ele>
        <time>2020-08-26T15:24:21.744Z</time>
      </trkpt>
      <trkpt lat="69.66446" lon="18.95556">
        <ele>149.386647</ele>
        <time>2020-08-26T15:24:24.734Z</time>
      </trkpt>
      <trkpt lat="69.66455" lon="18.95562">
        <ele>148.047116</ele>
        <time>2020-08-26T15:24:26.762Z</time>
      </trkpt>
      <trkpt lat="69.66468" lon="18.95574">
        <ele>146.142396</ele>
        <time>2020-08-26T15:24:29.725Z</time>
      </trkpt>
      <trkpt lat="69.66477" lon="18.95586">
        <ele>144.710623</ele>
        <time>2020-08-26T15:24:31.777Z</time>
      </trkpt>
      <trkpt lat="69.66485" lon="18.95595">
        <ele>143.407591</ele>
        <time>2020-08-26T15:24:33.756Z</time>
      </trkpt>
      <trkpt lat="69.66494" lon="18.95604">
        <ele>142.101101</ele>
        <time>2020-08-26T15:24:35.730Z</time>
      </trkpt>
      <trkpt lat="69.66504" lon="18.95616">
        <ele>140.58595</ele>
        <time>2020-08-26T15:24:37.762Z</time>
      </trkpt>
      <trkpt lat="69.66514" lon="18.95626">
        <ele>139.042301</ele>
        <time>2020-08-26T15:24:39.723Z</time>
      </trkpt>
      <trkpt lat="69.66523" lon="18.95635">
        <ele>137.601496</ele>
        <time>2020-08-26T15:24:41.744Z</time>
      </trkpt>
      <trkpt lat="69.66533" lon="18.95642">
        <ele>137.195066</ele>
        <time>2020-08-26T15:24:43.741Z</time>
      </trkpt>
      <trkpt lat="69.66543" lon="18.9565">
        <ele>137.195066</ele>
        <time>2020-08-26T15:24:45.742Z</time>
      </trkpt>
      <trkpt lat="69.66552" lon="18.95657">
        <ele>137.195066</ele>
        <time>2020-08-26T15:24:47.723Z</time>
      </trkpt>
      <trkpt lat="69.66562" lon="18.9568">
        <ele>137.195066</ele>
        <time>2020-08-26T15:24:50.709Z</time>
      </trkpt>
      <trkpt lat="69.66563" lon="18.95715">
        <ele>137.195066</ele>
        <time>2020-08-26T15:24:53.759Z</time>
      </trkpt>
      <trkpt lat="69.6656" lon="18.95749">
        <ele>137.195066</ele>
        <time>2020-08-26T15:24:56.727Z</time>
      </trkpt>
      <trkpt lat="69.66558" lon="18.95783">
        <ele>137.195066</ele>
        <time>2020-08-26T15:24:59.769Z</time>
      </trkpt>
      <trkpt lat="69.66557" lon="18.95811">
        <ele>137.195066</ele>
        <time>2020-08-26T15:25:02.755Z</time>
      </trkpt>
      <trkpt lat="69.66554" lon="18.95841">
        <ele>137.195066</ele>
        <time>2020-08-26T15:25:05.748Z</time>
      </trkpt>
      <trkpt lat="69.66549" lon="18.95876">
        <ele>137.195066</ele>
        <time>2020-08-26T15:25:08.751Z</time>
      </trkpt>
      <trkpt lat="69.6654" lon="18.95893">
        <ele>137.195066</ele>
        <time>2020-08-26T15:25:10.708Z</time>
      </trkpt>
      <trkpt lat="69.6653" lon="18.9589">
        <ele>137.195066</ele>
        <time>2020-08-26T15:25:12.729Z</time>
      </trkpt>
      <trkpt lat="69.66519" lon="18.95877">
        <ele>137.195066</ele>
        <time>2020-08-26T15:25:15.779Z</time>
      </trkpt>
      <trkpt lat="69.66509" lon="18.95867">
        <ele>137.195066</ele>
        <time>2020-08-26T15:25:19.736Z</time>
      </trkpt>
      <trkpt lat="69.66499" lon="18.95862">
        <ele>137.195066</ele>
        <time>2020-08-26T15:25:23.768Z</time>
      </trkpt>
      <trkpt lat="69.6649" lon="18.95852">
        <ele>137.195066</ele>
        <time>2020-08-26T15:25:28.715Z</time>
      </trkpt>
      <trkpt lat="69.66481" lon="18.95855">
        <ele>137.195066</ele>
        <time>2020-08-26T15:25:33.716Z</time>
      </trkpt>
      <trkpt lat="69.66478" lon="18.95858">
        <ele>137.195066</ele>
        <time>2020-08-26T15:26:16.016Z</time>
      </trkpt>
    </trkseg>
  </trk>
</gpx>